<?xml version="1.0" encoding="UTF-8" standalone="no" ?>
<gpx xmlns="http://www.topografix.com/GPX/1/1" xmlns:xsi="http://www.w3.org/2001/XMLSchema-instance" xsi:schemaLocation="http://www.topografix.com/GPX/1/1 http://www.topografix.com/GPX/1/1/gpx.xsd" version="1.1" creator="VisuGPX - https://www.visugpx.com">
  <metadata>
    <name>Sens - Saligny - Soucy</name>
    <desc><![CDATA[Parcours roulant au début, puis quelques belles portions dans les bois de Saligny et Soucy]]></desc>
  </metadata>
  <trk>
    <name><![CDATA[15/04/2012 10:36]]></name>
    <desc><![CDATA[]]></desc>
    <trkseg>
      <trkpt lat="48.20232" lon="3.28064">
        <ele>68</ele>
        <time>2012-04-15T08:39:02.856Z</time>
      </trkpt>
      <trkpt lat="48.20232" lon="3.28064">
        <ele>68</ele>
        <time>2012-04-15T08:39:02.856Z</time>
      </trkpt>
      <trkpt lat="48.20232" lon="3.28064">
        <ele>68</ele>
        <time>2012-04-15T08:39:03.856Z</time>
      </trkpt>
      <trkpt lat="48.20249" lon="3.28071">
        <ele>67</ele>
        <time>2012-04-15T08:39:07.856Z</time>
      </trkpt>
      <trkpt lat="48.20249" lon="3.28071">
        <ele>67</ele>
        <time>2012-04-15T08:39:07.856Z</time>
      </trkpt>
      <trkpt lat="48.20249" lon="3.28071">
        <ele>67</ele>
        <time>2012-04-15T08:39:09.856Z</time>
      </trkpt>
      <trkpt lat="48.20264" lon="3.28077">
        <ele>67</ele>
        <time>2012-04-15T08:39:11.852Z</time>
      </trkpt>
      <trkpt lat="48.20264" lon="3.28077">
        <ele>67</ele>
        <time>2012-04-15T08:39:11.852Z</time>
      </trkpt>
      <trkpt lat="48.20264" lon="3.28077">
        <ele>67</ele>
        <time>2012-04-15T08:39:14.000Z</time>
      </trkpt>
      <trkpt lat="48.20274" lon="3.28081">
        <ele>67</ele>
        <time>2012-04-15T08:39:15.000Z</time>
      </trkpt>
      <trkpt lat="48.20274" lon="3.28081">
        <ele>67</ele>
        <time>2012-04-15T08:39:15.000Z</time>
      </trkpt>
      <trkpt lat="48.20274" lon="3.28081">
        <ele>67</ele>
        <time>2012-04-15T08:39:19.000Z</time>
      </trkpt>
      <trkpt lat="48.20282" lon="3.28092">
        <ele>67</ele>
        <time>2012-04-15T08:39:20.000Z</time>
      </trkpt>
      <trkpt lat="48.20282" lon="3.28092">
        <ele>67</ele>
        <time>2012-04-15T08:39:20.000Z</time>
      </trkpt>
      <trkpt lat="48.20282" lon="3.28092">
        <ele>67</ele>
        <time>2012-04-15T08:39:31.000Z</time>
      </trkpt>
      <trkpt lat="48.20276" lon="3.2809">
        <ele>67</ele>
        <time>2012-04-15T08:39:41.000Z</time>
      </trkpt>
      <trkpt lat="48.20276" lon="3.2809">
        <ele>67</ele>
        <time>2012-04-15T08:39:41.000Z</time>
      </trkpt>
      <trkpt lat="48.20276" lon="3.2809">
        <ele>67</ele>
        <time>2012-04-15T08:39:42.000Z</time>
      </trkpt>
      <trkpt lat="48.20271" lon="3.28088">
        <ele>67</ele>
        <time>2012-04-15T08:39:48.000Z</time>
      </trkpt>
      <trkpt lat="48.20271" lon="3.28088">
        <ele>67</ele>
        <time>2012-04-15T08:39:48.000Z</time>
      </trkpt>
      <trkpt lat="48.20271" lon="3.28088">
        <ele>67</ele>
        <time>2012-04-15T08:39:49.000Z</time>
      </trkpt>
      <trkpt lat="48.20266" lon="3.28084">
        <ele>67</ele>
        <time>2012-04-15T08:39:58.000Z</time>
      </trkpt>
      <trkpt lat="48.20265" lon="3.28075">
        <ele>67</ele>
        <time>2012-04-15T08:40:03.000Z</time>
      </trkpt>
      <trkpt lat="48.20263" lon="3.28068">
        <ele>67</ele>
        <time>2012-04-15T08:40:07.000Z</time>
      </trkpt>
      <trkpt lat="48.20264" lon="3.2806">
        <ele>67</ele>
        <time>2012-04-15T08:40:45.000Z</time>
      </trkpt>
      <trkpt lat="48.20269" lon="3.28056">
        <ele>67</ele>
        <time>2012-04-15T08:40:49.000Z</time>
      </trkpt>
      <trkpt lat="48.20273" lon="3.28051">
        <ele>67</ele>
        <time>2012-04-15T08:40:52.000Z</time>
      </trkpt>
      <trkpt lat="48.20278" lon="3.28045">
        <ele>67</ele>
        <time>2012-04-15T08:40:55.000Z</time>
      </trkpt>
      <trkpt lat="48.20282" lon="3.28038">
        <ele>67</ele>
        <time>2012-04-15T08:40:57.000Z</time>
      </trkpt>
      <trkpt lat="48.20287" lon="3.28032">
        <ele>67</ele>
        <time>2012-04-15T08:40:59.000Z</time>
      </trkpt>
      <trkpt lat="48.20291" lon="3.28028">
        <ele>67</ele>
        <time>2012-04-15T08:41:01.000Z</time>
      </trkpt>
      <trkpt lat="48.20296" lon="3.28021">
        <ele>66</ele>
        <time>2012-04-15T08:41:03.000Z</time>
      </trkpt>
      <trkpt lat="48.20302" lon="3.28015">
        <ele>66</ele>
        <time>2012-04-15T08:41:05.000Z</time>
      </trkpt>
      <trkpt lat="48.20307" lon="3.28008">
        <ele>66</ele>
        <time>2012-04-15T08:41:07.000Z</time>
      </trkpt>
      <trkpt lat="48.20312" lon="3.28002">
        <ele>66</ele>
        <time>2012-04-15T08:41:09.000Z</time>
      </trkpt>
      <trkpt lat="48.20317" lon="3.27996">
        <ele>66</ele>
        <time>2012-04-15T08:41:11.000Z</time>
      </trkpt>
      <trkpt lat="48.20322" lon="3.27989">
        <ele>66</ele>
        <time>2012-04-15T08:41:13.000Z</time>
      </trkpt>
      <trkpt lat="48.20328" lon="3.27983">
        <ele>66</ele>
        <time>2012-04-15T08:41:15.000Z</time>
      </trkpt>
      <trkpt lat="48.20334" lon="3.27976">
        <ele>66</ele>
        <time>2012-04-15T08:41:17.000Z</time>
      </trkpt>
      <trkpt lat="48.2034" lon="3.2797">
        <ele>67</ele>
        <time>2012-04-15T08:41:19.000Z</time>
      </trkpt>
      <trkpt lat="48.20347" lon="3.27963">
        <ele>67</ele>
        <time>2012-04-15T08:41:21.000Z</time>
      </trkpt>
      <trkpt lat="48.20353" lon="3.27957">
        <ele>67</ele>
        <time>2012-04-15T08:41:23.000Z</time>
      </trkpt>
      <trkpt lat="48.20361" lon="3.2795">
        <ele>67</ele>
        <time>2012-04-15T08:41:25.000Z</time>
      </trkpt>
      <trkpt lat="48.20367" lon="3.27944">
        <ele>67</ele>
        <time>2012-04-15T08:41:27.000Z</time>
      </trkpt>
      <trkpt lat="48.20374" lon="3.27938">
        <ele>67</ele>
        <time>2012-04-15T08:41:29.000Z</time>
      </trkpt>
      <trkpt lat="48.2038" lon="3.27929">
        <ele>67</ele>
        <time>2012-04-15T08:41:31.000Z</time>
      </trkpt>
      <trkpt lat="48.20387" lon="3.27922">
        <ele>67</ele>
        <time>2012-04-15T08:41:33.000Z</time>
      </trkpt>
      <trkpt lat="48.20392" lon="3.27916">
        <ele>67</ele>
        <time>2012-04-15T08:41:35.000Z</time>
      </trkpt>
      <trkpt lat="48.20397" lon="3.2791">
        <ele>67</ele>
        <time>2012-04-15T08:41:37.000Z</time>
      </trkpt>
      <trkpt lat="48.20404" lon="3.27903">
        <ele>67</ele>
        <time>2012-04-15T08:41:39.000Z</time>
      </trkpt>
      <trkpt lat="48.20409" lon="3.27895">
        <ele>67</ele>
        <time>2012-04-15T08:41:41.000Z</time>
      </trkpt>
      <trkpt lat="48.20414" lon="3.27888">
        <ele>67</ele>
        <time>2012-04-15T08:41:43.000Z</time>
      </trkpt>
      <trkpt lat="48.20421" lon="3.27882">
        <ele>66</ele>
        <time>2012-04-15T08:41:45.000Z</time>
      </trkpt>
      <trkpt lat="48.20427" lon="3.27873">
        <ele>65</ele>
        <time>2012-04-15T08:41:47.000Z</time>
      </trkpt>
      <trkpt lat="48.20434" lon="3.27867">
        <ele>65</ele>
        <time>2012-04-15T08:41:49.000Z</time>
      </trkpt>
      <trkpt lat="48.20439" lon="3.2786">
        <ele>65</ele>
        <time>2012-04-15T08:41:51.000Z</time>
      </trkpt>
      <trkpt lat="48.20446" lon="3.27854">
        <ele>65</ele>
        <time>2012-04-15T08:41:53.000Z</time>
      </trkpt>
      <trkpt lat="48.20451" lon="3.2785">
        <ele>65</ele>
        <time>2012-04-15T08:41:55.000Z</time>
      </trkpt>
      <trkpt lat="48.20456" lon="3.27843">
        <ele>65</ele>
        <time>2012-04-15T08:41:57.000Z</time>
      </trkpt>
      <trkpt lat="48.20462" lon="3.27839">
        <ele>65</ele>
        <time>2012-04-15T08:41:59.000Z</time>
      </trkpt>
      <trkpt lat="48.20467" lon="3.27832">
        <ele>65</ele>
        <time>2012-04-15T08:42:01.000Z</time>
      </trkpt>
      <trkpt lat="48.2047" lon="3.27826">
        <ele>65</ele>
        <time>2012-04-15T08:42:03.000Z</time>
      </trkpt>
      <trkpt lat="48.20476" lon="3.2782">
        <ele>64</ele>
        <time>2012-04-15T08:42:05.000Z</time>
      </trkpt>
      <trkpt lat="48.20481" lon="3.27813">
        <ele>64</ele>
        <time>2012-04-15T08:42:07.000Z</time>
      </trkpt>
      <trkpt lat="48.20488" lon="3.27809">
        <ele>64</ele>
        <time>2012-04-15T08:42:09.000Z</time>
      </trkpt>
      <trkpt lat="48.20495" lon="3.27804">
        <ele>64</ele>
        <time>2012-04-15T08:42:11.000Z</time>
      </trkpt>
      <trkpt lat="48.20502" lon="3.27807">
        <ele>64</ele>
        <time>2012-04-15T08:42:13.000Z</time>
      </trkpt>
      <trkpt lat="48.20509" lon="3.27811">
        <ele>64</ele>
        <time>2012-04-15T08:42:15.000Z</time>
      </trkpt>
      <trkpt lat="48.20513" lon="3.27813">
        <ele>64</ele>
        <time>2012-04-15T08:42:16.000Z</time>
      </trkpt>
      <trkpt lat="48.2052" lon="3.27813">
        <ele>64</ele>
        <time>2012-04-15T08:42:18.000Z</time>
      </trkpt>
      <trkpt lat="48.20524" lon="3.27811">
        <ele>65</ele>
        <time>2012-04-15T08:42:19.000Z</time>
      </trkpt>
      <trkpt lat="48.2053" lon="3.27802">
        <ele>65</ele>
        <time>2012-04-15T08:42:21.000Z</time>
      </trkpt>
      <trkpt lat="48.20537" lon="3.27794">
        <ele>65</ele>
        <time>2012-04-15T08:42:23.000Z</time>
      </trkpt>
      <trkpt lat="48.20543" lon="3.27787">
        <ele>65</ele>
        <time>2012-04-15T08:42:25.000Z</time>
      </trkpt>
      <trkpt lat="48.20548" lon="3.27785">
        <ele>65</ele>
        <time>2012-04-15T08:42:26.000Z</time>
      </trkpt>
      <trkpt lat="48.20555" lon="3.27785">
        <ele>65</ele>
        <time>2012-04-15T08:42:28.000Z</time>
      </trkpt>
      <trkpt lat="48.20559" lon="3.27783">
        <ele>65</ele>
        <time>2012-04-15T08:42:29.000Z</time>
      </trkpt>
      <trkpt lat="48.20568" lon="3.27781">
        <ele>65</ele>
        <time>2012-04-15T08:42:31.000Z</time>
      </trkpt>
      <trkpt lat="48.20575" lon="3.27779">
        <ele>65</ele>
        <time>2012-04-15T08:42:33.000Z</time>
      </trkpt>
      <trkpt lat="48.20583" lon="3.27777">
        <ele>65</ele>
        <time>2012-04-15T08:42:35.000Z</time>
      </trkpt>
      <trkpt lat="48.20589" lon="3.27774">
        <ele>66</ele>
        <time>2012-04-15T08:42:37.000Z</time>
      </trkpt>
      <trkpt lat="48.20597" lon="3.27772">
        <ele>66</ele>
        <time>2012-04-15T08:42:39.000Z</time>
      </trkpt>
      <trkpt lat="48.20603" lon="3.2777">
        <ele>66</ele>
        <time>2012-04-15T08:42:41.000Z</time>
      </trkpt>
      <trkpt lat="48.20611" lon="3.27768">
        <ele>65</ele>
        <time>2012-04-15T08:42:43.000Z</time>
      </trkpt>
      <trkpt lat="48.20618" lon="3.27766">
        <ele>65</ele>
        <time>2012-04-15T08:42:45.000Z</time>
      </trkpt>
      <trkpt lat="48.20626" lon="3.27764">
        <ele>65</ele>
        <time>2012-04-15T08:42:47.000Z</time>
      </trkpt>
      <trkpt lat="48.2063" lon="3.27762">
        <ele>65</ele>
        <time>2012-04-15T08:42:48.000Z</time>
      </trkpt>
      <trkpt lat="48.20634" lon="3.2776">
        <ele>66</ele>
        <time>2012-04-15T08:42:49.000Z</time>
      </trkpt>
      <trkpt lat="48.20642" lon="3.27757">
        <ele>66</ele>
        <time>2012-04-15T08:42:51.000Z</time>
      </trkpt>
      <trkpt lat="48.20646" lon="3.27755">
        <ele>66</ele>
        <time>2012-04-15T08:42:52.000Z</time>
      </trkpt>
      <trkpt lat="48.20654" lon="3.27753">
        <ele>66</ele>
        <time>2012-04-15T08:42:54.000Z</time>
      </trkpt>
      <trkpt lat="48.20658" lon="3.27751">
        <ele>66</ele>
        <time>2012-04-15T08:42:55.000Z</time>
      </trkpt>
      <trkpt lat="48.20667" lon="3.27749">
        <ele>66</ele>
        <time>2012-04-15T08:42:57.000Z</time>
      </trkpt>
      <trkpt lat="48.20671" lon="3.27747">
        <ele>66</ele>
        <time>2012-04-15T08:42:58.000Z</time>
      </trkpt>
      <trkpt lat="48.20678" lon="3.27744">
        <ele>65</ele>
        <time>2012-04-15T08:43:00.000Z</time>
      </trkpt>
      <trkpt lat="48.20686" lon="3.27742">
        <ele>65</ele>
        <time>2012-04-15T08:43:02.000Z</time>
      </trkpt>
      <trkpt lat="48.20693" lon="3.2774">
        <ele>65</ele>
        <time>2012-04-15T08:43:04.000Z</time>
      </trkpt>
      <trkpt lat="48.20701" lon="3.27738">
        <ele>64</ele>
        <time>2012-04-15T08:43:06.000Z</time>
      </trkpt>
      <trkpt lat="48.20708" lon="3.27736">
        <ele>64</ele>
        <time>2012-04-15T08:43:08.000Z</time>
      </trkpt>
      <trkpt lat="48.20716" lon="3.27734">
        <ele>64</ele>
        <time>2012-04-15T08:43:10.000Z</time>
      </trkpt>
      <trkpt lat="48.20724" lon="3.27732">
        <ele>64</ele>
        <time>2012-04-15T08:43:12.000Z</time>
      </trkpt>
      <trkpt lat="48.20731" lon="3.27729">
        <ele>64</ele>
        <time>2012-04-15T08:43:14.000Z</time>
      </trkpt>
      <trkpt lat="48.20737" lon="3.27727">
        <ele>63</ele>
        <time>2012-04-15T08:43:16.000Z</time>
      </trkpt>
      <trkpt lat="48.20745" lon="3.27725">
        <ele>63</ele>
        <time>2012-04-15T08:43:18.000Z</time>
      </trkpt>
      <trkpt lat="48.20751" lon="3.27723">
        <ele>63</ele>
        <time>2012-04-15T08:43:20.000Z</time>
      </trkpt>
      <trkpt lat="48.20758" lon="3.27723">
        <ele>63</ele>
        <time>2012-04-15T08:43:22.000Z</time>
      </trkpt>
      <trkpt lat="48.20765" lon="3.27721">
        <ele>63</ele>
        <time>2012-04-15T08:43:24.000Z</time>
      </trkpt>
      <trkpt lat="48.20772" lon="3.27719">
        <ele>64</ele>
        <time>2012-04-15T08:43:26.000Z</time>
      </trkpt>
      <trkpt lat="48.20779" lon="3.27716">
        <ele>64</ele>
        <time>2012-04-15T08:43:28.000Z</time>
      </trkpt>
      <trkpt lat="48.20787" lon="3.27714">
        <ele>64</ele>
        <time>2012-04-15T08:43:30.000Z</time>
      </trkpt>
      <trkpt lat="48.20791" lon="3.27712">
        <ele>64</ele>
        <time>2012-04-15T08:43:31.000Z</time>
      </trkpt>
      <trkpt lat="48.208" lon="3.2771">
        <ele>64</ele>
        <time>2012-04-15T08:43:33.000Z</time>
      </trkpt>
      <trkpt lat="48.20804" lon="3.27712">
        <ele>64</ele>
        <time>2012-04-15T08:43:34.000Z</time>
      </trkpt>
      <trkpt lat="48.20809" lon="3.27712">
        <ele>64</ele>
        <time>2012-04-15T08:43:35.000Z</time>
      </trkpt>
      <trkpt lat="48.20816" lon="3.27719">
        <ele>64</ele>
        <time>2012-04-15T08:43:37.000Z</time>
      </trkpt>
      <trkpt lat="48.20822" lon="3.27727">
        <ele>65</ele>
        <time>2012-04-15T08:43:39.000Z</time>
      </trkpt>
      <trkpt lat="48.20826" lon="3.27736">
        <ele>65</ele>
        <time>2012-04-15T08:43:41.000Z</time>
      </trkpt>
      <trkpt lat="48.20829" lon="3.27742">
        <ele>65</ele>
        <time>2012-04-15T08:43:42.000Z</time>
      </trkpt>
      <trkpt lat="48.20831" lon="3.27753">
        <ele>66</ele>
        <time>2012-04-15T08:43:44.000Z</time>
      </trkpt>
      <trkpt lat="48.20835" lon="3.27762">
        <ele>66</ele>
        <time>2012-04-15T08:43:46.000Z</time>
      </trkpt>
      <trkpt lat="48.20838" lon="3.27772">
        <ele>66</ele>
        <time>2012-04-15T08:43:48.000Z</time>
      </trkpt>
      <trkpt lat="48.20842" lon="3.27783">
        <ele>66</ele>
        <time>2012-04-15T08:43:50.000Z</time>
      </trkpt>
      <trkpt lat="48.20844" lon="3.27796">
        <ele>66</ele>
        <time>2012-04-15T08:43:52.000Z</time>
      </trkpt>
      <trkpt lat="48.20847" lon="3.27807">
        <ele>66</ele>
        <time>2012-04-15T08:43:54.000Z</time>
      </trkpt>
      <trkpt lat="48.20849" lon="3.27817">
        <ele>66</ele>
        <time>2012-04-15T08:43:56.000Z</time>
      </trkpt>
      <trkpt lat="48.20851" lon="3.27824">
        <ele>66</ele>
        <time>2012-04-15T08:43:57.000Z</time>
      </trkpt>
      <trkpt lat="48.20854" lon="3.27835">
        <ele>66</ele>
        <time>2012-04-15T08:43:59.000Z</time>
      </trkpt>
      <trkpt lat="48.20856" lon="3.27847">
        <ele>66</ele>
        <time>2012-04-15T08:44:01.000Z</time>
      </trkpt>
      <trkpt lat="48.20859" lon="3.27858">
        <ele>66</ele>
        <time>2012-04-15T08:44:03.000Z</time>
      </trkpt>
      <trkpt lat="48.20861" lon="3.27871">
        <ele>66</ele>
        <time>2012-04-15T08:44:05.000Z</time>
      </trkpt>
      <trkpt lat="48.20862" lon="3.27878">
        <ele>65</ele>
        <time>2012-04-15T08:44:06.000Z</time>
      </trkpt>
      <trkpt lat="48.20864" lon="3.2789">
        <ele>65</ele>
        <time>2012-04-15T08:44:08.000Z</time>
      </trkpt>
      <trkpt lat="48.20865" lon="3.27897">
        <ele>65</ele>
        <time>2012-04-15T08:44:09.000Z</time>
      </trkpt>
      <trkpt lat="48.20867" lon="3.2791">
        <ele>65</ele>
        <time>2012-04-15T08:44:11.000Z</time>
      </trkpt>
      <trkpt lat="48.20869" lon="3.27922">
        <ele>65</ele>
        <time>2012-04-15T08:44:13.000Z</time>
      </trkpt>
      <trkpt lat="48.2087" lon="3.27929">
        <ele>65</ele>
        <time>2012-04-15T08:44:14.000Z</time>
      </trkpt>
      <trkpt lat="48.20873" lon="3.27942">
        <ele>65</ele>
        <time>2012-04-15T08:44:16.000Z</time>
      </trkpt>
      <trkpt lat="48.20874" lon="3.27948">
        <ele>65</ele>
        <time>2012-04-15T08:44:17.000Z</time>
      </trkpt>
      <trkpt lat="48.20876" lon="3.27959">
        <ele>65</ele>
        <time>2012-04-15T08:44:19.000Z</time>
      </trkpt>
      <trkpt lat="48.20878" lon="3.27972">
        <ele>65</ele>
        <time>2012-04-15T08:44:21.000Z</time>
      </trkpt>
      <trkpt lat="48.2088" lon="3.27983">
        <ele>65</ele>
        <time>2012-04-15T08:44:23.000Z</time>
      </trkpt>
      <trkpt lat="48.20882" lon="3.27996">
        <ele>65</ele>
        <time>2012-04-15T08:44:25.000Z</time>
      </trkpt>
      <trkpt lat="48.20884" lon="3.28008">
        <ele>66</ele>
        <time>2012-04-15T08:44:27.000Z</time>
      </trkpt>
      <trkpt lat="48.20887" lon="3.28019">
        <ele>66</ele>
        <time>2012-04-15T08:44:29.000Z</time>
      </trkpt>
      <trkpt lat="48.20888" lon="3.28032">
        <ele>66</ele>
        <time>2012-04-15T08:44:31.000Z</time>
      </trkpt>
      <trkpt lat="48.2089" lon="3.28043">
        <ele>66</ele>
        <time>2012-04-15T08:44:33.000Z</time>
      </trkpt>
      <trkpt lat="48.20891" lon="3.28051">
        <ele>66</ele>
        <time>2012-04-15T08:44:35.000Z</time>
      </trkpt>
      <trkpt lat="48.20891" lon="3.2806">
        <ele>66</ele>
        <time>2012-04-15T08:44:37.000Z</time>
      </trkpt>
      <trkpt lat="48.20892" lon="3.28068">
        <ele>66</ele>
        <time>2012-04-15T08:44:39.000Z</time>
      </trkpt>
      <trkpt lat="48.20893" lon="3.28075">
        <ele>66</ele>
        <time>2012-04-15T08:44:40.000Z</time>
      </trkpt>
      <trkpt lat="48.20894" lon="3.28088">
        <ele>67</ele>
        <time>2012-04-15T08:44:42.000Z</time>
      </trkpt>
      <trkpt lat="48.20895" lon="3.28098">
        <ele>67</ele>
        <time>2012-04-15T08:44:45.000Z</time>
      </trkpt>
      <trkpt lat="48.20897" lon="3.28109">
        <ele>67</ele>
        <time>2012-04-15T08:44:47.000Z</time>
      </trkpt>
      <trkpt lat="48.20899" lon="3.2812">
        <ele>67</ele>
        <time>2012-04-15T08:44:49.000Z</time>
      </trkpt>
      <trkpt lat="48.209" lon="3.28126">
        <ele>67</ele>
        <time>2012-04-15T08:44:50.000Z</time>
      </trkpt>
      <trkpt lat="48.20903" lon="3.28137">
        <ele>67</ele>
        <time>2012-04-15T08:44:52.000Z</time>
      </trkpt>
      <trkpt lat="48.20905" lon="3.2815">
        <ele>67</ele>
        <time>2012-04-15T08:44:54.000Z</time>
      </trkpt>
      <trkpt lat="48.20907" lon="3.28156">
        <ele>67</ele>
        <time>2012-04-15T08:44:55.000Z</time>
      </trkpt>
      <trkpt lat="48.20908" lon="3.28163">
        <ele>67</ele>
        <time>2012-04-15T08:44:56.000Z</time>
      </trkpt>
      <trkpt lat="48.2091" lon="3.28176">
        <ele>67</ele>
        <time>2012-04-15T08:44:58.000Z</time>
      </trkpt>
      <trkpt lat="48.20912" lon="3.28189">
        <ele>68</ele>
        <time>2012-04-15T08:45:00.000Z</time>
      </trkpt>
      <trkpt lat="48.20914" lon="3.28202">
        <ele>68</ele>
        <time>2012-04-15T08:45:02.000Z</time>
      </trkpt>
      <trkpt lat="48.20916" lon="3.28216">
        <ele>68</ele>
        <time>2012-04-15T08:45:04.000Z</time>
      </trkpt>
      <trkpt lat="48.20917" lon="3.28229">
        <ele>66</ele>
        <time>2012-04-15T08:45:06.000Z</time>
      </trkpt>
      <trkpt lat="48.20919" lon="3.28242">
        <ele>66</ele>
        <time>2012-04-15T08:45:08.000Z</time>
      </trkpt>
      <trkpt lat="48.2092" lon="3.28255">
        <ele>66</ele>
        <time>2012-04-15T08:45:10.000Z</time>
      </trkpt>
      <trkpt lat="48.20921" lon="3.28262">
        <ele>66</ele>
        <time>2012-04-15T08:45:11.000Z</time>
      </trkpt>
      <trkpt lat="48.20922" lon="3.28277">
        <ele>65</ele>
        <time>2012-04-15T08:45:13.000Z</time>
      </trkpt>
      <trkpt lat="48.20922" lon="3.2829">
        <ele>65</ele>
        <time>2012-04-15T08:45:15.000Z</time>
      </trkpt>
      <trkpt lat="48.20923" lon="3.283">
        <ele>65</ele>
        <time>2012-04-15T08:45:17.000Z</time>
      </trkpt>
      <trkpt lat="48.20922" lon="3.28313">
        <ele>65</ele>
        <time>2012-04-15T08:45:19.000Z</time>
      </trkpt>
      <trkpt lat="48.20922" lon="3.28326">
        <ele>66</ele>
        <time>2012-04-15T08:45:21.000Z</time>
      </trkpt>
      <trkpt lat="48.20921" lon="3.28339">
        <ele>66</ele>
        <time>2012-04-15T08:45:23.000Z</time>
      </trkpt>
      <trkpt lat="48.2092" lon="3.28352">
        <ele>66</ele>
        <time>2012-04-15T08:45:25.000Z</time>
      </trkpt>
      <trkpt lat="48.20919" lon="3.28365">
        <ele>66</ele>
        <time>2012-04-15T08:45:27.000Z</time>
      </trkpt>
      <trkpt lat="48.20918" lon="3.28375">
        <ele>66</ele>
        <time>2012-04-15T08:45:29.000Z</time>
      </trkpt>
      <trkpt lat="48.20917" lon="3.28388">
        <ele>67</ele>
        <time>2012-04-15T08:45:31.000Z</time>
      </trkpt>
      <trkpt lat="48.20916" lon="3.28401">
        <ele>67</ele>
        <time>2012-04-15T08:45:33.000Z</time>
      </trkpt>
      <trkpt lat="48.20914" lon="3.28412">
        <ele>67</ele>
        <time>2012-04-15T08:45:35.000Z</time>
      </trkpt>
      <trkpt lat="48.20913" lon="3.28425">
        <ele>67</ele>
        <time>2012-04-15T08:45:37.000Z</time>
      </trkpt>
      <trkpt lat="48.20911" lon="3.28438">
        <ele>67</ele>
        <time>2012-04-15T08:45:39.000Z</time>
      </trkpt>
      <trkpt lat="48.2091" lon="3.2845">
        <ele>66</ele>
        <time>2012-04-15T08:45:41.000Z</time>
      </trkpt>
      <trkpt lat="48.20909" lon="3.28461">
        <ele>66</ele>
        <time>2012-04-15T08:45:43.000Z</time>
      </trkpt>
      <trkpt lat="48.20908" lon="3.28474">
        <ele>66</ele>
        <time>2012-04-15T08:45:45.000Z</time>
      </trkpt>
      <trkpt lat="48.20907" lon="3.28487">
        <ele>66</ele>
        <time>2012-04-15T08:45:47.000Z</time>
      </trkpt>
      <trkpt lat="48.20905" lon="3.285">
        <ele>66</ele>
        <time>2012-04-15T08:45:49.000Z</time>
      </trkpt>
      <trkpt lat="48.20904" lon="3.28513">
        <ele>66</ele>
        <time>2012-04-15T08:45:51.000Z</time>
      </trkpt>
      <trkpt lat="48.20902" lon="3.28523">
        <ele>66</ele>
        <time>2012-04-15T08:45:53.000Z</time>
      </trkpt>
      <trkpt lat="48.209" lon="3.28536">
        <ele>67</ele>
        <time>2012-04-15T08:45:55.000Z</time>
      </trkpt>
      <trkpt lat="48.20898" lon="3.28547">
        <ele>67</ele>
        <time>2012-04-15T08:45:57.000Z</time>
      </trkpt>
      <trkpt lat="48.20895" lon="3.28553">
        <ele>67</ele>
        <time>2012-04-15T08:45:59.000Z</time>
      </trkpt>
      <trkpt lat="48.20894" lon="3.28562">
        <ele>67</ele>
        <time>2012-04-15T08:46:01.000Z</time>
      </trkpt>
      <trkpt lat="48.20895" lon="3.28573">
        <ele>67</ele>
        <time>2012-04-15T08:46:03.000Z</time>
      </trkpt>
      <trkpt lat="48.20894" lon="3.28583">
        <ele>67</ele>
        <time>2012-04-15T08:46:05.000Z</time>
      </trkpt>
      <trkpt lat="48.20892" lon="3.28594">
        <ele>68</ele>
        <time>2012-04-15T08:46:07.000Z</time>
      </trkpt>
      <trkpt lat="48.2089" lon="3.28605">
        <ele>68</ele>
        <time>2012-04-15T08:46:09.000Z</time>
      </trkpt>
      <trkpt lat="48.20888" lon="3.28616">
        <ele>68</ele>
        <time>2012-04-15T08:46:11.000Z</time>
      </trkpt>
      <trkpt lat="48.20886" lon="3.28624">
        <ele>68</ele>
        <time>2012-04-15T08:46:13.000Z</time>
      </trkpt>
      <trkpt lat="48.20884" lon="3.28633">
        <ele>68</ele>
        <time>2012-04-15T08:46:15.000Z</time>
      </trkpt>
      <trkpt lat="48.20882" lon="3.28641">
        <ele>68</ele>
        <time>2012-04-15T08:46:17.000Z</time>
      </trkpt>
      <trkpt lat="48.2088" lon="3.2865">
        <ele>68</ele>
        <time>2012-04-15T08:46:19.000Z</time>
      </trkpt>
      <trkpt lat="48.20879" lon="3.28661">
        <ele>68</ele>
        <time>2012-04-15T08:46:21.000Z</time>
      </trkpt>
      <trkpt lat="48.20877" lon="3.28669">
        <ele>68</ele>
        <time>2012-04-15T08:46:23.000Z</time>
      </trkpt>
      <trkpt lat="48.20878" lon="3.2868">
        <ele>68</ele>
        <time>2012-04-15T08:46:25.000Z</time>
      </trkpt>
      <trkpt lat="48.2088" lon="3.28689">
        <ele>68</ele>
        <time>2012-04-15T08:46:27.000Z</time>
      </trkpt>
      <trkpt lat="48.20883" lon="3.28699">
        <ele>68</ele>
        <time>2012-04-15T08:46:29.000Z</time>
      </trkpt>
      <trkpt lat="48.20887" lon="3.28708">
        <ele>68</ele>
        <time>2012-04-15T08:46:31.000Z</time>
      </trkpt>
      <trkpt lat="48.2089" lon="3.28716">
        <ele>68</ele>
        <time>2012-04-15T08:46:33.000Z</time>
      </trkpt>
      <trkpt lat="48.20893" lon="3.28727">
        <ele>68</ele>
        <time>2012-04-15T08:46:35.000Z</time>
      </trkpt>
      <trkpt lat="48.20895" lon="3.28736">
        <ele>68</ele>
        <time>2012-04-15T08:46:37.000Z</time>
      </trkpt>
      <trkpt lat="48.20898" lon="3.28746">
        <ele>68</ele>
        <time>2012-04-15T08:46:39.000Z</time>
      </trkpt>
      <trkpt lat="48.20902" lon="3.28757">
        <ele>68</ele>
        <time>2012-04-15T08:46:41.000Z</time>
      </trkpt>
      <trkpt lat="48.20904" lon="3.28768">
        <ele>68</ele>
        <time>2012-04-15T08:46:43.000Z</time>
      </trkpt>
      <trkpt lat="48.20903" lon="3.28779">
        <ele>68</ele>
        <time>2012-04-15T08:46:45.000Z</time>
      </trkpt>
      <trkpt lat="48.209" lon="3.28792">
        <ele>68</ele>
        <time>2012-04-15T08:46:47.000Z</time>
      </trkpt>
      <trkpt lat="48.20897" lon="3.28798">
        <ele>68</ele>
        <time>2012-04-15T08:46:48.000Z</time>
      </trkpt>
      <trkpt lat="48.20892" lon="3.28807">
        <ele>68</ele>
        <time>2012-04-15T08:46:50.000Z</time>
      </trkpt>
      <trkpt lat="48.20889" lon="3.28813">
        <ele>68</ele>
        <time>2012-04-15T08:46:51.000Z</time>
      </trkpt>
      <trkpt lat="48.20883" lon="3.28822">
        <ele>68</ele>
        <time>2012-04-15T08:46:53.000Z</time>
      </trkpt>
      <trkpt lat="48.20877" lon="3.28832">
        <ele>68</ele>
        <time>2012-04-15T08:46:55.000Z</time>
      </trkpt>
      <trkpt lat="48.20869" lon="3.28841">
        <ele>69</ele>
        <time>2012-04-15T08:46:57.000Z</time>
      </trkpt>
      <trkpt lat="48.20863" lon="3.28852">
        <ele>69</ele>
        <time>2012-04-15T08:46:59.000Z</time>
      </trkpt>
      <trkpt lat="48.20856" lon="3.2886">
        <ele>69</ele>
        <time>2012-04-15T08:47:01.000Z</time>
      </trkpt>
      <trkpt lat="48.20853" lon="3.28867">
        <ele>69</ele>
        <time>2012-04-15T08:47:02.000Z</time>
      </trkpt>
      <trkpt lat="48.20847" lon="3.28875">
        <ele>69</ele>
        <time>2012-04-15T08:47:04.000Z</time>
      </trkpt>
      <trkpt lat="48.20844" lon="3.28882">
        <ele>69</ele>
        <time>2012-04-15T08:47:05.000Z</time>
      </trkpt>
      <trkpt lat="48.20837" lon="3.28892">
        <ele>70</ele>
        <time>2012-04-15T08:47:07.000Z</time>
      </trkpt>
      <trkpt lat="48.2083" lon="3.28903">
        <ele>70</ele>
        <time>2012-04-15T08:47:09.000Z</time>
      </trkpt>
      <trkpt lat="48.20822" lon="3.28912">
        <ele>70</ele>
        <time>2012-04-15T08:47:11.000Z</time>
      </trkpt>
      <trkpt lat="48.20815" lon="3.2892">
        <ele>70</ele>
        <time>2012-04-15T08:47:13.000Z</time>
      </trkpt>
      <trkpt lat="48.20807" lon="3.28929">
        <ele>70</ele>
        <time>2012-04-15T08:47:15.000Z</time>
      </trkpt>
      <trkpt lat="48.20803" lon="3.28931">
        <ele>70</ele>
        <time>2012-04-15T08:47:16.000Z</time>
      </trkpt>
      <trkpt lat="48.20799" lon="3.28935">
        <ele>70</ele>
        <time>2012-04-15T08:47:17.000Z</time>
      </trkpt>
      <trkpt lat="48.20794" lon="3.2894">
        <ele>70</ele>
        <time>2012-04-15T08:47:18.000Z</time>
      </trkpt>
      <trkpt lat="48.20787" lon="3.28946">
        <ele>70</ele>
        <time>2012-04-15T08:47:20.000Z</time>
      </trkpt>
      <trkpt lat="48.20782" lon="3.2895">
        <ele>70</ele>
        <time>2012-04-15T08:47:21.000Z</time>
      </trkpt>
      <trkpt lat="48.20774" lon="3.28957">
        <ele>70</ele>
        <time>2012-04-15T08:47:23.000Z</time>
      </trkpt>
      <trkpt lat="48.20765" lon="3.28963">
        <ele>70</ele>
        <time>2012-04-15T08:47:25.000Z</time>
      </trkpt>
      <trkpt lat="48.20761" lon="3.28968">
        <ele>70</ele>
        <time>2012-04-15T08:47:26.000Z</time>
      </trkpt>
      <trkpt lat="48.20752" lon="3.28974">
        <ele>70</ele>
        <time>2012-04-15T08:47:28.000Z</time>
      </trkpt>
      <trkpt lat="48.20748" lon="3.28978">
        <ele>70</ele>
        <time>2012-04-15T08:47:29.000Z</time>
      </trkpt>
      <trkpt lat="48.20744" lon="3.28982">
        <ele>70</ele>
        <time>2012-04-15T08:47:30.000Z</time>
      </trkpt>
      <trkpt lat="48.2074" lon="3.28987">
        <ele>70</ele>
        <time>2012-04-15T08:47:31.000Z</time>
      </trkpt>
      <trkpt lat="48.20735" lon="3.28991">
        <ele>70</ele>
        <time>2012-04-15T08:47:32.000Z</time>
      </trkpt>
      <trkpt lat="48.20732" lon="3.28998">
        <ele>70</ele>
        <time>2012-04-15T08:47:33.000Z</time>
      </trkpt>
      <trkpt lat="48.20728" lon="3.29002">
        <ele>70</ele>
        <time>2012-04-15T08:47:34.000Z</time>
      </trkpt>
      <trkpt lat="48.20724" lon="3.29006">
        <ele>70</ele>
        <time>2012-04-15T08:47:35.000Z</time>
      </trkpt>
      <trkpt lat="48.20719" lon="3.2901">
        <ele>70</ele>
        <time>2012-04-15T08:47:36.000Z</time>
      </trkpt>
      <trkpt lat="48.20712" lon="3.29021">
        <ele>70</ele>
        <time>2012-04-15T08:47:38.000Z</time>
      </trkpt>
      <trkpt lat="48.20704" lon="3.2903">
        <ele>69</ele>
        <time>2012-04-15T08:47:40.000Z</time>
      </trkpt>
      <trkpt lat="48.20697" lon="3.29038">
        <ele>69</ele>
        <time>2012-04-15T08:47:42.000Z</time>
      </trkpt>
      <trkpt lat="48.20689" lon="3.29047">
        <ele>69</ele>
        <time>2012-04-15T08:47:44.000Z</time>
      </trkpt>
      <trkpt lat="48.20682" lon="3.29056">
        <ele>69</ele>
        <time>2012-04-15T08:47:46.000Z</time>
      </trkpt>
      <trkpt lat="48.20674" lon="3.29064">
        <ele>69</ele>
        <time>2012-04-15T08:47:48.000Z</time>
      </trkpt>
      <trkpt lat="48.20668" lon="3.29073">
        <ele>69</ele>
        <time>2012-04-15T08:47:50.000Z</time>
      </trkpt>
      <trkpt lat="48.20663" lon="3.29077">
        <ele>68</ele>
        <time>2012-04-15T08:47:51.000Z</time>
      </trkpt>
      <trkpt lat="48.20656" lon="3.29086">
        <ele>68</ele>
        <time>2012-04-15T08:47:53.000Z</time>
      </trkpt>
      <trkpt lat="48.2065" lon="3.29094">
        <ele>68</ele>
        <time>2012-04-15T08:47:55.000Z</time>
      </trkpt>
      <trkpt lat="48.20646" lon="3.29101">
        <ele>69</ele>
        <time>2012-04-15T08:47:56.000Z</time>
      </trkpt>
      <trkpt lat="48.2064" lon="3.29109">
        <ele>69</ele>
        <time>2012-04-15T08:47:58.000Z</time>
      </trkpt>
      <trkpt lat="48.20637" lon="3.29116">
        <ele>69</ele>
        <time>2012-04-15T08:47:59.000Z</time>
      </trkpt>
      <trkpt lat="48.2063" lon="3.29124">
        <ele>69</ele>
        <time>2012-04-15T08:48:01.000Z</time>
      </trkpt>
      <trkpt lat="48.20627" lon="3.29131">
        <ele>69</ele>
        <time>2012-04-15T08:48:02.000Z</time>
      </trkpt>
      <trkpt lat="48.2062" lon="3.29141">
        <ele>69</ele>
        <time>2012-04-15T08:48:04.000Z</time>
      </trkpt>
      <trkpt lat="48.20614" lon="3.29152">
        <ele>69</ele>
        <time>2012-04-15T08:48:06.000Z</time>
      </trkpt>
      <trkpt lat="48.20608" lon="3.29163">
        <ele>69</ele>
        <time>2012-04-15T08:48:08.000Z</time>
      </trkpt>
      <trkpt lat="48.20601" lon="3.29174">
        <ele>70</ele>
        <time>2012-04-15T08:48:10.000Z</time>
      </trkpt>
      <trkpt lat="48.20595" lon="3.29184">
        <ele>70</ele>
        <time>2012-04-15T08:48:12.000Z</time>
      </trkpt>
      <trkpt lat="48.2059" lon="3.29188">
        <ele>70</ele>
        <time>2012-04-15T08:48:13.000Z</time>
      </trkpt>
      <trkpt lat="48.20584" lon="3.29199">
        <ele>70</ele>
        <time>2012-04-15T08:48:15.000Z</time>
      </trkpt>
      <trkpt lat="48.20578" lon="3.2921">
        <ele>71</ele>
        <time>2012-04-15T08:48:17.000Z</time>
      </trkpt>
      <trkpt lat="48.20572" lon="3.29221">
        <ele>71</ele>
        <time>2012-04-15T08:48:19.000Z</time>
      </trkpt>
      <trkpt lat="48.20566" lon="3.29232">
        <ele>71</ele>
        <time>2012-04-15T08:48:21.000Z</time>
      </trkpt>
      <trkpt lat="48.20559" lon="3.29242">
        <ele>71</ele>
        <time>2012-04-15T08:48:23.000Z</time>
      </trkpt>
      <trkpt lat="48.20556" lon="3.29249">
        <ele>71</ele>
        <time>2012-04-15T08:48:24.000Z</time>
      </trkpt>
      <trkpt lat="48.20552" lon="3.29253">
        <ele>72</ele>
        <time>2012-04-15T08:48:25.000Z</time>
      </trkpt>
      <trkpt lat="48.20549" lon="3.29259">
        <ele>72</ele>
        <time>2012-04-15T08:48:26.000Z</time>
      </trkpt>
      <trkpt lat="48.20545" lon="3.29266">
        <ele>72</ele>
        <time>2012-04-15T08:48:27.000Z</time>
      </trkpt>
      <trkpt lat="48.20539" lon="3.29274">
        <ele>72</ele>
        <time>2012-04-15T08:48:29.000Z</time>
      </trkpt>
      <trkpt lat="48.20536" lon="3.29281">
        <ele>72</ele>
        <time>2012-04-15T08:48:30.000Z</time>
      </trkpt>
      <trkpt lat="48.20529" lon="3.29292">
        <ele>72</ele>
        <time>2012-04-15T08:48:32.000Z</time>
      </trkpt>
      <trkpt lat="48.20526" lon="3.29298">
        <ele>72</ele>
        <time>2012-04-15T08:48:33.000Z</time>
      </trkpt>
      <trkpt lat="48.2052" lon="3.29309">
        <ele>72</ele>
        <time>2012-04-15T08:48:35.000Z</time>
      </trkpt>
      <trkpt lat="48.20513" lon="3.29319">
        <ele>72</ele>
        <time>2012-04-15T08:48:37.000Z</time>
      </trkpt>
      <trkpt lat="48.2051" lon="3.29326">
        <ele>72</ele>
        <time>2012-04-15T08:48:38.000Z</time>
      </trkpt>
      <trkpt lat="48.20505" lon="3.29337">
        <ele>72</ele>
        <time>2012-04-15T08:48:40.000Z</time>
      </trkpt>
      <trkpt lat="48.20498" lon="3.29345">
        <ele>73</ele>
        <time>2012-04-15T08:48:42.000Z</time>
      </trkpt>
      <trkpt lat="48.20493" lon="3.29356">
        <ele>74</ele>
        <time>2012-04-15T08:48:44.000Z</time>
      </trkpt>
      <trkpt lat="48.20486" lon="3.29364">
        <ele>74</ele>
        <time>2012-04-15T08:48:46.000Z</time>
      </trkpt>
      <trkpt lat="48.20483" lon="3.29371">
        <ele>75</ele>
        <time>2012-04-15T08:48:47.000Z</time>
      </trkpt>
      <trkpt lat="48.20477" lon="3.2938">
        <ele>75</ele>
        <time>2012-04-15T08:48:49.000Z</time>
      </trkpt>
      <trkpt lat="48.20474" lon="3.29386">
        <ele>75</ele>
        <time>2012-04-15T08:48:50.000Z</time>
      </trkpt>
      <trkpt lat="48.20467" lon="3.29394">
        <ele>75</ele>
        <time>2012-04-15T08:48:52.000Z</time>
      </trkpt>
      <trkpt lat="48.20461" lon="3.29405">
        <ele>76</ele>
        <time>2012-04-15T08:48:54.000Z</time>
      </trkpt>
      <trkpt lat="48.20454" lon="3.29414">
        <ele>76</ele>
        <time>2012-04-15T08:48:56.000Z</time>
      </trkpt>
      <trkpt lat="48.20448" lon="3.29425">
        <ele>77</ele>
        <time>2012-04-15T08:48:58.000Z</time>
      </trkpt>
      <trkpt lat="48.20444" lon="3.29429">
        <ele>77</ele>
        <time>2012-04-15T08:48:59.000Z</time>
      </trkpt>
      <trkpt lat="48.20437" lon="3.29437">
        <ele>77</ele>
        <time>2012-04-15T08:49:01.000Z</time>
      </trkpt>
      <trkpt lat="48.20431" lon="3.29448">
        <ele>77</ele>
        <time>2012-04-15T08:49:03.000Z</time>
      </trkpt>
      <trkpt lat="48.20424" lon="3.29457">
        <ele>77</ele>
        <time>2012-04-15T08:49:05.000Z</time>
      </trkpt>
      <trkpt lat="48.20421" lon="3.29463">
        <ele>77</ele>
        <time>2012-04-15T08:49:06.000Z</time>
      </trkpt>
      <trkpt lat="48.20414" lon="3.29472">
        <ele>77</ele>
        <time>2012-04-15T08:49:08.000Z</time>
      </trkpt>
      <trkpt lat="48.20411" lon="3.29478">
        <ele>77</ele>
        <time>2012-04-15T08:49:09.000Z</time>
      </trkpt>
      <trkpt lat="48.20405" lon="3.29489">
        <ele>76</ele>
        <time>2012-04-15T08:49:11.000Z</time>
      </trkpt>
      <trkpt lat="48.204" lon="3.295">
        <ele>76</ele>
        <time>2012-04-15T08:49:13.000Z</time>
      </trkpt>
      <trkpt lat="48.20396" lon="3.29506">
        <ele>76</ele>
        <time>2012-04-15T08:49:14.000Z</time>
      </trkpt>
      <trkpt lat="48.20393" lon="3.29512">
        <ele>76</ele>
        <time>2012-04-15T08:49:15.000Z</time>
      </trkpt>
      <trkpt lat="48.20388" lon="3.29521">
        <ele>76</ele>
        <time>2012-04-15T08:49:17.000Z</time>
      </trkpt>
      <trkpt lat="48.20388" lon="3.29521">
        <ele>76</ele>
        <time>2012-04-15T08:49:17.000Z</time>
      </trkpt>
      <trkpt lat="48.20388" lon="3.29521">
        <ele>76</ele>
        <time>2012-04-15T08:49:18.000Z</time>
      </trkpt>
      <trkpt lat="48.20383" lon="3.29532">
        <ele>76</ele>
        <time>2012-04-15T08:49:22.000Z</time>
      </trkpt>
      <trkpt lat="48.2038" lon="3.29538">
        <ele>76</ele>
        <time>2012-04-15T08:49:25.000Z</time>
      </trkpt>
      <trkpt lat="48.20377" lon="3.29545">
        <ele>76</ele>
        <time>2012-04-15T08:49:27.000Z</time>
      </trkpt>
      <trkpt lat="48.20373" lon="3.29549">
        <ele>76</ele>
        <time>2012-04-15T08:49:29.000Z</time>
      </trkpt>
      <trkpt lat="48.20369" lon="3.29556">
        <ele>76</ele>
        <time>2012-04-15T08:49:31.000Z</time>
      </trkpt>
      <trkpt lat="48.20368" lon="3.29564">
        <ele>76</ele>
        <time>2012-04-15T08:49:33.000Z</time>
      </trkpt>
      <trkpt lat="48.20368" lon="3.29573">
        <ele>76</ele>
        <time>2012-04-15T08:49:35.000Z</time>
      </trkpt>
      <trkpt lat="48.20368" lon="3.29581">
        <ele>76</ele>
        <time>2012-04-15T08:49:37.000Z</time>
      </trkpt>
      <trkpt lat="48.20369" lon="3.2959">
        <ele>76</ele>
        <time>2012-04-15T08:49:39.000Z</time>
      </trkpt>
      <trkpt lat="48.20372" lon="3.29598">
        <ele>76</ele>
        <time>2012-04-15T08:49:41.000Z</time>
      </trkpt>
      <trkpt lat="48.20376" lon="3.29605">
        <ele>76</ele>
        <time>2012-04-15T08:49:43.000Z</time>
      </trkpt>
      <trkpt lat="48.20381" lon="3.29607">
        <ele>76</ele>
        <time>2012-04-15T08:49:45.000Z</time>
      </trkpt>
      <trkpt lat="48.20386" lon="3.29605">
        <ele>76</ele>
        <time>2012-04-15T08:49:47.000Z</time>
      </trkpt>
      <trkpt lat="48.20391" lon="3.296">
        <ele>76</ele>
        <time>2012-04-15T08:49:50.000Z</time>
      </trkpt>
      <trkpt lat="48.20395" lon="3.29596">
        <ele>76</ele>
        <time>2012-04-15T08:49:52.000Z</time>
      </trkpt>
      <trkpt lat="48.204" lon="3.29592">
        <ele>76</ele>
        <time>2012-04-15T08:49:54.000Z</time>
      </trkpt>
      <trkpt lat="48.20405" lon="3.29588">
        <ele>75</ele>
        <time>2012-04-15T08:49:56.000Z</time>
      </trkpt>
      <trkpt lat="48.2041" lon="3.29581">
        <ele>75</ele>
        <time>2012-04-15T08:49:58.000Z</time>
      </trkpt>
      <trkpt lat="48.20416" lon="3.29577">
        <ele>75</ele>
        <time>2012-04-15T08:50:00.000Z</time>
      </trkpt>
      <trkpt lat="48.20421" lon="3.2957">
        <ele>75</ele>
        <time>2012-04-15T08:50:02.000Z</time>
      </trkpt>
      <trkpt lat="48.20426" lon="3.29564">
        <ele>75</ele>
        <time>2012-04-15T08:50:04.000Z</time>
      </trkpt>
      <trkpt lat="48.20432" lon="3.29558">
        <ele>75</ele>
        <time>2012-04-15T08:50:06.000Z</time>
      </trkpt>
      <trkpt lat="48.20437" lon="3.29549">
        <ele>75</ele>
        <time>2012-04-15T08:50:08.000Z</time>
      </trkpt>
      <trkpt lat="48.20442" lon="3.2954">
        <ele>76</ele>
        <time>2012-04-15T08:50:10.000Z</time>
      </trkpt>
      <trkpt lat="48.20448" lon="3.29534">
        <ele>76</ele>
        <time>2012-04-15T08:50:12.000Z</time>
      </trkpt>
      <trkpt lat="48.20453" lon="3.29525">
        <ele>76</ele>
        <time>2012-04-15T08:50:14.000Z</time>
      </trkpt>
      <trkpt lat="48.2046" lon="3.29517">
        <ele>75</ele>
        <time>2012-04-15T08:50:16.000Z</time>
      </trkpt>
      <trkpt lat="48.20465" lon="3.2951">
        <ele>75</ele>
        <time>2012-04-15T08:50:18.000Z</time>
      </trkpt>
      <trkpt lat="48.20471" lon="3.29502">
        <ele>75</ele>
        <time>2012-04-15T08:50:20.000Z</time>
      </trkpt>
      <trkpt lat="48.20477" lon="3.29493">
        <ele>76</ele>
        <time>2012-04-15T08:50:22.000Z</time>
      </trkpt>
      <trkpt lat="48.20481" lon="3.29485">
        <ele>75</ele>
        <time>2012-04-15T08:50:24.000Z</time>
      </trkpt>
      <trkpt lat="48.20484" lon="3.29478">
        <ele>75</ele>
        <time>2012-04-15T08:50:25.000Z</time>
      </trkpt>
      <trkpt lat="48.20488" lon="3.2947">
        <ele>75</ele>
        <time>2012-04-15T08:50:27.000Z</time>
      </trkpt>
      <trkpt lat="48.20495" lon="3.29463">
        <ele>75</ele>
        <time>2012-04-15T08:50:29.000Z</time>
      </trkpt>
      <trkpt lat="48.205" lon="3.29455">
        <ele>75</ele>
        <time>2012-04-15T08:50:31.000Z</time>
      </trkpt>
      <trkpt lat="48.20505" lon="3.2945">
        <ele>75</ele>
        <time>2012-04-15T08:50:32.000Z</time>
      </trkpt>
      <trkpt lat="48.20512" lon="3.29446">
        <ele>75</ele>
        <time>2012-04-15T08:50:34.000Z</time>
      </trkpt>
      <trkpt lat="48.2052" lon="3.29442">
        <ele>75</ele>
        <time>2012-04-15T08:50:36.000Z</time>
      </trkpt>
      <trkpt lat="48.20524" lon="3.2944">
        <ele>75</ele>
        <time>2012-04-15T08:50:37.000Z</time>
      </trkpt>
      <trkpt lat="48.2053" lon="3.29433">
        <ele>75</ele>
        <time>2012-04-15T08:50:39.000Z</time>
      </trkpt>
      <trkpt lat="48.20537" lon="3.29425">
        <ele>75</ele>
        <time>2012-04-15T08:50:41.000Z</time>
      </trkpt>
      <trkpt lat="48.20543" lon="3.29418">
        <ele>75</ele>
        <time>2012-04-15T08:50:43.000Z</time>
      </trkpt>
      <trkpt lat="48.20548" lon="3.29416">
        <ele>74</ele>
        <time>2012-04-15T08:50:44.000Z</time>
      </trkpt>
      <trkpt lat="48.20554" lon="3.2941">
        <ele>74</ele>
        <time>2012-04-15T08:50:46.000Z</time>
      </trkpt>
      <trkpt lat="48.20558" lon="3.29405">
        <ele>74</ele>
        <time>2012-04-15T08:50:47.000Z</time>
      </trkpt>
      <trkpt lat="48.20566" lon="3.29401">
        <ele>74</ele>
        <time>2012-04-15T08:50:49.000Z</time>
      </trkpt>
      <trkpt lat="48.20573" lon="3.29394">
        <ele>74</ele>
        <time>2012-04-15T08:50:51.000Z</time>
      </trkpt>
      <trkpt lat="48.2058" lon="3.2939">
        <ele>74</ele>
        <time>2012-04-15T08:50:53.000Z</time>
      </trkpt>
      <trkpt lat="48.20584" lon="3.29388">
        <ele>75</ele>
        <time>2012-04-15T08:50:54.000Z</time>
      </trkpt>
      <trkpt lat="48.2059" lon="3.29384">
        <ele>75</ele>
        <time>2012-04-15T08:50:56.000Z</time>
      </trkpt>
      <trkpt lat="48.20595" lon="3.29382">
        <ele>75</ele>
        <time>2012-04-15T08:50:57.000Z</time>
      </trkpt>
      <trkpt lat="48.20602" lon="3.29377">
        <ele>74</ele>
        <time>2012-04-15T08:50:59.000Z</time>
      </trkpt>
      <trkpt lat="48.20606" lon="3.29375">
        <ele>74</ele>
        <time>2012-04-15T08:51:00.000Z</time>
      </trkpt>
      <trkpt lat="48.20614" lon="3.29371">
        <ele>74</ele>
        <time>2012-04-15T08:51:02.000Z</time>
      </trkpt>
      <trkpt lat="48.20622" lon="3.29367">
        <ele>74</ele>
        <time>2012-04-15T08:51:04.000Z</time>
      </trkpt>
      <trkpt lat="48.20629" lon="3.29362">
        <ele>74</ele>
        <time>2012-04-15T08:51:06.000Z</time>
      </trkpt>
      <trkpt lat="48.20633" lon="3.2936">
        <ele>74</ele>
        <time>2012-04-15T08:51:07.000Z</time>
      </trkpt>
      <trkpt lat="48.20641" lon="3.29356">
        <ele>74</ele>
        <time>2012-04-15T08:51:09.000Z</time>
      </trkpt>
      <trkpt lat="48.20648" lon="3.29352">
        <ele>74</ele>
        <time>2012-04-15T08:51:11.000Z</time>
      </trkpt>
      <trkpt lat="48.20656" lon="3.29347">
        <ele>74</ele>
        <time>2012-04-15T08:51:13.000Z</time>
      </trkpt>
      <trkpt lat="48.2066" lon="3.29345">
        <ele>74</ele>
        <time>2012-04-15T08:51:14.000Z</time>
      </trkpt>
      <trkpt lat="48.20668" lon="3.29341">
        <ele>73</ele>
        <time>2012-04-15T08:51:16.000Z</time>
      </trkpt>
      <trkpt lat="48.20674" lon="3.29339">
        <ele>73</ele>
        <time>2012-04-15T08:51:18.000Z</time>
      </trkpt>
      <trkpt lat="48.20681" lon="3.29334">
        <ele>73</ele>
        <time>2012-04-15T08:51:20.000Z</time>
      </trkpt>
      <trkpt lat="48.20687" lon="3.29332">
        <ele>72</ele>
        <time>2012-04-15T08:51:22.000Z</time>
      </trkpt>
      <trkpt lat="48.20693" lon="3.29328">
        <ele>72</ele>
        <time>2012-04-15T08:51:24.000Z</time>
      </trkpt>
      <trkpt lat="48.207" lon="3.29326">
        <ele>72</ele>
        <time>2012-04-15T08:51:26.000Z</time>
      </trkpt>
      <trkpt lat="48.20706" lon="3.29322">
        <ele>72</ele>
        <time>2012-04-15T08:51:28.000Z</time>
      </trkpt>
      <trkpt lat="48.20713" lon="3.29317">
        <ele>72</ele>
        <time>2012-04-15T08:51:30.000Z</time>
      </trkpt>
      <trkpt lat="48.2072" lon="3.29315">
        <ele>72</ele>
        <time>2012-04-15T08:51:32.000Z</time>
      </trkpt>
      <trkpt lat="48.20727" lon="3.29311">
        <ele>72</ele>
        <time>2012-04-15T08:51:34.000Z</time>
      </trkpt>
      <trkpt lat="48.20731" lon="3.29309">
        <ele>72</ele>
        <time>2012-04-15T08:51:35.000Z</time>
      </trkpt>
      <trkpt lat="48.20738" lon="3.29307">
        <ele>72</ele>
        <time>2012-04-15T08:51:37.000Z</time>
      </trkpt>
      <trkpt lat="48.20746" lon="3.29302">
        <ele>72</ele>
        <time>2012-04-15T08:51:39.000Z</time>
      </trkpt>
      <trkpt lat="48.20754" lon="3.29302">
        <ele>72</ele>
        <time>2012-04-15T08:51:41.000Z</time>
      </trkpt>
      <trkpt lat="48.2076" lon="3.29307">
        <ele>72</ele>
        <time>2012-04-15T08:51:43.000Z</time>
      </trkpt>
      <trkpt lat="48.20766" lon="3.29311">
        <ele>72</ele>
        <time>2012-04-15T08:51:45.000Z</time>
      </trkpt>
      <trkpt lat="48.20773" lon="3.29315">
        <ele>71</ele>
        <time>2012-04-15T08:51:47.000Z</time>
      </trkpt>
      <trkpt lat="48.20778" lon="3.29319">
        <ele>71</ele>
        <time>2012-04-15T08:51:49.000Z</time>
      </trkpt>
      <trkpt lat="48.20785" lon="3.29324">
        <ele>71</ele>
        <time>2012-04-15T08:51:51.000Z</time>
      </trkpt>
      <trkpt lat="48.2079" lon="3.2933">
        <ele>71</ele>
        <time>2012-04-15T08:51:53.000Z</time>
      </trkpt>
      <trkpt lat="48.20795" lon="3.29337">
        <ele>72</ele>
        <time>2012-04-15T08:51:55.000Z</time>
      </trkpt>
      <trkpt lat="48.208" lon="3.29343">
        <ele>72</ele>
        <time>2012-04-15T08:51:57.000Z</time>
      </trkpt>
      <trkpt lat="48.20803" lon="3.2935">
        <ele>72</ele>
        <time>2012-04-15T08:51:59.000Z</time>
      </trkpt>
      <trkpt lat="48.20807" lon="3.29356">
        <ele>72</ele>
        <time>2012-04-15T08:52:01.000Z</time>
      </trkpt>
      <trkpt lat="48.20812" lon="3.29362">
        <ele>72</ele>
        <time>2012-04-15T08:52:03.000Z</time>
      </trkpt>
      <trkpt lat="48.20816" lon="3.29369">
        <ele>72</ele>
        <time>2012-04-15T08:52:05.000Z</time>
      </trkpt>
      <trkpt lat="48.2082" lon="3.29375">
        <ele>72</ele>
        <time>2012-04-15T08:52:07.000Z</time>
      </trkpt>
      <trkpt lat="48.20824" lon="3.29384">
        <ele>71</ele>
        <time>2012-04-15T08:52:09.000Z</time>
      </trkpt>
      <trkpt lat="48.20829" lon="3.2939">
        <ele>71</ele>
        <time>2012-04-15T08:52:11.000Z</time>
      </trkpt>
      <trkpt lat="48.20832" lon="3.29397">
        <ele>71</ele>
        <time>2012-04-15T08:52:13.000Z</time>
      </trkpt>
      <trkpt lat="48.20836" lon="3.29405">
        <ele>71</ele>
        <time>2012-04-15T08:52:15.000Z</time>
      </trkpt>
      <trkpt lat="48.2084" lon="3.29412">
        <ele>71</ele>
        <time>2012-04-15T08:52:17.000Z</time>
      </trkpt>
      <trkpt lat="48.20845" lon="3.29418">
        <ele>71</ele>
        <time>2012-04-15T08:52:19.000Z</time>
      </trkpt>
      <trkpt lat="48.20849" lon="3.29425">
        <ele>72</ele>
        <time>2012-04-15T08:52:21.000Z</time>
      </trkpt>
      <trkpt lat="48.20853" lon="3.29433">
        <ele>72</ele>
        <time>2012-04-15T08:52:23.000Z</time>
      </trkpt>
      <trkpt lat="48.20858" lon="3.2944">
        <ele>72</ele>
        <time>2012-04-15T08:52:25.000Z</time>
      </trkpt>
      <trkpt lat="48.20862" lon="3.29446">
        <ele>72</ele>
        <time>2012-04-15T08:52:27.000Z</time>
      </trkpt>
      <trkpt lat="48.20865" lon="3.29455">
        <ele>72</ele>
        <time>2012-04-15T08:52:29.000Z</time>
      </trkpt>
      <trkpt lat="48.20868" lon="3.29461">
        <ele>72</ele>
        <time>2012-04-15T08:52:31.000Z</time>
      </trkpt>
      <trkpt lat="48.20873" lon="3.29465">
        <ele>72</ele>
        <time>2012-04-15T08:52:33.000Z</time>
      </trkpt>
      <trkpt lat="48.20877" lon="3.29472">
        <ele>72</ele>
        <time>2012-04-15T08:52:35.000Z</time>
      </trkpt>
      <trkpt lat="48.2088" lon="3.29478">
        <ele>72</ele>
        <time>2012-04-15T08:52:37.000Z</time>
      </trkpt>
      <trkpt lat="48.20884" lon="3.29485">
        <ele>72</ele>
        <time>2012-04-15T08:52:39.000Z</time>
      </trkpt>
      <trkpt lat="48.20889" lon="3.29491">
        <ele>72</ele>
        <time>2012-04-15T08:52:41.000Z</time>
      </trkpt>
      <trkpt lat="48.20893" lon="3.29498">
        <ele>72</ele>
        <time>2012-04-15T08:52:43.000Z</time>
      </trkpt>
      <trkpt lat="48.20896" lon="3.29504">
        <ele>73</ele>
        <time>2012-04-15T08:52:45.000Z</time>
      </trkpt>
      <trkpt lat="48.209" lon="3.29512">
        <ele>73</ele>
        <time>2012-04-15T08:52:47.000Z</time>
      </trkpt>
      <trkpt lat="48.20905" lon="3.29519">
        <ele>73</ele>
        <time>2012-04-15T08:52:49.000Z</time>
      </trkpt>
      <trkpt lat="48.20909" lon="3.29525">
        <ele>73</ele>
        <time>2012-04-15T08:52:51.000Z</time>
      </trkpt>
      <trkpt lat="48.20912" lon="3.29534">
        <ele>73</ele>
        <time>2012-04-15T08:52:53.000Z</time>
      </trkpt>
      <trkpt lat="48.20917" lon="3.2954">
        <ele>73</ele>
        <time>2012-04-15T08:52:55.000Z</time>
      </trkpt>
      <trkpt lat="48.2092" lon="3.29547">
        <ele>73</ele>
        <time>2012-04-15T08:52:57.000Z</time>
      </trkpt>
      <trkpt lat="48.20924" lon="3.29556">
        <ele>73</ele>
        <time>2012-04-15T08:52:59.000Z</time>
      </trkpt>
      <trkpt lat="48.20928" lon="3.29562">
        <ele>73</ele>
        <time>2012-04-15T08:53:01.000Z</time>
      </trkpt>
      <trkpt lat="48.20932" lon="3.29568">
        <ele>73</ele>
        <time>2012-04-15T08:53:03.000Z</time>
      </trkpt>
      <trkpt lat="48.20936" lon="3.29577">
        <ele>73</ele>
        <time>2012-04-15T08:53:05.000Z</time>
      </trkpt>
      <trkpt lat="48.2094" lon="3.29583">
        <ele>73</ele>
        <time>2012-04-15T08:53:07.000Z</time>
      </trkpt>
      <trkpt lat="48.20944" lon="3.29592">
        <ele>74</ele>
        <time>2012-04-15T08:53:09.000Z</time>
      </trkpt>
      <trkpt lat="48.20949" lon="3.29598">
        <ele>74</ele>
        <time>2012-04-15T08:53:11.000Z</time>
      </trkpt>
      <trkpt lat="48.20953" lon="3.29605">
        <ele>74</ele>
        <time>2012-04-15T08:53:13.000Z</time>
      </trkpt>
      <trkpt lat="48.20956" lon="3.29613">
        <ele>74</ele>
        <time>2012-04-15T08:53:15.000Z</time>
      </trkpt>
      <trkpt lat="48.20961" lon="3.2962">
        <ele>73</ele>
        <time>2012-04-15T08:53:17.000Z</time>
      </trkpt>
      <trkpt lat="48.20965" lon="3.29626">
        <ele>73</ele>
        <time>2012-04-15T08:53:19.000Z</time>
      </trkpt>
      <trkpt lat="48.20968" lon="3.29635">
        <ele>73</ele>
        <time>2012-04-15T08:53:21.000Z</time>
      </trkpt>
      <trkpt lat="48.20972" lon="3.29641">
        <ele>73</ele>
        <time>2012-04-15T08:53:23.000Z</time>
      </trkpt>
      <trkpt lat="48.20977" lon="3.29648">
        <ele>73</ele>
        <time>2012-04-15T08:53:25.000Z</time>
      </trkpt>
      <trkpt lat="48.2098" lon="3.29654">
        <ele>73</ele>
        <time>2012-04-15T08:53:27.000Z</time>
      </trkpt>
      <trkpt lat="48.20984" lon="3.29661">
        <ele>73</ele>
        <time>2012-04-15T08:53:29.000Z</time>
      </trkpt>
      <trkpt lat="48.20987" lon="3.29667">
        <ele>73</ele>
        <time>2012-04-15T08:53:31.000Z</time>
      </trkpt>
      <trkpt lat="48.20992" lon="3.29674">
        <ele>72</ele>
        <time>2012-04-15T08:53:33.000Z</time>
      </trkpt>
      <trkpt lat="48.20996" lon="3.29682">
        <ele>73</ele>
        <time>2012-04-15T08:53:35.000Z</time>
      </trkpt>
      <trkpt lat="48.21" lon="3.29688">
        <ele>73</ele>
        <time>2012-04-15T08:53:37.000Z</time>
      </trkpt>
      <trkpt lat="48.21005" lon="3.29695">
        <ele>73</ele>
        <time>2012-04-15T08:53:39.000Z</time>
      </trkpt>
      <trkpt lat="48.21009" lon="3.29704">
        <ele>73</ele>
        <time>2012-04-15T08:53:41.000Z</time>
      </trkpt>
      <trkpt lat="48.21013" lon="3.2971">
        <ele>73</ele>
        <time>2012-04-15T08:53:43.000Z</time>
      </trkpt>
      <trkpt lat="48.21018" lon="3.29718">
        <ele>73</ele>
        <time>2012-04-15T08:53:45.000Z</time>
      </trkpt>
      <trkpt lat="48.21022" lon="3.29725">
        <ele>73</ele>
        <time>2012-04-15T08:53:47.000Z</time>
      </trkpt>
      <trkpt lat="48.21026" lon="3.29731">
        <ele>73</ele>
        <time>2012-04-15T08:53:49.000Z</time>
      </trkpt>
      <trkpt lat="48.2103" lon="3.2974">
        <ele>73</ele>
        <time>2012-04-15T08:53:51.000Z</time>
      </trkpt>
      <trkpt lat="48.21035" lon="3.29746">
        <ele>73</ele>
        <time>2012-04-15T08:53:53.000Z</time>
      </trkpt>
      <trkpt lat="48.2104" lon="3.29755">
        <ele>73</ele>
        <time>2012-04-15T08:53:55.000Z</time>
      </trkpt>
      <trkpt lat="48.21044" lon="3.29762">
        <ele>74</ele>
        <time>2012-04-15T08:53:57.000Z</time>
      </trkpt>
      <trkpt lat="48.21049" lon="3.29768">
        <ele>74</ele>
        <time>2012-04-15T08:53:59.000Z</time>
      </trkpt>
      <trkpt lat="48.21053" lon="3.29774">
        <ele>74</ele>
        <time>2012-04-15T08:54:01.000Z</time>
      </trkpt>
      <trkpt lat="48.21057" lon="3.29781">
        <ele>74</ele>
        <time>2012-04-15T08:54:03.000Z</time>
      </trkpt>
      <trkpt lat="48.21061" lon="3.29787">
        <ele>74</ele>
        <time>2012-04-15T08:54:05.000Z</time>
      </trkpt>
      <trkpt lat="48.21067" lon="3.29794">
        <ele>74</ele>
        <time>2012-04-15T08:54:07.000Z</time>
      </trkpt>
      <trkpt lat="48.21071" lon="3.298">
        <ele>74</ele>
        <time>2012-04-15T08:54:09.000Z</time>
      </trkpt>
      <trkpt lat="48.21076" lon="3.29804">
        <ele>74</ele>
        <time>2012-04-15T08:54:11.000Z</time>
      </trkpt>
      <trkpt lat="48.21081" lon="3.29811">
        <ele>74</ele>
        <time>2012-04-15T08:54:13.000Z</time>
      </trkpt>
      <trkpt lat="48.21086" lon="3.29815">
        <ele>74</ele>
        <time>2012-04-15T08:54:15.000Z</time>
      </trkpt>
      <trkpt lat="48.2109" lon="3.29822">
        <ele>74</ele>
        <time>2012-04-15T08:54:17.000Z</time>
      </trkpt>
      <trkpt lat="48.21096" lon="3.29826">
        <ele>74</ele>
        <time>2012-04-15T08:54:19.000Z</time>
      </trkpt>
      <trkpt lat="48.211" lon="3.2983">
        <ele>74</ele>
        <time>2012-04-15T08:54:21.000Z</time>
      </trkpt>
      <trkpt lat="48.21105" lon="3.29837">
        <ele>74</ele>
        <time>2012-04-15T08:54:23.000Z</time>
      </trkpt>
      <trkpt lat="48.21111" lon="3.29843">
        <ele>74</ele>
        <time>2012-04-15T08:54:25.000Z</time>
      </trkpt>
      <trkpt lat="48.21115" lon="3.29847">
        <ele>74</ele>
        <time>2012-04-15T08:54:27.000Z</time>
      </trkpt>
      <trkpt lat="48.2112" lon="3.29854">
        <ele>74</ele>
        <time>2012-04-15T08:54:29.000Z</time>
      </trkpt>
      <trkpt lat="48.21125" lon="3.29858">
        <ele>74</ele>
        <time>2012-04-15T08:54:31.000Z</time>
      </trkpt>
      <trkpt lat="48.2113" lon="3.29864">
        <ele>73</ele>
        <time>2012-04-15T08:54:33.000Z</time>
      </trkpt>
      <trkpt lat="48.21136" lon="3.29869">
        <ele>73</ele>
        <time>2012-04-15T08:54:35.000Z</time>
      </trkpt>
      <trkpt lat="48.21141" lon="3.29877">
        <ele>73</ele>
        <time>2012-04-15T08:54:37.000Z</time>
      </trkpt>
      <trkpt lat="48.21146" lon="3.29884">
        <ele>73</ele>
        <time>2012-04-15T08:54:39.000Z</time>
      </trkpt>
      <trkpt lat="48.21154" lon="3.29892">
        <ele>73</ele>
        <time>2012-04-15T08:54:41.000Z</time>
      </trkpt>
      <trkpt lat="48.2116" lon="3.29901">
        <ele>73</ele>
        <time>2012-04-15T08:54:43.000Z</time>
      </trkpt>
      <trkpt lat="48.21164" lon="3.29905">
        <ele>73</ele>
        <time>2012-04-15T08:54:44.000Z</time>
      </trkpt>
      <trkpt lat="48.21171" lon="3.29914">
        <ele>73</ele>
        <time>2012-04-15T08:54:46.000Z</time>
      </trkpt>
      <trkpt lat="48.21177" lon="3.29922">
        <ele>73</ele>
        <time>2012-04-15T08:54:48.000Z</time>
      </trkpt>
      <trkpt lat="48.21184" lon="3.29931">
        <ele>72</ele>
        <time>2012-04-15T08:54:50.000Z</time>
      </trkpt>
      <trkpt lat="48.21189" lon="3.2994">
        <ele>72</ele>
        <time>2012-04-15T08:54:52.000Z</time>
      </trkpt>
      <trkpt lat="48.21196" lon="3.29948">
        <ele>72</ele>
        <time>2012-04-15T08:54:54.000Z</time>
      </trkpt>
      <trkpt lat="48.21201" lon="3.29955">
        <ele>72</ele>
        <time>2012-04-15T08:54:56.000Z</time>
      </trkpt>
      <trkpt lat="48.21206" lon="3.29963">
        <ele>72</ele>
        <time>2012-04-15T08:54:58.000Z</time>
      </trkpt>
      <trkpt lat="48.21212" lon="3.2997">
        <ele>72</ele>
        <time>2012-04-15T08:55:00.000Z</time>
      </trkpt>
      <trkpt lat="48.21217" lon="3.29976">
        <ele>72</ele>
        <time>2012-04-15T08:55:02.000Z</time>
      </trkpt>
      <trkpt lat="48.21222" lon="3.29982">
        <ele>72</ele>
        <time>2012-04-15T08:55:04.000Z</time>
      </trkpt>
      <trkpt lat="48.21228" lon="3.29991">
        <ele>72</ele>
        <time>2012-04-15T08:55:06.000Z</time>
      </trkpt>
      <trkpt lat="48.21233" lon="3.29998">
        <ele>71</ele>
        <time>2012-04-15T08:55:08.000Z</time>
      </trkpt>
      <trkpt lat="48.21238" lon="3.30004">
        <ele>71</ele>
        <time>2012-04-15T08:55:10.000Z</time>
      </trkpt>
      <trkpt lat="48.21245" lon="3.3001">
        <ele>71</ele>
        <time>2012-04-15T08:55:12.000Z</time>
      </trkpt>
      <trkpt lat="48.2125" lon="3.30017">
        <ele>71</ele>
        <time>2012-04-15T08:55:14.000Z</time>
      </trkpt>
      <trkpt lat="48.21256" lon="3.30023">
        <ele>71</ele>
        <time>2012-04-15T08:55:16.000Z</time>
      </trkpt>
      <trkpt lat="48.21261" lon="3.3003">
        <ele>71</ele>
        <time>2012-04-15T08:55:18.000Z</time>
      </trkpt>
      <trkpt lat="48.21266" lon="3.30036">
        <ele>71</ele>
        <time>2012-04-15T08:55:20.000Z</time>
      </trkpt>
      <trkpt lat="48.21272" lon="3.30045">
        <ele>72</ele>
        <time>2012-04-15T08:55:22.000Z</time>
      </trkpt>
      <trkpt lat="48.21277" lon="3.30051">
        <ele>72</ele>
        <time>2012-04-15T08:55:24.000Z</time>
      </trkpt>
      <trkpt lat="48.21282" lon="3.30058">
        <ele>72</ele>
        <time>2012-04-15T08:55:26.000Z</time>
      </trkpt>
      <trkpt lat="48.21288" lon="3.30064">
        <ele>72</ele>
        <time>2012-04-15T08:55:28.000Z</time>
      </trkpt>
      <trkpt lat="48.21293" lon="3.3007">
        <ele>72</ele>
        <time>2012-04-15T08:55:30.000Z</time>
      </trkpt>
      <trkpt lat="48.21298" lon="3.30077">
        <ele>72</ele>
        <time>2012-04-15T08:55:32.000Z</time>
      </trkpt>
      <trkpt lat="48.21304" lon="3.30081">
        <ele>72</ele>
        <time>2012-04-15T08:55:34.000Z</time>
      </trkpt>
      <trkpt lat="48.21309" lon="3.30088">
        <ele>72</ele>
        <time>2012-04-15T08:55:36.000Z</time>
      </trkpt>
      <trkpt lat="48.21316" lon="3.30094">
        <ele>72</ele>
        <time>2012-04-15T08:55:38.000Z</time>
      </trkpt>
      <trkpt lat="48.2132" lon="3.30103">
        <ele>73</ele>
        <time>2012-04-15T08:55:40.000Z</time>
      </trkpt>
      <trkpt lat="48.2132" lon="3.30113">
        <ele>73</ele>
        <time>2012-04-15T08:55:42.000Z</time>
      </trkpt>
      <trkpt lat="48.21318" lon="3.30122">
        <ele>73</ele>
        <time>2012-04-15T08:55:44.000Z</time>
      </trkpt>
      <trkpt lat="48.21314" lon="3.3013">
        <ele>73</ele>
        <time>2012-04-15T08:55:46.000Z</time>
      </trkpt>
      <trkpt lat="48.2131" lon="3.30139">
        <ele>73</ele>
        <time>2012-04-15T08:55:48.000Z</time>
      </trkpt>
      <trkpt lat="48.21305" lon="3.30148">
        <ele>73</ele>
        <time>2012-04-15T08:55:50.000Z</time>
      </trkpt>
      <trkpt lat="48.21301" lon="3.30156">
        <ele>73</ele>
        <time>2012-04-15T08:55:52.000Z</time>
      </trkpt>
      <trkpt lat="48.21296" lon="3.30163">
        <ele>73</ele>
        <time>2012-04-15T08:55:54.000Z</time>
      </trkpt>
      <trkpt lat="48.21291" lon="3.30171">
        <ele>74</ele>
        <time>2012-04-15T08:55:56.000Z</time>
      </trkpt>
      <trkpt lat="48.21286" lon="3.3018">
        <ele>74</ele>
        <time>2012-04-15T08:55:58.000Z</time>
      </trkpt>
      <trkpt lat="48.21281" lon="3.30186">
        <ele>74</ele>
        <time>2012-04-15T08:56:00.000Z</time>
      </trkpt>
      <trkpt lat="48.21277" lon="3.30195">
        <ele>74</ele>
        <time>2012-04-15T08:56:02.000Z</time>
      </trkpt>
      <trkpt lat="48.21272" lon="3.30201">
        <ele>74</ele>
        <time>2012-04-15T08:56:04.000Z</time>
      </trkpt>
      <trkpt lat="48.21267" lon="3.3021">
        <ele>74</ele>
        <time>2012-04-15T08:56:06.000Z</time>
      </trkpt>
      <trkpt lat="48.21263" lon="3.30218">
        <ele>74</ele>
        <time>2012-04-15T08:56:08.000Z</time>
      </trkpt>
      <trkpt lat="48.21259" lon="3.30227">
        <ele>75</ele>
        <time>2012-04-15T08:56:10.000Z</time>
      </trkpt>
      <trkpt lat="48.21255" lon="3.30236">
        <ele>75</ele>
        <time>2012-04-15T08:56:12.000Z</time>
      </trkpt>
      <trkpt lat="48.2125" lon="3.30244">
        <ele>74</ele>
        <time>2012-04-15T08:56:14.000Z</time>
      </trkpt>
      <trkpt lat="48.21246" lon="3.30253">
        <ele>75</ele>
        <time>2012-04-15T08:56:16.000Z</time>
      </trkpt>
      <trkpt lat="48.21242" lon="3.30261">
        <ele>75</ele>
        <time>2012-04-15T08:56:18.000Z</time>
      </trkpt>
      <trkpt lat="48.2124" lon="3.30268">
        <ele>75</ele>
        <time>2012-04-15T08:56:19.000Z</time>
      </trkpt>
      <trkpt lat="48.21236" lon="3.30276">
        <ele>75</ele>
        <time>2012-04-15T08:56:21.000Z</time>
      </trkpt>
      <trkpt lat="48.21232" lon="3.30287">
        <ele>75</ele>
        <time>2012-04-15T08:56:23.000Z</time>
      </trkpt>
      <trkpt lat="48.21229" lon="3.30298">
        <ele>75</ele>
        <time>2012-04-15T08:56:25.000Z</time>
      </trkpt>
      <trkpt lat="48.21226" lon="3.30306">
        <ele>75</ele>
        <time>2012-04-15T08:56:27.000Z</time>
      </trkpt>
      <trkpt lat="48.21223" lon="3.30313">
        <ele>75</ele>
        <time>2012-04-15T08:56:28.000Z</time>
      </trkpt>
      <trkpt lat="48.2122" lon="3.30322">
        <ele>75</ele>
        <time>2012-04-15T08:56:30.000Z</time>
      </trkpt>
      <trkpt lat="48.21217" lon="3.3033">
        <ele>75</ele>
        <time>2012-04-15T08:56:32.000Z</time>
      </trkpt>
      <trkpt lat="48.21215" lon="3.30339">
        <ele>76</ele>
        <time>2012-04-15T08:56:34.000Z</time>
      </trkpt>
      <trkpt lat="48.21213" lon="3.30345">
        <ele>76</ele>
        <time>2012-04-15T08:56:36.000Z</time>
      </trkpt>
      <trkpt lat="48.2121" lon="3.30352">
        <ele>76</ele>
        <time>2012-04-15T08:56:38.000Z</time>
      </trkpt>
      <trkpt lat="48.21207" lon="3.3036">
        <ele>76</ele>
        <time>2012-04-15T08:56:40.000Z</time>
      </trkpt>
      <trkpt lat="48.21205" lon="3.30371">
        <ele>76</ele>
        <time>2012-04-15T08:56:42.000Z</time>
      </trkpt>
      <trkpt lat="48.21204" lon="3.30382">
        <ele>76</ele>
        <time>2012-04-15T08:56:44.000Z</time>
      </trkpt>
      <trkpt lat="48.21203" lon="3.30392">
        <ele>76</ele>
        <time>2012-04-15T08:56:46.000Z</time>
      </trkpt>
      <trkpt lat="48.21203" lon="3.30401">
        <ele>76</ele>
        <time>2012-04-15T08:56:48.000Z</time>
      </trkpt>
      <trkpt lat="48.21204" lon="3.3041">
        <ele>76</ele>
        <time>2012-04-15T08:56:50.000Z</time>
      </trkpt>
      <trkpt lat="48.21204" lon="3.30418">
        <ele>76</ele>
        <time>2012-04-15T08:56:52.000Z</time>
      </trkpt>
      <trkpt lat="48.21204" lon="3.30427">
        <ele>76</ele>
        <time>2012-04-15T08:56:54.000Z</time>
      </trkpt>
      <trkpt lat="48.21204" lon="3.30435">
        <ele>76</ele>
        <time>2012-04-15T08:56:56.000Z</time>
      </trkpt>
      <trkpt lat="48.21204" lon="3.30446">
        <ele>76</ele>
        <time>2012-04-15T08:56:58.000Z</time>
      </trkpt>
      <trkpt lat="48.21205" lon="3.30457">
        <ele>76</ele>
        <time>2012-04-15T08:57:00.000Z</time>
      </trkpt>
      <trkpt lat="48.21205" lon="3.30465">
        <ele>76</ele>
        <time>2012-04-15T08:57:02.000Z</time>
      </trkpt>
      <trkpt lat="48.21206" lon="3.30476">
        <ele>76</ele>
        <time>2012-04-15T08:57:04.000Z</time>
      </trkpt>
      <trkpt lat="48.21207" lon="3.30485">
        <ele>76</ele>
        <time>2012-04-15T08:57:06.000Z</time>
      </trkpt>
      <trkpt lat="48.21208" lon="3.30495">
        <ele>76</ele>
        <time>2012-04-15T08:57:08.000Z</time>
      </trkpt>
      <trkpt lat="48.2121" lon="3.30504">
        <ele>76</ele>
        <time>2012-04-15T08:57:10.000Z</time>
      </trkpt>
      <trkpt lat="48.21212" lon="3.30512">
        <ele>76</ele>
        <time>2012-04-15T08:57:12.000Z</time>
      </trkpt>
      <trkpt lat="48.21213" lon="3.30523">
        <ele>76</ele>
        <time>2012-04-15T08:57:14.000Z</time>
      </trkpt>
      <trkpt lat="48.21215" lon="3.30532">
        <ele>76</ele>
        <time>2012-04-15T08:57:16.000Z</time>
      </trkpt>
      <trkpt lat="48.21217" lon="3.3054">
        <ele>76</ele>
        <time>2012-04-15T08:57:18.000Z</time>
      </trkpt>
      <trkpt lat="48.21219" lon="3.30551">
        <ele>76</ele>
        <time>2012-04-15T08:57:20.000Z</time>
      </trkpt>
      <trkpt lat="48.2122" lon="3.3056">
        <ele>76</ele>
        <time>2012-04-15T08:57:22.000Z</time>
      </trkpt>
      <trkpt lat="48.21222" lon="3.3057">
        <ele>76</ele>
        <time>2012-04-15T08:57:24.000Z</time>
      </trkpt>
      <trkpt lat="48.21223" lon="3.30581">
        <ele>76</ele>
        <time>2012-04-15T08:57:26.000Z</time>
      </trkpt>
      <trkpt lat="48.21224" lon="3.30592">
        <ele>76</ele>
        <time>2012-04-15T08:57:28.000Z</time>
      </trkpt>
      <trkpt lat="48.21226" lon="3.30603">
        <ele>76</ele>
        <time>2012-04-15T08:57:30.000Z</time>
      </trkpt>
      <trkpt lat="48.21227" lon="3.30613">
        <ele>76</ele>
        <time>2012-04-15T08:57:32.000Z</time>
      </trkpt>
      <trkpt lat="48.21228" lon="3.30624">
        <ele>77</ele>
        <time>2012-04-15T08:57:34.000Z</time>
      </trkpt>
      <trkpt lat="48.21229" lon="3.30635">
        <ele>77</ele>
        <time>2012-04-15T08:57:36.000Z</time>
      </trkpt>
      <trkpt lat="48.2123" lon="3.30646">
        <ele>77</ele>
        <time>2012-04-15T08:57:38.000Z</time>
      </trkpt>
      <trkpt lat="48.21231" lon="3.30658">
        <ele>77</ele>
        <time>2012-04-15T08:57:40.000Z</time>
      </trkpt>
      <trkpt lat="48.21232" lon="3.30669">
        <ele>77</ele>
        <time>2012-04-15T08:57:42.000Z</time>
      </trkpt>
      <trkpt lat="48.21233" lon="3.3068">
        <ele>77</ele>
        <time>2012-04-15T08:57:44.000Z</time>
      </trkpt>
      <trkpt lat="48.21234" lon="3.30691">
        <ele>77</ele>
        <time>2012-04-15T08:57:46.000Z</time>
      </trkpt>
      <trkpt lat="48.21235" lon="3.30701">
        <ele>77</ele>
        <time>2012-04-15T08:57:48.000Z</time>
      </trkpt>
      <trkpt lat="48.21236" lon="3.30712">
        <ele>77</ele>
        <time>2012-04-15T08:57:50.000Z</time>
      </trkpt>
      <trkpt lat="48.21237" lon="3.30723">
        <ele>77</ele>
        <time>2012-04-15T08:57:52.000Z</time>
      </trkpt>
      <trkpt lat="48.21238" lon="3.30734">
        <ele>77</ele>
        <time>2012-04-15T08:57:54.000Z</time>
      </trkpt>
      <trkpt lat="48.2124" lon="3.30744">
        <ele>78</ele>
        <time>2012-04-15T08:57:56.000Z</time>
      </trkpt>
      <trkpt lat="48.21241" lon="3.30751">
        <ele>78</ele>
        <time>2012-04-15T08:57:57.000Z</time>
      </trkpt>
      <trkpt lat="48.21242" lon="3.30761">
        <ele>78</ele>
        <time>2012-04-15T08:57:59.000Z</time>
      </trkpt>
      <trkpt lat="48.21243" lon="3.30772">
        <ele>78</ele>
        <time>2012-04-15T08:58:01.000Z</time>
      </trkpt>
      <trkpt lat="48.21244" lon="3.30781">
        <ele>77</ele>
        <time>2012-04-15T08:58:03.000Z</time>
      </trkpt>
      <trkpt lat="48.21245" lon="3.30791">
        <ele>78</ele>
        <time>2012-04-15T08:58:05.000Z</time>
      </trkpt>
      <trkpt lat="48.21246" lon="3.30802">
        <ele>78</ele>
        <time>2012-04-15T08:58:07.000Z</time>
      </trkpt>
      <trkpt lat="48.21246" lon="3.30811">
        <ele>78</ele>
        <time>2012-04-15T08:58:09.000Z</time>
      </trkpt>
      <trkpt lat="48.21247" lon="3.30822">
        <ele>78</ele>
        <time>2012-04-15T08:58:11.000Z</time>
      </trkpt>
      <trkpt lat="48.21248" lon="3.30832">
        <ele>79</ele>
        <time>2012-04-15T08:58:13.000Z</time>
      </trkpt>
      <trkpt lat="48.21249" lon="3.30843">
        <ele>78</ele>
        <time>2012-04-15T08:58:15.000Z</time>
      </trkpt>
      <trkpt lat="48.2125" lon="3.30854">
        <ele>78</ele>
        <time>2012-04-15T08:58:17.000Z</time>
      </trkpt>
      <trkpt lat="48.21251" lon="3.30862">
        <ele>79</ele>
        <time>2012-04-15T08:58:19.000Z</time>
      </trkpt>
      <trkpt lat="48.21252" lon="3.30873">
        <ele>79</ele>
        <time>2012-04-15T08:58:21.000Z</time>
      </trkpt>
      <trkpt lat="48.21254" lon="3.30884">
        <ele>79</ele>
        <time>2012-04-15T08:58:23.000Z</time>
      </trkpt>
      <trkpt lat="48.21255" lon="3.30894">
        <ele>78</ele>
        <time>2012-04-15T08:58:25.000Z</time>
      </trkpt>
      <trkpt lat="48.21257" lon="3.30907">
        <ele>78</ele>
        <time>2012-04-15T08:58:27.000Z</time>
      </trkpt>
      <trkpt lat="48.21258" lon="3.30916">
        <ele>77</ele>
        <time>2012-04-15T08:58:28.000Z</time>
      </trkpt>
      <trkpt lat="48.21259" lon="3.30929">
        <ele>77</ele>
        <time>2012-04-15T08:58:30.000Z</time>
      </trkpt>
      <trkpt lat="48.21261" lon="3.30942">
        <ele>78</ele>
        <time>2012-04-15T08:58:32.000Z</time>
      </trkpt>
      <trkpt lat="48.21262" lon="3.30957">
        <ele>78</ele>
        <time>2012-04-15T08:58:34.000Z</time>
      </trkpt>
      <trkpt lat="48.21263" lon="3.30963">
        <ele>78</ele>
        <time>2012-04-15T08:58:35.000Z</time>
      </trkpt>
      <trkpt lat="48.21264" lon="3.30976">
        <ele>78</ele>
        <time>2012-04-15T08:58:37.000Z</time>
      </trkpt>
      <trkpt lat="48.21265" lon="3.30989">
        <ele>77</ele>
        <time>2012-04-15T08:58:39.000Z</time>
      </trkpt>
      <trkpt lat="48.21266" lon="3.30997">
        <ele>77</ele>
        <time>2012-04-15T08:58:40.000Z</time>
      </trkpt>
      <trkpt lat="48.21267" lon="3.3101">
        <ele>77</ele>
        <time>2012-04-15T08:58:42.000Z</time>
      </trkpt>
      <trkpt lat="48.21268" lon="3.31019">
        <ele>77</ele>
        <time>2012-04-15T08:58:43.000Z</time>
      </trkpt>
      <trkpt lat="48.21271" lon="3.31034">
        <ele>78</ele>
        <time>2012-04-15T08:58:45.000Z</time>
      </trkpt>
      <trkpt lat="48.21272" lon="3.31049">
        <ele>78</ele>
        <time>2012-04-15T08:58:47.000Z</time>
      </trkpt>
      <trkpt lat="48.21274" lon="3.31064">
        <ele>77</ele>
        <time>2012-04-15T08:58:49.000Z</time>
      </trkpt>
      <trkpt lat="48.21275" lon="3.31079">
        <ele>77</ele>
        <time>2012-04-15T08:58:51.000Z</time>
      </trkpt>
      <trkpt lat="48.21276" lon="3.31094">
        <ele>77</ele>
        <time>2012-04-15T08:58:53.000Z</time>
      </trkpt>
      <trkpt lat="48.21278" lon="3.31109">
        <ele>78</ele>
        <time>2012-04-15T08:58:55.000Z</time>
      </trkpt>
      <trkpt lat="48.21278" lon="3.31118">
        <ele>78</ele>
        <time>2012-04-15T08:58:56.000Z</time>
      </trkpt>
      <trkpt lat="48.21279" lon="3.31133">
        <ele>78</ele>
        <time>2012-04-15T08:58:58.000Z</time>
      </trkpt>
      <trkpt lat="48.21281" lon="3.31148">
        <ele>78</ele>
        <time>2012-04-15T08:59:00.000Z</time>
      </trkpt>
      <trkpt lat="48.21282" lon="3.31156">
        <ele>78</ele>
        <time>2012-04-15T08:59:01.000Z</time>
      </trkpt>
      <trkpt lat="48.21285" lon="3.31163">
        <ele>78</ele>
        <time>2012-04-15T08:59:02.000Z</time>
      </trkpt>
      <trkpt lat="48.21286" lon="3.31171">
        <ele>78</ele>
        <time>2012-04-15T08:59:03.000Z</time>
      </trkpt>
      <trkpt lat="48.21288" lon="3.3118">
        <ele>78</ele>
        <time>2012-04-15T08:59:04.000Z</time>
      </trkpt>
      <trkpt lat="48.2129" lon="3.31186">
        <ele>78</ele>
        <time>2012-04-15T08:59:05.000Z</time>
      </trkpt>
      <trkpt lat="48.21292" lon="3.31195">
        <ele>78</ele>
        <time>2012-04-15T08:59:06.000Z</time>
      </trkpt>
      <trkpt lat="48.21295" lon="3.31201">
        <ele>78</ele>
        <time>2012-04-15T08:59:07.000Z</time>
      </trkpt>
      <trkpt lat="48.21298" lon="3.31208">
        <ele>78</ele>
        <time>2012-04-15T08:59:08.000Z</time>
      </trkpt>
      <trkpt lat="48.21301" lon="3.31214">
        <ele>78</ele>
        <time>2012-04-15T08:59:09.000Z</time>
      </trkpt>
      <trkpt lat="48.21304" lon="3.31223">
        <ele>78</ele>
        <time>2012-04-15T08:59:10.000Z</time>
      </trkpt>
      <trkpt lat="48.21307" lon="3.31229">
        <ele>78</ele>
        <time>2012-04-15T08:59:11.000Z</time>
      </trkpt>
      <trkpt lat="48.2131" lon="3.31236">
        <ele>78</ele>
        <time>2012-04-15T08:59:12.000Z</time>
      </trkpt>
      <trkpt lat="48.21314" lon="3.31242">
        <ele>78</ele>
        <time>2012-04-15T08:59:13.000Z</time>
      </trkpt>
      <trkpt lat="48.21317" lon="3.31248">
        <ele>78</ele>
        <time>2012-04-15T08:59:14.000Z</time>
      </trkpt>
      <trkpt lat="48.21319" lon="3.31257">
        <ele>79</ele>
        <time>2012-04-15T08:59:15.000Z</time>
      </trkpt>
      <trkpt lat="48.21322" lon="3.31264">
        <ele>79</ele>
        <time>2012-04-15T08:59:16.000Z</time>
      </trkpt>
      <trkpt lat="48.21325" lon="3.31272">
        <ele>79</ele>
        <time>2012-04-15T08:59:17.000Z</time>
      </trkpt>
      <trkpt lat="48.21328" lon="3.31278">
        <ele>79</ele>
        <time>2012-04-15T08:59:18.000Z</time>
      </trkpt>
      <trkpt lat="48.2133" lon="3.31287">
        <ele>79</ele>
        <time>2012-04-15T08:59:19.000Z</time>
      </trkpt>
      <trkpt lat="48.21332" lon="3.31296">
        <ele>79</ele>
        <time>2012-04-15T08:59:20.000Z</time>
      </trkpt>
      <trkpt lat="48.21334" lon="3.31302">
        <ele>81</ele>
        <time>2012-04-15T08:59:21.000Z</time>
      </trkpt>
      <trkpt lat="48.21336" lon="3.31311">
        <ele>81</ele>
        <time>2012-04-15T08:59:22.000Z</time>
      </trkpt>
      <trkpt lat="48.21338" lon="3.31319">
        <ele>81</ele>
        <time>2012-04-15T08:59:23.000Z</time>
      </trkpt>
      <trkpt lat="48.21339" lon="3.31328">
        <ele>80</ele>
        <time>2012-04-15T08:59:24.000Z</time>
      </trkpt>
      <trkpt lat="48.21342" lon="3.31334">
        <ele>80</ele>
        <time>2012-04-15T08:59:25.000Z</time>
      </trkpt>
      <trkpt lat="48.21342" lon="3.31343">
        <ele>80</ele>
        <time>2012-04-15T08:59:26.000Z</time>
      </trkpt>
      <trkpt lat="48.21345" lon="3.31352">
        <ele>81</ele>
        <time>2012-04-15T08:59:27.000Z</time>
      </trkpt>
      <trkpt lat="48.21346" lon="3.3136">
        <ele>81</ele>
        <time>2012-04-15T08:59:28.000Z</time>
      </trkpt>
      <trkpt lat="48.21347" lon="3.31369">
        <ele>81</ele>
        <time>2012-04-15T08:59:29.000Z</time>
      </trkpt>
      <trkpt lat="48.21349" lon="3.31377">
        <ele>81</ele>
        <time>2012-04-15T08:59:30.000Z</time>
      </trkpt>
      <trkpt lat="48.21352" lon="3.31392">
        <ele>81</ele>
        <time>2012-04-15T08:59:32.000Z</time>
      </trkpt>
      <trkpt lat="48.21353" lon="3.31401">
        <ele>80</ele>
        <time>2012-04-15T08:59:33.000Z</time>
      </trkpt>
      <trkpt lat="48.21354" lon="3.31409">
        <ele>80</ele>
        <time>2012-04-15T08:59:34.000Z</time>
      </trkpt>
      <trkpt lat="48.21356" lon="3.31418">
        <ele>80</ele>
        <time>2012-04-15T08:59:35.000Z</time>
      </trkpt>
      <trkpt lat="48.21358" lon="3.31427">
        <ele>80</ele>
        <time>2012-04-15T08:59:36.000Z</time>
      </trkpt>
      <trkpt lat="48.2136" lon="3.31435">
        <ele>81</ele>
        <time>2012-04-15T08:59:37.000Z</time>
      </trkpt>
      <trkpt lat="48.21361" lon="3.31444">
        <ele>81</ele>
        <time>2012-04-15T08:59:38.000Z</time>
      </trkpt>
      <trkpt lat="48.21362" lon="3.31452">
        <ele>81</ele>
        <time>2012-04-15T08:59:39.000Z</time>
      </trkpt>
      <trkpt lat="48.21363" lon="3.31461">
        <ele>81</ele>
        <time>2012-04-15T08:59:40.000Z</time>
      </trkpt>
      <trkpt lat="48.21363" lon="3.3147">
        <ele>81</ele>
        <time>2012-04-15T08:59:41.000Z</time>
      </trkpt>
      <trkpt lat="48.21363" lon="3.31478">
        <ele>81</ele>
        <time>2012-04-15T08:59:42.000Z</time>
      </trkpt>
      <trkpt lat="48.21364" lon="3.31487">
        <ele>81</ele>
        <time>2012-04-15T08:59:43.000Z</time>
      </trkpt>
      <trkpt lat="48.21364" lon="3.31495">
        <ele>81</ele>
        <time>2012-04-15T08:59:44.000Z</time>
      </trkpt>
      <trkpt lat="48.21364" lon="3.31504">
        <ele>82</ele>
        <time>2012-04-15T08:59:45.000Z</time>
      </trkpt>
      <trkpt lat="48.21364" lon="3.31512">
        <ele>82</ele>
        <time>2012-04-15T08:59:46.000Z</time>
      </trkpt>
      <trkpt lat="48.21364" lon="3.31521">
        <ele>82</ele>
        <time>2012-04-15T08:59:47.000Z</time>
      </trkpt>
      <trkpt lat="48.21363" lon="3.3153">
        <ele>83</ele>
        <time>2012-04-15T08:59:48.000Z</time>
      </trkpt>
      <trkpt lat="48.21363" lon="3.31545">
        <ele>83</ele>
        <time>2012-04-15T08:59:50.000Z</time>
      </trkpt>
      <trkpt lat="48.21362" lon="3.31553">
        <ele>83</ele>
        <time>2012-04-15T08:59:51.000Z</time>
      </trkpt>
      <trkpt lat="48.21361" lon="3.31568">
        <ele>83</ele>
        <time>2012-04-15T08:59:53.000Z</time>
      </trkpt>
      <trkpt lat="48.2136" lon="3.31577">
        <ele>82</ele>
        <time>2012-04-15T08:59:54.000Z</time>
      </trkpt>
      <trkpt lat="48.21359" lon="3.31592">
        <ele>84</ele>
        <time>2012-04-15T08:59:56.000Z</time>
      </trkpt>
      <trkpt lat="48.21356" lon="3.31607">
        <ele>84</ele>
        <time>2012-04-15T08:59:58.000Z</time>
      </trkpt>
      <trkpt lat="48.21355" lon="3.31622">
        <ele>84</ele>
        <time>2012-04-15T09:00:00.000Z</time>
      </trkpt>
      <trkpt lat="48.21354" lon="3.3163">
        <ele>84</ele>
        <time>2012-04-15T09:00:01.000Z</time>
      </trkpt>
      <trkpt lat="48.21353" lon="3.31639">
        <ele>84</ele>
        <time>2012-04-15T09:00:02.000Z</time>
      </trkpt>
      <trkpt lat="48.21351" lon="3.31654">
        <ele>84</ele>
        <time>2012-04-15T09:00:04.000Z</time>
      </trkpt>
      <trkpt lat="48.2135" lon="3.31663">
        <ele>84</ele>
        <time>2012-04-15T09:00:05.000Z</time>
      </trkpt>
      <trkpt lat="48.21349" lon="3.31671">
        <ele>85</ele>
        <time>2012-04-15T09:00:06.000Z</time>
      </trkpt>
      <trkpt lat="48.21348" lon="3.3168">
        <ele>85</ele>
        <time>2012-04-15T09:00:07.000Z</time>
      </trkpt>
      <trkpt lat="48.21347" lon="3.31688">
        <ele>86</ele>
        <time>2012-04-15T09:00:08.000Z</time>
      </trkpt>
      <trkpt lat="48.21345" lon="3.31697">
        <ele>86</ele>
        <time>2012-04-15T09:00:09.000Z</time>
      </trkpt>
      <trkpt lat="48.21342" lon="3.31706">
        <ele>86</ele>
        <time>2012-04-15T09:00:10.000Z</time>
      </trkpt>
      <trkpt lat="48.21342" lon="3.31714">
        <ele>86</ele>
        <time>2012-04-15T09:00:11.000Z</time>
      </trkpt>
      <trkpt lat="48.21338" lon="3.3172">
        <ele>86</ele>
        <time>2012-04-15T09:00:12.000Z</time>
      </trkpt>
      <trkpt lat="48.21336" lon="3.31729">
        <ele>86</ele>
        <time>2012-04-15T09:00:13.000Z</time>
      </trkpt>
      <trkpt lat="48.21333" lon="3.31738">
        <ele>83</ele>
        <time>2012-04-15T09:00:14.000Z</time>
      </trkpt>
      <trkpt lat="48.2133" lon="3.31746">
        <ele>83</ele>
        <time>2012-04-15T09:00:15.000Z</time>
      </trkpt>
      <trkpt lat="48.21325" lon="3.31753">
        <ele>84</ele>
        <time>2012-04-15T09:00:16.000Z</time>
      </trkpt>
      <trkpt lat="48.21322" lon="3.31761">
        <ele>83</ele>
        <time>2012-04-15T09:00:17.000Z</time>
      </trkpt>
      <trkpt lat="48.21317" lon="3.31768">
        <ele>83</ele>
        <time>2012-04-15T09:00:18.000Z</time>
      </trkpt>
      <trkpt lat="48.21312" lon="3.31774">
        <ele>83</ele>
        <time>2012-04-15T09:00:19.000Z</time>
      </trkpt>
      <trkpt lat="48.21308" lon="3.31783">
        <ele>83</ele>
        <time>2012-04-15T09:00:20.000Z</time>
      </trkpt>
      <trkpt lat="48.21303" lon="3.31789">
        <ele>83</ele>
        <time>2012-04-15T09:00:21.000Z</time>
      </trkpt>
      <trkpt lat="48.21298" lon="3.31796">
        <ele>83</ele>
        <time>2012-04-15T09:00:22.000Z</time>
      </trkpt>
      <trkpt lat="48.21294" lon="3.31802">
        <ele>83</ele>
        <time>2012-04-15T09:00:23.000Z</time>
      </trkpt>
      <trkpt lat="48.21289" lon="3.31811">
        <ele>83</ele>
        <time>2012-04-15T09:00:24.000Z</time>
      </trkpt>
      <trkpt lat="48.21285" lon="3.31817">
        <ele>83</ele>
        <time>2012-04-15T09:00:25.000Z</time>
      </trkpt>
      <trkpt lat="48.2128" lon="3.31826">
        <ele>82</ele>
        <time>2012-04-15T09:00:26.000Z</time>
      </trkpt>
      <trkpt lat="48.21277" lon="3.31832">
        <ele>82</ele>
        <time>2012-04-15T09:00:27.000Z</time>
      </trkpt>
      <trkpt lat="48.21273" lon="3.31841">
        <ele>83</ele>
        <time>2012-04-15T09:00:28.000Z</time>
      </trkpt>
      <trkpt lat="48.21268" lon="3.31847">
        <ele>83</ele>
        <time>2012-04-15T09:00:29.000Z</time>
      </trkpt>
      <trkpt lat="48.21265" lon="3.31856">
        <ele>84</ele>
        <time>2012-04-15T09:00:30.000Z</time>
      </trkpt>
      <trkpt lat="48.21262" lon="3.31864">
        <ele>84</ele>
        <time>2012-04-15T09:00:31.000Z</time>
      </trkpt>
      <trkpt lat="48.21259" lon="3.31873">
        <ele>84</ele>
        <time>2012-04-15T09:00:32.000Z</time>
      </trkpt>
      <trkpt lat="48.21256" lon="3.31879">
        <ele>84</ele>
        <time>2012-04-15T09:00:33.000Z</time>
      </trkpt>
      <trkpt lat="48.21254" lon="3.31888">
        <ele>84</ele>
        <time>2012-04-15T09:00:34.000Z</time>
      </trkpt>
      <trkpt lat="48.2125" lon="3.31896">
        <ele>82</ele>
        <time>2012-04-15T09:00:35.000Z</time>
      </trkpt>
      <trkpt lat="48.21248" lon="3.31903">
        <ele>82</ele>
        <time>2012-04-15T09:00:36.000Z</time>
      </trkpt>
      <trkpt lat="48.21245" lon="3.31912">
        <ele>82</ele>
        <time>2012-04-15T09:00:37.000Z</time>
      </trkpt>
      <trkpt lat="48.21242" lon="3.31918">
        <ele>82</ele>
        <time>2012-04-15T09:00:38.000Z</time>
      </trkpt>
      <trkpt lat="48.21238" lon="3.31926">
        <ele>82</ele>
        <time>2012-04-15T09:00:39.000Z</time>
      </trkpt>
      <trkpt lat="48.21235" lon="3.31933">
        <ele>82</ele>
        <time>2012-04-15T09:00:40.000Z</time>
      </trkpt>
      <trkpt lat="48.21232" lon="3.31939">
        <ele>83</ele>
        <time>2012-04-15T09:00:41.000Z</time>
      </trkpt>
      <trkpt lat="48.21228" lon="3.31948">
        <ele>83</ele>
        <time>2012-04-15T09:00:42.000Z</time>
      </trkpt>
      <trkpt lat="48.21224" lon="3.31954">
        <ele>83</ele>
        <time>2012-04-15T09:00:43.000Z</time>
      </trkpt>
      <trkpt lat="48.21221" lon="3.31961">
        <ele>83</ele>
        <time>2012-04-15T09:00:44.000Z</time>
      </trkpt>
      <trkpt lat="48.21218" lon="3.31967">
        <ele>83</ele>
        <time>2012-04-15T09:00:45.000Z</time>
      </trkpt>
      <trkpt lat="48.21214" lon="3.31976">
        <ele>83</ele>
        <time>2012-04-15T09:00:46.000Z</time>
      </trkpt>
      <trkpt lat="48.21211" lon="3.31982">
        <ele>83</ele>
        <time>2012-04-15T09:00:47.000Z</time>
      </trkpt>
      <trkpt lat="48.21207" lon="3.31989">
        <ele>83</ele>
        <time>2012-04-15T09:00:48.000Z</time>
      </trkpt>
      <trkpt lat="48.21204" lon="3.31995">
        <ele>83</ele>
        <time>2012-04-15T09:00:49.000Z</time>
      </trkpt>
      <trkpt lat="48.21202" lon="3.32002">
        <ele>84</ele>
        <time>2012-04-15T09:00:50.000Z</time>
      </trkpt>
      <trkpt lat="48.21199" lon="3.32008">
        <ele>84</ele>
        <time>2012-04-15T09:00:51.000Z</time>
      </trkpt>
      <trkpt lat="48.21196" lon="3.32014">
        <ele>84</ele>
        <time>2012-04-15T09:00:52.000Z</time>
      </trkpt>
      <trkpt lat="48.2119" lon="3.32025">
        <ele>84</ele>
        <time>2012-04-15T09:00:54.000Z</time>
      </trkpt>
      <trkpt lat="48.21188" lon="3.32032">
        <ele>84</ele>
        <time>2012-04-15T09:00:55.000Z</time>
      </trkpt>
      <trkpt lat="48.21183" lon="3.32042">
        <ele>84</ele>
        <time>2012-04-15T09:00:57.000Z</time>
      </trkpt>
      <trkpt lat="48.2118" lon="3.32049">
        <ele>84</ele>
        <time>2012-04-15T09:00:58.000Z</time>
      </trkpt>
      <trkpt lat="48.21175" lon="3.3206">
        <ele>84</ele>
        <time>2012-04-15T09:01:00.000Z</time>
      </trkpt>
      <trkpt lat="48.21173" lon="3.32066">
        <ele>84</ele>
        <time>2012-04-15T09:01:01.000Z</time>
      </trkpt>
      <trkpt lat="48.2117" lon="3.32072">
        <ele>84</ele>
        <time>2012-04-15T09:01:02.000Z</time>
      </trkpt>
      <trkpt lat="48.21166" lon="3.32083">
        <ele>83</ele>
        <time>2012-04-15T09:01:04.000Z</time>
      </trkpt>
      <trkpt lat="48.21162" lon="3.3209">
        <ele>83</ele>
        <time>2012-04-15T09:01:05.000Z</time>
      </trkpt>
      <trkpt lat="48.21158" lon="3.32098">
        <ele>83</ele>
        <time>2012-04-15T09:01:07.000Z</time>
      </trkpt>
      <trkpt lat="48.21154" lon="3.32107">
        <ele>84</ele>
        <time>2012-04-15T09:01:09.000Z</time>
      </trkpt>
      <trkpt lat="48.21149" lon="3.32118">
        <ele>84</ele>
        <time>2012-04-15T09:01:11.000Z</time>
      </trkpt>
      <trkpt lat="48.21145" lon="3.32126">
        <ele>84</ele>
        <time>2012-04-15T09:01:13.000Z</time>
      </trkpt>
      <trkpt lat="48.21141" lon="3.32137">
        <ele>84</ele>
        <time>2012-04-15T09:01:15.000Z</time>
      </trkpt>
      <trkpt lat="48.21136" lon="3.32148">
        <ele>84</ele>
        <time>2012-04-15T09:01:17.000Z</time>
      </trkpt>
      <trkpt lat="48.2113" lon="3.32158">
        <ele>84</ele>
        <time>2012-04-15T09:01:19.000Z</time>
      </trkpt>
      <trkpt lat="48.21128" lon="3.32165">
        <ele>84</ele>
        <time>2012-04-15T09:01:20.000Z</time>
      </trkpt>
      <trkpt lat="48.21125" lon="3.32173">
        <ele>86</ele>
        <time>2012-04-15T09:01:21.000Z</time>
      </trkpt>
      <trkpt lat="48.21123" lon="3.3218">
        <ele>86</ele>
        <time>2012-04-15T09:01:22.000Z</time>
      </trkpt>
      <trkpt lat="48.2112" lon="3.32186">
        <ele>86</ele>
        <time>2012-04-15T09:01:23.000Z</time>
      </trkpt>
      <trkpt lat="48.21117" lon="3.32193">
        <ele>86</ele>
        <time>2012-04-15T09:01:24.000Z</time>
      </trkpt>
      <trkpt lat="48.21115" lon="3.32199">
        <ele>86</ele>
        <time>2012-04-15T09:01:25.000Z</time>
      </trkpt>
      <trkpt lat="48.21112" lon="3.32208">
        <ele>87</ele>
        <time>2012-04-15T09:01:26.000Z</time>
      </trkpt>
      <trkpt lat="48.2111" lon="3.32214">
        <ele>87</ele>
        <time>2012-04-15T09:01:27.000Z</time>
      </trkpt>
      <trkpt lat="48.21106" lon="3.3222">
        <ele>87</ele>
        <time>2012-04-15T09:01:28.000Z</time>
      </trkpt>
      <trkpt lat="48.21104" lon="3.32229">
        <ele>86</ele>
        <time>2012-04-15T09:01:29.000Z</time>
      </trkpt>
      <trkpt lat="48.21101" lon="3.32242">
        <ele>86</ele>
        <time>2012-04-15T09:01:31.000Z</time>
      </trkpt>
      <trkpt lat="48.21099" lon="3.32255">
        <ele>87</ele>
        <time>2012-04-15T09:01:33.000Z</time>
      </trkpt>
      <trkpt lat="48.21097" lon="3.32268">
        <ele>88</ele>
        <time>2012-04-15T09:01:35.000Z</time>
      </trkpt>
      <trkpt lat="48.21097" lon="3.32278">
        <ele>89</ele>
        <time>2012-04-15T09:01:37.000Z</time>
      </trkpt>
      <trkpt lat="48.21096" lon="3.32289">
        <ele>89</ele>
        <time>2012-04-15T09:01:39.000Z</time>
      </trkpt>
      <trkpt lat="48.21096" lon="3.323">
        <ele>89</ele>
        <time>2012-04-15T09:01:41.000Z</time>
      </trkpt>
      <trkpt lat="48.21097" lon="3.32311">
        <ele>89</ele>
        <time>2012-04-15T09:01:43.000Z</time>
      </trkpt>
      <trkpt lat="48.21098" lon="3.32321">
        <ele>89</ele>
        <time>2012-04-15T09:01:45.000Z</time>
      </trkpt>
      <trkpt lat="48.211" lon="3.3233">
        <ele>89</ele>
        <time>2012-04-15T09:01:47.000Z</time>
      </trkpt>
      <trkpt lat="48.21101" lon="3.32341">
        <ele>90</ele>
        <time>2012-04-15T09:01:49.000Z</time>
      </trkpt>
      <trkpt lat="48.21103" lon="3.32349">
        <ele>90</ele>
        <time>2012-04-15T09:01:51.000Z</time>
      </trkpt>
      <trkpt lat="48.21106" lon="3.32358">
        <ele>90</ele>
        <time>2012-04-15T09:01:53.000Z</time>
      </trkpt>
      <trkpt lat="48.21109" lon="3.32366">
        <ele>91</ele>
        <time>2012-04-15T09:01:55.000Z</time>
      </trkpt>
      <trkpt lat="48.21111" lon="3.32375">
        <ele>91</ele>
        <time>2012-04-15T09:01:57.000Z</time>
      </trkpt>
      <trkpt lat="48.21113" lon="3.32384">
        <ele>91</ele>
        <time>2012-04-15T09:01:59.000Z</time>
      </trkpt>
      <trkpt lat="48.21115" lon="3.32392">
        <ele>91</ele>
        <time>2012-04-15T09:02:02.000Z</time>
      </trkpt>
      <trkpt lat="48.21115" lon="3.32392">
        <ele>91</ele>
        <time>2012-04-15T09:02:02.000Z</time>
      </trkpt>
      <trkpt lat="48.21115" lon="3.32392">
        <ele>91</ele>
        <time>2012-04-15T09:02:05.000Z</time>
      </trkpt>
      <trkpt lat="48.21119" lon="3.32394">
        <ele>91</ele>
        <time>2012-04-15T09:02:06.000Z</time>
      </trkpt>
      <trkpt lat="48.21118" lon="3.32386">
        <ele>91</ele>
        <time>2012-04-15T09:02:08.000Z</time>
      </trkpt>
      <trkpt lat="48.21115" lon="3.32379">
        <ele>91</ele>
        <time>2012-04-15T09:02:10.000Z</time>
      </trkpt>
      <trkpt lat="48.21112" lon="3.32371">
        <ele>91</ele>
        <time>2012-04-15T09:02:12.000Z</time>
      </trkpt>
      <trkpt lat="48.21108" lon="3.32366">
        <ele>91</ele>
        <time>2012-04-15T09:02:15.000Z</time>
      </trkpt>
      <trkpt lat="48.21103" lon="3.32369">
        <ele>91</ele>
        <time>2012-04-15T09:02:17.000Z</time>
      </trkpt>
      <trkpt lat="48.21096" lon="3.32364">
        <ele>90</ele>
        <time>2012-04-15T09:02:20.000Z</time>
      </trkpt>
      <trkpt lat="48.21092" lon="3.3236">
        <ele>90</ele>
        <time>2012-04-15T09:02:22.000Z</time>
      </trkpt>
      <trkpt lat="48.21086" lon="3.32356">
        <ele>90</ele>
        <time>2012-04-15T09:02:24.000Z</time>
      </trkpt>
      <trkpt lat="48.2108" lon="3.32356">
        <ele>87</ele>
        <time>2012-04-15T09:02:27.000Z</time>
      </trkpt>
      <trkpt lat="48.21073" lon="3.32354">
        <ele>87</ele>
        <time>2012-04-15T09:02:30.000Z</time>
      </trkpt>
      <trkpt lat="48.21068" lon="3.32354">
        <ele>87</ele>
        <time>2012-04-15T09:02:32.000Z</time>
      </trkpt>
      <trkpt lat="48.21062" lon="3.32354">
        <ele>87</ele>
        <time>2012-04-15T09:02:34.000Z</time>
      </trkpt>
      <trkpt lat="48.21055" lon="3.32354">
        <ele>87</ele>
        <time>2012-04-15T09:02:36.000Z</time>
      </trkpt>
      <trkpt lat="48.21048" lon="3.32354">
        <ele>87</ele>
        <time>2012-04-15T09:02:38.000Z</time>
      </trkpt>
      <trkpt lat="48.2104" lon="3.32354">
        <ele>86</ele>
        <time>2012-04-15T09:02:40.000Z</time>
      </trkpt>
      <trkpt lat="48.21031" lon="3.32356">
        <ele>86</ele>
        <time>2012-04-15T09:02:42.000Z</time>
      </trkpt>
      <trkpt lat="48.21023" lon="3.32356">
        <ele>86</ele>
        <time>2012-04-15T09:02:44.000Z</time>
      </trkpt>
      <trkpt lat="48.21014" lon="3.32356">
        <ele>86</ele>
        <time>2012-04-15T09:02:46.000Z</time>
      </trkpt>
      <trkpt lat="48.21007" lon="3.32356">
        <ele>85</ele>
        <time>2012-04-15T09:02:48.000Z</time>
      </trkpt>
      <trkpt lat="48.20999" lon="3.32356">
        <ele>85</ele>
        <time>2012-04-15T09:02:50.000Z</time>
      </trkpt>
      <trkpt lat="48.20993" lon="3.32356">
        <ele>85</ele>
        <time>2012-04-15T09:02:52.000Z</time>
      </trkpt>
      <trkpt lat="48.20985" lon="3.32356">
        <ele>85</ele>
        <time>2012-04-15T09:02:54.000Z</time>
      </trkpt>
      <trkpt lat="48.20977" lon="3.32356">
        <ele>85</ele>
        <time>2012-04-15T09:02:56.000Z</time>
      </trkpt>
      <trkpt lat="48.20969" lon="3.32356">
        <ele>85</ele>
        <time>2012-04-15T09:02:58.000Z</time>
      </trkpt>
      <trkpt lat="48.20963" lon="3.32354">
        <ele>85</ele>
        <time>2012-04-15T09:03:00.000Z</time>
      </trkpt>
      <trkpt lat="48.20955" lon="3.32354">
        <ele>85</ele>
        <time>2012-04-15T09:03:02.000Z</time>
      </trkpt>
      <trkpt lat="48.20949" lon="3.32354">
        <ele>85</ele>
        <time>2012-04-15T09:03:04.000Z</time>
      </trkpt>
      <trkpt lat="48.20942" lon="3.32354">
        <ele>85</ele>
        <time>2012-04-15T09:03:06.000Z</time>
      </trkpt>
      <trkpt lat="48.20935" lon="3.32354">
        <ele>85</ele>
        <time>2012-04-15T09:03:08.000Z</time>
      </trkpt>
      <trkpt lat="48.20928" lon="3.32354">
        <ele>85</ele>
        <time>2012-04-15T09:03:10.000Z</time>
      </trkpt>
      <trkpt lat="48.20922" lon="3.32354">
        <ele>85</ele>
        <time>2012-04-15T09:03:12.000Z</time>
      </trkpt>
      <trkpt lat="48.20914" lon="3.32354">
        <ele>86</ele>
        <time>2012-04-15T09:03:14.000Z</time>
      </trkpt>
      <trkpt lat="48.20908" lon="3.32354">
        <ele>86</ele>
        <time>2012-04-15T09:03:16.000Z</time>
      </trkpt>
      <trkpt lat="48.209" lon="3.32354">
        <ele>86</ele>
        <time>2012-04-15T09:03:18.000Z</time>
      </trkpt>
      <trkpt lat="48.20894" lon="3.32354">
        <ele>86</ele>
        <time>2012-04-15T09:03:20.000Z</time>
      </trkpt>
      <trkpt lat="48.20887" lon="3.32354">
        <ele>86</ele>
        <time>2012-04-15T09:03:22.000Z</time>
      </trkpt>
      <trkpt lat="48.2088" lon="3.32354">
        <ele>86</ele>
        <time>2012-04-15T09:03:24.000Z</time>
      </trkpt>
      <trkpt lat="48.20874" lon="3.32354">
        <ele>86</ele>
        <time>2012-04-15T09:03:26.000Z</time>
      </trkpt>
      <trkpt lat="48.20867" lon="3.32354">
        <ele>86</ele>
        <time>2012-04-15T09:03:28.000Z</time>
      </trkpt>
      <trkpt lat="48.20861" lon="3.32354">
        <ele>87</ele>
        <time>2012-04-15T09:03:30.000Z</time>
      </trkpt>
      <trkpt lat="48.20854" lon="3.32351">
        <ele>87</ele>
        <time>2012-04-15T09:03:32.000Z</time>
      </trkpt>
      <trkpt lat="48.20847" lon="3.32351">
        <ele>87</ele>
        <time>2012-04-15T09:03:34.000Z</time>
      </trkpt>
      <trkpt lat="48.2084" lon="3.32349">
        <ele>87</ele>
        <time>2012-04-15T09:03:36.000Z</time>
      </trkpt>
      <trkpt lat="48.20835" lon="3.32349">
        <ele>87</ele>
        <time>2012-04-15T09:03:38.000Z</time>
      </trkpt>
      <trkpt lat="48.20829" lon="3.32347">
        <ele>89</ele>
        <time>2012-04-15T09:03:40.000Z</time>
      </trkpt>
      <trkpt lat="48.20823" lon="3.32347">
        <ele>89</ele>
        <time>2012-04-15T09:03:42.000Z</time>
      </trkpt>
      <trkpt lat="48.20818" lon="3.32349">
        <ele>90</ele>
        <time>2012-04-15T09:03:44.000Z</time>
      </trkpt>
      <trkpt lat="48.20812" lon="3.32349">
        <ele>90</ele>
        <time>2012-04-15T09:03:46.000Z</time>
      </trkpt>
      <trkpt lat="48.20804" lon="3.32349">
        <ele>91</ele>
        <time>2012-04-15T09:03:48.000Z</time>
      </trkpt>
      <trkpt lat="48.20796" lon="3.32351">
        <ele>92</ele>
        <time>2012-04-15T09:03:50.000Z</time>
      </trkpt>
      <trkpt lat="48.20789" lon="3.32351">
        <ele>92</ele>
        <time>2012-04-15T09:03:52.000Z</time>
      </trkpt>
      <trkpt lat="48.20782" lon="3.32354">
        <ele>93</ele>
        <time>2012-04-15T09:03:54.000Z</time>
      </trkpt>
      <trkpt lat="48.20775" lon="3.32356">
        <ele>93</ele>
        <time>2012-04-15T09:03:56.000Z</time>
      </trkpt>
      <trkpt lat="48.20768" lon="3.32356">
        <ele>94</ele>
        <time>2012-04-15T09:03:58.000Z</time>
      </trkpt>
      <trkpt lat="48.20763" lon="3.32358">
        <ele>94</ele>
        <time>2012-04-15T09:04:00.000Z</time>
      </trkpt>
      <trkpt lat="48.20758" lon="3.32358">
        <ele>94</ele>
        <time>2012-04-15T09:04:02.000Z</time>
      </trkpt>
      <trkpt lat="48.20752" lon="3.3236">
        <ele>94</ele>
        <time>2012-04-15T09:04:04.000Z</time>
      </trkpt>
      <trkpt lat="48.20746" lon="3.3236">
        <ele>99</ele>
        <time>2012-04-15T09:04:06.000Z</time>
      </trkpt>
      <trkpt lat="48.20741" lon="3.3236">
        <ele>99</ele>
        <time>2012-04-15T09:04:08.000Z</time>
      </trkpt>
      <trkpt lat="48.20734" lon="3.32362">
        <ele>99</ele>
        <time>2012-04-15T09:04:10.000Z</time>
      </trkpt>
      <trkpt lat="48.20729" lon="3.32362">
        <ele>99</ele>
        <time>2012-04-15T09:04:12.000Z</time>
      </trkpt>
      <trkpt lat="48.20724" lon="3.32362">
        <ele>99</ele>
        <time>2012-04-15T09:04:14.000Z</time>
      </trkpt>
      <trkpt lat="48.20718" lon="3.32362">
        <ele>99</ele>
        <time>2012-04-15T09:04:16.000Z</time>
      </trkpt>
      <trkpt lat="48.20713" lon="3.32362">
        <ele>100</ele>
        <time>2012-04-15T09:04:18.000Z</time>
      </trkpt>
      <trkpt lat="48.20706" lon="3.32364">
        <ele>100</ele>
        <time>2012-04-15T09:04:20.000Z</time>
      </trkpt>
      <trkpt lat="48.20701" lon="3.32364">
        <ele>100</ele>
        <time>2012-04-15T09:04:22.000Z</time>
      </trkpt>
      <trkpt lat="48.20694" lon="3.32366">
        <ele>100</ele>
        <time>2012-04-15T09:04:25.000Z</time>
      </trkpt>
      <trkpt lat="48.20689" lon="3.32366">
        <ele>101</ele>
        <time>2012-04-15T09:04:27.000Z</time>
      </trkpt>
      <trkpt lat="48.20684" lon="3.32366">
        <ele>101</ele>
        <time>2012-04-15T09:04:29.000Z</time>
      </trkpt>
      <trkpt lat="48.20677" lon="3.32364">
        <ele>101</ele>
        <time>2012-04-15T09:04:32.000Z</time>
      </trkpt>
      <trkpt lat="48.20672" lon="3.32364">
        <ele>101</ele>
        <time>2012-04-15T09:04:34.000Z</time>
      </trkpt>
      <trkpt lat="48.20664" lon="3.32364">
        <ele>103</ele>
        <time>2012-04-15T09:04:38.000Z</time>
      </trkpt>
      <trkpt lat="48.20664" lon="3.32364">
        <ele>103</ele>
        <time>2012-04-15T09:04:38.000Z</time>
      </trkpt>
      <trkpt lat="48.20664" lon="3.32364">
        <ele>103</ele>
        <time>2012-04-15T09:04:40.000Z</time>
      </trkpt>
      <trkpt lat="48.20659" lon="3.32362">
        <ele>103</ele>
        <time>2012-04-15T09:04:41.000Z</time>
      </trkpt>
      <trkpt lat="48.20659" lon="3.32362">
        <ele>103</ele>
        <time>2012-04-15T09:04:41.000Z</time>
      </trkpt>
      <trkpt lat="48.20659" lon="3.32362">
        <ele>103</ele>
        <time>2012-04-15T09:04:43.000Z</time>
      </trkpt>
      <trkpt lat="48.20654" lon="3.3236">
        <ele>103</ele>
        <time>2012-04-15T09:04:44.000Z</time>
      </trkpt>
      <trkpt lat="48.20654" lon="3.3236">
        <ele>103</ele>
        <time>2012-04-15T09:04:44.000Z</time>
      </trkpt>
      <trkpt lat="48.20654" lon="3.3236">
        <ele>103</ele>
        <time>2012-04-15T09:04:45.000Z</time>
      </trkpt>
      <trkpt lat="48.20645" lon="3.3236">
        <ele>103</ele>
        <time>2012-04-15T09:04:49.000Z</time>
      </trkpt>
      <trkpt lat="48.20645" lon="3.3236">
        <ele>103</ele>
        <time>2012-04-15T09:04:49.000Z</time>
      </trkpt>
      <trkpt lat="48.20645" lon="3.3236">
        <ele>103</ele>
        <time>2012-04-15T09:04:51.000Z</time>
      </trkpt>
      <trkpt lat="48.2064" lon="3.32362">
        <ele>103</ele>
        <time>2012-04-15T09:04:52.000Z</time>
      </trkpt>
      <trkpt lat="48.2064" lon="3.32362">
        <ele>103</ele>
        <time>2012-04-15T09:04:52.000Z</time>
      </trkpt>
      <trkpt lat="48.2064" lon="3.32362">
        <ele>103</ele>
        <time>2012-04-15T09:04:54.000Z</time>
      </trkpt>
      <trkpt lat="48.20636" lon="3.32366">
        <ele>103</ele>
        <time>2012-04-15T09:04:55.000Z</time>
      </trkpt>
      <trkpt lat="48.20636" lon="3.32366">
        <ele>103</ele>
        <time>2012-04-15T09:04:55.000Z</time>
      </trkpt>
      <trkpt lat="48.20636" lon="3.32366">
        <ele>103</ele>
        <time>2012-04-15T09:04:59.000Z</time>
      </trkpt>
      <trkpt lat="48.2063" lon="3.32369">
        <ele>103</ele>
        <time>2012-04-15T09:05:00.000Z</time>
      </trkpt>
      <trkpt lat="48.2063" lon="3.32369">
        <ele>103</ele>
        <time>2012-04-15T09:05:00.000Z</time>
      </trkpt>
      <trkpt lat="48.2063" lon="3.32369">
        <ele>103</ele>
        <time>2012-04-15T09:05:02.000Z</time>
      </trkpt>
      <trkpt lat="48.20629" lon="3.32377">
        <ele>103</ele>
        <time>2012-04-15T09:05:03.000Z</time>
      </trkpt>
      <trkpt lat="48.2063" lon="3.32384">
        <ele>103</ele>
        <time>2012-04-15T09:05:05.000Z</time>
      </trkpt>
      <trkpt lat="48.20631" lon="3.32392">
        <ele>103</ele>
        <time>2012-04-15T09:05:07.000Z</time>
      </trkpt>
      <trkpt lat="48.20633" lon="3.32401">
        <ele>103</ele>
        <time>2012-04-15T09:05:09.000Z</time>
      </trkpt>
      <trkpt lat="48.20636" lon="3.32409">
        <ele>103</ele>
        <time>2012-04-15T09:05:11.000Z</time>
      </trkpt>
      <trkpt lat="48.20638" lon="3.32418">
        <ele>103</ele>
        <time>2012-04-15T09:05:13.000Z</time>
      </trkpt>
      <trkpt lat="48.2064" lon="3.32426">
        <ele>103</ele>
        <time>2012-04-15T09:05:15.000Z</time>
      </trkpt>
      <trkpt lat="48.20642" lon="3.32435">
        <ele>103</ele>
        <time>2012-04-15T09:05:17.000Z</time>
      </trkpt>
      <trkpt lat="48.20644" lon="3.32444">
        <ele>103</ele>
        <time>2012-04-15T09:05:19.000Z</time>
      </trkpt>
      <trkpt lat="48.20646" lon="3.3245">
        <ele>103</ele>
        <time>2012-04-15T09:05:21.000Z</time>
      </trkpt>
      <trkpt lat="48.20647" lon="3.32459">
        <ele>103</ele>
        <time>2012-04-15T09:05:23.000Z</time>
      </trkpt>
      <trkpt lat="48.2065" lon="3.32467">
        <ele>103</ele>
        <time>2012-04-15T09:05:25.000Z</time>
      </trkpt>
      <trkpt lat="48.20652" lon="3.32476">
        <ele>103</ele>
        <time>2012-04-15T09:05:27.000Z</time>
      </trkpt>
      <trkpt lat="48.20653" lon="3.32484">
        <ele>103</ele>
        <time>2012-04-15T09:05:29.000Z</time>
      </trkpt>
      <trkpt lat="48.20654" lon="3.32493">
        <ele>103</ele>
        <time>2012-04-15T09:05:31.000Z</time>
      </trkpt>
      <trkpt lat="48.20655" lon="3.325">
        <ele>103</ele>
        <time>2012-04-15T09:05:32.000Z</time>
      </trkpt>
      <trkpt lat="48.20657" lon="3.32508">
        <ele>103</ele>
        <time>2012-04-15T09:05:34.000Z</time>
      </trkpt>
      <trkpt lat="48.20658" lon="3.32517">
        <ele>103</ele>
        <time>2012-04-15T09:05:36.000Z</time>
      </trkpt>
      <trkpt lat="48.20659" lon="3.32523">
        <ele>103</ele>
        <time>2012-04-15T09:05:37.000Z</time>
      </trkpt>
      <trkpt lat="48.20661" lon="3.32534">
        <ele>103</ele>
        <time>2012-04-15T09:05:39.000Z</time>
      </trkpt>
      <trkpt lat="48.20662" lon="3.32544">
        <ele>102</ele>
        <time>2012-04-15T09:05:41.000Z</time>
      </trkpt>
      <trkpt lat="48.20664" lon="3.32555">
        <ele>102</ele>
        <time>2012-04-15T09:05:43.000Z</time>
      </trkpt>
      <trkpt lat="48.20666" lon="3.32566">
        <ele>102</ele>
        <time>2012-04-15T09:05:45.000Z</time>
      </trkpt>
      <trkpt lat="48.20668" lon="3.32577">
        <ele>101</ele>
        <time>2012-04-15T09:05:47.000Z</time>
      </trkpt>
      <trkpt lat="48.2067" lon="3.32587">
        <ele>101</ele>
        <time>2012-04-15T09:05:49.000Z</time>
      </trkpt>
      <trkpt lat="48.20671" lon="3.32598">
        <ele>100</ele>
        <time>2012-04-15T09:05:51.000Z</time>
      </trkpt>
      <trkpt lat="48.20673" lon="3.32609">
        <ele>100</ele>
        <time>2012-04-15T09:05:53.000Z</time>
      </trkpt>
      <trkpt lat="48.20675" lon="3.32622">
        <ele>99</ele>
        <time>2012-04-15T09:05:55.000Z</time>
      </trkpt>
      <trkpt lat="48.20677" lon="3.32632">
        <ele>99</ele>
        <time>2012-04-15T09:05:57.000Z</time>
      </trkpt>
      <trkpt lat="48.2068" lon="3.32645">
        <ele>99</ele>
        <time>2012-04-15T09:05:59.000Z</time>
      </trkpt>
      <trkpt lat="48.20682" lon="3.32658">
        <ele>100</ele>
        <time>2012-04-15T09:06:01.000Z</time>
      </trkpt>
      <trkpt lat="48.20683" lon="3.32665">
        <ele>100</ele>
        <time>2012-04-15T09:06:02.000Z</time>
      </trkpt>
      <trkpt lat="48.20684" lon="3.32673">
        <ele>100</ele>
        <time>2012-04-15T09:06:03.000Z</time>
      </trkpt>
      <trkpt lat="48.20686" lon="3.32686">
        <ele>100</ele>
        <time>2012-04-15T09:06:05.000Z</time>
      </trkpt>
      <trkpt lat="48.20687" lon="3.32693">
        <ele>99</ele>
        <time>2012-04-15T09:06:06.000Z</time>
      </trkpt>
      <trkpt lat="48.20689" lon="3.32705">
        <ele>99</ele>
        <time>2012-04-15T09:06:08.000Z</time>
      </trkpt>
      <trkpt lat="48.2069" lon="3.32712">
        <ele>99</ele>
        <time>2012-04-15T09:06:09.000Z</time>
      </trkpt>
      <trkpt lat="48.20692" lon="3.32718">
        <ele>99</ele>
        <time>2012-04-15T09:06:10.000Z</time>
      </trkpt>
      <trkpt lat="48.20694" lon="3.32731">
        <ele>99</ele>
        <time>2012-04-15T09:06:12.000Z</time>
      </trkpt>
      <trkpt lat="48.20697" lon="3.32738">
        <ele>99</ele>
        <time>2012-04-15T09:06:13.000Z</time>
      </trkpt>
      <trkpt lat="48.207" lon="3.3275">
        <ele>99</ele>
        <time>2012-04-15T09:06:15.000Z</time>
      </trkpt>
      <trkpt lat="48.20703" lon="3.32763">
        <ele>99</ele>
        <time>2012-04-15T09:06:17.000Z</time>
      </trkpt>
      <trkpt lat="48.20705" lon="3.3277">
        <ele>98</ele>
        <time>2012-04-15T09:06:18.000Z</time>
      </trkpt>
      <trkpt lat="48.20706" lon="3.32776">
        <ele>98</ele>
        <time>2012-04-15T09:06:19.000Z</time>
      </trkpt>
      <trkpt lat="48.20708" lon="3.32791">
        <ele>98</ele>
        <time>2012-04-15T09:06:21.000Z</time>
      </trkpt>
      <trkpt lat="48.2071" lon="3.32806">
        <ele>98</ele>
        <time>2012-04-15T09:06:23.000Z</time>
      </trkpt>
      <trkpt lat="48.20708" lon="3.32821">
        <ele>98</ele>
        <time>2012-04-15T09:06:25.000Z</time>
      </trkpt>
      <trkpt lat="48.20708" lon="3.3283">
        <ele>98</ele>
        <time>2012-04-15T09:06:26.000Z</time>
      </trkpt>
      <trkpt lat="48.2071" lon="3.32845">
        <ele>97</ele>
        <time>2012-04-15T09:06:28.000Z</time>
      </trkpt>
      <trkpt lat="48.2071" lon="3.32858">
        <ele>98</ele>
        <time>2012-04-15T09:06:30.000Z</time>
      </trkpt>
      <trkpt lat="48.2071" lon="3.32866">
        <ele>98</ele>
        <time>2012-04-15T09:06:31.000Z</time>
      </trkpt>
      <trkpt lat="48.20711" lon="3.32879">
        <ele>98</ele>
        <time>2012-04-15T09:06:33.000Z</time>
      </trkpt>
      <trkpt lat="48.20711" lon="3.32892">
        <ele>98</ele>
        <time>2012-04-15T09:06:35.000Z</time>
      </trkpt>
      <trkpt lat="48.20712" lon="3.32899">
        <ele>98</ele>
        <time>2012-04-15T09:06:36.000Z</time>
      </trkpt>
      <trkpt lat="48.20712" lon="3.32911">
        <ele>98</ele>
        <time>2012-04-15T09:06:38.000Z</time>
      </trkpt>
      <trkpt lat="48.20712" lon="3.32924">
        <ele>98</ele>
        <time>2012-04-15T09:06:40.000Z</time>
      </trkpt>
      <trkpt lat="48.20712" lon="3.32937">
        <ele>98</ele>
        <time>2012-04-15T09:06:42.000Z</time>
      </trkpt>
      <trkpt lat="48.20712" lon="3.3295">
        <ele>98</ele>
        <time>2012-04-15T09:06:44.000Z</time>
      </trkpt>
      <trkpt lat="48.20712" lon="3.32961">
        <ele>98</ele>
        <time>2012-04-15T09:06:46.000Z</time>
      </trkpt>
      <trkpt lat="48.20713" lon="3.32974">
        <ele>98</ele>
        <time>2012-04-15T09:06:48.000Z</time>
      </trkpt>
      <trkpt lat="48.20713" lon="3.32984">
        <ele>98</ele>
        <time>2012-04-15T09:06:50.000Z</time>
      </trkpt>
      <trkpt lat="48.20713" lon="3.32995">
        <ele>98</ele>
        <time>2012-04-15T09:06:52.000Z</time>
      </trkpt>
      <trkpt lat="48.20714" lon="3.33006">
        <ele>97</ele>
        <time>2012-04-15T09:06:54.000Z</time>
      </trkpt>
      <trkpt lat="48.20714" lon="3.33017">
        <ele>97</ele>
        <time>2012-04-15T09:06:56.000Z</time>
      </trkpt>
      <trkpt lat="48.20714" lon="3.3303">
        <ele>98</ele>
        <time>2012-04-15T09:06:58.000Z</time>
      </trkpt>
      <trkpt lat="48.20714" lon="3.33042">
        <ele>98</ele>
        <time>2012-04-15T09:07:00.000Z</time>
      </trkpt>
      <trkpt lat="48.20714" lon="3.33055">
        <ele>98</ele>
        <time>2012-04-15T09:07:02.000Z</time>
      </trkpt>
      <trkpt lat="48.20714" lon="3.33068">
        <ele>98</ele>
        <time>2012-04-15T09:07:04.000Z</time>
      </trkpt>
      <trkpt lat="48.20714" lon="3.33077">
        <ele>98</ele>
        <time>2012-04-15T09:07:06.000Z</time>
      </trkpt>
      <trkpt lat="48.20715" lon="3.33085">
        <ele>98</ele>
        <time>2012-04-15T09:07:08.000Z</time>
      </trkpt>
      <trkpt lat="48.20716" lon="3.33096">
        <ele>98</ele>
        <time>2012-04-15T09:07:10.000Z</time>
      </trkpt>
      <trkpt lat="48.20716" lon="3.33107">
        <ele>98</ele>
        <time>2012-04-15T09:07:12.000Z</time>
      </trkpt>
      <trkpt lat="48.20716" lon="3.33117">
        <ele>99</ele>
        <time>2012-04-15T09:07:14.000Z</time>
      </trkpt>
      <trkpt lat="48.20716" lon="3.33128">
        <ele>99</ele>
        <time>2012-04-15T09:07:16.000Z</time>
      </trkpt>
      <trkpt lat="48.20716" lon="3.33139">
        <ele>99</ele>
        <time>2012-04-15T09:07:18.000Z</time>
      </trkpt>
      <trkpt lat="48.20716" lon="3.3315">
        <ele>99</ele>
        <time>2012-04-15T09:07:20.000Z</time>
      </trkpt>
      <trkpt lat="48.20716" lon="3.3316">
        <ele>99</ele>
        <time>2012-04-15T09:07:22.000Z</time>
      </trkpt>
      <trkpt lat="48.20716" lon="3.33171">
        <ele>100</ele>
        <time>2012-04-15T09:07:24.000Z</time>
      </trkpt>
      <trkpt lat="48.20716" lon="3.33182">
        <ele>100</ele>
        <time>2012-04-15T09:07:26.000Z</time>
      </trkpt>
      <trkpt lat="48.20716" lon="3.33192">
        <ele>100</ele>
        <time>2012-04-15T09:07:28.000Z</time>
      </trkpt>
      <trkpt lat="48.20716" lon="3.33205">
        <ele>100</ele>
        <time>2012-04-15T09:07:30.000Z</time>
      </trkpt>
      <trkpt lat="48.20716" lon="3.33216">
        <ele>100</ele>
        <time>2012-04-15T09:07:32.000Z</time>
      </trkpt>
      <trkpt lat="48.20716" lon="3.33227">
        <ele>100</ele>
        <time>2012-04-15T09:07:34.000Z</time>
      </trkpt>
      <trkpt lat="48.20716" lon="3.33238">
        <ele>100</ele>
        <time>2012-04-15T09:07:36.000Z</time>
      </trkpt>
      <trkpt lat="48.20716" lon="3.33248">
        <ele>100</ele>
        <time>2012-04-15T09:07:38.000Z</time>
      </trkpt>
      <trkpt lat="48.20716" lon="3.33261">
        <ele>100</ele>
        <time>2012-04-15T09:07:40.000Z</time>
      </trkpt>
      <trkpt lat="48.20716" lon="3.33272">
        <ele>100</ele>
        <time>2012-04-15T09:07:42.000Z</time>
      </trkpt>
      <trkpt lat="48.20716" lon="3.33285">
        <ele>100</ele>
        <time>2012-04-15T09:07:44.000Z</time>
      </trkpt>
      <trkpt lat="48.20716" lon="3.33296">
        <ele>100</ele>
        <time>2012-04-15T09:07:46.000Z</time>
      </trkpt>
      <trkpt lat="48.20716" lon="3.33308">
        <ele>100</ele>
        <time>2012-04-15T09:07:48.000Z</time>
      </trkpt>
      <trkpt lat="48.20716" lon="3.33319">
        <ele>100</ele>
        <time>2012-04-15T09:07:50.000Z</time>
      </trkpt>
      <trkpt lat="48.20717" lon="3.3333">
        <ele>100</ele>
        <time>2012-04-15T09:07:52.000Z</time>
      </trkpt>
      <trkpt lat="48.20717" lon="3.33343">
        <ele>101</ele>
        <time>2012-04-15T09:07:54.000Z</time>
      </trkpt>
      <trkpt lat="48.20717" lon="3.33356">
        <ele>101</ele>
        <time>2012-04-15T09:07:56.000Z</time>
      </trkpt>
      <trkpt lat="48.20718" lon="3.33362">
        <ele>101</ele>
        <time>2012-04-15T09:07:57.000Z</time>
      </trkpt>
      <trkpt lat="48.20718" lon="3.33373">
        <ele>101</ele>
        <time>2012-04-15T09:07:59.000Z</time>
      </trkpt>
      <trkpt lat="48.20719" lon="3.33386">
        <ele>101</ele>
        <time>2012-04-15T09:08:01.000Z</time>
      </trkpt>
      <trkpt lat="48.2072" lon="3.33396">
        <ele>101</ele>
        <time>2012-04-15T09:08:03.000Z</time>
      </trkpt>
      <trkpt lat="48.2072" lon="3.33409">
        <ele>101</ele>
        <time>2012-04-15T09:08:05.000Z</time>
      </trkpt>
      <trkpt lat="48.20721" lon="3.3342">
        <ele>102</ele>
        <time>2012-04-15T09:08:07.000Z</time>
      </trkpt>
      <trkpt lat="48.20721" lon="3.33433">
        <ele>102</ele>
        <time>2012-04-15T09:08:09.000Z</time>
      </trkpt>
      <trkpt lat="48.20722" lon="3.33444">
        <ele>102</ele>
        <time>2012-04-15T09:08:11.000Z</time>
      </trkpt>
      <trkpt lat="48.20724" lon="3.33456">
        <ele>102</ele>
        <time>2012-04-15T09:08:13.000Z</time>
      </trkpt>
      <trkpt lat="48.20724" lon="3.33467">
        <ele>102</ele>
        <time>2012-04-15T09:08:15.000Z</time>
      </trkpt>
      <trkpt lat="48.20725" lon="3.3348">
        <ele>102</ele>
        <time>2012-04-15T09:08:17.000Z</time>
      </trkpt>
      <trkpt lat="48.20725" lon="3.33491">
        <ele>102</ele>
        <time>2012-04-15T09:08:19.000Z</time>
      </trkpt>
      <trkpt lat="48.20726" lon="3.33504">
        <ele>102</ele>
        <time>2012-04-15T09:08:21.000Z</time>
      </trkpt>
      <trkpt lat="48.20727" lon="3.33514">
        <ele>102</ele>
        <time>2012-04-15T09:08:23.000Z</time>
      </trkpt>
      <trkpt lat="48.20727" lon="3.33525">
        <ele>103</ele>
        <time>2012-04-15T09:08:25.000Z</time>
      </trkpt>
      <trkpt lat="48.20728" lon="3.33532">
        <ele>103</ele>
        <time>2012-04-15T09:08:26.000Z</time>
      </trkpt>
      <trkpt lat="48.20728" lon="3.33542">
        <ele>103</ele>
        <time>2012-04-15T09:08:28.000Z</time>
      </trkpt>
      <trkpt lat="48.20729" lon="3.33555">
        <ele>103</ele>
        <time>2012-04-15T09:08:30.000Z</time>
      </trkpt>
      <trkpt lat="48.2073" lon="3.33566">
        <ele>103</ele>
        <time>2012-04-15T09:08:32.000Z</time>
      </trkpt>
      <trkpt lat="48.2073" lon="3.33577">
        <ele>103</ele>
        <time>2012-04-15T09:08:34.000Z</time>
      </trkpt>
      <trkpt lat="48.20731" lon="3.33583">
        <ele>102</ele>
        <time>2012-04-15T09:08:35.000Z</time>
      </trkpt>
      <trkpt lat="48.20732" lon="3.33596">
        <ele>103</ele>
        <time>2012-04-15T09:08:37.000Z</time>
      </trkpt>
      <trkpt lat="48.20733" lon="3.33607">
        <ele>104</ele>
        <time>2012-04-15T09:08:39.000Z</time>
      </trkpt>
      <trkpt lat="48.20734" lon="3.3362">
        <ele>104</ele>
        <time>2012-04-15T09:08:41.000Z</time>
      </trkpt>
      <trkpt lat="48.20735" lon="3.33632">
        <ele>104</ele>
        <time>2012-04-15T09:08:43.000Z</time>
      </trkpt>
      <trkpt lat="48.20736" lon="3.33645">
        <ele>104</ele>
        <time>2012-04-15T09:08:45.000Z</time>
      </trkpt>
      <trkpt lat="48.20738" lon="3.33658">
        <ele>103</ele>
        <time>2012-04-15T09:08:47.000Z</time>
      </trkpt>
      <trkpt lat="48.2074" lon="3.33671">
        <ele>104</ele>
        <time>2012-04-15T09:08:49.000Z</time>
      </trkpt>
      <trkpt lat="48.20741" lon="3.33678">
        <ele>104</ele>
        <time>2012-04-15T09:08:50.000Z</time>
      </trkpt>
      <trkpt lat="48.20741" lon="3.33686">
        <ele>104</ele>
        <time>2012-04-15T09:08:51.000Z</time>
      </trkpt>
      <trkpt lat="48.20743" lon="3.33699">
        <ele>105</ele>
        <time>2012-04-15T09:08:53.000Z</time>
      </trkpt>
      <trkpt lat="48.20743" lon="3.33712">
        <ele>105</ele>
        <time>2012-04-15T09:08:55.000Z</time>
      </trkpt>
      <trkpt lat="48.20744" lon="3.33727">
        <ele>104</ele>
        <time>2012-04-15T09:08:57.000Z</time>
      </trkpt>
      <trkpt lat="48.20745" lon="3.3374">
        <ele>104</ele>
        <time>2012-04-15T09:08:59.000Z</time>
      </trkpt>
      <trkpt lat="48.20746" lon="3.33753">
        <ele>103</ele>
        <time>2012-04-15T09:09:01.000Z</time>
      </trkpt>
      <trkpt lat="48.20746" lon="3.33766">
        <ele>104</ele>
        <time>2012-04-15T09:09:03.000Z</time>
      </trkpt>
      <trkpt lat="48.20746" lon="3.33778">
        <ele>105</ele>
        <time>2012-04-15T09:09:05.000Z</time>
      </trkpt>
      <trkpt lat="48.20746" lon="3.33791">
        <ele>106</ele>
        <time>2012-04-15T09:09:07.000Z</time>
      </trkpt>
      <trkpt lat="48.20745" lon="3.33804">
        <ele>105</ele>
        <time>2012-04-15T09:09:09.000Z</time>
      </trkpt>
      <trkpt lat="48.20745" lon="3.33817">
        <ele>105</ele>
        <time>2012-04-15T09:09:11.000Z</time>
      </trkpt>
      <trkpt lat="48.20745" lon="3.3383">
        <ele>104</ele>
        <time>2012-04-15T09:09:13.000Z</time>
      </trkpt>
      <trkpt lat="48.20745" lon="3.33843">
        <ele>105</ele>
        <time>2012-04-15T09:09:15.000Z</time>
      </trkpt>
      <trkpt lat="48.20745" lon="3.33853">
        <ele>105</ele>
        <time>2012-04-15T09:09:17.000Z</time>
      </trkpt>
      <trkpt lat="48.20745" lon="3.33866">
        <ele>106</ele>
        <time>2012-04-15T09:09:19.000Z</time>
      </trkpt>
      <trkpt lat="48.20745" lon="3.33877">
        <ele>105</ele>
        <time>2012-04-15T09:09:21.000Z</time>
      </trkpt>
      <trkpt lat="48.20745" lon="3.3389">
        <ele>105</ele>
        <time>2012-04-15T09:09:23.000Z</time>
      </trkpt>
      <trkpt lat="48.20745" lon="3.33903">
        <ele>104</ele>
        <time>2012-04-15T09:09:25.000Z</time>
      </trkpt>
      <trkpt lat="48.20745" lon="3.33916">
        <ele>102</ele>
        <time>2012-04-15T09:09:27.000Z</time>
      </trkpt>
      <trkpt lat="48.20745" lon="3.33928">
        <ele>103</ele>
        <time>2012-04-15T09:09:29.000Z</time>
      </trkpt>
      <trkpt lat="48.20746" lon="3.33935">
        <ele>104</ele>
        <time>2012-04-15T09:09:30.000Z</time>
      </trkpt>
      <trkpt lat="48.20747" lon="3.33948">
        <ele>104</ele>
        <time>2012-04-15T09:09:32.000Z</time>
      </trkpt>
      <trkpt lat="48.20748" lon="3.33961">
        <ele>104</ele>
        <time>2012-04-15T09:09:34.000Z</time>
      </trkpt>
      <trkpt lat="48.20749" lon="3.33974">
        <ele>104</ele>
        <time>2012-04-15T09:09:36.000Z</time>
      </trkpt>
      <trkpt lat="48.20751" lon="3.33984">
        <ele>99</ele>
        <time>2012-04-15T09:09:38.000Z</time>
      </trkpt>
      <trkpt lat="48.20752" lon="3.33997">
        <ele>100</ele>
        <time>2012-04-15T09:09:40.000Z</time>
      </trkpt>
      <trkpt lat="48.20755" lon="3.3401">
        <ele>99</ele>
        <time>2012-04-15T09:09:42.000Z</time>
      </trkpt>
      <trkpt lat="48.20758" lon="3.34023">
        <ele>99</ele>
        <time>2012-04-15T09:09:44.000Z</time>
      </trkpt>
      <trkpt lat="48.20759" lon="3.34029">
        <ele>98</ele>
        <time>2012-04-15T09:09:45.000Z</time>
      </trkpt>
      <trkpt lat="48.20762" lon="3.34042">
        <ele>98</ele>
        <time>2012-04-15T09:09:47.000Z</time>
      </trkpt>
      <trkpt lat="48.20764" lon="3.34055">
        <ele>98</ele>
        <time>2012-04-15T09:09:49.000Z</time>
      </trkpt>
      <trkpt lat="48.20766" lon="3.34062">
        <ele>98</ele>
        <time>2012-04-15T09:09:50.000Z</time>
      </trkpt>
      <trkpt lat="48.2077" lon="3.34072">
        <ele>98</ele>
        <time>2012-04-15T09:09:52.000Z</time>
      </trkpt>
      <trkpt lat="48.20773" lon="3.34085">
        <ele>98</ele>
        <time>2012-04-15T09:09:54.000Z</time>
      </trkpt>
      <trkpt lat="48.20776" lon="3.34098">
        <ele>98</ele>
        <time>2012-04-15T09:09:56.000Z</time>
      </trkpt>
      <trkpt lat="48.20779" lon="3.34111">
        <ele>98</ele>
        <time>2012-04-15T09:09:58.000Z</time>
      </trkpt>
      <trkpt lat="48.20781" lon="3.34117">
        <ele>98</ele>
        <time>2012-04-15T09:09:59.000Z</time>
      </trkpt>
      <trkpt lat="48.20785" lon="3.3413">
        <ele>97</ele>
        <time>2012-04-15T09:10:01.000Z</time>
      </trkpt>
      <trkpt lat="48.20787" lon="3.34137">
        <ele>97</ele>
        <time>2012-04-15T09:10:02.000Z</time>
      </trkpt>
      <trkpt lat="48.2079" lon="3.3415">
        <ele>97</ele>
        <time>2012-04-15T09:10:04.000Z</time>
      </trkpt>
      <trkpt lat="48.20792" lon="3.3416">
        <ele>97</ele>
        <time>2012-04-15T09:10:06.000Z</time>
      </trkpt>
      <trkpt lat="48.20794" lon="3.34167">
        <ele>98</ele>
        <time>2012-04-15T09:10:07.000Z</time>
      </trkpt>
      <trkpt lat="48.20796" lon="3.34177">
        <ele>98</ele>
        <time>2012-04-15T09:10:09.000Z</time>
      </trkpt>
      <trkpt lat="48.20798" lon="3.34184">
        <ele>98</ele>
        <time>2012-04-15T09:10:10.000Z</time>
      </trkpt>
      <trkpt lat="48.208" lon="3.3419">
        <ele>98</ele>
        <time>2012-04-15T09:10:11.000Z</time>
      </trkpt>
      <trkpt lat="48.20802" lon="3.34201">
        <ele>98</ele>
        <time>2012-04-15T09:10:13.000Z</time>
      </trkpt>
      <trkpt lat="48.20803" lon="3.34208">
        <ele>98</ele>
        <time>2012-04-15T09:10:14.000Z</time>
      </trkpt>
      <trkpt lat="48.20806" lon="3.34218">
        <ele>98</ele>
        <time>2012-04-15T09:10:16.000Z</time>
      </trkpt>
      <trkpt lat="48.20808" lon="3.34229">
        <ele>98</ele>
        <time>2012-04-15T09:10:18.000Z</time>
      </trkpt>
      <trkpt lat="48.2081" lon="3.34235">
        <ele>98</ele>
        <time>2012-04-15T09:10:19.000Z</time>
      </trkpt>
      <trkpt lat="48.20812" lon="3.34248">
        <ele>98</ele>
        <time>2012-04-15T09:10:21.000Z</time>
      </trkpt>
      <trkpt lat="48.20815" lon="3.34255">
        <ele>98</ele>
        <time>2012-04-15T09:10:22.000Z</time>
      </trkpt>
      <trkpt lat="48.20818" lon="3.34265">
        <ele>99</ele>
        <time>2012-04-15T09:10:24.000Z</time>
      </trkpt>
      <trkpt lat="48.20821" lon="3.34278">
        <ele>99</ele>
        <time>2012-04-15T09:10:26.000Z</time>
      </trkpt>
      <trkpt lat="48.20823" lon="3.34291">
        <ele>99</ele>
        <time>2012-04-15T09:10:28.000Z</time>
      </trkpt>
      <trkpt lat="48.20825" lon="3.34298">
        <ele>99</ele>
        <time>2012-04-15T09:10:29.000Z</time>
      </trkpt>
      <trkpt lat="48.20829" lon="3.34308">
        <ele>99</ele>
        <time>2012-04-15T09:10:31.000Z</time>
      </trkpt>
      <trkpt lat="48.2083" lon="3.34315">
        <ele>99</ele>
        <time>2012-04-15T09:10:32.000Z</time>
      </trkpt>
      <trkpt lat="48.20833" lon="3.34328">
        <ele>98</ele>
        <time>2012-04-15T09:10:34.000Z</time>
      </trkpt>
      <trkpt lat="48.20834" lon="3.34334">
        <ele>97</ele>
        <time>2012-04-15T09:10:35.000Z</time>
      </trkpt>
      <trkpt lat="48.20836" lon="3.3434">
        <ele>97</ele>
        <time>2012-04-15T09:10:36.000Z</time>
      </trkpt>
      <trkpt lat="48.20837" lon="3.34347">
        <ele>97</ele>
        <time>2012-04-15T09:10:37.000Z</time>
      </trkpt>
      <trkpt lat="48.20839" lon="3.34353">
        <ele>97</ele>
        <time>2012-04-15T09:10:38.000Z</time>
      </trkpt>
      <trkpt lat="48.20842" lon="3.34366">
        <ele>97</ele>
        <time>2012-04-15T09:10:40.000Z</time>
      </trkpt>
      <trkpt lat="48.20845" lon="3.34377">
        <ele>97</ele>
        <time>2012-04-15T09:10:42.000Z</time>
      </trkpt>
      <trkpt lat="48.20847" lon="3.34388">
        <ele>97</ele>
        <time>2012-04-15T09:10:44.000Z</time>
      </trkpt>
      <trkpt lat="48.20849" lon="3.34394">
        <ele>98</ele>
        <time>2012-04-15T09:10:45.000Z</time>
      </trkpt>
      <trkpt lat="48.20852" lon="3.34405">
        <ele>98</ele>
        <time>2012-04-15T09:10:47.000Z</time>
      </trkpt>
      <trkpt lat="48.20855" lon="3.34416">
        <ele>98</ele>
        <time>2012-04-15T09:10:49.000Z</time>
      </trkpt>
      <trkpt lat="48.20859" lon="3.34426">
        <ele>99</ele>
        <time>2012-04-15T09:10:51.000Z</time>
      </trkpt>
      <trkpt lat="48.20861" lon="3.34433">
        <ele>99</ele>
        <time>2012-04-15T09:10:52.000Z</time>
      </trkpt>
      <trkpt lat="48.20864" lon="3.34444">
        <ele>98</ele>
        <time>2012-04-15T09:10:54.000Z</time>
      </trkpt>
      <trkpt lat="48.20866" lon="3.34452">
        <ele>98</ele>
        <time>2012-04-15T09:10:56.000Z</time>
      </trkpt>
      <trkpt lat="48.20869" lon="3.34458">
        <ele>98</ele>
        <time>2012-04-15T09:10:58.000Z</time>
      </trkpt>
      <trkpt lat="48.20872" lon="3.34467">
        <ele>98</ele>
        <time>2012-04-15T09:11:00.000Z</time>
      </trkpt>
      <trkpt lat="48.20874" lon="3.34478">
        <ele>98</ele>
        <time>2012-04-15T09:11:02.000Z</time>
      </trkpt>
      <trkpt lat="48.20877" lon="3.34486">
        <ele>98</ele>
        <time>2012-04-15T09:11:04.000Z</time>
      </trkpt>
      <trkpt lat="48.20879" lon="3.34495">
        <ele>98</ele>
        <time>2012-04-15T09:11:06.000Z</time>
      </trkpt>
      <trkpt lat="48.20882" lon="3.34504">
        <ele>99</ele>
        <time>2012-04-15T09:11:08.000Z</time>
      </trkpt>
      <trkpt lat="48.20886" lon="3.34512">
        <ele>99</ele>
        <time>2012-04-15T09:11:10.000Z</time>
      </trkpt>
      <trkpt lat="48.20889" lon="3.34523">
        <ele>99</ele>
        <time>2012-04-15T09:11:12.000Z</time>
      </trkpt>
      <trkpt lat="48.20892" lon="3.34532">
        <ele>99</ele>
        <time>2012-04-15T09:11:14.000Z</time>
      </trkpt>
      <trkpt lat="48.20895" lon="3.34542">
        <ele>99</ele>
        <time>2012-04-15T09:11:16.000Z</time>
      </trkpt>
      <trkpt lat="48.20898" lon="3.34551">
        <ele>99</ele>
        <time>2012-04-15T09:11:18.000Z</time>
      </trkpt>
      <trkpt lat="48.20902" lon="3.34559">
        <ele>99</ele>
        <time>2012-04-15T09:11:20.000Z</time>
      </trkpt>
      <trkpt lat="48.20904" lon="3.34566">
        <ele>99</ele>
        <time>2012-04-15T09:11:21.000Z</time>
      </trkpt>
      <trkpt lat="48.20906" lon="3.34574">
        <ele>99</ele>
        <time>2012-04-15T09:11:23.000Z</time>
      </trkpt>
      <trkpt lat="48.2091" lon="3.34585">
        <ele>99</ele>
        <time>2012-04-15T09:11:25.000Z</time>
      </trkpt>
      <trkpt lat="48.20914" lon="3.34596">
        <ele>99</ele>
        <time>2012-04-15T09:11:27.000Z</time>
      </trkpt>
      <trkpt lat="48.20919" lon="3.34607">
        <ele>98</ele>
        <time>2012-04-15T09:11:29.000Z</time>
      </trkpt>
      <trkpt lat="48.20922" lon="3.34615">
        <ele>98</ele>
        <time>2012-04-15T09:11:31.000Z</time>
      </trkpt>
      <trkpt lat="48.20924" lon="3.34622">
        <ele>98</ele>
        <time>2012-04-15T09:11:32.000Z</time>
      </trkpt>
      <trkpt lat="48.20927" lon="3.3463">
        <ele>98</ele>
        <time>2012-04-15T09:11:34.000Z</time>
      </trkpt>
      <trkpt lat="48.20931" lon="3.34639">
        <ele>98</ele>
        <time>2012-04-15T09:11:36.000Z</time>
      </trkpt>
      <trkpt lat="48.20934" lon="3.3465">
        <ele>98</ele>
        <time>2012-04-15T09:11:38.000Z</time>
      </trkpt>
      <trkpt lat="48.20937" lon="3.34658">
        <ele>98</ele>
        <time>2012-04-15T09:11:40.000Z</time>
      </trkpt>
      <trkpt lat="48.2094" lon="3.34667">
        <ele>99</ele>
        <time>2012-04-15T09:11:42.000Z</time>
      </trkpt>
      <trkpt lat="48.20943" lon="3.34675">
        <ele>99</ele>
        <time>2012-04-15T09:11:44.000Z</time>
      </trkpt>
      <trkpt lat="48.20947" lon="3.34682">
        <ele>99</ele>
        <time>2012-04-15T09:11:46.000Z</time>
      </trkpt>
      <trkpt lat="48.20948" lon="3.3469">
        <ele>99</ele>
        <time>2012-04-15T09:11:48.000Z</time>
      </trkpt>
      <trkpt lat="48.20947" lon="3.34699">
        <ele>100</ele>
        <time>2012-04-15T09:11:50.000Z</time>
      </trkpt>
      <trkpt lat="48.20942" lon="3.34703">
        <ele>100</ele>
        <time>2012-04-15T09:11:52.000Z</time>
      </trkpt>
      <trkpt lat="48.20938" lon="3.34705">
        <ele>100</ele>
        <time>2012-04-15T09:11:54.000Z</time>
      </trkpt>
      <trkpt lat="48.20934" lon="3.34707">
        <ele>100</ele>
        <time>2012-04-15T09:11:56.000Z</time>
      </trkpt>
      <trkpt lat="48.2093" lon="3.34712">
        <ele>100</ele>
        <time>2012-04-15T09:11:58.000Z</time>
      </trkpt>
      <trkpt lat="48.20924" lon="3.34714">
        <ele>100</ele>
        <time>2012-04-15T09:12:00.000Z</time>
      </trkpt>
      <trkpt lat="48.20918" lon="3.34716">
        <ele>100</ele>
        <time>2012-04-15T09:12:03.000Z</time>
      </trkpt>
      <trkpt lat="48.20913" lon="3.34718">
        <ele>103</ele>
        <time>2012-04-15T09:12:05.000Z</time>
      </trkpt>
      <trkpt lat="48.20909" lon="3.3472">
        <ele>103</ele>
        <time>2012-04-15T09:12:07.000Z</time>
      </trkpt>
      <trkpt lat="48.20905" lon="3.34722">
        <ele>104</ele>
        <time>2012-04-15T09:12:09.000Z</time>
      </trkpt>
      <trkpt lat="48.20897" lon="3.34725">
        <ele>104</ele>
        <time>2012-04-15T09:12:12.000Z</time>
      </trkpt>
      <trkpt lat="48.20893" lon="3.34727">
        <ele>104</ele>
        <time>2012-04-15T09:12:14.000Z</time>
      </trkpt>
      <trkpt lat="48.20888" lon="3.34729">
        <ele>104</ele>
        <time>2012-04-15T09:12:16.000Z</time>
      </trkpt>
      <trkpt lat="48.20882" lon="3.34731">
        <ele>104</ele>
        <time>2012-04-15T09:12:18.000Z</time>
      </trkpt>
      <trkpt lat="48.20877" lon="3.34733">
        <ele>105</ele>
        <time>2012-04-15T09:12:20.000Z</time>
      </trkpt>
      <trkpt lat="48.2087" lon="3.34738">
        <ele>105</ele>
        <time>2012-04-15T09:12:23.000Z</time>
      </trkpt>
      <trkpt lat="48.20865" lon="3.3474">
        <ele>105</ele>
        <time>2012-04-15T09:12:25.000Z</time>
      </trkpt>
      <trkpt lat="48.20859" lon="3.34742">
        <ele>106</ele>
        <time>2012-04-15T09:12:28.000Z</time>
      </trkpt>
      <trkpt lat="48.20854" lon="3.34744">
        <ele>106</ele>
        <time>2012-04-15T09:12:30.000Z</time>
      </trkpt>
      <trkpt lat="48.2085" lon="3.34746">
        <ele>107</ele>
        <time>2012-04-15T09:12:32.000Z</time>
      </trkpt>
      <trkpt lat="48.20846" lon="3.34748">
        <ele>107</ele>
        <time>2012-04-15T09:12:34.000Z</time>
      </trkpt>
      <trkpt lat="48.20842" lon="3.3475">
        <ele>109</ele>
        <time>2012-04-15T09:12:36.000Z</time>
      </trkpt>
      <trkpt lat="48.20836" lon="3.34752">
        <ele>109</ele>
        <time>2012-04-15T09:12:38.000Z</time>
      </trkpt>
      <trkpt lat="48.2083" lon="3.34755">
        <ele>110</ele>
        <time>2012-04-15T09:12:41.000Z</time>
      </trkpt>
      <trkpt lat="48.20823" lon="3.34761">
        <ele>111</ele>
        <time>2012-04-15T09:12:44.000Z</time>
      </trkpt>
      <trkpt lat="48.20821" lon="3.34774">
        <ele>111</ele>
        <time>2012-04-15T09:12:49.000Z</time>
      </trkpt>
      <trkpt lat="48.20822" lon="3.34783">
        <ele>111</ele>
        <time>2012-04-15T09:12:52.000Z</time>
      </trkpt>
      <trkpt lat="48.20823" lon="3.34791">
        <ele>112</ele>
        <time>2012-04-15T09:12:55.000Z</time>
      </trkpt>
      <trkpt lat="48.20825" lon="3.34804">
        <ele>112</ele>
        <time>2012-04-15T09:12:59.000Z</time>
      </trkpt>
      <trkpt lat="48.20828" lon="3.34815">
        <ele>112</ele>
        <time>2012-04-15T09:13:02.000Z</time>
      </trkpt>
      <trkpt lat="48.20829" lon="3.34826">
        <ele>111</ele>
        <time>2012-04-15T09:13:05.000Z</time>
      </trkpt>
      <trkpt lat="48.20831" lon="3.34832">
        <ele>111</ele>
        <time>2012-04-15T09:13:07.000Z</time>
      </trkpt>
      <trkpt lat="48.20832" lon="3.34843">
        <ele>111</ele>
        <time>2012-04-15T09:13:10.000Z</time>
      </trkpt>
      <trkpt lat="48.20833" lon="3.34849">
        <ele>111</ele>
        <time>2012-04-15T09:13:12.000Z</time>
      </trkpt>
      <trkpt lat="48.20835" lon="3.34858">
        <ele>109</ele>
        <time>2012-04-15T09:13:14.000Z</time>
      </trkpt>
      <trkpt lat="48.20837" lon="3.34868">
        <ele>109</ele>
        <time>2012-04-15T09:13:17.000Z</time>
      </trkpt>
      <trkpt lat="48.20839" lon="3.34877">
        <ele>109</ele>
        <time>2012-04-15T09:13:19.000Z</time>
      </trkpt>
      <trkpt lat="48.2084" lon="3.34886">
        <ele>109</ele>
        <time>2012-04-15T09:13:21.000Z</time>
      </trkpt>
      <trkpt lat="48.20842" lon="3.34892">
        <ele>109</ele>
        <time>2012-04-15T09:13:23.000Z</time>
      </trkpt>
      <trkpt lat="48.20843" lon="3.34901">
        <ele>109</ele>
        <time>2012-04-15T09:13:25.000Z</time>
      </trkpt>
      <trkpt lat="48.20844" lon="3.34909">
        <ele>109</ele>
        <time>2012-04-15T09:13:27.000Z</time>
      </trkpt>
      <trkpt lat="48.20846" lon="3.3492">
        <ele>108</ele>
        <time>2012-04-15T09:13:30.000Z</time>
      </trkpt>
      <trkpt lat="48.20848" lon="3.34931">
        <ele>108</ele>
        <time>2012-04-15T09:13:32.000Z</time>
      </trkpt>
      <trkpt lat="48.2085" lon="3.34944">
        <ele>108</ele>
        <time>2012-04-15T09:13:34.000Z</time>
      </trkpt>
      <trkpt lat="48.20851" lon="3.34954">
        <ele>107</ele>
        <time>2012-04-15T09:13:36.000Z</time>
      </trkpt>
      <trkpt lat="48.20853" lon="3.34967">
        <ele>107</ele>
        <time>2012-04-15T09:13:38.000Z</time>
      </trkpt>
      <trkpt lat="48.20854" lon="3.3498">
        <ele>107</ele>
        <time>2012-04-15T09:13:40.000Z</time>
      </trkpt>
      <trkpt lat="48.20856" lon="3.34993">
        <ele>107</ele>
        <time>2012-04-15T09:13:42.000Z</time>
      </trkpt>
      <trkpt lat="48.20858" lon="3.35006">
        <ele>107</ele>
        <time>2012-04-15T09:13:44.000Z</time>
      </trkpt>
      <trkpt lat="48.20859" lon="3.35016">
        <ele>107</ele>
        <time>2012-04-15T09:13:46.000Z</time>
      </trkpt>
      <trkpt lat="48.2086" lon="3.35027">
        <ele>107</ele>
        <time>2012-04-15T09:13:48.000Z</time>
      </trkpt>
      <trkpt lat="48.2086" lon="3.35038">
        <ele>107</ele>
        <time>2012-04-15T09:13:50.000Z</time>
      </trkpt>
      <trkpt lat="48.20861" lon="3.35049">
        <ele>107</ele>
        <time>2012-04-15T09:13:52.000Z</time>
      </trkpt>
      <trkpt lat="48.20862" lon="3.35059">
        <ele>107</ele>
        <time>2012-04-15T09:13:54.000Z</time>
      </trkpt>
      <trkpt lat="48.20863" lon="3.3507">
        <ele>107</ele>
        <time>2012-04-15T09:13:56.000Z</time>
      </trkpt>
      <trkpt lat="48.20864" lon="3.35079">
        <ele>107</ele>
        <time>2012-04-15T09:13:58.000Z</time>
      </trkpt>
      <trkpt lat="48.20865" lon="3.35087">
        <ele>108</ele>
        <time>2012-04-15T09:14:00.000Z</time>
      </trkpt>
      <trkpt lat="48.20867" lon="3.35096">
        <ele>108</ele>
        <time>2012-04-15T09:14:02.000Z</time>
      </trkpt>
      <trkpt lat="48.20868" lon="3.35104">
        <ele>108</ele>
        <time>2012-04-15T09:14:04.000Z</time>
      </trkpt>
      <trkpt lat="48.2087" lon="3.35115">
        <ele>108</ele>
        <time>2012-04-15T09:14:07.000Z</time>
      </trkpt>
      <trkpt lat="48.20872" lon="3.35122">
        <ele>108</ele>
        <time>2012-04-15T09:14:09.000Z</time>
      </trkpt>
      <trkpt lat="48.20874" lon="3.35128">
        <ele>108</ele>
        <time>2012-04-15T09:14:11.000Z</time>
      </trkpt>
      <trkpt lat="48.20876" lon="3.35134">
        <ele>108</ele>
        <time>2012-04-15T09:14:13.000Z</time>
      </trkpt>
      <trkpt lat="48.20879" lon="3.35143">
        <ele>109</ele>
        <time>2012-04-15T09:14:15.000Z</time>
      </trkpt>
      <trkpt lat="48.20881" lon="3.3515">
        <ele>109</ele>
        <time>2012-04-15T09:14:17.000Z</time>
      </trkpt>
      <trkpt lat="48.20883" lon="3.35156">
        <ele>109</ele>
        <time>2012-04-15T09:14:19.000Z</time>
      </trkpt>
      <trkpt lat="48.20887" lon="3.35164">
        <ele>109</ele>
        <time>2012-04-15T09:14:21.000Z</time>
      </trkpt>
      <trkpt lat="48.20889" lon="3.35171">
        <ele>110</ele>
        <time>2012-04-15T09:14:23.000Z</time>
      </trkpt>
      <trkpt lat="48.20892" lon="3.35177">
        <ele>110</ele>
        <time>2012-04-15T09:14:25.000Z</time>
      </trkpt>
      <trkpt lat="48.20894" lon="3.35184">
        <ele>111</ele>
        <time>2012-04-15T09:14:27.000Z</time>
      </trkpt>
      <trkpt lat="48.20896" lon="3.3519">
        <ele>111</ele>
        <time>2012-04-15T09:14:29.000Z</time>
      </trkpt>
      <trkpt lat="48.20897" lon="3.35197">
        <ele>111</ele>
        <time>2012-04-15T09:14:31.000Z</time>
      </trkpt>
      <trkpt lat="48.20895" lon="3.35207">
        <ele>111</ele>
        <time>2012-04-15T09:14:36.000Z</time>
      </trkpt>
      <trkpt lat="48.20895" lon="3.35207">
        <ele>111</ele>
        <time>2012-04-15T09:14:36.000Z</time>
      </trkpt>
      <trkpt lat="48.20895" lon="3.35207">
        <ele>111</ele>
        <time>2012-04-15T09:16:46.000Z</time>
      </trkpt>
      <trkpt lat="48.20893" lon="3.35201">
        <ele>111</ele>
        <time>2012-04-15T09:17:10.000Z</time>
      </trkpt>
      <trkpt lat="48.20893" lon="3.35201">
        <ele>111</ele>
        <time>2012-04-15T09:17:10.000Z</time>
      </trkpt>
      <trkpt lat="48.20893" lon="3.35201">
        <ele>111</ele>
        <time>2012-04-15T09:17:19.000Z</time>
      </trkpt>
      <trkpt lat="48.20892" lon="3.3521">
        <ele>111</ele>
        <time>2012-04-15T09:19:41.000Z</time>
      </trkpt>
      <trkpt lat="48.20887" lon="3.35212">
        <ele>111</ele>
        <time>2012-04-15T09:19:45.000Z</time>
      </trkpt>
      <trkpt lat="48.20881" lon="3.35216">
        <ele>112</ele>
        <time>2012-04-15T09:19:49.000Z</time>
      </trkpt>
      <trkpt lat="48.20876" lon="3.35218">
        <ele>112</ele>
        <time>2012-04-15T09:19:53.000Z</time>
      </trkpt>
      <trkpt lat="48.20874" lon="3.35212">
        <ele>112</ele>
        <time>2012-04-15T09:20:13.000Z</time>
      </trkpt>
      <trkpt lat="48.20874" lon="3.35212">
        <ele>112</ele>
        <time>2012-04-15T09:20:13.000Z</time>
      </trkpt>
      <trkpt lat="48.20874" lon="3.35212">
        <ele>112</ele>
        <time>2012-04-15T09:20:15.000Z</time>
      </trkpt>
      <trkpt lat="48.20869" lon="3.35214">
        <ele>112</ele>
        <time>2012-04-15T09:20:40.000Z</time>
      </trkpt>
      <trkpt lat="48.20865" lon="3.35218">
        <ele>112</ele>
        <time>2012-04-15T09:20:55.000Z</time>
      </trkpt>
      <trkpt lat="48.2086" lon="3.3522">
        <ele>113</ele>
        <time>2012-04-15T09:20:58.000Z</time>
      </trkpt>
      <trkpt lat="48.20854" lon="3.35225">
        <ele>113</ele>
        <time>2012-04-15T09:21:01.000Z</time>
      </trkpt>
      <trkpt lat="48.2085" lon="3.35229">
        <ele>113</ele>
        <time>2012-04-15T09:21:04.000Z</time>
      </trkpt>
      <trkpt lat="48.20845" lon="3.35231">
        <ele>114</ele>
        <time>2012-04-15T09:21:07.000Z</time>
      </trkpt>
      <trkpt lat="48.20839" lon="3.35233">
        <ele>114</ele>
        <time>2012-04-15T09:21:11.000Z</time>
      </trkpt>
      <trkpt lat="48.20835" lon="3.35235">
        <ele>115</ele>
        <time>2012-04-15T09:21:14.000Z</time>
      </trkpt>
      <trkpt lat="48.20831" lon="3.35238">
        <ele>118</ele>
        <time>2012-04-15T09:21:17.000Z</time>
      </trkpt>
      <trkpt lat="48.20826" lon="3.3524">
        <ele>118</ele>
        <time>2012-04-15T09:21:20.000Z</time>
      </trkpt>
      <trkpt lat="48.20821" lon="3.35242">
        <ele>118</ele>
        <time>2012-04-15T09:21:23.000Z</time>
      </trkpt>
      <trkpt lat="48.20815" lon="3.35246">
        <ele>119</ele>
        <time>2012-04-15T09:21:27.000Z</time>
      </trkpt>
      <trkpt lat="48.2081" lon="3.35248">
        <ele>119</ele>
        <time>2012-04-15T09:21:30.000Z</time>
      </trkpt>
      <trkpt lat="48.20804" lon="3.3525">
        <ele>122</ele>
        <time>2012-04-15T09:21:34.000Z</time>
      </trkpt>
      <trkpt lat="48.208" lon="3.35255">
        <ele>125</ele>
        <time>2012-04-15T09:21:37.000Z</time>
      </trkpt>
      <trkpt lat="48.20795" lon="3.35259">
        <ele>126</ele>
        <time>2012-04-15T09:21:40.000Z</time>
      </trkpt>
      <trkpt lat="48.20793" lon="3.35265">
        <ele>127</ele>
        <time>2012-04-15T09:21:43.000Z</time>
      </trkpt>
      <trkpt lat="48.20793" lon="3.35265">
        <ele>127</ele>
        <time>2012-04-15T09:21:43.000Z</time>
      </trkpt>
      <trkpt lat="48.20793" lon="3.35265">
        <ele>127</ele>
        <time>2012-04-15T09:21:44.000Z</time>
      </trkpt>
      <trkpt lat="48.20794" lon="3.35272">
        <ele>127</ele>
        <time>2012-04-15T09:21:47.000Z</time>
      </trkpt>
      <trkpt lat="48.20796" lon="3.35282">
        <ele>127</ele>
        <time>2012-04-15T09:21:51.000Z</time>
      </trkpt>
      <trkpt lat="48.20799" lon="3.35289">
        <ele>127</ele>
        <time>2012-04-15T09:21:54.000Z</time>
      </trkpt>
      <trkpt lat="48.208" lon="3.35298">
        <ele>127</ele>
        <time>2012-04-15T09:21:57.000Z</time>
      </trkpt>
      <trkpt lat="48.20802" lon="3.35304">
        <ele>127</ele>
        <time>2012-04-15T09:22:00.000Z</time>
      </trkpt>
      <trkpt lat="48.20803" lon="3.35313">
        <ele>127</ele>
        <time>2012-04-15T09:22:03.000Z</time>
      </trkpt>
      <trkpt lat="48.20804" lon="3.35323">
        <ele>127</ele>
        <time>2012-04-15T09:22:07.000Z</time>
      </trkpt>
      <trkpt lat="48.20806" lon="3.35332">
        <ele>127</ele>
        <time>2012-04-15T09:22:10.000Z</time>
      </trkpt>
      <trkpt lat="48.20806" lon="3.35343">
        <ele>130</ele>
        <time>2012-04-15T09:22:13.000Z</time>
      </trkpt>
      <trkpt lat="48.20803" lon="3.35349">
        <ele>131</ele>
        <time>2012-04-15T09:22:17.000Z</time>
      </trkpt>
      <trkpt lat="48.20798" lon="3.35351">
        <ele>132</ele>
        <time>2012-04-15T09:22:20.000Z</time>
      </trkpt>
      <trkpt lat="48.20791" lon="3.35349">
        <ele>133</ele>
        <time>2012-04-15T09:22:24.000Z</time>
      </trkpt>
      <trkpt lat="48.20787" lon="3.35345">
        <ele>133</ele>
        <time>2012-04-15T09:22:27.000Z</time>
      </trkpt>
      <trkpt lat="48.20782" lon="3.3534">
        <ele>134</ele>
        <time>2012-04-15T09:22:30.000Z</time>
      </trkpt>
      <trkpt lat="48.20779" lon="3.35334">
        <ele>135</ele>
        <time>2012-04-15T09:22:33.000Z</time>
      </trkpt>
      <trkpt lat="48.20775" lon="3.35328">
        <ele>132</ele>
        <time>2012-04-15T09:22:38.000Z</time>
      </trkpt>
      <trkpt lat="48.20775" lon="3.35328">
        <ele>132</ele>
        <time>2012-04-15T09:22:38.000Z</time>
      </trkpt>
      <trkpt lat="48.20775" lon="3.35328">
        <ele>132</ele>
        <time>2012-04-15T09:22:39.000Z</time>
      </trkpt>
      <trkpt lat="48.20771" lon="3.35321">
        <ele>132</ele>
        <time>2012-04-15T09:22:44.000Z</time>
      </trkpt>
      <trkpt lat="48.20765" lon="3.35317">
        <ele>133</ele>
        <time>2012-04-15T09:22:49.000Z</time>
      </trkpt>
      <trkpt lat="48.20761" lon="3.3531">
        <ele>133</ele>
        <time>2012-04-15T09:22:54.000Z</time>
      </trkpt>
      <trkpt lat="48.20759" lon="3.35304">
        <ele>132</ele>
        <time>2012-04-15T09:22:57.000Z</time>
      </trkpt>
      <trkpt lat="48.20756" lon="3.35298">
        <ele>131</ele>
        <time>2012-04-15T09:23:01.000Z</time>
      </trkpt>
      <trkpt lat="48.20751" lon="3.35291">
        <ele>131</ele>
        <time>2012-04-15T09:23:07.000Z</time>
      </trkpt>
      <trkpt lat="48.20747" lon="3.35285">
        <ele>138</ele>
        <time>2012-04-15T09:23:12.000Z</time>
      </trkpt>
      <trkpt lat="48.20743" lon="3.3528">
        <ele>138</ele>
        <time>2012-04-15T09:23:18.000Z</time>
      </trkpt>
      <trkpt lat="48.20738" lon="3.35276">
        <ele>138</ele>
        <time>2012-04-15T09:23:22.000Z</time>
      </trkpt>
      <trkpt lat="48.20734" lon="3.35272">
        <ele>138</ele>
        <time>2012-04-15T09:23:27.000Z</time>
      </trkpt>
      <trkpt lat="48.2073" lon="3.35268">
        <ele>138</ele>
        <time>2012-04-15T09:23:32.000Z</time>
      </trkpt>
      <trkpt lat="48.20726" lon="3.35263">
        <ele>138</ele>
        <time>2012-04-15T09:23:36.000Z</time>
      </trkpt>
      <trkpt lat="48.20719" lon="3.35263">
        <ele>138</ele>
        <time>2012-04-15T09:23:41.000Z</time>
      </trkpt>
      <trkpt lat="48.20713" lon="3.35263">
        <ele>139</ele>
        <time>2012-04-15T09:23:46.000Z</time>
      </trkpt>
      <trkpt lat="48.20708" lon="3.35265">
        <ele>140</ele>
        <time>2012-04-15T09:23:49.000Z</time>
      </trkpt>
      <trkpt lat="48.20701" lon="3.35265">
        <ele>140</ele>
        <time>2012-04-15T09:23:52.000Z</time>
      </trkpt>
      <trkpt lat="48.20694" lon="3.35265">
        <ele>141</ele>
        <time>2012-04-15T09:23:55.000Z</time>
      </trkpt>
      <trkpt lat="48.20689" lon="3.35263">
        <ele>141</ele>
        <time>2012-04-15T09:23:57.000Z</time>
      </trkpt>
      <trkpt lat="48.20685" lon="3.35261">
        <ele>141</ele>
        <time>2012-04-15T09:23:59.000Z</time>
      </trkpt>
      <trkpt lat="48.20678" lon="3.35261">
        <ele>141</ele>
        <time>2012-04-15T09:24:02.000Z</time>
      </trkpt>
      <trkpt lat="48.20673" lon="3.35261">
        <ele>141</ele>
        <time>2012-04-15T09:24:05.000Z</time>
      </trkpt>
      <trkpt lat="48.20668" lon="3.35263">
        <ele>141</ele>
        <time>2012-04-15T09:24:08.000Z</time>
      </trkpt>
      <trkpt lat="48.20662" lon="3.35265">
        <ele>145</ele>
        <time>2012-04-15T09:24:12.000Z</time>
      </trkpt>
      <trkpt lat="48.20657" lon="3.35265">
        <ele>145</ele>
        <time>2012-04-15T09:24:16.000Z</time>
      </trkpt>
      <trkpt lat="48.20652" lon="3.35268">
        <ele>146</ele>
        <time>2012-04-15T09:24:20.000Z</time>
      </trkpt>
      <trkpt lat="48.20646" lon="3.3527">
        <ele>147</ele>
        <time>2012-04-15T09:24:24.000Z</time>
      </trkpt>
      <trkpt lat="48.20641" lon="3.3527">
        <ele>147</ele>
        <time>2012-04-15T09:24:28.000Z</time>
      </trkpt>
      <trkpt lat="48.20636" lon="3.3527">
        <ele>148</ele>
        <time>2012-04-15T09:24:32.000Z</time>
      </trkpt>
      <trkpt lat="48.2063" lon="3.35272">
        <ele>148</ele>
        <time>2012-04-15T09:24:36.000Z</time>
      </trkpt>
      <trkpt lat="48.20625" lon="3.35272">
        <ele>148</ele>
        <time>2012-04-15T09:24:39.000Z</time>
      </trkpt>
      <trkpt lat="48.20618" lon="3.35274">
        <ele>149</ele>
        <time>2012-04-15T09:24:43.000Z</time>
      </trkpt>
      <trkpt lat="48.20613" lon="3.35276">
        <ele>149</ele>
        <time>2012-04-15T09:24:47.000Z</time>
      </trkpt>
      <trkpt lat="48.20608" lon="3.35278">
        <ele>149</ele>
        <time>2012-04-15T09:24:50.000Z</time>
      </trkpt>
      <trkpt lat="48.20601" lon="3.3528">
        <ele>150</ele>
        <time>2012-04-15T09:24:54.000Z</time>
      </trkpt>
      <trkpt lat="48.20596" lon="3.3528">
        <ele>150</ele>
        <time>2012-04-15T09:24:57.000Z</time>
      </trkpt>
      <trkpt lat="48.2059" lon="3.35282">
        <ele>150</ele>
        <time>2012-04-15T09:25:02.000Z</time>
      </trkpt>
      <trkpt lat="48.2059" lon="3.35282">
        <ele>150</ele>
        <time>2012-04-15T09:25:02.000Z</time>
      </trkpt>
      <trkpt lat="48.2059" lon="3.35282">
        <ele>150</ele>
        <time>2012-04-15T09:25:03.000Z</time>
      </trkpt>
      <trkpt lat="48.20585" lon="3.35282">
        <ele>150</ele>
        <time>2012-04-15T09:25:07.000Z</time>
      </trkpt>
      <trkpt lat="48.20581" lon="3.35285">
        <ele>155</ele>
        <time>2012-04-15T09:25:11.000Z</time>
      </trkpt>
      <trkpt lat="48.20575" lon="3.35285">
        <ele>155</ele>
        <time>2012-04-15T09:25:15.000Z</time>
      </trkpt>
      <trkpt lat="48.2057" lon="3.35287">
        <ele>155</ele>
        <time>2012-04-15T09:25:20.000Z</time>
      </trkpt>
      <trkpt lat="48.20564" lon="3.35287">
        <ele>155</ele>
        <time>2012-04-15T09:25:24.000Z</time>
      </trkpt>
      <trkpt lat="48.20557" lon="3.35289">
        <ele>156</ele>
        <time>2012-04-15T09:25:28.000Z</time>
      </trkpt>
      <trkpt lat="48.20552" lon="3.35291">
        <ele>156</ele>
        <time>2012-04-15T09:25:32.000Z</time>
      </trkpt>
      <trkpt lat="48.20546" lon="3.35291">
        <ele>156</ele>
        <time>2012-04-15T09:25:35.000Z</time>
      </trkpt>
      <trkpt lat="48.20542" lon="3.35293">
        <ele>157</ele>
        <time>2012-04-15T09:25:37.000Z</time>
      </trkpt>
      <trkpt lat="48.20535" lon="3.35293">
        <ele>157</ele>
        <time>2012-04-15T09:25:40.000Z</time>
      </trkpt>
      <trkpt lat="48.20529" lon="3.35293">
        <ele>157</ele>
        <time>2012-04-15T09:25:43.000Z</time>
      </trkpt>
      <trkpt lat="48.20524" lon="3.35295">
        <ele>157</ele>
        <time>2012-04-15T09:25:47.000Z</time>
      </trkpt>
      <trkpt lat="48.20519" lon="3.35298">
        <ele>158</ele>
        <time>2012-04-15T09:25:51.000Z</time>
      </trkpt>
      <trkpt lat="48.20513" lon="3.353">
        <ele>158</ele>
        <time>2012-04-15T09:25:55.000Z</time>
      </trkpt>
      <trkpt lat="48.20508" lon="3.353">
        <ele>158</ele>
        <time>2012-04-15T09:25:59.000Z</time>
      </trkpt>
      <trkpt lat="48.20502" lon="3.353">
        <ele>159</ele>
        <time>2012-04-15T09:26:02.000Z</time>
      </trkpt>
      <trkpt lat="48.20497" lon="3.35302">
        <ele>162</ele>
        <time>2012-04-15T09:26:05.000Z</time>
      </trkpt>
      <trkpt lat="48.20492" lon="3.35302">
        <ele>162</ele>
        <time>2012-04-15T09:26:08.000Z</time>
      </trkpt>
      <trkpt lat="48.20485" lon="3.35304">
        <ele>162</ele>
        <time>2012-04-15T09:26:11.000Z</time>
      </trkpt>
      <trkpt lat="48.20479" lon="3.35304">
        <ele>162</ele>
        <time>2012-04-15T09:26:14.000Z</time>
      </trkpt>
      <trkpt lat="48.20472" lon="3.35304">
        <ele>162</ele>
        <time>2012-04-15T09:26:17.000Z</time>
      </trkpt>
      <trkpt lat="48.20467" lon="3.35304">
        <ele>163</ele>
        <time>2012-04-15T09:26:20.000Z</time>
      </trkpt>
      <trkpt lat="48.20462" lon="3.35304">
        <ele>163</ele>
        <time>2012-04-15T09:26:23.000Z</time>
      </trkpt>
      <trkpt lat="48.20456" lon="3.35306">
        <ele>163</ele>
        <time>2012-04-15T09:26:26.000Z</time>
      </trkpt>
      <trkpt lat="48.20449" lon="3.35308">
        <ele>163</ele>
        <time>2012-04-15T09:26:29.000Z</time>
      </trkpt>
      <trkpt lat="48.20441" lon="3.3531">
        <ele>164</ele>
        <time>2012-04-15T09:26:31.000Z</time>
      </trkpt>
      <trkpt lat="48.20434" lon="3.35313">
        <ele>164</ele>
        <time>2012-04-15T09:26:33.000Z</time>
      </trkpt>
      <trkpt lat="48.20428" lon="3.35315">
        <ele>165</ele>
        <time>2012-04-15T09:26:35.000Z</time>
      </trkpt>
      <trkpt lat="48.20422" lon="3.35317">
        <ele>165</ele>
        <time>2012-04-15T09:26:37.000Z</time>
      </trkpt>
      <trkpt lat="48.20417" lon="3.35317">
        <ele>166</ele>
        <time>2012-04-15T09:26:39.000Z</time>
      </trkpt>
      <trkpt lat="48.20411" lon="3.35317">
        <ele>168</ele>
        <time>2012-04-15T09:26:41.000Z</time>
      </trkpt>
      <trkpt lat="48.20405" lon="3.35317">
        <ele>168</ele>
        <time>2012-04-15T09:26:44.000Z</time>
      </trkpt>
      <trkpt lat="48.204" lon="3.35317">
        <ele>168</ele>
        <time>2012-04-15T09:26:47.000Z</time>
      </trkpt>
      <trkpt lat="48.20394" lon="3.35317">
        <ele>168</ele>
        <time>2012-04-15T09:26:51.000Z</time>
      </trkpt>
      <trkpt lat="48.20389" lon="3.35317">
        <ele>168</ele>
        <time>2012-04-15T09:26:54.000Z</time>
      </trkpt>
      <trkpt lat="48.20382" lon="3.35317">
        <ele>168</ele>
        <time>2012-04-15T09:26:58.000Z</time>
      </trkpt>
      <trkpt lat="48.20377" lon="3.35317">
        <ele>168</ele>
        <time>2012-04-15T09:27:02.000Z</time>
      </trkpt>
      <trkpt lat="48.20372" lon="3.35317">
        <ele>168</ele>
        <time>2012-04-15T09:27:08.000Z</time>
      </trkpt>
      <trkpt lat="48.20366" lon="3.35315">
        <ele>168</ele>
        <time>2012-04-15T09:27:13.000Z</time>
      </trkpt>
      <trkpt lat="48.20362" lon="3.3531">
        <ele>168</ele>
        <time>2012-04-15T09:27:17.000Z</time>
      </trkpt>
      <trkpt lat="48.20359" lon="3.35304">
        <ele>168</ele>
        <time>2012-04-15T09:27:20.000Z</time>
      </trkpt>
      <trkpt lat="48.20354" lon="3.35298">
        <ele>168</ele>
        <time>2012-04-15T09:27:23.000Z</time>
      </trkpt>
      <trkpt lat="48.20351" lon="3.35291">
        <ele>167</ele>
        <time>2012-04-15T09:27:27.000Z</time>
      </trkpt>
      <trkpt lat="48.20346" lon="3.35287">
        <ele>167</ele>
        <time>2012-04-15T09:27:31.000Z</time>
      </trkpt>
      <trkpt lat="48.20339" lon="3.35285">
        <ele>167</ele>
        <time>2012-04-15T09:27:36.000Z</time>
      </trkpt>
      <trkpt lat="48.20334" lon="3.35285">
        <ele>167</ele>
        <time>2012-04-15T09:27:40.000Z</time>
      </trkpt>
      <trkpt lat="48.20329" lon="3.35282">
        <ele>171</ele>
        <time>2012-04-15T09:27:43.000Z</time>
      </trkpt>
      <trkpt lat="48.20324" lon="3.3528">
        <ele>171</ele>
        <time>2012-04-15T09:27:45.000Z</time>
      </trkpt>
      <trkpt lat="48.2032" lon="3.35278">
        <ele>171</ele>
        <time>2012-04-15T09:27:47.000Z</time>
      </trkpt>
      <trkpt lat="48.20315" lon="3.35274">
        <ele>171</ele>
        <time>2012-04-15T09:27:50.000Z</time>
      </trkpt>
      <trkpt lat="48.20309" lon="3.3527">
        <ele>171</ele>
        <time>2012-04-15T09:27:53.000Z</time>
      </trkpt>
      <trkpt lat="48.20304" lon="3.35265">
        <ele>172</ele>
        <time>2012-04-15T09:27:56.000Z</time>
      </trkpt>
      <trkpt lat="48.20299" lon="3.35259">
        <ele>172</ele>
        <time>2012-04-15T09:27:59.000Z</time>
      </trkpt>
      <trkpt lat="48.20293" lon="3.35255">
        <ele>172</ele>
        <time>2012-04-15T09:28:02.000Z</time>
      </trkpt>
      <trkpt lat="48.20289" lon="3.3525">
        <ele>170</ele>
        <time>2012-04-15T09:28:05.000Z</time>
      </trkpt>
      <trkpt lat="48.20282" lon="3.35248">
        <ele>168</ele>
        <time>2012-04-15T09:28:09.000Z</time>
      </trkpt>
      <trkpt lat="48.20276" lon="3.35244">
        <ele>168</ele>
        <time>2012-04-15T09:28:13.000Z</time>
      </trkpt>
      <trkpt lat="48.2027" lon="3.35242">
        <ele>169</ele>
        <time>2012-04-15T09:28:17.000Z</time>
      </trkpt>
      <trkpt lat="48.20264" lon="3.35242">
        <ele>170</ele>
        <time>2012-04-15T09:28:20.000Z</time>
      </trkpt>
      <trkpt lat="48.20259" lon="3.35242">
        <ele>171</ele>
        <time>2012-04-15T09:28:23.000Z</time>
      </trkpt>
      <trkpt lat="48.20254" lon="3.35244">
        <ele>172</ele>
        <time>2012-04-15T09:28:26.000Z</time>
      </trkpt>
      <trkpt lat="48.20247" lon="3.35244">
        <ele>173</ele>
        <time>2012-04-15T09:28:30.000Z</time>
      </trkpt>
      <trkpt lat="48.20241" lon="3.35244">
        <ele>173</ele>
        <time>2012-04-15T09:28:34.000Z</time>
      </trkpt>
      <trkpt lat="48.20234" lon="3.35242">
        <ele>173</ele>
        <time>2012-04-15T09:28:38.000Z</time>
      </trkpt>
      <trkpt lat="48.20228" lon="3.3524">
        <ele>173</ele>
        <time>2012-04-15T09:28:42.000Z</time>
      </trkpt>
      <trkpt lat="48.20222" lon="3.3524">
        <ele>173</ele>
        <time>2012-04-15T09:28:45.000Z</time>
      </trkpt>
      <trkpt lat="48.20217" lon="3.35242">
        <ele>173</ele>
        <time>2012-04-15T09:28:48.000Z</time>
      </trkpt>
      <trkpt lat="48.20211" lon="3.35242">
        <ele>173</ele>
        <time>2012-04-15T09:28:52.000Z</time>
      </trkpt>
      <trkpt lat="48.20204" lon="3.35242">
        <ele>173</ele>
        <time>2012-04-15T09:28:55.000Z</time>
      </trkpt>
      <trkpt lat="48.20198" lon="3.35242">
        <ele>173</ele>
        <time>2012-04-15T09:28:59.000Z</time>
      </trkpt>
      <trkpt lat="48.20192" lon="3.35242">
        <ele>173</ele>
        <time>2012-04-15T09:29:04.000Z</time>
      </trkpt>
      <trkpt lat="48.20187" lon="3.35244">
        <ele>174</ele>
        <time>2012-04-15T09:29:09.000Z</time>
      </trkpt>
      <trkpt lat="48.20182" lon="3.35246">
        <ele>174</ele>
        <time>2012-04-15T09:29:13.000Z</time>
      </trkpt>
      <trkpt lat="48.20177" lon="3.35248">
        <ele>175</ele>
        <time>2012-04-15T09:29:16.000Z</time>
      </trkpt>
      <trkpt lat="48.20173" lon="3.3525">
        <ele>176</ele>
        <time>2012-04-15T09:29:18.000Z</time>
      </trkpt>
      <trkpt lat="48.20169" lon="3.35257">
        <ele>177</ele>
        <time>2012-04-15T09:29:21.000Z</time>
      </trkpt>
      <trkpt lat="48.20163" lon="3.35259">
        <ele>177</ele>
        <time>2012-04-15T09:29:24.000Z</time>
      </trkpt>
      <trkpt lat="48.20159" lon="3.35265">
        <ele>178</ele>
        <time>2012-04-15T09:29:27.000Z</time>
      </trkpt>
      <trkpt lat="48.20155" lon="3.3527">
        <ele>178</ele>
        <time>2012-04-15T09:29:30.000Z</time>
      </trkpt>
      <trkpt lat="48.20151" lon="3.35276">
        <ele>178</ele>
        <time>2012-04-15T09:29:33.000Z</time>
      </trkpt>
      <trkpt lat="48.20146" lon="3.35278">
        <ele>178</ele>
        <time>2012-04-15T09:29:36.000Z</time>
      </trkpt>
      <trkpt lat="48.20142" lon="3.35282">
        <ele>179</ele>
        <time>2012-04-15T09:29:40.000Z</time>
      </trkpt>
      <trkpt lat="48.20138" lon="3.35287">
        <ele>179</ele>
        <time>2012-04-15T09:29:43.000Z</time>
      </trkpt>
      <trkpt lat="48.20133" lon="3.35293">
        <ele>179</ele>
        <time>2012-04-15T09:29:47.000Z</time>
      </trkpt>
      <trkpt lat="48.20129" lon="3.35298">
        <ele>179</ele>
        <time>2012-04-15T09:29:51.000Z</time>
      </trkpt>
      <trkpt lat="48.20125" lon="3.35304">
        <ele>179</ele>
        <time>2012-04-15T09:29:57.000Z</time>
      </trkpt>
      <trkpt lat="48.20125" lon="3.35304">
        <ele>179</ele>
        <time>2012-04-15T09:29:57.000Z</time>
      </trkpt>
      <trkpt lat="48.20125" lon="3.35304">
        <ele>179</ele>
        <time>2012-04-15T09:29:58.000Z</time>
      </trkpt>
      <trkpt lat="48.2012" lon="3.3531">
        <ele>180</ele>
        <time>2012-04-15T09:30:02.000Z</time>
      </trkpt>
      <trkpt lat="48.20116" lon="3.35315">
        <ele>180</ele>
        <time>2012-04-15T09:30:06.000Z</time>
      </trkpt>
      <trkpt lat="48.20112" lon="3.35319">
        <ele>180</ele>
        <time>2012-04-15T09:30:10.000Z</time>
      </trkpt>
      <trkpt lat="48.20108" lon="3.35323">
        <ele>180</ele>
        <time>2012-04-15T09:30:13.000Z</time>
      </trkpt>
      <trkpt lat="48.20102" lon="3.35328">
        <ele>180</ele>
        <time>2012-04-15T09:30:17.000Z</time>
      </trkpt>
      <trkpt lat="48.20098" lon="3.3533">
        <ele>181</ele>
        <time>2012-04-15T09:30:20.000Z</time>
      </trkpt>
      <trkpt lat="48.20094" lon="3.35334">
        <ele>182</ele>
        <time>2012-04-15T09:30:23.000Z</time>
      </trkpt>
      <trkpt lat="48.20089" lon="3.3534">
        <ele>182</ele>
        <time>2012-04-15T09:30:27.000Z</time>
      </trkpt>
      <trkpt lat="48.20085" lon="3.35347">
        <ele>183</ele>
        <time>2012-04-15T09:30:30.000Z</time>
      </trkpt>
      <trkpt lat="48.20083" lon="3.35356">
        <ele>182</ele>
        <time>2012-04-15T09:30:34.000Z</time>
      </trkpt>
      <trkpt lat="48.20082" lon="3.35364">
        <ele>183</ele>
        <time>2012-04-15T09:30:37.000Z</time>
      </trkpt>
      <trkpt lat="48.2008" lon="3.3537">
        <ele>183</ele>
        <time>2012-04-15T09:30:41.000Z</time>
      </trkpt>
      <trkpt lat="48.20079" lon="3.35379">
        <ele>183</ele>
        <time>2012-04-15T09:30:44.000Z</time>
      </trkpt>
      <trkpt lat="48.20078" lon="3.35388">
        <ele>183</ele>
        <time>2012-04-15T09:30:47.000Z</time>
      </trkpt>
      <trkpt lat="48.20076" lon="3.35394">
        <ele>183</ele>
        <time>2012-04-15T09:30:49.000Z</time>
      </trkpt>
      <trkpt lat="48.20072" lon="3.35403">
        <ele>184</ele>
        <time>2012-04-15T09:30:52.000Z</time>
      </trkpt>
      <trkpt lat="48.20069" lon="3.35409">
        <ele>184</ele>
        <time>2012-04-15T09:30:55.000Z</time>
      </trkpt>
      <trkpt lat="48.20065" lon="3.35416">
        <ele>184</ele>
        <time>2012-04-15T09:30:58.000Z</time>
      </trkpt>
      <trkpt lat="48.2006" lon="3.35422">
        <ele>185</ele>
        <time>2012-04-15T09:31:01.000Z</time>
      </trkpt>
      <trkpt lat="48.20057" lon="3.35428">
        <ele>185</ele>
        <time>2012-04-15T09:31:04.000Z</time>
      </trkpt>
      <trkpt lat="48.20053" lon="3.35435">
        <ele>185</ele>
        <time>2012-04-15T09:31:07.000Z</time>
      </trkpt>
      <trkpt lat="48.20049" lon="3.35441">
        <ele>185</ele>
        <time>2012-04-15T09:31:10.000Z</time>
      </trkpt>
      <trkpt lat="48.20045" lon="3.35448">
        <ele>184</ele>
        <time>2012-04-15T09:31:13.000Z</time>
      </trkpt>
      <trkpt lat="48.20043" lon="3.35454">
        <ele>184</ele>
        <time>2012-04-15T09:31:16.000Z</time>
      </trkpt>
      <trkpt lat="48.20042" lon="3.35463">
        <ele>185</ele>
        <time>2012-04-15T09:31:22.000Z</time>
      </trkpt>
      <trkpt lat="48.20042" lon="3.35463">
        <ele>185</ele>
        <time>2012-04-15T09:31:22.000Z</time>
      </trkpt>
      <trkpt lat="48.20042" lon="3.35463">
        <ele>185</ele>
        <time>2012-04-15T09:31:23.000Z</time>
      </trkpt>
      <trkpt lat="48.2004" lon="3.35469">
        <ele>185</ele>
        <time>2012-04-15T09:31:32.000Z</time>
      </trkpt>
      <trkpt lat="48.20037" lon="3.35476">
        <ele>184</ele>
        <time>2012-04-15T09:31:40.000Z</time>
      </trkpt>
      <trkpt lat="48.20037" lon="3.35476">
        <ele>184</ele>
        <time>2012-04-15T09:31:40.000Z</time>
      </trkpt>
      <trkpt lat="48.20037" lon="3.35476">
        <ele>184</ele>
        <time>2012-04-15T09:31:44.000Z</time>
      </trkpt>
      <trkpt lat="48.20032" lon="3.35478">
        <ele>184</ele>
        <time>2012-04-15T09:32:07.000Z</time>
      </trkpt>
      <trkpt lat="48.20032" lon="3.35478">
        <ele>184</ele>
        <time>2012-04-15T09:32:07.000Z</time>
      </trkpt>
      <trkpt lat="48.20032" lon="3.35478">
        <ele>184</ele>
        <time>2012-04-15T09:32:10.000Z</time>
      </trkpt>
      <trkpt lat="48.2003" lon="3.35486">
        <ele>184</ele>
        <time>2012-04-15T09:32:31.000Z</time>
      </trkpt>
      <trkpt lat="48.20032" lon="3.35495">
        <ele>184</ele>
        <time>2012-04-15T09:32:43.000Z</time>
      </trkpt>
      <trkpt lat="48.20032" lon="3.35495">
        <ele>184</ele>
        <time>2012-04-15T09:32:43.000Z</time>
      </trkpt>
      <trkpt lat="48.20032" lon="3.35495">
        <ele>184</ele>
        <time>2012-04-15T09:32:46.000Z</time>
      </trkpt>
      <trkpt lat="48.20032" lon="3.35501">
        <ele>185</ele>
        <time>2012-04-15T09:33:01.000Z</time>
      </trkpt>
      <trkpt lat="48.20032" lon="3.35501">
        <ele>185</ele>
        <time>2012-04-15T09:33:01.000Z</time>
      </trkpt>
      <trkpt lat="48.20032" lon="3.35501">
        <ele>185</ele>
        <time>2012-04-15T09:34:16.000Z</time>
      </trkpt>
      <trkpt lat="48.20035" lon="3.35508">
        <ele>185</ele>
        <time>2012-04-15T09:34:34.000Z</time>
      </trkpt>
      <trkpt lat="48.20035" lon="3.35508">
        <ele>185</ele>
        <time>2012-04-15T09:34:34.000Z</time>
      </trkpt>
      <trkpt lat="48.20035" lon="3.35508">
        <ele>185</ele>
        <time>2012-04-15T09:34:35.000Z</time>
      </trkpt>
      <trkpt lat="48.20039" lon="3.35514">
        <ele>186</ele>
        <time>2012-04-15T09:34:41.000Z</time>
      </trkpt>
      <trkpt lat="48.20039" lon="3.35514">
        <ele>186</ele>
        <time>2012-04-15T09:34:41.000Z</time>
      </trkpt>
      <trkpt lat="48.20039" lon="3.35514">
        <ele>186</ele>
        <time>2012-04-15T09:34:42.000Z</time>
      </trkpt>
      <trkpt lat="48.20042" lon="3.35521">
        <ele>186</ele>
        <time>2012-04-15T09:34:48.000Z</time>
      </trkpt>
      <trkpt lat="48.20045" lon="3.35527">
        <ele>186</ele>
        <time>2012-04-15T09:34:55.000Z</time>
      </trkpt>
      <trkpt lat="48.20049" lon="3.35534">
        <ele>186</ele>
        <time>2012-04-15T09:35:01.000Z</time>
      </trkpt>
      <trkpt lat="48.20052" lon="3.3554">
        <ele>186</ele>
        <time>2012-04-15T09:35:05.000Z</time>
      </trkpt>
      <trkpt lat="48.20054" lon="3.35546">
        <ele>186</ele>
        <time>2012-04-15T09:35:08.000Z</time>
      </trkpt>
      <trkpt lat="48.20054" lon="3.35546">
        <ele>186</ele>
        <time>2012-04-15T09:35:08.000Z</time>
      </trkpt>
      <trkpt lat="48.20054" lon="3.35546">
        <ele>186</ele>
        <time>2012-04-15T09:35:09.000Z</time>
      </trkpt>
      <trkpt lat="48.20056" lon="3.35553">
        <ele>187</ele>
        <time>2012-04-15T09:35:12.000Z</time>
      </trkpt>
      <trkpt lat="48.20058" lon="3.35559">
        <ele>187</ele>
        <time>2012-04-15T09:35:16.000Z</time>
      </trkpt>
      <trkpt lat="48.20062" lon="3.35566">
        <ele>187</ele>
        <time>2012-04-15T09:35:19.000Z</time>
      </trkpt>
      <trkpt lat="48.20064" lon="3.35572">
        <ele>188</ele>
        <time>2012-04-15T09:35:21.000Z</time>
      </trkpt>
      <trkpt lat="48.20067" lon="3.35579">
        <ele>188</ele>
        <time>2012-04-15T09:35:24.000Z</time>
      </trkpt>
      <trkpt lat="48.20069" lon="3.35585">
        <ele>188</ele>
        <time>2012-04-15T09:35:26.000Z</time>
      </trkpt>
      <trkpt lat="48.20072" lon="3.35592">
        <ele>188</ele>
        <time>2012-04-15T09:35:28.000Z</time>
      </trkpt>
      <trkpt lat="48.20074" lon="3.35598">
        <ele>188</ele>
        <time>2012-04-15T09:35:30.000Z</time>
      </trkpt>
      <trkpt lat="48.20079" lon="3.35604">
        <ele>187</ele>
        <time>2012-04-15T09:35:33.000Z</time>
      </trkpt>
      <trkpt lat="48.20083" lon="3.35613">
        <ele>187</ele>
        <time>2012-04-15T09:35:36.000Z</time>
      </trkpt>
      <trkpt lat="48.20087" lon="3.35619">
        <ele>190</ele>
        <time>2012-04-15T09:35:39.000Z</time>
      </trkpt>
      <trkpt lat="48.20089" lon="3.35626">
        <ele>190</ele>
        <time>2012-04-15T09:35:41.000Z</time>
      </trkpt>
      <trkpt lat="48.20094" lon="3.35632">
        <ele>190</ele>
        <time>2012-04-15T09:35:44.000Z</time>
      </trkpt>
      <trkpt lat="48.20097" lon="3.35639">
        <ele>190</ele>
        <time>2012-04-15T09:35:47.000Z</time>
      </trkpt>
      <trkpt lat="48.201" lon="3.35645">
        <ele>190</ele>
        <time>2012-04-15T09:35:50.000Z</time>
      </trkpt>
      <trkpt lat="48.20104" lon="3.35652">
        <ele>190</ele>
        <time>2012-04-15T09:35:54.000Z</time>
      </trkpt>
      <trkpt lat="48.20109" lon="3.35658">
        <ele>190</ele>
        <time>2012-04-15T09:35:58.000Z</time>
      </trkpt>
      <trkpt lat="48.20111" lon="3.35664">
        <ele>190</ele>
        <time>2012-04-15T09:36:01.000Z</time>
      </trkpt>
      <trkpt lat="48.20116" lon="3.35671">
        <ele>190</ele>
        <time>2012-04-15T09:36:05.000Z</time>
      </trkpt>
      <trkpt lat="48.20122" lon="3.35677">
        <ele>190</ele>
        <time>2012-04-15T09:36:09.000Z</time>
      </trkpt>
      <trkpt lat="48.20125" lon="3.35684">
        <ele>190</ele>
        <time>2012-04-15T09:36:12.000Z</time>
      </trkpt>
      <trkpt lat="48.20129" lon="3.3569">
        <ele>190</ele>
        <time>2012-04-15T09:36:14.000Z</time>
      </trkpt>
      <trkpt lat="48.20133" lon="3.35697">
        <ele>190</ele>
        <time>2012-04-15T09:36:16.000Z</time>
      </trkpt>
      <trkpt lat="48.20138" lon="3.35703">
        <ele>190</ele>
        <time>2012-04-15T09:36:18.000Z</time>
      </trkpt>
      <trkpt lat="48.20142" lon="3.3571">
        <ele>190</ele>
        <time>2012-04-15T09:36:20.000Z</time>
      </trkpt>
      <trkpt lat="48.20147" lon="3.35718">
        <ele>190</ele>
        <time>2012-04-15T09:36:22.000Z</time>
      </trkpt>
      <trkpt lat="48.20153" lon="3.35724">
        <ele>190</ele>
        <time>2012-04-15T09:36:24.000Z</time>
      </trkpt>
      <trkpt lat="48.20157" lon="3.35731">
        <ele>190</ele>
        <time>2012-04-15T09:36:26.000Z</time>
      </trkpt>
      <trkpt lat="48.20161" lon="3.35737">
        <ele>191</ele>
        <time>2012-04-15T09:36:28.000Z</time>
      </trkpt>
      <trkpt lat="48.20166" lon="3.35744">
        <ele>191</ele>
        <time>2012-04-15T09:36:30.000Z</time>
      </trkpt>
      <trkpt lat="48.2017" lon="3.3575">
        <ele>192</ele>
        <time>2012-04-15T09:36:32.000Z</time>
      </trkpt>
      <trkpt lat="48.20174" lon="3.35759">
        <ele>191</ele>
        <time>2012-04-15T09:36:35.000Z</time>
      </trkpt>
      <trkpt lat="48.20177" lon="3.35765">
        <ele>191</ele>
        <time>2012-04-15T09:36:38.000Z</time>
      </trkpt>
      <trkpt lat="48.20182" lon="3.35774">
        <ele>190</ele>
        <time>2012-04-15T09:36:41.000Z</time>
      </trkpt>
      <trkpt lat="48.20187" lon="3.35782">
        <ele>190</ele>
        <time>2012-04-15T09:36:44.000Z</time>
      </trkpt>
      <trkpt lat="48.20191" lon="3.35789">
        <ele>190</ele>
        <time>2012-04-15T09:36:46.000Z</time>
      </trkpt>
      <trkpt lat="48.20196" lon="3.35795">
        <ele>190</ele>
        <time>2012-04-15T09:36:48.000Z</time>
      </trkpt>
      <trkpt lat="48.20201" lon="3.35802">
        <ele>190</ele>
        <time>2012-04-15T09:36:51.000Z</time>
      </trkpt>
      <trkpt lat="48.20206" lon="3.35808">
        <ele>190</ele>
        <time>2012-04-15T09:36:54.000Z</time>
      </trkpt>
      <trkpt lat="48.20211" lon="3.35815">
        <ele>190</ele>
        <time>2012-04-15T09:36:57.000Z</time>
      </trkpt>
      <trkpt lat="48.20216" lon="3.35821">
        <ele>190</ele>
        <time>2012-04-15T09:37:00.000Z</time>
      </trkpt>
      <trkpt lat="48.2022" lon="3.3583">
        <ele>190</ele>
        <time>2012-04-15T09:37:03.000Z</time>
      </trkpt>
      <trkpt lat="48.20225" lon="3.35836">
        <ele>186</ele>
        <time>2012-04-15T09:37:06.000Z</time>
      </trkpt>
      <trkpt lat="48.20227" lon="3.35843">
        <ele>186</ele>
        <time>2012-04-15T09:37:08.000Z</time>
      </trkpt>
      <trkpt lat="48.20231" lon="3.35851">
        <ele>186</ele>
        <time>2012-04-15T09:37:11.000Z</time>
      </trkpt>
      <trkpt lat="48.20234" lon="3.35858">
        <ele>185</ele>
        <time>2012-04-15T09:37:13.000Z</time>
      </trkpt>
      <trkpt lat="48.20238" lon="3.35864">
        <ele>185</ele>
        <time>2012-04-15T09:37:15.000Z</time>
      </trkpt>
      <trkpt lat="48.20242" lon="3.35873">
        <ele>185</ele>
        <time>2012-04-15T09:37:17.000Z</time>
      </trkpt>
      <trkpt lat="48.20246" lon="3.35879">
        <ele>184</ele>
        <time>2012-04-15T09:37:19.000Z</time>
      </trkpt>
      <trkpt lat="48.2025" lon="3.35888">
        <ele>190</ele>
        <time>2012-04-15T09:37:21.000Z</time>
      </trkpt>
      <trkpt lat="48.20255" lon="3.35894">
        <ele>190</ele>
        <time>2012-04-15T09:37:23.000Z</time>
      </trkpt>
      <trkpt lat="48.20258" lon="3.359">
        <ele>189</ele>
        <time>2012-04-15T09:37:25.000Z</time>
      </trkpt>
      <trkpt lat="48.20262" lon="3.35905">
        <ele>189</ele>
        <time>2012-04-15T09:37:27.000Z</time>
      </trkpt>
      <trkpt lat="48.20266" lon="3.35911">
        <ele>189</ele>
        <time>2012-04-15T09:37:30.000Z</time>
      </trkpt>
      <trkpt lat="48.20271" lon="3.35916">
        <ele>190</ele>
        <time>2012-04-15T09:37:32.000Z</time>
      </trkpt>
      <trkpt lat="48.20275" lon="3.35922">
        <ele>189</ele>
        <time>2012-04-15T09:37:35.000Z</time>
      </trkpt>
      <trkpt lat="48.20279" lon="3.35926">
        <ele>189</ele>
        <time>2012-04-15T09:37:38.000Z</time>
      </trkpt>
      <trkpt lat="48.20282" lon="3.35933">
        <ele>190</ele>
        <time>2012-04-15T09:37:42.000Z</time>
      </trkpt>
      <trkpt lat="48.20287" lon="3.35939">
        <ele>190</ele>
        <time>2012-04-15T09:37:46.000Z</time>
      </trkpt>
      <trkpt lat="48.20289" lon="3.35946">
        <ele>190</ele>
        <time>2012-04-15T09:37:49.000Z</time>
      </trkpt>
      <trkpt lat="48.20293" lon="3.35952">
        <ele>191</ele>
        <time>2012-04-15T09:37:53.000Z</time>
      </trkpt>
      <trkpt lat="48.20298" lon="3.35958">
        <ele>191</ele>
        <time>2012-04-15T09:37:57.000Z</time>
      </trkpt>
      <trkpt lat="48.20301" lon="3.35965">
        <ele>191</ele>
        <time>2012-04-15T09:38:00.000Z</time>
      </trkpt>
      <trkpt lat="48.20304" lon="3.35971">
        <ele>192</ele>
        <time>2012-04-15T09:38:03.000Z</time>
      </trkpt>
      <trkpt lat="48.20306" lon="3.35978">
        <ele>192</ele>
        <time>2012-04-15T09:38:05.000Z</time>
      </trkpt>
      <trkpt lat="48.20308" lon="3.35986">
        <ele>192</ele>
        <time>2012-04-15T09:38:07.000Z</time>
      </trkpt>
      <trkpt lat="48.20312" lon="3.35993">
        <ele>193</ele>
        <time>2012-04-15T09:38:09.000Z</time>
      </trkpt>
      <trkpt lat="48.20316" lon="3.36001">
        <ele>193</ele>
        <time>2012-04-15T09:38:11.000Z</time>
      </trkpt>
      <trkpt lat="48.2032" lon="3.3601">
        <ele>193</ele>
        <time>2012-04-15T09:38:13.000Z</time>
      </trkpt>
      <trkpt lat="48.20323" lon="3.36018">
        <ele>193</ele>
        <time>2012-04-15T09:38:15.000Z</time>
      </trkpt>
      <trkpt lat="48.20325" lon="3.36027">
        <ele>192</ele>
        <time>2012-04-15T09:38:17.000Z</time>
      </trkpt>
      <trkpt lat="48.20329" lon="3.36034">
        <ele>192</ele>
        <time>2012-04-15T09:38:19.000Z</time>
      </trkpt>
      <trkpt lat="48.20331" lon="3.3604">
        <ele>191</ele>
        <time>2012-04-15T09:38:21.000Z</time>
      </trkpt>
      <trkpt lat="48.20333" lon="3.36046">
        <ele>191</ele>
        <time>2012-04-15T09:38:24.000Z</time>
      </trkpt>
      <trkpt lat="48.20335" lon="3.36053">
        <ele>198</ele>
        <time>2012-04-15T09:38:26.000Z</time>
      </trkpt>
      <trkpt lat="48.20336" lon="3.36059">
        <ele>198</ele>
        <time>2012-04-15T09:38:28.000Z</time>
      </trkpt>
      <trkpt lat="48.20338" lon="3.36066">
        <ele>198</ele>
        <time>2012-04-15T09:38:30.000Z</time>
      </trkpt>
      <trkpt lat="48.20339" lon="3.36072">
        <ele>198</ele>
        <time>2012-04-15T09:38:32.000Z</time>
      </trkpt>
      <trkpt lat="48.2034" lon="3.36083">
        <ele>197</ele>
        <time>2012-04-15T09:38:35.000Z</time>
      </trkpt>
      <trkpt lat="48.20343" lon="3.36092">
        <ele>197</ele>
        <time>2012-04-15T09:38:37.000Z</time>
      </trkpt>
      <trkpt lat="48.20345" lon="3.36102">
        <ele>197</ele>
        <time>2012-04-15T09:38:40.000Z</time>
      </trkpt>
      <trkpt lat="48.20346" lon="3.36111">
        <ele>197</ele>
        <time>2012-04-15T09:38:43.000Z</time>
      </trkpt>
      <trkpt lat="48.20348" lon="3.36122">
        <ele>197</ele>
        <time>2012-04-15T09:38:46.000Z</time>
      </trkpt>
      <trkpt lat="48.20349" lon="3.3613">
        <ele>197</ele>
        <time>2012-04-15T09:38:49.000Z</time>
      </trkpt>
      <trkpt lat="48.20351" lon="3.36141">
        <ele>197</ele>
        <time>2012-04-15T09:38:52.000Z</time>
      </trkpt>
      <trkpt lat="48.20352" lon="3.36149">
        <ele>197</ele>
        <time>2012-04-15T09:38:54.000Z</time>
      </trkpt>
      <trkpt lat="48.20353" lon="3.36158">
        <ele>196</ele>
        <time>2012-04-15T09:38:58.000Z</time>
      </trkpt>
      <trkpt lat="48.20353" lon="3.36158">
        <ele>196</ele>
        <time>2012-04-15T09:38:58.000Z</time>
      </trkpt>
      <trkpt lat="48.20353" lon="3.36158">
        <ele>196</ele>
        <time>2012-04-15T09:38:59.000Z</time>
      </trkpt>
      <trkpt lat="48.20358" lon="3.36164">
        <ele>197</ele>
        <time>2012-04-15T09:39:06.000Z</time>
      </trkpt>
      <trkpt lat="48.20362" lon="3.36167">
        <ele>197</ele>
        <time>2012-04-15T09:39:09.000Z</time>
      </trkpt>
      <trkpt lat="48.20367" lon="3.36169">
        <ele>197</ele>
        <time>2012-04-15T09:39:13.000Z</time>
      </trkpt>
      <trkpt lat="48.20373" lon="3.36169">
        <ele>197</ele>
        <time>2012-04-15T09:39:17.000Z</time>
      </trkpt>
      <trkpt lat="48.20378" lon="3.36171">
        <ele>197</ele>
        <time>2012-04-15T09:39:20.000Z</time>
      </trkpt>
      <trkpt lat="48.20382" lon="3.36177">
        <ele>198</ele>
        <time>2012-04-15T09:39:24.000Z</time>
      </trkpt>
      <trkpt lat="48.20387" lon="3.36182">
        <ele>198</ele>
        <time>2012-04-15T09:39:27.000Z</time>
      </trkpt>
      <trkpt lat="48.20391" lon="3.36184">
        <ele>198</ele>
        <time>2012-04-15T09:39:30.000Z</time>
      </trkpt>
      <trkpt lat="48.20395" lon="3.36182">
        <ele>198</ele>
        <time>2012-04-15T09:39:32.000Z</time>
      </trkpt>
      <trkpt lat="48.204" lon="3.36177">
        <ele>199</ele>
        <time>2012-04-15T09:39:35.000Z</time>
      </trkpt>
      <trkpt lat="48.20406" lon="3.36177">
        <ele>199</ele>
        <time>2012-04-15T09:39:38.000Z</time>
      </trkpt>
      <trkpt lat="48.20411" lon="3.36175">
        <ele>199</ele>
        <time>2012-04-15T09:39:41.000Z</time>
      </trkpt>
      <trkpt lat="48.20416" lon="3.36173">
        <ele>199</ele>
        <time>2012-04-15T09:39:44.000Z</time>
      </trkpt>
      <trkpt lat="48.20421" lon="3.36173">
        <ele>199</ele>
        <time>2012-04-15T09:39:47.000Z</time>
      </trkpt>
      <trkpt lat="48.20426" lon="3.36175">
        <ele>199</ele>
        <time>2012-04-15T09:39:51.000Z</time>
      </trkpt>
      <trkpt lat="48.2043" lon="3.36182">
        <ele>198</ele>
        <time>2012-04-15T09:39:55.000Z</time>
      </trkpt>
      <trkpt lat="48.20434" lon="3.36186">
        <ele>198</ele>
        <time>2012-04-15T09:39:59.000Z</time>
      </trkpt>
      <trkpt lat="48.20438" lon="3.3619">
        <ele>198</ele>
        <time>2012-04-15T09:40:04.000Z</time>
      </trkpt>
      <trkpt lat="48.20442" lon="3.36194">
        <ele>198</ele>
        <time>2012-04-15T09:40:10.000Z</time>
      </trkpt>
      <trkpt lat="48.20447" lon="3.36197">
        <ele>197</ele>
        <time>2012-04-15T09:40:14.000Z</time>
      </trkpt>
      <trkpt lat="48.20451" lon="3.36199">
        <ele>197</ele>
        <time>2012-04-15T09:40:18.000Z</time>
      </trkpt>
      <trkpt lat="48.20456" lon="3.36199">
        <ele>197</ele>
        <time>2012-04-15T09:40:23.000Z</time>
      </trkpt>
      <trkpt lat="48.20462" lon="3.36203">
        <ele>197</ele>
        <time>2012-04-15T09:40:26.000Z</time>
      </trkpt>
      <trkpt lat="48.20466" lon="3.36205">
        <ele>197</ele>
        <time>2012-04-15T09:40:28.000Z</time>
      </trkpt>
      <trkpt lat="48.2047" lon="3.36207">
        <ele>197</ele>
        <time>2012-04-15T09:40:30.000Z</time>
      </trkpt>
      <trkpt lat="48.20477" lon="3.3621">
        <ele>196</ele>
        <time>2012-04-15T09:40:32.000Z</time>
      </trkpt>
      <trkpt lat="48.20482" lon="3.3621">
        <ele>196</ele>
        <time>2012-04-15T09:40:34.000Z</time>
      </trkpt>
      <trkpt lat="48.20487" lon="3.36207">
        <ele>196</ele>
        <time>2012-04-15T09:40:36.000Z</time>
      </trkpt>
      <trkpt lat="48.20493" lon="3.3621">
        <ele>196</ele>
        <time>2012-04-15T09:40:38.000Z</time>
      </trkpt>
      <trkpt lat="48.20498" lon="3.36207">
        <ele>196</ele>
        <time>2012-04-15T09:40:41.000Z</time>
      </trkpt>
      <trkpt lat="48.20504" lon="3.36203">
        <ele>191</ele>
        <time>2012-04-15T09:40:44.000Z</time>
      </trkpt>
      <trkpt lat="48.20509" lon="3.36201">
        <ele>191</ele>
        <time>2012-04-15T09:40:47.000Z</time>
      </trkpt>
      <trkpt lat="48.20513" lon="3.36199">
        <ele>191</ele>
        <time>2012-04-15T09:40:49.000Z</time>
      </trkpt>
      <trkpt lat="48.20518" lon="3.36197">
        <ele>191</ele>
        <time>2012-04-15T09:40:51.000Z</time>
      </trkpt>
      <trkpt lat="48.20524" lon="3.36197">
        <ele>191</ele>
        <time>2012-04-15T09:40:54.000Z</time>
      </trkpt>
      <trkpt lat="48.20529" lon="3.36194">
        <ele>190</ele>
        <time>2012-04-15T09:40:56.000Z</time>
      </trkpt>
      <trkpt lat="48.20535" lon="3.36192">
        <ele>190</ele>
        <time>2012-04-15T09:40:58.000Z</time>
      </trkpt>
      <trkpt lat="48.20541" lon="3.36192">
        <ele>190</ele>
        <time>2012-04-15T09:41:01.000Z</time>
      </trkpt>
      <trkpt lat="48.20546" lon="3.36192">
        <ele>190</ele>
        <time>2012-04-15T09:41:04.000Z</time>
      </trkpt>
      <trkpt lat="48.20552" lon="3.3619">
        <ele>189</ele>
        <time>2012-04-15T09:41:07.000Z</time>
      </trkpt>
      <trkpt lat="48.20556" lon="3.36188">
        <ele>189</ele>
        <time>2012-04-15T09:41:09.000Z</time>
      </trkpt>
      <trkpt lat="48.20563" lon="3.36186">
        <ele>188</ele>
        <time>2012-04-15T09:41:12.000Z</time>
      </trkpt>
      <trkpt lat="48.20569" lon="3.36184">
        <ele>188</ele>
        <time>2012-04-15T09:41:14.000Z</time>
      </trkpt>
      <trkpt lat="48.20576" lon="3.36182">
        <ele>187</ele>
        <time>2012-04-15T09:41:16.000Z</time>
      </trkpt>
      <trkpt lat="48.20582" lon="3.36179">
        <ele>187</ele>
        <time>2012-04-15T09:41:17.000Z</time>
      </trkpt>
      <trkpt lat="48.20589" lon="3.36179">
        <ele>185</ele>
        <time>2012-04-15T09:41:19.000Z</time>
      </trkpt>
      <trkpt lat="48.20597" lon="3.36182">
        <ele>185</ele>
        <time>2012-04-15T09:41:21.000Z</time>
      </trkpt>
      <trkpt lat="48.20603" lon="3.36184">
        <ele>185</ele>
        <time>2012-04-15T09:41:23.000Z</time>
      </trkpt>
      <trkpt lat="48.20609" lon="3.36182">
        <ele>185</ele>
        <time>2012-04-15T09:41:25.000Z</time>
      </trkpt>
      <trkpt lat="48.20613" lon="3.36175">
        <ele>185</ele>
        <time>2012-04-15T09:41:27.000Z</time>
      </trkpt>
      <trkpt lat="48.20618" lon="3.36173">
        <ele>184</ele>
        <time>2012-04-15T09:41:29.000Z</time>
      </trkpt>
      <trkpt lat="48.20624" lon="3.36171">
        <ele>184</ele>
        <time>2012-04-15T09:41:32.000Z</time>
      </trkpt>
      <trkpt lat="48.20628" lon="3.36169">
        <ele>184</ele>
        <time>2012-04-15T09:41:35.000Z</time>
      </trkpt>
      <trkpt lat="48.20633" lon="3.36169">
        <ele>184</ele>
        <time>2012-04-15T09:41:39.000Z</time>
      </trkpt>
      <trkpt lat="48.2064" lon="3.36169">
        <ele>183</ele>
        <time>2012-04-15T09:41:42.000Z</time>
      </trkpt>
      <trkpt lat="48.20645" lon="3.36169">
        <ele>183</ele>
        <time>2012-04-15T09:41:44.000Z</time>
      </trkpt>
      <trkpt lat="48.20652" lon="3.36169">
        <ele>183</ele>
        <time>2012-04-15T09:41:47.000Z</time>
      </trkpt>
      <trkpt lat="48.20656" lon="3.36171">
        <ele>182</ele>
        <time>2012-04-15T09:41:49.000Z</time>
      </trkpt>
      <trkpt lat="48.20661" lon="3.36175">
        <ele>182</ele>
        <time>2012-04-15T09:41:51.000Z</time>
      </trkpt>
      <trkpt lat="48.20667" lon="3.36177">
        <ele>180</ele>
        <time>2012-04-15T09:41:54.000Z</time>
      </trkpt>
      <trkpt lat="48.20671" lon="3.36179">
        <ele>180</ele>
        <time>2012-04-15T09:41:57.000Z</time>
      </trkpt>
      <trkpt lat="48.20676" lon="3.36179">
        <ele>180</ele>
        <time>2012-04-15T09:42:00.000Z</time>
      </trkpt>
      <trkpt lat="48.20681" lon="3.36182">
        <ele>179</ele>
        <time>2012-04-15T09:42:03.000Z</time>
      </trkpt>
      <trkpt lat="48.20685" lon="3.36184">
        <ele>179</ele>
        <time>2012-04-15T09:42:05.000Z</time>
      </trkpt>
      <trkpt lat="48.2069" lon="3.36184">
        <ele>179</ele>
        <time>2012-04-15T09:42:07.000Z</time>
      </trkpt>
      <trkpt lat="48.20696" lon="3.36188">
        <ele>179</ele>
        <time>2012-04-15T09:42:09.000Z</time>
      </trkpt>
      <trkpt lat="48.20703" lon="3.3619">
        <ele>178</ele>
        <time>2012-04-15T09:42:11.000Z</time>
      </trkpt>
      <trkpt lat="48.20707" lon="3.36194">
        <ele>178</ele>
        <time>2012-04-15T09:42:12.000Z</time>
      </trkpt>
      <trkpt lat="48.20712" lon="3.36197">
        <ele>178</ele>
        <time>2012-04-15T09:42:13.000Z</time>
      </trkpt>
      <trkpt lat="48.20716" lon="3.36199">
        <ele>178</ele>
        <time>2012-04-15T09:42:14.000Z</time>
      </trkpt>
      <trkpt lat="48.20722" lon="3.36203">
        <ele>177</ele>
        <time>2012-04-15T09:42:16.000Z</time>
      </trkpt>
      <trkpt lat="48.2073" lon="3.36207">
        <ele>177</ele>
        <time>2012-04-15T09:42:18.000Z</time>
      </trkpt>
      <trkpt lat="48.20734" lon="3.3621">
        <ele>177</ele>
        <time>2012-04-15T09:42:19.000Z</time>
      </trkpt>
      <trkpt lat="48.20738" lon="3.36212">
        <ele>176</ele>
        <time>2012-04-15T09:42:20.000Z</time>
      </trkpt>
      <trkpt lat="48.20744" lon="3.36214">
        <ele>176</ele>
        <time>2012-04-15T09:42:21.000Z</time>
      </trkpt>
      <trkpt lat="48.20749" lon="3.36216">
        <ele>176</ele>
        <time>2012-04-15T09:42:22.000Z</time>
      </trkpt>
      <trkpt lat="48.20755" lon="3.36218">
        <ele>170</ele>
        <time>2012-04-15T09:42:23.000Z</time>
      </trkpt>
      <trkpt lat="48.20759" lon="3.36222">
        <ele>170</ele>
        <time>2012-04-15T09:42:24.000Z</time>
      </trkpt>
      <trkpt lat="48.20764" lon="3.36227">
        <ele>170</ele>
        <time>2012-04-15T09:42:25.000Z</time>
      </trkpt>
      <trkpt lat="48.2077" lon="3.36229">
        <ele>170</ele>
        <time>2012-04-15T09:42:26.000Z</time>
      </trkpt>
      <trkpt lat="48.20774" lon="3.36231">
        <ele>170</ele>
        <time>2012-04-15T09:42:27.000Z</time>
      </trkpt>
      <trkpt lat="48.20779" lon="3.36235">
        <ele>169</ele>
        <time>2012-04-15T09:42:29.000Z</time>
      </trkpt>
      <trkpt lat="48.20787" lon="3.36237">
        <ele>169</ele>
        <time>2012-04-15T09:42:31.000Z</time>
      </trkpt>
      <trkpt lat="48.20791" lon="3.3624">
        <ele>168</ele>
        <time>2012-04-15T09:42:32.000Z</time>
      </trkpt>
      <trkpt lat="48.20795" lon="3.36242">
        <ele>168</ele>
        <time>2012-04-15T09:42:33.000Z</time>
      </trkpt>
      <trkpt lat="48.20804" lon="3.36244">
        <ele>167</ele>
        <time>2012-04-15T09:42:35.000Z</time>
      </trkpt>
      <trkpt lat="48.20812" lon="3.36246">
        <ele>166</ele>
        <time>2012-04-15T09:42:37.000Z</time>
      </trkpt>
      <trkpt lat="48.20819" lon="3.36248">
        <ele>165</ele>
        <time>2012-04-15T09:42:39.000Z</time>
      </trkpt>
      <trkpt lat="48.20828" lon="3.3625">
        <ele>163</ele>
        <time>2012-04-15T09:42:41.000Z</time>
      </trkpt>
      <trkpt lat="48.20835" lon="3.36252">
        <ele>161</ele>
        <time>2012-04-15T09:42:43.000Z</time>
      </trkpt>
      <trkpt lat="48.20839" lon="3.36254">
        <ele>161</ele>
        <time>2012-04-15T09:42:44.000Z</time>
      </trkpt>
      <trkpt lat="48.20846" lon="3.36257">
        <ele>161</ele>
        <time>2012-04-15T09:42:46.000Z</time>
      </trkpt>
      <trkpt lat="48.20853" lon="3.36259">
        <ele>160</ele>
        <time>2012-04-15T09:42:48.000Z</time>
      </trkpt>
      <trkpt lat="48.20853" lon="3.36259">
        <ele>160</ele>
        <time>2012-04-15T09:42:48.000Z</time>
      </trkpt>
      <trkpt lat="48.20853" lon="3.36259">
        <ele>160</ele>
        <time>2012-04-15T09:42:50.000Z</time>
      </trkpt>
      <trkpt lat="48.20863" lon="3.36261">
        <ele>160</ele>
        <time>2012-04-15T09:42:51.000Z</time>
      </trkpt>
      <trkpt lat="48.20863" lon="3.36261">
        <ele>160</ele>
        <time>2012-04-15T09:42:51.000Z</time>
      </trkpt>
      <trkpt lat="48.20863" lon="3.36261">
        <ele>160</ele>
        <time>2012-04-15T09:42:54.000Z</time>
      </trkpt>
      <trkpt lat="48.20875" lon="3.36263">
        <ele>160</ele>
        <time>2012-04-15T09:42:55.000Z</time>
      </trkpt>
      <trkpt lat="48.20875" lon="3.36263">
        <ele>160</ele>
        <time>2012-04-15T09:42:55.000Z</time>
      </trkpt>
      <trkpt lat="48.20875" lon="3.36263">
        <ele>160</ele>
        <time>2012-04-15T09:42:58.000Z</time>
      </trkpt>
      <trkpt lat="48.20884" lon="3.36263">
        <ele>159</ele>
        <time>2012-04-15T09:42:59.000Z</time>
      </trkpt>
      <trkpt lat="48.20884" lon="3.36263">
        <ele>159</ele>
        <time>2012-04-15T09:42:59.000Z</time>
      </trkpt>
      <trkpt lat="48.20884" lon="3.36263">
        <ele>159</ele>
        <time>2012-04-15T09:43:04.000Z</time>
      </trkpt>
      <trkpt lat="48.20897" lon="3.36261">
        <ele>158</ele>
        <time>2012-04-15T09:43:05.000Z</time>
      </trkpt>
      <trkpt lat="48.20909" lon="3.3625">
        <ele>157</ele>
        <time>2012-04-15T09:43:10.000Z</time>
      </trkpt>
      <trkpt lat="48.20909" lon="3.3625">
        <ele>157</ele>
        <time>2012-04-15T09:43:10.000Z</time>
      </trkpt>
      <trkpt lat="48.20909" lon="3.3625">
        <ele>157</ele>
        <time>2012-04-15T09:43:13.000Z</time>
      </trkpt>
      <trkpt lat="48.20917" lon="3.3624">
        <ele>155</ele>
        <time>2012-04-15T09:43:14.000Z</time>
      </trkpt>
      <trkpt lat="48.20917" lon="3.3624">
        <ele>155</ele>
        <time>2012-04-15T09:43:14.000Z</time>
      </trkpt>
      <trkpt lat="48.20917" lon="3.3624">
        <ele>155</ele>
        <time>2012-04-15T09:43:19.000Z</time>
      </trkpt>
      <trkpt lat="48.20923" lon="3.36229">
        <ele>154</ele>
        <time>2012-04-15T09:43:20.000Z</time>
      </trkpt>
      <trkpt lat="48.20923" lon="3.36229">
        <ele>154</ele>
        <time>2012-04-15T09:43:20.000Z</time>
      </trkpt>
      <trkpt lat="48.20923" lon="3.36229">
        <ele>154</ele>
        <time>2012-04-15T09:43:27.000Z</time>
      </trkpt>
      <trkpt lat="48.20928" lon="3.36218">
        <ele>154</ele>
        <time>2012-04-15T09:43:28.000Z</time>
      </trkpt>
      <trkpt lat="48.20928" lon="3.36218">
        <ele>154</ele>
        <time>2012-04-15T09:43:28.000Z</time>
      </trkpt>
      <trkpt lat="48.20928" lon="3.36218">
        <ele>154</ele>
        <time>2012-04-15T09:43:33.000Z</time>
      </trkpt>
      <trkpt lat="48.20937" lon="3.36212">
        <ele>153</ele>
        <time>2012-04-15T09:43:34.000Z</time>
      </trkpt>
      <trkpt lat="48.20937" lon="3.36212">
        <ele>153</ele>
        <time>2012-04-15T09:43:34.000Z</time>
      </trkpt>
      <trkpt lat="48.20937" lon="3.36212">
        <ele>153</ele>
        <time>2012-04-15T09:43:37.000Z</time>
      </trkpt>
      <trkpt lat="48.20948" lon="3.3621">
        <ele>153</ele>
        <time>2012-04-15T09:43:38.000Z</time>
      </trkpt>
      <trkpt lat="48.20948" lon="3.3621">
        <ele>153</ele>
        <time>2012-04-15T09:43:38.000Z</time>
      </trkpt>
      <trkpt lat="48.20948" lon="3.3621">
        <ele>153</ele>
        <time>2012-04-15T09:43:41.000Z</time>
      </trkpt>
      <trkpt lat="48.20958" lon="3.36207">
        <ele>152</ele>
        <time>2012-04-15T09:43:42.000Z</time>
      </trkpt>
      <trkpt lat="48.20958" lon="3.36207">
        <ele>152</ele>
        <time>2012-04-15T09:43:42.000Z</time>
      </trkpt>
      <trkpt lat="48.20958" lon="3.36207">
        <ele>152</ele>
        <time>2012-04-15T09:43:45.000Z</time>
      </trkpt>
      <trkpt lat="48.20968" lon="3.36205">
        <ele>151</ele>
        <time>2012-04-15T09:43:46.000Z</time>
      </trkpt>
      <trkpt lat="48.20968" lon="3.36205">
        <ele>151</ele>
        <time>2012-04-15T09:43:46.000Z</time>
      </trkpt>
      <trkpt lat="48.20968" lon="3.36205">
        <ele>151</ele>
        <time>2012-04-15T09:43:50.000Z</time>
      </trkpt>
      <trkpt lat="48.20978" lon="3.36205">
        <ele>151</ele>
        <time>2012-04-15T09:43:51.000Z</time>
      </trkpt>
      <trkpt lat="48.20978" lon="3.36205">
        <ele>151</ele>
        <time>2012-04-15T09:43:51.000Z</time>
      </trkpt>
      <trkpt lat="48.20978" lon="3.36205">
        <ele>151</ele>
        <time>2012-04-15T09:43:55.000Z</time>
      </trkpt>
      <trkpt lat="48.20987" lon="3.36203">
        <ele>150</ele>
        <time>2012-04-15T09:43:56.000Z</time>
      </trkpt>
      <trkpt lat="48.20987" lon="3.36203">
        <ele>150</ele>
        <time>2012-04-15T09:43:56.000Z</time>
      </trkpt>
      <trkpt lat="48.20987" lon="3.36203">
        <ele>150</ele>
        <time>2012-04-15T09:44:00.000Z</time>
      </trkpt>
      <trkpt lat="48.20997" lon="3.36199">
        <ele>150</ele>
        <time>2012-04-15T09:44:01.000Z</time>
      </trkpt>
      <trkpt lat="48.20997" lon="3.36199">
        <ele>150</ele>
        <time>2012-04-15T09:44:01.000Z</time>
      </trkpt>
      <trkpt lat="48.20997" lon="3.36199">
        <ele>150</ele>
        <time>2012-04-15T09:44:05.000Z</time>
      </trkpt>
      <trkpt lat="48.21007" lon="3.36194">
        <ele>143</ele>
        <time>2012-04-15T09:44:06.000Z</time>
      </trkpt>
      <trkpt lat="48.21007" lon="3.36194">
        <ele>143</ele>
        <time>2012-04-15T09:44:06.000Z</time>
      </trkpt>
      <trkpt lat="48.21007" lon="3.36194">
        <ele>143</ele>
        <time>2012-04-15T09:44:11.000Z</time>
      </trkpt>
      <trkpt lat="48.21018" lon="3.3619">
        <ele>142</ele>
        <time>2012-04-15T09:44:12.000Z</time>
      </trkpt>
      <trkpt lat="48.21018" lon="3.3619">
        <ele>142</ele>
        <time>2012-04-15T09:44:12.000Z</time>
      </trkpt>
      <trkpt lat="48.21018" lon="3.3619">
        <ele>142</ele>
        <time>2012-04-15T09:44:16.000Z</time>
      </trkpt>
      <trkpt lat="48.21026" lon="3.36186">
        <ele>142</ele>
        <time>2012-04-15T09:44:17.000Z</time>
      </trkpt>
      <trkpt lat="48.21026" lon="3.36186">
        <ele>142</ele>
        <time>2012-04-15T09:44:17.000Z</time>
      </trkpt>
      <trkpt lat="48.21026" lon="3.36186">
        <ele>142</ele>
        <time>2012-04-15T09:44:20.000Z</time>
      </trkpt>
      <trkpt lat="48.21035" lon="3.36182">
        <ele>141</ele>
        <time>2012-04-15T09:44:21.000Z</time>
      </trkpt>
      <trkpt lat="48.21035" lon="3.36182">
        <ele>141</ele>
        <time>2012-04-15T09:44:21.000Z</time>
      </trkpt>
      <trkpt lat="48.21035" lon="3.36182">
        <ele>141</ele>
        <time>2012-04-15T09:44:23.000Z</time>
      </trkpt>
      <trkpt lat="48.21044" lon="3.36173">
        <ele>140</ele>
        <time>2012-04-15T09:44:24.000Z</time>
      </trkpt>
      <trkpt lat="48.2105" lon="3.36169">
        <ele>139</ele>
        <time>2012-04-15T09:44:25.000Z</time>
      </trkpt>
      <trkpt lat="48.21054" lon="3.36164">
        <ele>140</ele>
        <time>2012-04-15T09:44:26.000Z</time>
      </trkpt>
      <trkpt lat="48.21058" lon="3.3616">
        <ele>139</ele>
        <time>2012-04-15T09:44:27.000Z</time>
      </trkpt>
      <trkpt lat="48.21064" lon="3.36158">
        <ele>139</ele>
        <time>2012-04-15T09:44:28.000Z</time>
      </trkpt>
      <trkpt lat="48.21064" lon="3.36158">
        <ele>139</ele>
        <time>2012-04-15T09:44:28.000Z</time>
      </trkpt>
      <trkpt lat="48.21064" lon="3.36158">
        <ele>139</ele>
        <time>2012-04-15T09:44:29.000Z</time>
      </trkpt>
      <trkpt lat="48.2107" lon="3.36152">
        <ele>138</ele>
        <time>2012-04-15T09:44:30.000Z</time>
      </trkpt>
      <trkpt lat="48.21076" lon="3.36147">
        <ele>138</ele>
        <time>2012-04-15T09:44:32.000Z</time>
      </trkpt>
      <trkpt lat="48.21082" lon="3.36143">
        <ele>138</ele>
        <time>2012-04-15T09:44:34.000Z</time>
      </trkpt>
      <trkpt lat="48.21087" lon="3.36139">
        <ele>131</ele>
        <time>2012-04-15T09:44:36.000Z</time>
      </trkpt>
      <trkpt lat="48.21092" lon="3.36136">
        <ele>131</ele>
        <time>2012-04-15T09:44:38.000Z</time>
      </trkpt>
      <trkpt lat="48.21096" lon="3.36134">
        <ele>131</ele>
        <time>2012-04-15T09:44:40.000Z</time>
      </trkpt>
      <trkpt lat="48.211" lon="3.3613">
        <ele>131</ele>
        <time>2012-04-15T09:44:42.000Z</time>
      </trkpt>
      <trkpt lat="48.21105" lon="3.36128">
        <ele>131</ele>
        <time>2012-04-15T09:44:44.000Z</time>
      </trkpt>
      <trkpt lat="48.2111" lon="3.36126">
        <ele>131</ele>
        <time>2012-04-15T09:44:46.000Z</time>
      </trkpt>
      <trkpt lat="48.21114" lon="3.36124">
        <ele>131</ele>
        <time>2012-04-15T09:44:48.000Z</time>
      </trkpt>
      <trkpt lat="48.21119" lon="3.36119">
        <ele>130</ele>
        <time>2012-04-15T09:44:50.000Z</time>
      </trkpt>
      <trkpt lat="48.21125" lon="3.36117">
        <ele>130</ele>
        <time>2012-04-15T09:44:52.000Z</time>
      </trkpt>
      <trkpt lat="48.2113" lon="3.36113">
        <ele>130</ele>
        <time>2012-04-15T09:44:54.000Z</time>
      </trkpt>
      <trkpt lat="48.21136" lon="3.36111">
        <ele>129</ele>
        <time>2012-04-15T09:44:56.000Z</time>
      </trkpt>
      <trkpt lat="48.21141" lon="3.36106">
        <ele>129</ele>
        <time>2012-04-15T09:44:58.000Z</time>
      </trkpt>
      <trkpt lat="48.21147" lon="3.36104">
        <ele>129</ele>
        <time>2012-04-15T09:45:00.000Z</time>
      </trkpt>
      <trkpt lat="48.21154" lon="3.36102">
        <ele>128</ele>
        <time>2012-04-15T09:45:02.000Z</time>
      </trkpt>
      <trkpt lat="48.2116" lon="3.36098">
        <ele>128</ele>
        <time>2012-04-15T09:45:04.000Z</time>
      </trkpt>
      <trkpt lat="48.21166" lon="3.36096">
        <ele>128</ele>
        <time>2012-04-15T09:45:06.000Z</time>
      </trkpt>
      <trkpt lat="48.21172" lon="3.36092">
        <ele>125</ele>
        <time>2012-04-15T09:45:08.000Z</time>
      </trkpt>
      <trkpt lat="48.21178" lon="3.36087">
        <ele>124</ele>
        <time>2012-04-15T09:45:10.000Z</time>
      </trkpt>
      <trkpt lat="48.21186" lon="3.36085">
        <ele>124</ele>
        <time>2012-04-15T09:45:12.000Z</time>
      </trkpt>
      <trkpt lat="48.21192" lon="3.36081">
        <ele>122</ele>
        <time>2012-04-15T09:45:14.000Z</time>
      </trkpt>
      <trkpt lat="48.21199" lon="3.36079">
        <ele>121</ele>
        <time>2012-04-15T09:45:16.000Z</time>
      </trkpt>
      <trkpt lat="48.21203" lon="3.36076">
        <ele>121</ele>
        <time>2012-04-15T09:45:17.000Z</time>
      </trkpt>
      <trkpt lat="48.2121" lon="3.36074">
        <ele>120</ele>
        <time>2012-04-15T09:45:19.000Z</time>
      </trkpt>
      <trkpt lat="48.21217" lon="3.36072">
        <ele>120</ele>
        <time>2012-04-15T09:45:21.000Z</time>
      </trkpt>
      <trkpt lat="48.21224" lon="3.3607">
        <ele>119</ele>
        <time>2012-04-15T09:45:23.000Z</time>
      </trkpt>
      <trkpt lat="48.21232" lon="3.36068">
        <ele>118</ele>
        <time>2012-04-15T09:45:25.000Z</time>
      </trkpt>
      <trkpt lat="48.21236" lon="3.36066">
        <ele>118</ele>
        <time>2012-04-15T09:45:26.000Z</time>
      </trkpt>
      <trkpt lat="48.21244" lon="3.36061">
        <ele>118</ele>
        <time>2012-04-15T09:45:28.000Z</time>
      </trkpt>
      <trkpt lat="48.21252" lon="3.36059">
        <ele>114</ele>
        <time>2012-04-15T09:45:30.000Z</time>
      </trkpt>
      <trkpt lat="48.21257" lon="3.36057">
        <ele>114</ele>
        <time>2012-04-15T09:45:31.000Z</time>
      </trkpt>
      <trkpt lat="48.21261" lon="3.36055">
        <ele>113</ele>
        <time>2012-04-15T09:45:32.000Z</time>
      </trkpt>
      <trkpt lat="48.21266" lon="3.36053">
        <ele>113</ele>
        <time>2012-04-15T09:45:33.000Z</time>
      </trkpt>
      <trkpt lat="48.21271" lon="3.36051">
        <ele>113</ele>
        <time>2012-04-15T09:45:34.000Z</time>
      </trkpt>
      <trkpt lat="48.21276" lon="3.36051">
        <ele>113</ele>
        <time>2012-04-15T09:45:35.000Z</time>
      </trkpt>
      <trkpt lat="48.2128" lon="3.36049">
        <ele>113</ele>
        <time>2012-04-15T09:45:36.000Z</time>
      </trkpt>
      <trkpt lat="48.21285" lon="3.36046">
        <ele>113</ele>
        <time>2012-04-15T09:45:37.000Z</time>
      </trkpt>
      <trkpt lat="48.2129" lon="3.36044">
        <ele>112</ele>
        <time>2012-04-15T09:45:38.000Z</time>
      </trkpt>
      <trkpt lat="48.21294" lon="3.36042">
        <ele>112</ele>
        <time>2012-04-15T09:45:39.000Z</time>
      </trkpt>
      <trkpt lat="48.21303" lon="3.3604">
        <ele>112</ele>
        <time>2012-04-15T09:45:41.000Z</time>
      </trkpt>
      <trkpt lat="48.21307" lon="3.36038">
        <ele>112</ele>
        <time>2012-04-15T09:45:42.000Z</time>
      </trkpt>
      <trkpt lat="48.21317" lon="3.36036">
        <ele>112</ele>
        <time>2012-04-15T09:45:44.000Z</time>
      </trkpt>
      <trkpt lat="48.21325" lon="3.36034">
        <ele>111</ele>
        <time>2012-04-15T09:45:46.000Z</time>
      </trkpt>
      <trkpt lat="48.21334" lon="3.36031">
        <ele>109</ele>
        <time>2012-04-15T09:45:48.000Z</time>
      </trkpt>
      <trkpt lat="48.21338" lon="3.36029">
        <ele>109</ele>
        <time>2012-04-15T09:45:49.000Z</time>
      </trkpt>
      <trkpt lat="48.21344" lon="3.36027">
        <ele>109</ele>
        <time>2012-04-15T09:45:50.000Z</time>
      </trkpt>
      <trkpt lat="48.21353" lon="3.36025">
        <ele>109</ele>
        <time>2012-04-15T09:45:52.000Z</time>
      </trkpt>
      <trkpt lat="48.21358" lon="3.36023">
        <ele>109</ele>
        <time>2012-04-15T09:45:53.000Z</time>
      </trkpt>
      <trkpt lat="48.21363" lon="3.36021">
        <ele>109</ele>
        <time>2012-04-15T09:45:54.000Z</time>
      </trkpt>
      <trkpt lat="48.21367" lon="3.36018">
        <ele>108</ele>
        <time>2012-04-15T09:45:55.000Z</time>
      </trkpt>
      <trkpt lat="48.21372" lon="3.36016">
        <ele>108</ele>
        <time>2012-04-15T09:45:56.000Z</time>
      </trkpt>
      <trkpt lat="48.2138" lon="3.36014">
        <ele>108</ele>
        <time>2012-04-15T09:45:58.000Z</time>
      </trkpt>
      <trkpt lat="48.21384" lon="3.36012">
        <ele>108</ele>
        <time>2012-04-15T09:45:59.000Z</time>
      </trkpt>
      <trkpt lat="48.21392" lon="3.36008">
        <ele>108</ele>
        <time>2012-04-15T09:46:01.000Z</time>
      </trkpt>
      <trkpt lat="48.21398" lon="3.36006">
        <ele>107</ele>
        <time>2012-04-15T09:46:03.000Z</time>
      </trkpt>
      <trkpt lat="48.21405" lon="3.36004">
        <ele>107</ele>
        <time>2012-04-15T09:46:05.000Z</time>
      </trkpt>
      <trkpt lat="48.21412" lon="3.36001">
        <ele>106</ele>
        <time>2012-04-15T09:46:07.000Z</time>
      </trkpt>
      <trkpt lat="48.2142" lon="3.35999">
        <ele>106</ele>
        <time>2012-04-15T09:46:09.000Z</time>
      </trkpt>
      <trkpt lat="48.21427" lon="3.35997">
        <ele>106</ele>
        <time>2012-04-15T09:46:11.000Z</time>
      </trkpt>
      <trkpt lat="48.21435" lon="3.35995">
        <ele>106</ele>
        <time>2012-04-15T09:46:13.000Z</time>
      </trkpt>
      <trkpt lat="48.21443" lon="3.35993">
        <ele>106</ele>
        <time>2012-04-15T09:46:15.000Z</time>
      </trkpt>
      <trkpt lat="48.21451" lon="3.35991">
        <ele>106</ele>
        <time>2012-04-15T09:46:17.000Z</time>
      </trkpt>
      <trkpt lat="48.21455" lon="3.35988">
        <ele>106</ele>
        <time>2012-04-15T09:46:18.000Z</time>
      </trkpt>
      <trkpt lat="48.21463" lon="3.35984">
        <ele>106</ele>
        <time>2012-04-15T09:46:20.000Z</time>
      </trkpt>
      <trkpt lat="48.21467" lon="3.35982">
        <ele>106</ele>
        <time>2012-04-15T09:46:21.000Z</time>
      </trkpt>
      <trkpt lat="48.21474" lon="3.3598">
        <ele>106</ele>
        <time>2012-04-15T09:46:23.000Z</time>
      </trkpt>
      <trkpt lat="48.21479" lon="3.35978">
        <ele>106</ele>
        <time>2012-04-15T09:46:24.000Z</time>
      </trkpt>
      <trkpt lat="48.21486" lon="3.35974">
        <ele>106</ele>
        <time>2012-04-15T09:46:26.000Z</time>
      </trkpt>
      <trkpt lat="48.21495" lon="3.35971">
        <ele>106</ele>
        <time>2012-04-15T09:46:28.000Z</time>
      </trkpt>
      <trkpt lat="48.21499" lon="3.35969">
        <ele>106</ele>
        <time>2012-04-15T09:46:29.000Z</time>
      </trkpt>
      <trkpt lat="48.21504" lon="3.35967">
        <ele>107</ele>
        <time>2012-04-15T09:46:30.000Z</time>
      </trkpt>
      <trkpt lat="48.21508" lon="3.35965">
        <ele>107</ele>
        <time>2012-04-15T09:46:31.000Z</time>
      </trkpt>
      <trkpt lat="48.21516" lon="3.35963">
        <ele>107</ele>
        <time>2012-04-15T09:46:33.000Z</time>
      </trkpt>
      <trkpt lat="48.21524" lon="3.35958">
        <ele>107</ele>
        <time>2012-04-15T09:46:35.000Z</time>
      </trkpt>
      <trkpt lat="48.2153" lon="3.35954">
        <ele>107</ele>
        <time>2012-04-15T09:46:37.000Z</time>
      </trkpt>
      <trkpt lat="48.21538" lon="3.3595">
        <ele>106</ele>
        <time>2012-04-15T09:46:39.000Z</time>
      </trkpt>
      <trkpt lat="48.21544" lon="3.35946">
        <ele>106</ele>
        <time>2012-04-15T09:46:41.000Z</time>
      </trkpt>
      <trkpt lat="48.21551" lon="3.35941">
        <ele>106</ele>
        <time>2012-04-15T09:46:43.000Z</time>
      </trkpt>
      <trkpt lat="48.21557" lon="3.35935">
        <ele>106</ele>
        <time>2012-04-15T09:46:45.000Z</time>
      </trkpt>
      <trkpt lat="48.21564" lon="3.3593">
        <ele>106</ele>
        <time>2012-04-15T09:46:47.000Z</time>
      </trkpt>
      <trkpt lat="48.2157" lon="3.35926">
        <ele>106</ele>
        <time>2012-04-15T09:46:49.000Z</time>
      </trkpt>
      <trkpt lat="48.21578" lon="3.35922">
        <ele>105</ele>
        <time>2012-04-15T09:46:51.000Z</time>
      </trkpt>
      <trkpt lat="48.21584" lon="3.35916">
        <ele>105</ele>
        <time>2012-04-15T09:46:53.000Z</time>
      </trkpt>
      <trkpt lat="48.2159" lon="3.35911">
        <ele>106</ele>
        <time>2012-04-15T09:46:55.000Z</time>
      </trkpt>
      <trkpt lat="48.21596" lon="3.35907">
        <ele>107</ele>
        <time>2012-04-15T09:46:57.000Z</time>
      </trkpt>
      <trkpt lat="48.216" lon="3.35905">
        <ele>108</ele>
        <time>2012-04-15T09:46:59.000Z</time>
      </trkpt>
      <trkpt lat="48.21604" lon="3.35903">
        <ele>108</ele>
        <time>2012-04-15T09:47:01.000Z</time>
      </trkpt>
      <trkpt lat="48.21609" lon="3.359">
        <ele>108</ele>
        <time>2012-04-15T09:47:03.000Z</time>
      </trkpt>
      <trkpt lat="48.21614" lon="3.35896">
        <ele>109</ele>
        <time>2012-04-15T09:47:06.000Z</time>
      </trkpt>
      <trkpt lat="48.21618" lon="3.35894">
        <ele>109</ele>
        <time>2012-04-15T09:47:08.000Z</time>
      </trkpt>
      <trkpt lat="48.21624" lon="3.35892">
        <ele>110</ele>
        <time>2012-04-15T09:47:10.000Z</time>
      </trkpt>
      <trkpt lat="48.21624" lon="3.35892">
        <ele>110</ele>
        <time>2012-04-15T09:47:10.000Z</time>
      </trkpt>
      <trkpt lat="48.21624" lon="3.35892">
        <ele>110</ele>
        <time>2012-04-15T09:47:11.000Z</time>
      </trkpt>
      <trkpt lat="48.21628" lon="3.35888">
        <ele>110</ele>
        <time>2012-04-15T09:47:12.000Z</time>
      </trkpt>
      <trkpt lat="48.21632" lon="3.35886">
        <ele>110</ele>
        <time>2012-04-15T09:47:14.000Z</time>
      </trkpt>
      <trkpt lat="48.21636" lon="3.35883">
        <ele>110</ele>
        <time>2012-04-15T09:47:16.000Z</time>
      </trkpt>
      <trkpt lat="48.21636" lon="3.35883">
        <ele>110</ele>
        <time>2012-04-15T09:47:16.000Z</time>
      </trkpt>
      <trkpt lat="48.21636" lon="3.35883">
        <ele>110</ele>
        <time>2012-04-15T09:47:17.000Z</time>
      </trkpt>
      <trkpt lat="48.21644" lon="3.35881">
        <ele>111</ele>
        <time>2012-04-15T09:47:20.000Z</time>
      </trkpt>
      <trkpt lat="48.21644" lon="3.35881">
        <ele>111</ele>
        <time>2012-04-15T09:47:20.000Z</time>
      </trkpt>
      <trkpt lat="48.21644" lon="3.35881">
        <ele>111</ele>
        <time>2012-04-15T09:47:21.000Z</time>
      </trkpt>
      <trkpt lat="48.2165" lon="3.35877">
        <ele>111</ele>
        <time>2012-04-15T09:47:24.000Z</time>
      </trkpt>
      <trkpt lat="48.2165" lon="3.35877">
        <ele>111</ele>
        <time>2012-04-15T09:47:24.000Z</time>
      </trkpt>
      <trkpt lat="48.2165" lon="3.35877">
        <ele>111</ele>
        <time>2012-04-15T09:47:27.000Z</time>
      </trkpt>
      <trkpt lat="48.21657" lon="3.35875">
        <ele>111</ele>
        <time>2012-04-15T09:47:28.000Z</time>
      </trkpt>
      <trkpt lat="48.21663" lon="3.3587">
        <ele>111</ele>
        <time>2012-04-15T09:47:32.000Z</time>
      </trkpt>
      <trkpt lat="48.21669" lon="3.35868">
        <ele>117</ele>
        <time>2012-04-15T09:47:36.000Z</time>
      </trkpt>
      <trkpt lat="48.21669" lon="3.35868">
        <ele>117</ele>
        <time>2012-04-15T09:47:36.000Z</time>
      </trkpt>
      <trkpt lat="48.21669" lon="3.35868">
        <ele>117</ele>
        <time>2012-04-15T09:47:37.000Z</time>
      </trkpt>
      <trkpt lat="48.21677" lon="3.35864">
        <ele>117</ele>
        <time>2012-04-15T09:47:42.000Z</time>
      </trkpt>
      <trkpt lat="48.21677" lon="3.35864">
        <ele>117</ele>
        <time>2012-04-15T09:47:42.000Z</time>
      </trkpt>
      <trkpt lat="48.21677" lon="3.35864">
        <ele>117</ele>
        <time>2012-04-15T09:47:43.000Z</time>
      </trkpt>
      <trkpt lat="48.21682" lon="3.35862">
        <ele>117</ele>
        <time>2012-04-15T09:47:46.000Z</time>
      </trkpt>
      <trkpt lat="48.21682" lon="3.35862">
        <ele>117</ele>
        <time>2012-04-15T09:47:46.000Z</time>
      </trkpt>
      <trkpt lat="48.21682" lon="3.35862">
        <ele>117</ele>
        <time>2012-04-15T09:47:49.000Z</time>
      </trkpt>
      <trkpt lat="48.21688" lon="3.3586">
        <ele>118</ele>
        <time>2012-04-15T09:47:50.000Z</time>
      </trkpt>
      <trkpt lat="48.21688" lon="3.3586">
        <ele>118</ele>
        <time>2012-04-15T09:47:50.000Z</time>
      </trkpt>
      <trkpt lat="48.21688" lon="3.3586">
        <ele>118</ele>
        <time>2012-04-15T09:47:52.000Z</time>
      </trkpt>
      <trkpt lat="48.21692" lon="3.35858">
        <ele>118</ele>
        <time>2012-04-15T09:47:53.000Z</time>
      </trkpt>
      <trkpt lat="48.217" lon="3.35853">
        <ele>118</ele>
        <time>2012-04-15T09:47:58.000Z</time>
      </trkpt>
      <trkpt lat="48.217" lon="3.35853">
        <ele>118</ele>
        <time>2012-04-15T09:47:58.000Z</time>
      </trkpt>
      <trkpt lat="48.217" lon="3.35853">
        <ele>118</ele>
        <time>2012-04-15T09:47:59.000Z</time>
      </trkpt>
      <trkpt lat="48.21704" lon="3.35847">
        <ele>119</ele>
        <time>2012-04-15T09:48:02.000Z</time>
      </trkpt>
      <trkpt lat="48.21703" lon="3.35832">
        <ele>120</ele>
        <time>2012-04-15T09:48:09.000Z</time>
      </trkpt>
      <trkpt lat="48.21703" lon="3.35832">
        <ele>120</ele>
        <time>2012-04-15T09:48:09.000Z</time>
      </trkpt>
      <trkpt lat="48.21703" lon="3.35832">
        <ele>120</ele>
        <time>2012-04-15T09:48:12.000Z</time>
      </trkpt>
      <trkpt lat="48.21701" lon="3.35825">
        <ele>120</ele>
        <time>2012-04-15T09:48:13.000Z</time>
      </trkpt>
      <trkpt lat="48.21701" lon="3.35825">
        <ele>120</ele>
        <time>2012-04-15T09:48:13.000Z</time>
      </trkpt>
      <trkpt lat="48.21701" lon="3.35825">
        <ele>120</ele>
        <time>2012-04-15T09:48:15.000Z</time>
      </trkpt>
      <trkpt lat="48.21699" lon="3.35815">
        <ele>120</ele>
        <time>2012-04-15T09:48:17.000Z</time>
      </trkpt>
      <trkpt lat="48.21698" lon="3.35806">
        <ele>120</ele>
        <time>2012-04-15T09:48:20.000Z</time>
      </trkpt>
      <trkpt lat="48.21696" lon="3.358">
        <ele>120</ele>
        <time>2012-04-15T09:48:22.000Z</time>
      </trkpt>
      <trkpt lat="48.21693" lon="3.35789">
        <ele>120</ele>
        <time>2012-04-15T09:48:25.000Z</time>
      </trkpt>
      <trkpt lat="48.21692" lon="3.3578">
        <ele>120</ele>
        <time>2012-04-15T09:48:27.000Z</time>
      </trkpt>
      <trkpt lat="48.2169" lon="3.35772">
        <ele>120</ele>
        <time>2012-04-15T09:48:29.000Z</time>
      </trkpt>
      <trkpt lat="48.21689" lon="3.35763">
        <ele>120</ele>
        <time>2012-04-15T09:48:31.000Z</time>
      </trkpt>
      <trkpt lat="48.21687" lon="3.35755">
        <ele>120</ele>
        <time>2012-04-15T09:48:33.000Z</time>
      </trkpt>
      <trkpt lat="48.21685" lon="3.35746">
        <ele>120</ele>
        <time>2012-04-15T09:48:35.000Z</time>
      </trkpt>
      <trkpt lat="48.21684" lon="3.35735">
        <ele>121</ele>
        <time>2012-04-15T09:48:37.000Z</time>
      </trkpt>
      <trkpt lat="48.21682" lon="3.35727">
        <ele>121</ele>
        <time>2012-04-15T09:48:39.000Z</time>
      </trkpt>
      <trkpt lat="48.2168" lon="3.35718">
        <ele>121</ele>
        <time>2012-04-15T09:48:41.000Z</time>
      </trkpt>
      <trkpt lat="48.21678" lon="3.3571">
        <ele>121</ele>
        <time>2012-04-15T09:48:43.000Z</time>
      </trkpt>
      <trkpt lat="48.21676" lon="3.35699">
        <ele>121</ele>
        <time>2012-04-15T09:48:45.000Z</time>
      </trkpt>
      <trkpt lat="48.21674" lon="3.3569">
        <ele>121</ele>
        <time>2012-04-15T09:48:47.000Z</time>
      </trkpt>
      <trkpt lat="48.21673" lon="3.35682">
        <ele>120</ele>
        <time>2012-04-15T09:48:49.000Z</time>
      </trkpt>
      <trkpt lat="48.21671" lon="3.35671">
        <ele>119</ele>
        <time>2012-04-15T09:48:51.000Z</time>
      </trkpt>
      <trkpt lat="48.21669" lon="3.35662">
        <ele>119</ele>
        <time>2012-04-15T09:48:53.000Z</time>
      </trkpt>
      <trkpt lat="48.21668" lon="3.35654">
        <ele>120</ele>
        <time>2012-04-15T09:48:55.000Z</time>
      </trkpt>
      <trkpt lat="48.21666" lon="3.35645">
        <ele>116</ele>
        <time>2012-04-15T09:48:57.000Z</time>
      </trkpt>
      <trkpt lat="48.21663" lon="3.35634">
        <ele>116</ele>
        <time>2012-04-15T09:48:59.000Z</time>
      </trkpt>
      <trkpt lat="48.21661" lon="3.35626">
        <ele>116</ele>
        <time>2012-04-15T09:49:01.000Z</time>
      </trkpt>
      <trkpt lat="48.2166" lon="3.35617">
        <ele>116</ele>
        <time>2012-04-15T09:49:03.000Z</time>
      </trkpt>
      <trkpt lat="48.21658" lon="3.35609">
        <ele>116</ele>
        <time>2012-04-15T09:49:05.000Z</time>
      </trkpt>
      <trkpt lat="48.21656" lon="3.356">
        <ele>117</ele>
        <time>2012-04-15T09:49:07.000Z</time>
      </trkpt>
      <trkpt lat="48.21654" lon="3.35594">
        <ele>117</ele>
        <time>2012-04-15T09:49:09.000Z</time>
      </trkpt>
      <trkpt lat="48.21652" lon="3.35585">
        <ele>117</ele>
        <time>2012-04-15T09:49:11.000Z</time>
      </trkpt>
      <trkpt lat="48.2165" lon="3.35574">
        <ele>118</ele>
        <time>2012-04-15T09:49:13.000Z</time>
      </trkpt>
      <trkpt lat="48.21648" lon="3.35566">
        <ele>118</ele>
        <time>2012-04-15T09:49:15.000Z</time>
      </trkpt>
      <trkpt lat="48.21646" lon="3.35557">
        <ele>118</ele>
        <time>2012-04-15T09:49:17.000Z</time>
      </trkpt>
      <trkpt lat="48.21644" lon="3.35551">
        <ele>118</ele>
        <time>2012-04-15T09:49:18.000Z</time>
      </trkpt>
      <trkpt lat="48.21642" lon="3.35542">
        <ele>118</ele>
        <time>2012-04-15T09:49:20.000Z</time>
      </trkpt>
      <trkpt lat="48.21639" lon="3.35531">
        <ele>118</ele>
        <time>2012-04-15T09:49:22.000Z</time>
      </trkpt>
      <trkpt lat="48.21635" lon="3.35523">
        <ele>118</ele>
        <time>2012-04-15T09:49:24.000Z</time>
      </trkpt>
      <trkpt lat="48.21632" lon="3.35512">
        <ele>118</ele>
        <time>2012-04-15T09:49:26.000Z</time>
      </trkpt>
      <trkpt lat="48.21629" lon="3.35504">
        <ele>118</ele>
        <time>2012-04-15T09:49:28.000Z</time>
      </trkpt>
      <trkpt lat="48.21626" lon="3.35495">
        <ele>120</ele>
        <time>2012-04-15T09:49:30.000Z</time>
      </trkpt>
      <trkpt lat="48.21623" lon="3.35486">
        <ele>120</ele>
        <time>2012-04-15T09:49:32.000Z</time>
      </trkpt>
      <trkpt lat="48.21618" lon="3.35478">
        <ele>120</ele>
        <time>2012-04-15T09:49:34.000Z</time>
      </trkpt>
      <trkpt lat="48.21615" lon="3.35467">
        <ele>120</ele>
        <time>2012-04-15T09:49:36.000Z</time>
      </trkpt>
      <trkpt lat="48.21611" lon="3.35458">
        <ele>120</ele>
        <time>2012-04-15T09:49:38.000Z</time>
      </trkpt>
      <trkpt lat="48.21606" lon="3.3545">
        <ele>119</ele>
        <time>2012-04-15T09:49:40.000Z</time>
      </trkpt>
      <trkpt lat="48.21604" lon="3.35443">
        <ele>119</ele>
        <time>2012-04-15T09:49:41.000Z</time>
      </trkpt>
      <trkpt lat="48.216" lon="3.35435">
        <ele>119</ele>
        <time>2012-04-15T09:49:43.000Z</time>
      </trkpt>
      <trkpt lat="48.21598" lon="3.35428">
        <ele>119</ele>
        <time>2012-04-15T09:49:44.000Z</time>
      </trkpt>
      <trkpt lat="48.21594" lon="3.3542">
        <ele>118</ele>
        <time>2012-04-15T09:49:46.000Z</time>
      </trkpt>
      <trkpt lat="48.21588" lon="3.35409">
        <ele>118</ele>
        <time>2012-04-15T09:49:48.000Z</time>
      </trkpt>
      <trkpt lat="48.21584" lon="3.35398">
        <ele>119</ele>
        <time>2012-04-15T09:49:50.000Z</time>
      </trkpt>
      <trkpt lat="48.21581" lon="3.35392">
        <ele>115</ele>
        <time>2012-04-15T09:49:51.000Z</time>
      </trkpt>
      <trkpt lat="48.21579" lon="3.35386">
        <ele>115</ele>
        <time>2012-04-15T09:49:52.000Z</time>
      </trkpt>
      <trkpt lat="48.21575" lon="3.35379">
        <ele>115</ele>
        <time>2012-04-15T09:49:53.000Z</time>
      </trkpt>
      <trkpt lat="48.21572" lon="3.35373">
        <ele>115</ele>
        <time>2012-04-15T09:49:54.000Z</time>
      </trkpt>
      <trkpt lat="48.21567" lon="3.35362">
        <ele>115</ele>
        <time>2012-04-15T09:49:56.000Z</time>
      </trkpt>
      <trkpt lat="48.21564" lon="3.35356">
        <ele>115</ele>
        <time>2012-04-15T09:49:57.000Z</time>
      </trkpt>
      <trkpt lat="48.2156" lon="3.35349">
        <ele>115</ele>
        <time>2012-04-15T09:49:58.000Z</time>
      </trkpt>
      <trkpt lat="48.21558" lon="3.3534">
        <ele>115</ele>
        <time>2012-04-15T09:49:59.000Z</time>
      </trkpt>
      <trkpt lat="48.21555" lon="3.35334">
        <ele>115</ele>
        <time>2012-04-15T09:50:00.000Z</time>
      </trkpt>
      <trkpt lat="48.21553" lon="3.35325">
        <ele>115</ele>
        <time>2012-04-15T09:50:01.000Z</time>
      </trkpt>
      <trkpt lat="48.2155" lon="3.35319">
        <ele>115</ele>
        <time>2012-04-15T09:50:02.000Z</time>
      </trkpt>
      <trkpt lat="48.21548" lon="3.3531">
        <ele>115</ele>
        <time>2012-04-15T09:50:03.000Z</time>
      </trkpt>
      <trkpt lat="48.21544" lon="3.35302">
        <ele>114</ele>
        <time>2012-04-15T09:50:04.000Z</time>
      </trkpt>
      <trkpt lat="48.21542" lon="3.35295">
        <ele>114</ele>
        <time>2012-04-15T09:50:05.000Z</time>
      </trkpt>
      <trkpt lat="48.2154" lon="3.35287">
        <ele>114</ele>
        <time>2012-04-15T09:50:06.000Z</time>
      </trkpt>
      <trkpt lat="48.21537" lon="3.35278">
        <ele>114</ele>
        <time>2012-04-15T09:50:07.000Z</time>
      </trkpt>
      <trkpt lat="48.21535" lon="3.35272">
        <ele>114</ele>
        <time>2012-04-15T09:50:08.000Z</time>
      </trkpt>
      <trkpt lat="48.21532" lon="3.35263">
        <ele>114</ele>
        <time>2012-04-15T09:50:09.000Z</time>
      </trkpt>
      <trkpt lat="48.21529" lon="3.35257">
        <ele>113</ele>
        <time>2012-04-15T09:50:10.000Z</time>
      </trkpt>
      <trkpt lat="48.21527" lon="3.3525">
        <ele>113</ele>
        <time>2012-04-15T09:50:11.000Z</time>
      </trkpt>
      <trkpt lat="48.21525" lon="3.35242">
        <ele>113</ele>
        <time>2012-04-15T09:50:12.000Z</time>
      </trkpt>
      <trkpt lat="48.21523" lon="3.35235">
        <ele>113</ele>
        <time>2012-04-15T09:50:13.000Z</time>
      </trkpt>
      <trkpt lat="48.21518" lon="3.35225">
        <ele>113</ele>
        <time>2012-04-15T09:50:15.000Z</time>
      </trkpt>
      <trkpt lat="48.21515" lon="3.35216">
        <ele>113</ele>
        <time>2012-04-15T09:50:17.000Z</time>
      </trkpt>
      <trkpt lat="48.21514" lon="3.35207">
        <ele>113</ele>
        <time>2012-04-15T09:50:19.000Z</time>
      </trkpt>
      <trkpt lat="48.21512" lon="3.35201">
        <ele>113</ele>
        <time>2012-04-15T09:50:21.000Z</time>
      </trkpt>
      <trkpt lat="48.21512" lon="3.3519">
        <ele>113</ele>
        <time>2012-04-15T09:50:24.000Z</time>
      </trkpt>
      <trkpt lat="48.21517" lon="3.35184">
        <ele>113</ele>
        <time>2012-04-15T09:50:27.000Z</time>
      </trkpt>
      <trkpt lat="48.21522" lon="3.35177">
        <ele>113</ele>
        <time>2012-04-15T09:50:29.000Z</time>
      </trkpt>
      <trkpt lat="48.21527" lon="3.35169">
        <ele>113</ele>
        <time>2012-04-15T09:50:32.000Z</time>
      </trkpt>
      <trkpt lat="48.21531" lon="3.35164">
        <ele>113</ele>
        <time>2012-04-15T09:50:34.000Z</time>
      </trkpt>
      <trkpt lat="48.21535" lon="3.35158">
        <ele>114</ele>
        <time>2012-04-15T09:50:36.000Z</time>
      </trkpt>
      <trkpt lat="48.21538" lon="3.35152">
        <ele>114</ele>
        <time>2012-04-15T09:50:38.000Z</time>
      </trkpt>
      <trkpt lat="48.21543" lon="3.35143">
        <ele>114</ele>
        <time>2012-04-15T09:50:41.000Z</time>
      </trkpt>
      <trkpt lat="48.21548" lon="3.35134">
        <ele>114</ele>
        <time>2012-04-15T09:50:44.000Z</time>
      </trkpt>
      <trkpt lat="48.21553" lon="3.35128">
        <ele>114</ele>
        <time>2012-04-15T09:50:47.000Z</time>
      </trkpt>
      <trkpt lat="48.21556" lon="3.35122">
        <ele>114</ele>
        <time>2012-04-15T09:50:49.000Z</time>
      </trkpt>
      <trkpt lat="48.2156" lon="3.35115">
        <ele>115</ele>
        <time>2012-04-15T09:50:52.000Z</time>
      </trkpt>
      <trkpt lat="48.21564" lon="3.35109">
        <ele>115</ele>
        <time>2012-04-15T09:50:54.000Z</time>
      </trkpt>
      <trkpt lat="48.21569" lon="3.35102">
        <ele>115</ele>
        <time>2012-04-15T09:50:57.000Z</time>
      </trkpt>
      <trkpt lat="48.21574" lon="3.35094">
        <ele>116</ele>
        <time>2012-04-15T09:51:00.000Z</time>
      </trkpt>
      <trkpt lat="48.21574" lon="3.35094">
        <ele>116</ele>
        <time>2012-04-15T09:51:00.000Z</time>
      </trkpt>
      <trkpt lat="48.21574" lon="3.35094">
        <ele>116</ele>
        <time>2012-04-15T09:51:01.000Z</time>
      </trkpt>
      <trkpt lat="48.21581" lon="3.35087">
        <ele>117</ele>
        <time>2012-04-15T09:51:04.000Z</time>
      </trkpt>
      <trkpt lat="48.21585" lon="3.35081">
        <ele>117</ele>
        <time>2012-04-15T09:51:07.000Z</time>
      </trkpt>
      <trkpt lat="48.21585" lon="3.35081">
        <ele>117</ele>
        <time>2012-04-15T09:51:07.000Z</time>
      </trkpt>
      <trkpt lat="48.21585" lon="3.35081">
        <ele>117</ele>
        <time>2012-04-15T09:51:09.000Z</time>
      </trkpt>
      <trkpt lat="48.21589" lon="3.35074">
        <ele>118</ele>
        <time>2012-04-15T09:51:10.000Z</time>
      </trkpt>
      <trkpt lat="48.21589" lon="3.35074">
        <ele>118</ele>
        <time>2012-04-15T09:51:10.000Z</time>
      </trkpt>
      <trkpt lat="48.21589" lon="3.35074">
        <ele>118</ele>
        <time>2012-04-15T09:51:12.000Z</time>
      </trkpt>
      <trkpt lat="48.21594" lon="3.35068">
        <ele>119</ele>
        <time>2012-04-15T09:51:13.000Z</time>
      </trkpt>
      <trkpt lat="48.21594" lon="3.35068">
        <ele>119</ele>
        <time>2012-04-15T09:51:13.000Z</time>
      </trkpt>
      <trkpt lat="48.21594" lon="3.35068">
        <ele>119</ele>
        <time>2012-04-15T09:51:15.000Z</time>
      </trkpt>
      <trkpt lat="48.21599" lon="3.35059">
        <ele>119</ele>
        <time>2012-04-15T09:51:18.000Z</time>
      </trkpt>
      <trkpt lat="48.21605" lon="3.35049">
        <ele>120</ele>
        <time>2012-04-15T09:51:24.000Z</time>
      </trkpt>
      <trkpt lat="48.21612" lon="3.35042">
        <ele>120</ele>
        <time>2012-04-15T09:51:30.000Z</time>
      </trkpt>
      <trkpt lat="48.21615" lon="3.35036">
        <ele>120</ele>
        <time>2012-04-15T09:51:33.000Z</time>
      </trkpt>
      <trkpt lat="48.2162" lon="3.35032">
        <ele>120</ele>
        <time>2012-04-15T09:51:37.000Z</time>
      </trkpt>
      <trkpt lat="48.21628" lon="3.35023">
        <ele>121</ele>
        <time>2012-04-15T09:51:44.000Z</time>
      </trkpt>
      <trkpt lat="48.21628" lon="3.35023">
        <ele>121</ele>
        <time>2012-04-15T09:51:44.000Z</time>
      </trkpt>
      <trkpt lat="48.21628" lon="3.35023">
        <ele>121</ele>
        <time>2012-04-15T09:51:45.000Z</time>
      </trkpt>
      <trkpt lat="48.21632" lon="3.35019">
        <ele>121</ele>
        <time>2012-04-15T09:51:47.000Z</time>
      </trkpt>
      <trkpt lat="48.21632" lon="3.35019">
        <ele>121</ele>
        <time>2012-04-15T09:51:47.000Z</time>
      </trkpt>
      <trkpt lat="48.21632" lon="3.35019">
        <ele>121</ele>
        <time>2012-04-15T09:51:48.000Z</time>
      </trkpt>
      <trkpt lat="48.21636" lon="3.35014">
        <ele>122</ele>
        <time>2012-04-15T09:51:51.000Z</time>
      </trkpt>
      <trkpt lat="48.21641" lon="3.3501">
        <ele>122</ele>
        <time>2012-04-15T09:51:55.000Z</time>
      </trkpt>
      <trkpt lat="48.21641" lon="3.3501">
        <ele>122</ele>
        <time>2012-04-15T09:51:55.000Z</time>
      </trkpt>
      <trkpt lat="48.21641" lon="3.3501">
        <ele>122</ele>
        <time>2012-04-15T09:51:56.000Z</time>
      </trkpt>
      <trkpt lat="48.21645" lon="3.35006">
        <ele>123</ele>
        <time>2012-04-15T09:51:58.000Z</time>
      </trkpt>
      <trkpt lat="48.21649" lon="3.34999">
        <ele>125</ele>
        <time>2012-04-15T09:52:02.000Z</time>
      </trkpt>
      <trkpt lat="48.21654" lon="3.34995">
        <ele>125</ele>
        <time>2012-04-15T09:52:06.000Z</time>
      </trkpt>
      <trkpt lat="48.21658" lon="3.34991">
        <ele>126</ele>
        <time>2012-04-15T09:52:09.000Z</time>
      </trkpt>
      <trkpt lat="48.21658" lon="3.34991">
        <ele>126</ele>
        <time>2012-04-15T09:52:09.000Z</time>
      </trkpt>
      <trkpt lat="48.21658" lon="3.34991">
        <ele>126</ele>
        <time>2012-04-15T09:52:11.000Z</time>
      </trkpt>
      <trkpt lat="48.21662" lon="3.34986">
        <ele>126</ele>
        <time>2012-04-15T09:52:13.000Z</time>
      </trkpt>
      <trkpt lat="48.21666" lon="3.34982">
        <ele>126</ele>
        <time>2012-04-15T09:52:16.000Z</time>
      </trkpt>
      <trkpt lat="48.21666" lon="3.34982">
        <ele>126</ele>
        <time>2012-04-15T09:52:16.000Z</time>
      </trkpt>
      <trkpt lat="48.21666" lon="3.34982">
        <ele>126</ele>
        <time>2012-04-15T09:52:17.000Z</time>
      </trkpt>
      <trkpt lat="48.21671" lon="3.34978">
        <ele>130</ele>
        <time>2012-04-15T09:52:21.000Z</time>
      </trkpt>
      <trkpt lat="48.21671" lon="3.34978">
        <ele>130</ele>
        <time>2012-04-15T09:52:21.000Z</time>
      </trkpt>
      <trkpt lat="48.21671" lon="3.34978">
        <ele>130</ele>
        <time>2012-04-15T09:52:22.000Z</time>
      </trkpt>
      <trkpt lat="48.21675" lon="3.34974">
        <ele>131</ele>
        <time>2012-04-15T09:52:25.000Z</time>
      </trkpt>
      <trkpt lat="48.21679" lon="3.34967">
        <ele>131</ele>
        <time>2012-04-15T09:52:30.000Z</time>
      </trkpt>
      <trkpt lat="48.21684" lon="3.34963">
        <ele>132</ele>
        <time>2012-04-15T09:52:35.000Z</time>
      </trkpt>
      <trkpt lat="48.21688" lon="3.34961">
        <ele>132</ele>
        <time>2012-04-15T09:52:39.000Z</time>
      </trkpt>
      <trkpt lat="48.21692" lon="3.34954">
        <ele>133</ele>
        <time>2012-04-15T09:52:44.000Z</time>
      </trkpt>
      <trkpt lat="48.21697" lon="3.34952">
        <ele>133</ele>
        <time>2012-04-15T09:52:48.000Z</time>
      </trkpt>
      <trkpt lat="48.21697" lon="3.34952">
        <ele>133</ele>
        <time>2012-04-15T09:52:48.000Z</time>
      </trkpt>
      <trkpt lat="48.21697" lon="3.34952">
        <ele>133</ele>
        <time>2012-04-15T09:52:49.000Z</time>
      </trkpt>
      <trkpt lat="48.21701" lon="3.34948">
        <ele>133</ele>
        <time>2012-04-15T09:52:53.000Z</time>
      </trkpt>
      <trkpt lat="48.21705" lon="3.34944">
        <ele>134</ele>
        <time>2012-04-15T09:52:57.000Z</time>
      </trkpt>
      <trkpt lat="48.2171" lon="3.34939">
        <ele>134</ele>
        <time>2012-04-15T09:53:01.000Z</time>
      </trkpt>
      <trkpt lat="48.21714" lon="3.34937">
        <ele>134</ele>
        <time>2012-04-15T09:53:04.000Z</time>
      </trkpt>
      <trkpt lat="48.21718" lon="3.34933">
        <ele>135</ele>
        <time>2012-04-15T09:53:08.000Z</time>
      </trkpt>
      <trkpt lat="48.21727" lon="3.34922">
        <ele>136</ele>
        <time>2012-04-15T09:53:16.000Z</time>
      </trkpt>
      <trkpt lat="48.21731" lon="3.34918">
        <ele>136</ele>
        <time>2012-04-15T09:53:20.000Z</time>
      </trkpt>
      <trkpt lat="48.21731" lon="3.34918">
        <ele>136</ele>
        <time>2012-04-15T09:53:20.000Z</time>
      </trkpt>
      <trkpt lat="48.21731" lon="3.34918">
        <ele>136</ele>
        <time>2012-04-15T09:53:21.000Z</time>
      </trkpt>
      <trkpt lat="48.21735" lon="3.34913">
        <ele>139</ele>
        <time>2012-04-15T09:53:26.000Z</time>
      </trkpt>
      <trkpt lat="48.2174" lon="3.34907">
        <ele>139</ele>
        <time>2012-04-15T09:53:29.000Z</time>
      </trkpt>
      <trkpt lat="48.21744" lon="3.34901">
        <ele>139</ele>
        <time>2012-04-15T09:53:32.000Z</time>
      </trkpt>
      <trkpt lat="48.21743" lon="3.34892">
        <ele>139</ele>
        <time>2012-04-15T09:53:36.000Z</time>
      </trkpt>
      <trkpt lat="48.21741" lon="3.34883">
        <ele>139</ele>
        <time>2012-04-15T09:53:41.000Z</time>
      </trkpt>
      <trkpt lat="48.21738" lon="3.34877">
        <ele>139</ele>
        <time>2012-04-15T09:53:45.000Z</time>
      </trkpt>
      <trkpt lat="48.21737" lon="3.34868">
        <ele>139</ele>
        <time>2012-04-15T09:53:49.000Z</time>
      </trkpt>
      <trkpt lat="48.21736" lon="3.3486">
        <ele>140</ele>
        <time>2012-04-15T09:53:53.000Z</time>
      </trkpt>
      <trkpt lat="48.21734" lon="3.34853">
        <ele>140</ele>
        <time>2012-04-15T09:53:57.000Z</time>
      </trkpt>
      <trkpt lat="48.21732" lon="3.34845">
        <ele>140</ele>
        <time>2012-04-15T09:54:01.000Z</time>
      </trkpt>
      <trkpt lat="48.2173" lon="3.34836">
        <ele>140</ele>
        <time>2012-04-15T09:54:04.000Z</time>
      </trkpt>
      <trkpt lat="48.21728" lon="3.3483">
        <ele>143</ele>
        <time>2012-04-15T09:54:06.000Z</time>
      </trkpt>
      <trkpt lat="48.21726" lon="3.34823">
        <ele>143</ele>
        <time>2012-04-15T09:54:08.000Z</time>
      </trkpt>
      <trkpt lat="48.21722" lon="3.34815">
        <ele>143</ele>
        <time>2012-04-15T09:54:11.000Z</time>
      </trkpt>
      <trkpt lat="48.21718" lon="3.34806">
        <ele>143</ele>
        <time>2012-04-15T09:54:14.000Z</time>
      </trkpt>
      <trkpt lat="48.21714" lon="3.34798">
        <ele>143</ele>
        <time>2012-04-15T09:54:17.000Z</time>
      </trkpt>
      <trkpt lat="48.21712" lon="3.34791">
        <ele>143</ele>
        <time>2012-04-15T09:54:19.000Z</time>
      </trkpt>
      <trkpt lat="48.21707" lon="3.34787">
        <ele>143</ele>
        <time>2012-04-15T09:54:21.000Z</time>
      </trkpt>
      <trkpt lat="48.21704" lon="3.3478">
        <ele>143</ele>
        <time>2012-04-15T09:54:23.000Z</time>
      </trkpt>
      <trkpt lat="48.21701" lon="3.34774">
        <ele>143</ele>
        <time>2012-04-15T09:54:25.000Z</time>
      </trkpt>
      <trkpt lat="48.21696" lon="3.34768">
        <ele>143</ele>
        <time>2012-04-15T09:54:28.000Z</time>
      </trkpt>
      <trkpt lat="48.21692" lon="3.34761">
        <ele>143</ele>
        <time>2012-04-15T09:54:30.000Z</time>
      </trkpt>
      <trkpt lat="48.21688" lon="3.34757">
        <ele>143</ele>
        <time>2012-04-15T09:54:32.000Z</time>
      </trkpt>
      <trkpt lat="48.21683" lon="3.3475">
        <ele>142</ele>
        <time>2012-04-15T09:54:35.000Z</time>
      </trkpt>
      <trkpt lat="48.21677" lon="3.34744">
        <ele>145</ele>
        <time>2012-04-15T09:54:38.000Z</time>
      </trkpt>
      <trkpt lat="48.21672" lon="3.3474">
        <ele>144</ele>
        <time>2012-04-15T09:54:41.000Z</time>
      </trkpt>
      <trkpt lat="48.21666" lon="3.34733">
        <ele>142</ele>
        <time>2012-04-15T09:54:44.000Z</time>
      </trkpt>
      <trkpt lat="48.21661" lon="3.34727">
        <ele>142</ele>
        <time>2012-04-15T09:54:47.000Z</time>
      </trkpt>
      <trkpt lat="48.21657" lon="3.34722">
        <ele>142</ele>
        <time>2012-04-15T09:54:49.000Z</time>
      </trkpt>
      <trkpt lat="48.21653" lon="3.34718">
        <ele>143</ele>
        <time>2012-04-15T09:54:51.000Z</time>
      </trkpt>
      <trkpt lat="48.21649" lon="3.34712">
        <ele>143</ele>
        <time>2012-04-15T09:54:53.000Z</time>
      </trkpt>
      <trkpt lat="48.21645" lon="3.34707">
        <ele>143</ele>
        <time>2012-04-15T09:54:55.000Z</time>
      </trkpt>
      <trkpt lat="48.21641" lon="3.34703">
        <ele>143</ele>
        <time>2012-04-15T09:54:57.000Z</time>
      </trkpt>
      <trkpt lat="48.21636" lon="3.34699">
        <ele>143</ele>
        <time>2012-04-15T09:54:59.000Z</time>
      </trkpt>
      <trkpt lat="48.21631" lon="3.34692">
        <ele>143</ele>
        <time>2012-04-15T09:55:02.000Z</time>
      </trkpt>
      <trkpt lat="48.21627" lon="3.34688">
        <ele>143</ele>
        <time>2012-04-15T09:55:04.000Z</time>
      </trkpt>
      <trkpt lat="48.21623" lon="3.34684">
        <ele>143</ele>
        <time>2012-04-15T09:55:06.000Z</time>
      </trkpt>
      <trkpt lat="48.21618" lon="3.3468">
        <ele>143</ele>
        <time>2012-04-15T09:55:08.000Z</time>
      </trkpt>
      <trkpt lat="48.21614" lon="3.34675">
        <ele>143</ele>
        <time>2012-04-15T09:55:10.000Z</time>
      </trkpt>
      <trkpt lat="48.2161" lon="3.34671">
        <ele>143</ele>
        <time>2012-04-15T09:55:12.000Z</time>
      </trkpt>
      <trkpt lat="48.21605" lon="3.34667">
        <ele>143</ele>
        <time>2012-04-15T09:55:14.000Z</time>
      </trkpt>
      <trkpt lat="48.21601" lon="3.34662">
        <ele>146</ele>
        <time>2012-04-15T09:55:16.000Z</time>
      </trkpt>
      <trkpt lat="48.21597" lon="3.34656">
        <ele>146</ele>
        <time>2012-04-15T09:55:18.000Z</time>
      </trkpt>
      <trkpt lat="48.21592" lon="3.34652">
        <ele>146</ele>
        <time>2012-04-15T09:55:20.000Z</time>
      </trkpt>
      <trkpt lat="48.21587" lon="3.34645">
        <ele>146</ele>
        <time>2012-04-15T09:55:22.000Z</time>
      </trkpt>
      <trkpt lat="48.21583" lon="3.34641">
        <ele>142</ele>
        <time>2012-04-15T09:55:24.000Z</time>
      </trkpt>
      <trkpt lat="48.21578" lon="3.34634">
        <ele>142</ele>
        <time>2012-04-15T09:55:26.000Z</time>
      </trkpt>
      <trkpt lat="48.21573" lon="3.3463">
        <ele>142</ele>
        <time>2012-04-15T09:55:28.000Z</time>
      </trkpt>
      <trkpt lat="48.21569" lon="3.34624">
        <ele>142</ele>
        <time>2012-04-15T09:55:30.000Z</time>
      </trkpt>
      <trkpt lat="48.21565" lon="3.34617">
        <ele>142</ele>
        <time>2012-04-15T09:55:32.000Z</time>
      </trkpt>
      <trkpt lat="48.21561" lon="3.34609">
        <ele>143</ele>
        <time>2012-04-15T09:55:34.000Z</time>
      </trkpt>
      <trkpt lat="48.21557" lon="3.34602">
        <ele>143</ele>
        <time>2012-04-15T09:55:36.000Z</time>
      </trkpt>
      <trkpt lat="48.21555" lon="3.34596">
        <ele>143</ele>
        <time>2012-04-15T09:55:38.000Z</time>
      </trkpt>
      <trkpt lat="48.21553" lon="3.34589">
        <ele>143</ele>
        <time>2012-04-15T09:55:40.000Z</time>
      </trkpt>
      <trkpt lat="48.21551" lon="3.34581">
        <ele>146</ele>
        <time>2012-04-15T09:55:43.000Z</time>
      </trkpt>
      <trkpt lat="48.21553" lon="3.34572">
        <ele>146</ele>
        <time>2012-04-15T09:55:46.000Z</time>
      </trkpt>
      <trkpt lat="48.21557" lon="3.34568">
        <ele>147</ele>
        <time>2012-04-15T09:55:49.000Z</time>
      </trkpt>
      <trkpt lat="48.21562" lon="3.34568">
        <ele>147</ele>
        <time>2012-04-15T09:55:52.000Z</time>
      </trkpt>
      <trkpt lat="48.21569" lon="3.34568">
        <ele>147</ele>
        <time>2012-04-15T09:55:55.000Z</time>
      </trkpt>
      <trkpt lat="48.21574" lon="3.3457">
        <ele>148</ele>
        <time>2012-04-15T09:55:58.000Z</time>
      </trkpt>
      <trkpt lat="48.2158" lon="3.3457">
        <ele>148</ele>
        <time>2012-04-15T09:56:00.000Z</time>
      </trkpt>
      <trkpt lat="48.21586" lon="3.3457">
        <ele>152</ele>
        <time>2012-04-15T09:56:03.000Z</time>
      </trkpt>
      <trkpt lat="48.21591" lon="3.3457">
        <ele>153</ele>
        <time>2012-04-15T09:56:06.000Z</time>
      </trkpt>
      <trkpt lat="48.21596" lon="3.34568">
        <ele>153</ele>
        <time>2012-04-15T09:56:10.000Z</time>
      </trkpt>
      <trkpt lat="48.21602" lon="3.34568">
        <ele>154</ele>
        <time>2012-04-15T09:56:14.000Z</time>
      </trkpt>
      <trkpt lat="48.21606" lon="3.34566">
        <ele>154</ele>
        <time>2012-04-15T09:56:17.000Z</time>
      </trkpt>
      <trkpt lat="48.21611" lon="3.34564">
        <ele>155</ele>
        <time>2012-04-15T09:56:21.000Z</time>
      </trkpt>
      <trkpt lat="48.21615" lon="3.34562">
        <ele>155</ele>
        <time>2012-04-15T09:56:24.000Z</time>
      </trkpt>
      <trkpt lat="48.21619" lon="3.34559">
        <ele>156</ele>
        <time>2012-04-15T09:56:27.000Z</time>
      </trkpt>
      <trkpt lat="48.21624" lon="3.34557">
        <ele>156</ele>
        <time>2012-04-15T09:56:30.000Z</time>
      </trkpt>
      <trkpt lat="48.21629" lon="3.34553">
        <ele>157</ele>
        <time>2012-04-15T09:56:33.000Z</time>
      </trkpt>
      <trkpt lat="48.21633" lon="3.34549">
        <ele>157</ele>
        <time>2012-04-15T09:56:35.000Z</time>
      </trkpt>
      <trkpt lat="48.21638" lon="3.34544">
        <ele>157</ele>
        <time>2012-04-15T09:56:37.000Z</time>
      </trkpt>
      <trkpt lat="48.21643" lon="3.34538">
        <ele>158</ele>
        <time>2012-04-15T09:56:40.000Z</time>
      </trkpt>
      <trkpt lat="48.21648" lon="3.34532">
        <ele>159</ele>
        <time>2012-04-15T09:56:43.000Z</time>
      </trkpt>
      <trkpt lat="48.21653" lon="3.34527">
        <ele>159</ele>
        <time>2012-04-15T09:56:45.000Z</time>
      </trkpt>
      <trkpt lat="48.21658" lon="3.34521">
        <ele>160</ele>
        <time>2012-04-15T09:56:47.000Z</time>
      </trkpt>
      <trkpt lat="48.21662" lon="3.34514">
        <ele>161</ele>
        <time>2012-04-15T09:56:51.000Z</time>
      </trkpt>
      <trkpt lat="48.21666" lon="3.34508">
        <ele>163</ele>
        <time>2012-04-15T09:56:55.000Z</time>
      </trkpt>
      <trkpt lat="48.21671" lon="3.34502">
        <ele>165</ele>
        <time>2012-04-15T09:57:00.000Z</time>
      </trkpt>
      <trkpt lat="48.21675" lon="3.34497">
        <ele>167</ele>
        <time>2012-04-15T09:57:04.000Z</time>
      </trkpt>
      <trkpt lat="48.21678" lon="3.34491">
        <ele>167</ele>
        <time>2012-04-15T09:57:07.000Z</time>
      </trkpt>
      <trkpt lat="48.21683" lon="3.34484">
        <ele>168</ele>
        <time>2012-04-15T09:57:10.000Z</time>
      </trkpt>
      <trkpt lat="48.21685" lon="3.34478">
        <ele>169</ele>
        <time>2012-04-15T09:57:13.000Z</time>
      </trkpt>
      <trkpt lat="48.21682" lon="3.34489">
        <ele>168</ele>
        <time>2012-04-15T09:57:23.000Z</time>
      </trkpt>
      <trkpt lat="48.21677" lon="3.34493">
        <ele>167</ele>
        <time>2012-04-15T09:57:24.000Z</time>
      </trkpt>
      <trkpt lat="48.21671" lon="3.34502">
        <ele>165</ele>
        <time>2012-04-15T09:57:26.000Z</time>
      </trkpt>
      <trkpt lat="48.21664" lon="3.3451">
        <ele>162</ele>
        <time>2012-04-15T09:57:28.000Z</time>
      </trkpt>
      <trkpt lat="48.2166" lon="3.34514">
        <ele>161</ele>
        <time>2012-04-15T09:57:30.000Z</time>
      </trkpt>
      <trkpt lat="48.21656" lon="3.34521">
        <ele>160</ele>
        <time>2012-04-15T09:57:34.000Z</time>
      </trkpt>
      <trkpt lat="48.21652" lon="3.34527">
        <ele>159</ele>
        <time>2012-04-15T09:57:39.000Z</time>
      </trkpt>
      <trkpt lat="48.21647" lon="3.34532">
        <ele>158</ele>
        <time>2012-04-15T09:57:42.000Z</time>
      </trkpt>
      <trkpt lat="48.21644" lon="3.34538">
        <ele>158</ele>
        <time>2012-04-15T09:57:45.000Z</time>
      </trkpt>
      <trkpt lat="48.2164" lon="3.34544">
        <ele>157</ele>
        <time>2012-04-15T09:57:48.000Z</time>
      </trkpt>
      <trkpt lat="48.21635" lon="3.34549">
        <ele>157</ele>
        <time>2012-04-15T09:57:53.000Z</time>
      </trkpt>
      <trkpt lat="48.21638" lon="3.3454">
        <ele>158</ele>
        <time>2012-04-15T09:57:58.000Z</time>
      </trkpt>
      <trkpt lat="48.21643" lon="3.34534">
        <ele>158</ele>
        <time>2012-04-15T09:58:00.000Z</time>
      </trkpt>
      <trkpt lat="48.21648" lon="3.34525">
        <ele>159</ele>
        <time>2012-04-15T09:58:02.000Z</time>
      </trkpt>
      <trkpt lat="48.21655" lon="3.34519">
        <ele>160</ele>
        <time>2012-04-15T09:58:04.000Z</time>
      </trkpt>
      <trkpt lat="48.21659" lon="3.34514">
        <ele>161</ele>
        <time>2012-04-15T09:58:06.000Z</time>
      </trkpt>
      <trkpt lat="48.21664" lon="3.34508">
        <ele>163</ele>
        <time>2012-04-15T09:58:09.000Z</time>
      </trkpt>
      <trkpt lat="48.21669" lon="3.34504">
        <ele>165</ele>
        <time>2012-04-15T09:58:11.000Z</time>
      </trkpt>
      <trkpt lat="48.21674" lon="3.34497">
        <ele>167</ele>
        <time>2012-04-15T09:58:14.000Z</time>
      </trkpt>
      <trkpt lat="48.21679" lon="3.34491">
        <ele>168</ele>
        <time>2012-04-15T09:58:17.000Z</time>
      </trkpt>
      <trkpt lat="48.21684" lon="3.34484">
        <ele>168</ele>
        <time>2012-04-15T09:58:20.000Z</time>
      </trkpt>
      <trkpt lat="48.21689" lon="3.34478">
        <ele>169</ele>
        <time>2012-04-15T09:58:23.000Z</time>
      </trkpt>
      <trkpt lat="48.21693" lon="3.34471">
        <ele>170</ele>
        <time>2012-04-15T09:58:26.000Z</time>
      </trkpt>
      <trkpt lat="48.21698" lon="3.34467">
        <ele>170</ele>
        <time>2012-04-15T09:58:28.000Z</time>
      </trkpt>
      <trkpt lat="48.21703" lon="3.34463">
        <ele>170</ele>
        <time>2012-04-15T09:58:31.000Z</time>
      </trkpt>
      <trkpt lat="48.21707" lon="3.34458">
        <ele>170</ele>
        <time>2012-04-15T09:58:33.000Z</time>
      </trkpt>
      <trkpt lat="48.21713" lon="3.34452">
        <ele>171</ele>
        <time>2012-04-15T09:58:36.000Z</time>
      </trkpt>
      <trkpt lat="48.21717" lon="3.3445">
        <ele>171</ele>
        <time>2012-04-15T09:58:38.000Z</time>
      </trkpt>
      <trkpt lat="48.21722" lon="3.34446">
        <ele>171</ele>
        <time>2012-04-15T09:58:41.000Z</time>
      </trkpt>
      <trkpt lat="48.21727" lon="3.34444">
        <ele>171</ele>
        <time>2012-04-15T09:58:43.000Z</time>
      </trkpt>
      <trkpt lat="48.21731" lon="3.34441">
        <ele>172</ele>
        <time>2012-04-15T09:58:45.000Z</time>
      </trkpt>
      <trkpt lat="48.21735" lon="3.34439">
        <ele>172</ele>
        <time>2012-04-15T09:58:47.000Z</time>
      </trkpt>
      <trkpt lat="48.21741" lon="3.34435">
        <ele>172</ele>
        <time>2012-04-15T09:58:50.000Z</time>
      </trkpt>
      <trkpt lat="48.21746" lon="3.34433">
        <ele>172</ele>
        <time>2012-04-15T09:58:53.000Z</time>
      </trkpt>
      <trkpt lat="48.21752" lon="3.34433">
        <ele>174</ele>
        <time>2012-04-15T09:58:57.000Z</time>
      </trkpt>
      <trkpt lat="48.21758" lon="3.34433">
        <ele>174</ele>
        <time>2012-04-15T09:59:01.000Z</time>
      </trkpt>
      <trkpt lat="48.21762" lon="3.34428">
        <ele>174</ele>
        <time>2012-04-15T09:59:05.000Z</time>
      </trkpt>
      <trkpt lat="48.21766" lon="3.34426">
        <ele>174</ele>
        <time>2012-04-15T09:59:09.000Z</time>
      </trkpt>
      <trkpt lat="48.21771" lon="3.3442">
        <ele>174</ele>
        <time>2012-04-15T09:59:13.000Z</time>
      </trkpt>
      <trkpt lat="48.21775" lon="3.34418">
        <ele>174</ele>
        <time>2012-04-15T09:59:17.000Z</time>
      </trkpt>
      <trkpt lat="48.21779" lon="3.34414">
        <ele>175</ele>
        <time>2012-04-15T09:59:20.000Z</time>
      </trkpt>
      <trkpt lat="48.21785" lon="3.34411">
        <ele>175</ele>
        <time>2012-04-15T09:59:24.000Z</time>
      </trkpt>
      <trkpt lat="48.2179" lon="3.34409">
        <ele>176</ele>
        <time>2012-04-15T09:59:28.000Z</time>
      </trkpt>
      <trkpt lat="48.21795" lon="3.34409">
        <ele>176</ele>
        <time>2012-04-15T09:59:32.000Z</time>
      </trkpt>
      <trkpt lat="48.21801" lon="3.34407">
        <ele>176</ele>
        <time>2012-04-15T09:59:36.000Z</time>
      </trkpt>
      <trkpt lat="48.21806" lon="3.34407">
        <ele>176</ele>
        <time>2012-04-15T09:59:40.000Z</time>
      </trkpt>
      <trkpt lat="48.21812" lon="3.34407">
        <ele>176</ele>
        <time>2012-04-15T09:59:44.000Z</time>
      </trkpt>
      <trkpt lat="48.21818" lon="3.34407">
        <ele>176</ele>
        <time>2012-04-15T09:59:48.000Z</time>
      </trkpt>
      <trkpt lat="48.21823" lon="3.34407">
        <ele>176</ele>
        <time>2012-04-15T09:59:51.000Z</time>
      </trkpt>
      <trkpt lat="48.21828" lon="3.34409">
        <ele>177</ele>
        <time>2012-04-15T09:59:54.000Z</time>
      </trkpt>
      <trkpt lat="48.21834" lon="3.34409">
        <ele>177</ele>
        <time>2012-04-15T09:59:58.000Z</time>
      </trkpt>
      <trkpt lat="48.21838" lon="3.34411">
        <ele>177</ele>
        <time>2012-04-15T10:00:01.000Z</time>
      </trkpt>
      <trkpt lat="48.21842" lon="3.34416">
        <ele>177</ele>
        <time>2012-04-15T10:00:05.000Z</time>
      </trkpt>
      <trkpt lat="48.21847" lon="3.34418">
        <ele>177</ele>
        <time>2012-04-15T10:00:08.000Z</time>
      </trkpt>
      <trkpt lat="48.21851" lon="3.3442">
        <ele>178</ele>
        <time>2012-04-15T10:00:12.000Z</time>
      </trkpt>
      <trkpt lat="48.21856" lon="3.34424">
        <ele>178</ele>
        <time>2012-04-15T10:00:16.000Z</time>
      </trkpt>
      <trkpt lat="48.21862" lon="3.34428">
        <ele>178</ele>
        <time>2012-04-15T10:00:20.000Z</time>
      </trkpt>
      <trkpt lat="48.21867" lon="3.34431">
        <ele>178</ele>
        <time>2012-04-15T10:00:23.000Z</time>
      </trkpt>
      <trkpt lat="48.21872" lon="3.34433">
        <ele>178</ele>
        <time>2012-04-15T10:00:26.000Z</time>
      </trkpt>
      <trkpt lat="48.21877" lon="3.34437">
        <ele>178</ele>
        <time>2012-04-15T10:00:29.000Z</time>
      </trkpt>
      <trkpt lat="48.21881" lon="3.34439">
        <ele>178</ele>
        <time>2012-04-15T10:00:33.000Z</time>
      </trkpt>
      <trkpt lat="48.21886" lon="3.34444">
        <ele>178</ele>
        <time>2012-04-15T10:00:37.000Z</time>
      </trkpt>
      <trkpt lat="48.21891" lon="3.34448">
        <ele>178</ele>
        <time>2012-04-15T10:00:40.000Z</time>
      </trkpt>
      <trkpt lat="48.21896" lon="3.34452">
        <ele>179</ele>
        <time>2012-04-15T10:00:43.000Z</time>
      </trkpt>
      <trkpt lat="48.21902" lon="3.34456">
        <ele>179</ele>
        <time>2012-04-15T10:00:46.000Z</time>
      </trkpt>
      <trkpt lat="48.21907" lon="3.34461">
        <ele>179</ele>
        <time>2012-04-15T10:00:49.000Z</time>
      </trkpt>
      <trkpt lat="48.21912" lon="3.34463">
        <ele>179</ele>
        <time>2012-04-15T10:00:52.000Z</time>
      </trkpt>
      <trkpt lat="48.21918" lon="3.34465">
        <ele>180</ele>
        <time>2012-04-15T10:00:55.000Z</time>
      </trkpt>
      <trkpt lat="48.21923" lon="3.34469">
        <ele>180</ele>
        <time>2012-04-15T10:00:58.000Z</time>
      </trkpt>
      <trkpt lat="48.21927" lon="3.34474">
        <ele>180</ele>
        <time>2012-04-15T10:01:01.000Z</time>
      </trkpt>
      <trkpt lat="48.21932" lon="3.34478">
        <ele>180</ele>
        <time>2012-04-15T10:01:04.000Z</time>
      </trkpt>
      <trkpt lat="48.21936" lon="3.34482">
        <ele>180</ele>
        <time>2012-04-15T10:01:07.000Z</time>
      </trkpt>
      <trkpt lat="48.21941" lon="3.34489">
        <ele>181</ele>
        <time>2012-04-15T10:01:10.000Z</time>
      </trkpt>
      <trkpt lat="48.21946" lon="3.34493">
        <ele>181</ele>
        <time>2012-04-15T10:01:13.000Z</time>
      </trkpt>
      <trkpt lat="48.21951" lon="3.34497">
        <ele>181</ele>
        <time>2012-04-15T10:01:16.000Z</time>
      </trkpt>
      <trkpt lat="48.21955" lon="3.34504">
        <ele>182</ele>
        <time>2012-04-15T10:01:19.000Z</time>
      </trkpt>
      <trkpt lat="48.21959" lon="3.34506">
        <ele>182</ele>
        <time>2012-04-15T10:01:21.000Z</time>
      </trkpt>
      <trkpt lat="48.21965" lon="3.34512">
        <ele>182</ele>
        <time>2012-04-15T10:01:24.000Z</time>
      </trkpt>
      <trkpt lat="48.2197" lon="3.34516">
        <ele>182</ele>
        <time>2012-04-15T10:01:27.000Z</time>
      </trkpt>
      <trkpt lat="48.21974" lon="3.34521">
        <ele>182</ele>
        <time>2012-04-15T10:01:30.000Z</time>
      </trkpt>
      <trkpt lat="48.21979" lon="3.34525">
        <ele>182</ele>
        <time>2012-04-15T10:01:33.000Z</time>
      </trkpt>
      <trkpt lat="48.21983" lon="3.34527">
        <ele>182</ele>
        <time>2012-04-15T10:01:35.000Z</time>
      </trkpt>
      <trkpt lat="48.21988" lon="3.34532">
        <ele>182</ele>
        <time>2012-04-15T10:01:38.000Z</time>
      </trkpt>
      <trkpt lat="48.21993" lon="3.34536">
        <ele>182</ele>
        <time>2012-04-15T10:01:40.000Z</time>
      </trkpt>
      <trkpt lat="48.21998" lon="3.3454">
        <ele>182</ele>
        <time>2012-04-15T10:01:43.000Z</time>
      </trkpt>
      <trkpt lat="48.22002" lon="3.34544">
        <ele>184</ele>
        <time>2012-04-15T10:01:46.000Z</time>
      </trkpt>
      <trkpt lat="48.22008" lon="3.34551">
        <ele>184</ele>
        <time>2012-04-15T10:01:49.000Z</time>
      </trkpt>
      <trkpt lat="48.22013" lon="3.34557">
        <ele>184</ele>
        <time>2012-04-15T10:01:52.000Z</time>
      </trkpt>
      <trkpt lat="48.22017" lon="3.34562">
        <ele>184</ele>
        <time>2012-04-15T10:01:54.000Z</time>
      </trkpt>
      <trkpt lat="48.22022" lon="3.34566">
        <ele>184</ele>
        <time>2012-04-15T10:01:56.000Z</time>
      </trkpt>
      <trkpt lat="48.22027" lon="3.3457">
        <ele>185</ele>
        <time>2012-04-15T10:01:59.000Z</time>
      </trkpt>
      <trkpt lat="48.22032" lon="3.34577">
        <ele>185</ele>
        <time>2012-04-15T10:02:02.000Z</time>
      </trkpt>
      <trkpt lat="48.22038" lon="3.34581">
        <ele>185</ele>
        <time>2012-04-15T10:02:05.000Z</time>
      </trkpt>
      <trkpt lat="48.22042" lon="3.34585">
        <ele>187</ele>
        <time>2012-04-15T10:02:07.000Z</time>
      </trkpt>
      <trkpt lat="48.22046" lon="3.34587">
        <ele>187</ele>
        <time>2012-04-15T10:02:09.000Z</time>
      </trkpt>
      <trkpt lat="48.22052" lon="3.34589">
        <ele>187</ele>
        <time>2012-04-15T10:02:12.000Z</time>
      </trkpt>
      <trkpt lat="48.22057" lon="3.34594">
        <ele>187</ele>
        <time>2012-04-15T10:02:15.000Z</time>
      </trkpt>
      <trkpt lat="48.22062" lon="3.34596">
        <ele>188</ele>
        <time>2012-04-15T10:02:18.000Z</time>
      </trkpt>
      <trkpt lat="48.22068" lon="3.34598">
        <ele>188</ele>
        <time>2012-04-15T10:02:21.000Z</time>
      </trkpt>
      <trkpt lat="48.22073" lon="3.34602">
        <ele>188</ele>
        <time>2012-04-15T10:02:24.000Z</time>
      </trkpt>
      <trkpt lat="48.2208" lon="3.34604">
        <ele>188</ele>
        <time>2012-04-15T10:02:27.000Z</time>
      </trkpt>
      <trkpt lat="48.22086" lon="3.34604">
        <ele>190</ele>
        <time>2012-04-15T10:02:30.000Z</time>
      </trkpt>
      <trkpt lat="48.22091" lon="3.34607">
        <ele>191</ele>
        <time>2012-04-15T10:02:32.000Z</time>
      </trkpt>
      <trkpt lat="48.22096" lon="3.34609">
        <ele>191</ele>
        <time>2012-04-15T10:02:34.000Z</time>
      </trkpt>
      <trkpt lat="48.22101" lon="3.34611">
        <ele>191</ele>
        <time>2012-04-15T10:02:36.000Z</time>
      </trkpt>
      <trkpt lat="48.22106" lon="3.34613">
        <ele>192</ele>
        <time>2012-04-15T10:02:38.000Z</time>
      </trkpt>
      <trkpt lat="48.22113" lon="3.34615">
        <ele>192</ele>
        <time>2012-04-15T10:02:40.000Z</time>
      </trkpt>
      <trkpt lat="48.22118" lon="3.3462">
        <ele>192</ele>
        <time>2012-04-15T10:02:42.000Z</time>
      </trkpt>
      <trkpt lat="48.22124" lon="3.34622">
        <ele>192</ele>
        <time>2012-04-15T10:02:44.000Z</time>
      </trkpt>
      <trkpt lat="48.22128" lon="3.34626">
        <ele>193</ele>
        <time>2012-04-15T10:02:46.000Z</time>
      </trkpt>
      <trkpt lat="48.22132" lon="3.34628">
        <ele>193</ele>
        <time>2012-04-15T10:02:48.000Z</time>
      </trkpt>
      <trkpt lat="48.22138" lon="3.3463">
        <ele>193</ele>
        <time>2012-04-15T10:02:51.000Z</time>
      </trkpt>
      <trkpt lat="48.22143" lon="3.3463">
        <ele>193</ele>
        <time>2012-04-15T10:02:54.000Z</time>
      </trkpt>
      <trkpt lat="48.22147" lon="3.34632">
        <ele>193</ele>
        <time>2012-04-15T10:02:56.000Z</time>
      </trkpt>
      <trkpt lat="48.22153" lon="3.34634">
        <ele>193</ele>
        <time>2012-04-15T10:02:59.000Z</time>
      </trkpt>
      <trkpt lat="48.22159" lon="3.34637">
        <ele>194</ele>
        <time>2012-04-15T10:03:02.000Z</time>
      </trkpt>
      <trkpt lat="48.22163" lon="3.34639">
        <ele>194</ele>
        <time>2012-04-15T10:03:05.000Z</time>
      </trkpt>
      <trkpt lat="48.22169" lon="3.34641">
        <ele>196</ele>
        <time>2012-04-15T10:03:09.000Z</time>
      </trkpt>
      <trkpt lat="48.22174" lon="3.34641">
        <ele>196</ele>
        <time>2012-04-15T10:03:12.000Z</time>
      </trkpt>
      <trkpt lat="48.22179" lon="3.34643">
        <ele>196</ele>
        <time>2012-04-15T10:03:15.000Z</time>
      </trkpt>
      <trkpt lat="48.22185" lon="3.34645">
        <ele>196</ele>
        <time>2012-04-15T10:03:18.000Z</time>
      </trkpt>
      <trkpt lat="48.22189" lon="3.34647">
        <ele>196</ele>
        <time>2012-04-15T10:03:20.000Z</time>
      </trkpt>
      <trkpt lat="48.22194" lon="3.34647">
        <ele>196</ele>
        <time>2012-04-15T10:03:22.000Z</time>
      </trkpt>
      <trkpt lat="48.222" lon="3.3465">
        <ele>196</ele>
        <time>2012-04-15T10:03:24.000Z</time>
      </trkpt>
      <trkpt lat="48.22205" lon="3.34652">
        <ele>196</ele>
        <time>2012-04-15T10:03:26.000Z</time>
      </trkpt>
      <trkpt lat="48.22209" lon="3.34654">
        <ele>196</ele>
        <time>2012-04-15T10:03:28.000Z</time>
      </trkpt>
      <trkpt lat="48.22215" lon="3.34658">
        <ele>196</ele>
        <time>2012-04-15T10:03:30.000Z</time>
      </trkpt>
      <trkpt lat="48.2222" lon="3.34662">
        <ele>197</ele>
        <time>2012-04-15T10:03:32.000Z</time>
      </trkpt>
      <trkpt lat="48.22226" lon="3.34664">
        <ele>197</ele>
        <time>2012-04-15T10:03:34.000Z</time>
      </trkpt>
      <trkpt lat="48.22231" lon="3.34673">
        <ele>198</ele>
        <time>2012-04-15T10:03:37.000Z</time>
      </trkpt>
      <trkpt lat="48.22236" lon="3.3468">
        <ele>198</ele>
        <time>2012-04-15T10:03:40.000Z</time>
      </trkpt>
      <trkpt lat="48.2224" lon="3.34688">
        <ele>198</ele>
        <time>2012-04-15T10:03:43.000Z</time>
      </trkpt>
      <trkpt lat="48.22245" lon="3.34695">
        <ele>198</ele>
        <time>2012-04-15T10:03:46.000Z</time>
      </trkpt>
      <trkpt lat="48.22248" lon="3.34701">
        <ele>198</ele>
        <time>2012-04-15T10:03:49.000Z</time>
      </trkpt>
      <trkpt lat="48.22251" lon="3.34707">
        <ele>201</ele>
        <time>2012-04-15T10:03:52.000Z</time>
      </trkpt>
      <trkpt lat="48.22254" lon="3.34714">
        <ele>201</ele>
        <time>2012-04-15T10:03:54.000Z</time>
      </trkpt>
      <trkpt lat="48.22258" lon="3.3472">
        <ele>201</ele>
        <time>2012-04-15T10:03:56.000Z</time>
      </trkpt>
      <trkpt lat="48.22261" lon="3.34727">
        <ele>201</ele>
        <time>2012-04-15T10:03:58.000Z</time>
      </trkpt>
      <trkpt lat="48.22264" lon="3.34733">
        <ele>201</ele>
        <time>2012-04-15T10:04:00.000Z</time>
      </trkpt>
      <trkpt lat="48.22267" lon="3.3474">
        <ele>201</ele>
        <time>2012-04-15T10:04:03.000Z</time>
      </trkpt>
      <trkpt lat="48.22271" lon="3.34746">
        <ele>202</ele>
        <time>2012-04-15T10:04:05.000Z</time>
      </trkpt>
      <trkpt lat="48.22275" lon="3.34752">
        <ele>202</ele>
        <time>2012-04-15T10:04:07.000Z</time>
      </trkpt>
      <trkpt lat="48.22278" lon="3.34759">
        <ele>202</ele>
        <time>2012-04-15T10:04:09.000Z</time>
      </trkpt>
      <trkpt lat="48.22282" lon="3.34763">
        <ele>202</ele>
        <time>2012-04-15T10:04:11.000Z</time>
      </trkpt>
      <trkpt lat="48.22288" lon="3.3477">
        <ele>202</ele>
        <time>2012-04-15T10:04:14.000Z</time>
      </trkpt>
      <trkpt lat="48.22292" lon="3.34776">
        <ele>202</ele>
        <time>2012-04-15T10:04:17.000Z</time>
      </trkpt>
      <trkpt lat="48.22296" lon="3.3478">
        <ele>202</ele>
        <time>2012-04-15T10:04:19.000Z</time>
      </trkpt>
      <trkpt lat="48.22302" lon="3.34785">
        <ele>203</ele>
        <time>2012-04-15T10:04:22.000Z</time>
      </trkpt>
      <trkpt lat="48.22307" lon="3.34791">
        <ele>203</ele>
        <time>2012-04-15T10:04:25.000Z</time>
      </trkpt>
      <trkpt lat="48.22311" lon="3.34793">
        <ele>203</ele>
        <time>2012-04-15T10:04:27.000Z</time>
      </trkpt>
      <trkpt lat="48.22317" lon="3.34798">
        <ele>203</ele>
        <time>2012-04-15T10:04:30.000Z</time>
      </trkpt>
      <trkpt lat="48.22321" lon="3.34802">
        <ele>203</ele>
        <time>2012-04-15T10:04:32.000Z</time>
      </trkpt>
      <trkpt lat="48.22326" lon="3.34806">
        <ele>203</ele>
        <time>2012-04-15T10:04:35.000Z</time>
      </trkpt>
      <trkpt lat="48.22332" lon="3.34813">
        <ele>203</ele>
        <time>2012-04-15T10:04:38.000Z</time>
      </trkpt>
      <trkpt lat="48.22336" lon="3.34819">
        <ele>204</ele>
        <time>2012-04-15T10:04:41.000Z</time>
      </trkpt>
      <trkpt lat="48.22341" lon="3.34826">
        <ele>204</ele>
        <time>2012-04-15T10:04:44.000Z</time>
      </trkpt>
      <trkpt lat="48.22345" lon="3.34832">
        <ele>204</ele>
        <time>2012-04-15T10:04:46.000Z</time>
      </trkpt>
      <trkpt lat="48.22348" lon="3.34838">
        <ele>202</ele>
        <time>2012-04-15T10:04:48.000Z</time>
      </trkpt>
      <trkpt lat="48.22352" lon="3.34845">
        <ele>202</ele>
        <time>2012-04-15T10:04:50.000Z</time>
      </trkpt>
      <trkpt lat="48.22355" lon="3.34851">
        <ele>202</ele>
        <time>2012-04-15T10:04:52.000Z</time>
      </trkpt>
      <trkpt lat="48.2236" lon="3.34858">
        <ele>202</ele>
        <time>2012-04-15T10:04:54.000Z</time>
      </trkpt>
      <trkpt lat="48.22364" lon="3.34864">
        <ele>202</ele>
        <time>2012-04-15T10:04:56.000Z</time>
      </trkpt>
      <trkpt lat="48.22368" lon="3.34873">
        <ele>202</ele>
        <time>2012-04-15T10:04:58.000Z</time>
      </trkpt>
      <trkpt lat="48.22372" lon="3.34881">
        <ele>202</ele>
        <time>2012-04-15T10:05:00.000Z</time>
      </trkpt>
      <trkpt lat="48.22376" lon="3.34888">
        <ele>201</ele>
        <time>2012-04-15T10:05:02.000Z</time>
      </trkpt>
      <trkpt lat="48.2238" lon="3.34894">
        <ele>201</ele>
        <time>2012-04-15T10:05:04.000Z</time>
      </trkpt>
      <trkpt lat="48.22384" lon="3.34901">
        <ele>201</ele>
        <time>2012-04-15T10:05:06.000Z</time>
      </trkpt>
      <trkpt lat="48.22388" lon="3.34909">
        <ele>201</ele>
        <time>2012-04-15T10:05:08.000Z</time>
      </trkpt>
      <trkpt lat="48.22392" lon="3.34916">
        <ele>201</ele>
        <time>2012-04-15T10:05:10.000Z</time>
      </trkpt>
      <trkpt lat="48.22395" lon="3.34922">
        <ele>200</ele>
        <time>2012-04-15T10:05:12.000Z</time>
      </trkpt>
      <trkpt lat="48.22398" lon="3.34928">
        <ele>200</ele>
        <time>2012-04-15T10:05:14.000Z</time>
      </trkpt>
      <trkpt lat="48.22402" lon="3.34935">
        <ele>200</ele>
        <time>2012-04-15T10:05:16.000Z</time>
      </trkpt>
      <trkpt lat="48.22405" lon="3.34941">
        <ele>200</ele>
        <time>2012-04-15T10:05:18.000Z</time>
      </trkpt>
      <trkpt lat="48.22408" lon="3.34948">
        <ele>200</ele>
        <time>2012-04-15T10:05:20.000Z</time>
      </trkpt>
      <trkpt lat="48.22412" lon="3.34956">
        <ele>199</ele>
        <time>2012-04-15T10:05:23.000Z</time>
      </trkpt>
      <trkpt lat="48.22414" lon="3.34963">
        <ele>199</ele>
        <time>2012-04-15T10:05:25.000Z</time>
      </trkpt>
      <trkpt lat="48.22419" lon="3.34971">
        <ele>203</ele>
        <time>2012-04-15T10:05:28.000Z</time>
      </trkpt>
      <trkpt lat="48.22422" lon="3.34978">
        <ele>203</ele>
        <time>2012-04-15T10:05:30.000Z</time>
      </trkpt>
      <trkpt lat="48.22425" lon="3.34986">
        <ele>202</ele>
        <time>2012-04-15T10:05:33.000Z</time>
      </trkpt>
      <trkpt lat="48.22428" lon="3.34993">
        <ele>202</ele>
        <time>2012-04-15T10:05:35.000Z</time>
      </trkpt>
      <trkpt lat="48.2243" lon="3.34999">
        <ele>202</ele>
        <time>2012-04-15T10:05:37.000Z</time>
      </trkpt>
      <trkpt lat="48.22433" lon="3.35006">
        <ele>202</ele>
        <time>2012-04-15T10:05:39.000Z</time>
      </trkpt>
      <trkpt lat="48.22435" lon="3.35012">
        <ele>202</ele>
        <time>2012-04-15T10:05:41.000Z</time>
      </trkpt>
      <trkpt lat="48.22437" lon="3.35019">
        <ele>202</ele>
        <time>2012-04-15T10:05:43.000Z</time>
      </trkpt>
      <trkpt lat="48.22439" lon="3.35025">
        <ele>202</ele>
        <time>2012-04-15T10:05:45.000Z</time>
      </trkpt>
      <trkpt lat="48.22441" lon="3.35032">
        <ele>202</ele>
        <time>2012-04-15T10:05:47.000Z</time>
      </trkpt>
      <trkpt lat="48.22443" lon="3.3504">
        <ele>202</ele>
        <time>2012-04-15T10:05:49.000Z</time>
      </trkpt>
      <trkpt lat="48.22446" lon="3.35046">
        <ele>202</ele>
        <time>2012-04-15T10:05:51.000Z</time>
      </trkpt>
      <trkpt lat="48.22448" lon="3.35053">
        <ele>202</ele>
        <time>2012-04-15T10:05:53.000Z</time>
      </trkpt>
      <trkpt lat="48.22449" lon="3.35062">
        <ele>202</ele>
        <time>2012-04-15T10:05:55.000Z</time>
      </trkpt>
      <trkpt lat="48.22451" lon="3.3507">
        <ele>202</ele>
        <time>2012-04-15T10:05:57.000Z</time>
      </trkpt>
      <trkpt lat="48.22453" lon="3.35076">
        <ele>202</ele>
        <time>2012-04-15T10:05:59.000Z</time>
      </trkpt>
      <trkpt lat="48.22455" lon="3.35083">
        <ele>202</ele>
        <time>2012-04-15T10:06:01.000Z</time>
      </trkpt>
      <trkpt lat="48.22457" lon="3.35092">
        <ele>200</ele>
        <time>2012-04-15T10:06:03.000Z</time>
      </trkpt>
      <trkpt lat="48.22459" lon="3.35098">
        <ele>201</ele>
        <time>2012-04-15T10:06:05.000Z</time>
      </trkpt>
      <trkpt lat="48.22463" lon="3.35104">
        <ele>201</ele>
        <time>2012-04-15T10:06:07.000Z</time>
      </trkpt>
      <trkpt lat="48.22465" lon="3.35111">
        <ele>201</ele>
        <time>2012-04-15T10:06:09.000Z</time>
      </trkpt>
      <trkpt lat="48.22467" lon="3.35117">
        <ele>201</ele>
        <time>2012-04-15T10:06:11.000Z</time>
      </trkpt>
      <trkpt lat="48.22469" lon="3.35126">
        <ele>201</ele>
        <time>2012-04-15T10:06:13.000Z</time>
      </trkpt>
      <trkpt lat="48.22471" lon="3.35134">
        <ele>201</ele>
        <time>2012-04-15T10:06:15.000Z</time>
      </trkpt>
      <trkpt lat="48.22474" lon="3.35141">
        <ele>201</ele>
        <time>2012-04-15T10:06:17.000Z</time>
      </trkpt>
      <trkpt lat="48.22477" lon="3.35152">
        <ele>201</ele>
        <time>2012-04-15T10:06:19.000Z</time>
      </trkpt>
      <trkpt lat="48.22479" lon="3.3516">
        <ele>201</ele>
        <time>2012-04-15T10:06:21.000Z</time>
      </trkpt>
      <trkpt lat="48.2248" lon="3.35169">
        <ele>202</ele>
        <time>2012-04-15T10:06:23.000Z</time>
      </trkpt>
      <trkpt lat="48.22482" lon="3.35177">
        <ele>202</ele>
        <time>2012-04-15T10:06:25.000Z</time>
      </trkpt>
      <trkpt lat="48.22484" lon="3.35186">
        <ele>202</ele>
        <time>2012-04-15T10:06:27.000Z</time>
      </trkpt>
      <trkpt lat="48.22485" lon="3.35194">
        <ele>202</ele>
        <time>2012-04-15T10:06:29.000Z</time>
      </trkpt>
      <trkpt lat="48.22487" lon="3.35203">
        <ele>202</ele>
        <time>2012-04-15T10:06:31.000Z</time>
      </trkpt>
      <trkpt lat="48.22488" lon="3.35212">
        <ele>202</ele>
        <time>2012-04-15T10:06:33.000Z</time>
      </trkpt>
      <trkpt lat="48.2249" lon="3.35218">
        <ele>202</ele>
        <time>2012-04-15T10:06:36.000Z</time>
      </trkpt>
      <trkpt lat="48.22495" lon="3.3522">
        <ele>202</ele>
        <time>2012-04-15T10:06:41.000Z</time>
      </trkpt>
      <trkpt lat="48.225" lon="3.35218">
        <ele>205</ele>
        <time>2012-04-15T10:06:45.000Z</time>
      </trkpt>
      <trkpt lat="48.22504" lon="3.35214">
        <ele>205</ele>
        <time>2012-04-15T10:06:48.000Z</time>
      </trkpt>
      <trkpt lat="48.22511" lon="3.35212">
        <ele>205</ele>
        <time>2012-04-15T10:06:52.000Z</time>
      </trkpt>
      <trkpt lat="48.22515" lon="3.3521">
        <ele>205</ele>
        <time>2012-04-15T10:06:55.000Z</time>
      </trkpt>
      <trkpt lat="48.22521" lon="3.3521">
        <ele>205</ele>
        <time>2012-04-15T10:06:58.000Z</time>
      </trkpt>
      <trkpt lat="48.22527" lon="3.3521">
        <ele>205</ele>
        <time>2012-04-15T10:07:01.000Z</time>
      </trkpt>
      <trkpt lat="48.22531" lon="3.35207">
        <ele>205</ele>
        <time>2012-04-15T10:07:03.000Z</time>
      </trkpt>
      <trkpt lat="48.22538" lon="3.35205">
        <ele>205</ele>
        <time>2012-04-15T10:07:06.000Z</time>
      </trkpt>
      <trkpt lat="48.22544" lon="3.35203">
        <ele>205</ele>
        <time>2012-04-15T10:07:09.000Z</time>
      </trkpt>
      <trkpt lat="48.22551" lon="3.35203">
        <ele>205</ele>
        <time>2012-04-15T10:07:12.000Z</time>
      </trkpt>
      <trkpt lat="48.22555" lon="3.35201">
        <ele>205</ele>
        <time>2012-04-15T10:07:14.000Z</time>
      </trkpt>
      <trkpt lat="48.22561" lon="3.35201">
        <ele>206</ele>
        <time>2012-04-15T10:07:17.000Z</time>
      </trkpt>
      <trkpt lat="48.22568" lon="3.35199">
        <ele>206</ele>
        <time>2012-04-15T10:07:20.000Z</time>
      </trkpt>
      <trkpt lat="48.22573" lon="3.35199">
        <ele>206</ele>
        <time>2012-04-15T10:07:22.000Z</time>
      </trkpt>
      <trkpt lat="48.22578" lon="3.35197">
        <ele>206</ele>
        <time>2012-04-15T10:07:24.000Z</time>
      </trkpt>
      <trkpt lat="48.22584" lon="3.35194">
        <ele>207</ele>
        <time>2012-04-15T10:07:26.000Z</time>
      </trkpt>
      <trkpt lat="48.22589" lon="3.35194">
        <ele>207</ele>
        <time>2012-04-15T10:07:28.000Z</time>
      </trkpt>
      <trkpt lat="48.22595" lon="3.35192">
        <ele>207</ele>
        <time>2012-04-15T10:07:30.000Z</time>
      </trkpt>
      <trkpt lat="48.22599" lon="3.3519">
        <ele>207</ele>
        <time>2012-04-15T10:07:32.000Z</time>
      </trkpt>
      <trkpt lat="48.22605" lon="3.35188">
        <ele>207</ele>
        <time>2012-04-15T10:07:35.000Z</time>
      </trkpt>
      <trkpt lat="48.22612" lon="3.35186">
        <ele>207</ele>
        <time>2012-04-15T10:07:38.000Z</time>
      </trkpt>
      <trkpt lat="48.22616" lon="3.35184">
        <ele>207</ele>
        <time>2012-04-15T10:07:40.000Z</time>
      </trkpt>
      <trkpt lat="48.22622" lon="3.35184">
        <ele>207</ele>
        <time>2012-04-15T10:07:43.000Z</time>
      </trkpt>
      <trkpt lat="48.22628" lon="3.35182">
        <ele>207</ele>
        <time>2012-04-15T10:07:45.000Z</time>
      </trkpt>
      <trkpt lat="48.22632" lon="3.3518">
        <ele>207</ele>
        <time>2012-04-15T10:07:47.000Z</time>
      </trkpt>
      <trkpt lat="48.22638" lon="3.3518">
        <ele>207</ele>
        <time>2012-04-15T10:07:49.000Z</time>
      </trkpt>
      <trkpt lat="48.22643" lon="3.35177">
        <ele>207</ele>
        <time>2012-04-15T10:07:51.000Z</time>
      </trkpt>
      <trkpt lat="48.22648" lon="3.35177">
        <ele>207</ele>
        <time>2012-04-15T10:07:53.000Z</time>
      </trkpt>
      <trkpt lat="48.22654" lon="3.35175">
        <ele>208</ele>
        <time>2012-04-15T10:07:55.000Z</time>
      </trkpt>
      <trkpt lat="48.22659" lon="3.35175">
        <ele>208</ele>
        <time>2012-04-15T10:07:57.000Z</time>
      </trkpt>
      <trkpt lat="48.22664" lon="3.35173">
        <ele>208</ele>
        <time>2012-04-15T10:07:59.000Z</time>
      </trkpt>
      <trkpt lat="48.2267" lon="3.35171">
        <ele>208</ele>
        <time>2012-04-15T10:08:01.000Z</time>
      </trkpt>
      <trkpt lat="48.22675" lon="3.35171">
        <ele>208</ele>
        <time>2012-04-15T10:08:03.000Z</time>
      </trkpt>
      <trkpt lat="48.22682" lon="3.35169">
        <ele>207</ele>
        <time>2012-04-15T10:08:05.000Z</time>
      </trkpt>
      <trkpt lat="48.22687" lon="3.35167">
        <ele>207</ele>
        <time>2012-04-15T10:08:07.000Z</time>
      </trkpt>
      <trkpt lat="48.22693" lon="3.35164">
        <ele>208</ele>
        <time>2012-04-15T10:08:09.000Z</time>
      </trkpt>
      <trkpt lat="48.22699" lon="3.35162">
        <ele>208</ele>
        <time>2012-04-15T10:08:11.000Z</time>
      </trkpt>
      <trkpt lat="48.22705" lon="3.35162">
        <ele>208</ele>
        <time>2012-04-15T10:08:13.000Z</time>
      </trkpt>
      <trkpt lat="48.22712" lon="3.3516">
        <ele>208</ele>
        <time>2012-04-15T10:08:15.000Z</time>
      </trkpt>
      <trkpt lat="48.22717" lon="3.35158">
        <ele>208</ele>
        <time>2012-04-15T10:08:17.000Z</time>
      </trkpt>
      <trkpt lat="48.22723" lon="3.35156">
        <ele>208</ele>
        <time>2012-04-15T10:08:19.000Z</time>
      </trkpt>
      <trkpt lat="48.2273" lon="3.35156">
        <ele>208</ele>
        <time>2012-04-15T10:08:21.000Z</time>
      </trkpt>
      <trkpt lat="48.22736" lon="3.35154">
        <ele>208</ele>
        <time>2012-04-15T10:08:23.000Z</time>
      </trkpt>
      <trkpt lat="48.22743" lon="3.35152">
        <ele>208</ele>
        <time>2012-04-15T10:08:25.000Z</time>
      </trkpt>
      <trkpt lat="48.22749" lon="3.3515">
        <ele>208</ele>
        <time>2012-04-15T10:08:27.000Z</time>
      </trkpt>
      <trkpt lat="48.22756" lon="3.35147">
        <ele>207</ele>
        <time>2012-04-15T10:08:29.000Z</time>
      </trkpt>
      <trkpt lat="48.22761" lon="3.35145">
        <ele>207</ele>
        <time>2012-04-15T10:08:31.000Z</time>
      </trkpt>
      <trkpt lat="48.22767" lon="3.35141">
        <ele>207</ele>
        <time>2012-04-15T10:08:33.000Z</time>
      </trkpt>
      <trkpt lat="48.22774" lon="3.35139">
        <ele>207</ele>
        <time>2012-04-15T10:08:35.000Z</time>
      </trkpt>
      <trkpt lat="48.22779" lon="3.35134">
        <ele>207</ele>
        <time>2012-04-15T10:08:37.000Z</time>
      </trkpt>
      <trkpt lat="48.22786" lon="3.35132">
        <ele>207</ele>
        <time>2012-04-15T10:08:39.000Z</time>
      </trkpt>
      <trkpt lat="48.22792" lon="3.35128">
        <ele>207</ele>
        <time>2012-04-15T10:08:41.000Z</time>
      </trkpt>
      <trkpt lat="48.22798" lon="3.35126">
        <ele>207</ele>
        <time>2012-04-15T10:08:43.000Z</time>
      </trkpt>
      <trkpt lat="48.22803" lon="3.35124">
        <ele>207</ele>
        <time>2012-04-15T10:08:44.000Z</time>
      </trkpt>
      <trkpt lat="48.2281" lon="3.35117">
        <ele>207</ele>
        <time>2012-04-15T10:08:46.000Z</time>
      </trkpt>
      <trkpt lat="48.22818" lon="3.35113">
        <ele>207</ele>
        <time>2012-04-15T10:08:48.000Z</time>
      </trkpt>
      <trkpt lat="48.22824" lon="3.35109">
        <ele>207</ele>
        <time>2012-04-15T10:08:50.000Z</time>
      </trkpt>
      <trkpt lat="48.22828" lon="3.35107">
        <ele>207</ele>
        <time>2012-04-15T10:08:51.000Z</time>
      </trkpt>
      <trkpt lat="48.22833" lon="3.35102">
        <ele>206</ele>
        <time>2012-04-15T10:08:52.000Z</time>
      </trkpt>
      <trkpt lat="48.2284" lon="3.35098">
        <ele>206</ele>
        <time>2012-04-15T10:08:54.000Z</time>
      </trkpt>
      <trkpt lat="48.22848" lon="3.35094">
        <ele>205</ele>
        <time>2012-04-15T10:08:56.000Z</time>
      </trkpt>
      <trkpt lat="48.22854" lon="3.35089">
        <ele>205</ele>
        <time>2012-04-15T10:08:58.000Z</time>
      </trkpt>
      <trkpt lat="48.22858" lon="3.35085">
        <ele>205</ele>
        <time>2012-04-15T10:08:59.000Z</time>
      </trkpt>
      <trkpt lat="48.22865" lon="3.35081">
        <ele>205</ele>
        <time>2012-04-15T10:09:01.000Z</time>
      </trkpt>
      <trkpt lat="48.22869" lon="3.35079">
        <ele>205</ele>
        <time>2012-04-15T10:09:02.000Z</time>
      </trkpt>
      <trkpt lat="48.22877" lon="3.35072">
        <ele>205</ele>
        <time>2012-04-15T10:09:04.000Z</time>
      </trkpt>
      <trkpt lat="48.22883" lon="3.35068">
        <ele>205</ele>
        <time>2012-04-15T10:09:06.000Z</time>
      </trkpt>
      <trkpt lat="48.2289" lon="3.35062">
        <ele>205</ele>
        <time>2012-04-15T10:09:08.000Z</time>
      </trkpt>
      <trkpt lat="48.22896" lon="3.35057">
        <ele>205</ele>
        <time>2012-04-15T10:09:10.000Z</time>
      </trkpt>
      <trkpt lat="48.22901" lon="3.35051">
        <ele>205</ele>
        <time>2012-04-15T10:09:12.000Z</time>
      </trkpt>
      <trkpt lat="48.22908" lon="3.35044">
        <ele>205</ele>
        <time>2012-04-15T10:09:14.000Z</time>
      </trkpt>
      <trkpt lat="48.22914" lon="3.3504">
        <ele>205</ele>
        <time>2012-04-15T10:09:16.000Z</time>
      </trkpt>
      <trkpt lat="48.22921" lon="3.35034">
        <ele>204</ele>
        <time>2012-04-15T10:09:18.000Z</time>
      </trkpt>
      <trkpt lat="48.22927" lon="3.35027">
        <ele>204</ele>
        <time>2012-04-15T10:09:20.000Z</time>
      </trkpt>
      <trkpt lat="48.22933" lon="3.35023">
        <ele>204</ele>
        <time>2012-04-15T10:09:22.000Z</time>
      </trkpt>
      <trkpt lat="48.22939" lon="3.35016">
        <ele>204</ele>
        <time>2012-04-15T10:09:24.000Z</time>
      </trkpt>
      <trkpt lat="48.22945" lon="3.3501">
        <ele>204</ele>
        <time>2012-04-15T10:09:26.000Z</time>
      </trkpt>
      <trkpt lat="48.22951" lon="3.35006">
        <ele>204</ele>
        <time>2012-04-15T10:09:28.000Z</time>
      </trkpt>
      <trkpt lat="48.22956" lon="3.34999">
        <ele>205</ele>
        <time>2012-04-15T10:09:30.000Z</time>
      </trkpt>
      <trkpt lat="48.22962" lon="3.34995">
        <ele>205</ele>
        <time>2012-04-15T10:09:32.000Z</time>
      </trkpt>
      <trkpt lat="48.22968" lon="3.34988">
        <ele>205</ele>
        <time>2012-04-15T10:09:34.000Z</time>
      </trkpt>
      <trkpt lat="48.22974" lon="3.34982">
        <ele>205</ele>
        <time>2012-04-15T10:09:36.000Z</time>
      </trkpt>
      <trkpt lat="48.22981" lon="3.34978">
        <ele>205</ele>
        <time>2012-04-15T10:09:38.000Z</time>
      </trkpt>
      <trkpt lat="48.22986" lon="3.34971">
        <ele>205</ele>
        <time>2012-04-15T10:09:40.000Z</time>
      </trkpt>
      <trkpt lat="48.22993" lon="3.34967">
        <ele>205</ele>
        <time>2012-04-15T10:09:42.000Z</time>
      </trkpt>
      <trkpt lat="48.22999" lon="3.34961">
        <ele>206</ele>
        <time>2012-04-15T10:09:44.000Z</time>
      </trkpt>
      <trkpt lat="48.23004" lon="3.34954">
        <ele>204</ele>
        <time>2012-04-15T10:09:46.000Z</time>
      </trkpt>
      <trkpt lat="48.23011" lon="3.3495">
        <ele>204</ele>
        <time>2012-04-15T10:09:48.000Z</time>
      </trkpt>
      <trkpt lat="48.23016" lon="3.34944">
        <ele>204</ele>
        <time>2012-04-15T10:09:50.000Z</time>
      </trkpt>
      <trkpt lat="48.23022" lon="3.34939">
        <ele>204</ele>
        <time>2012-04-15T10:09:52.000Z</time>
      </trkpt>
      <trkpt lat="48.23027" lon="3.34933">
        <ele>204</ele>
        <time>2012-04-15T10:09:54.000Z</time>
      </trkpt>
      <trkpt lat="48.23032" lon="3.34928">
        <ele>204</ele>
        <time>2012-04-15T10:09:56.000Z</time>
      </trkpt>
      <trkpt lat="48.23038" lon="3.34922">
        <ele>204</ele>
        <time>2012-04-15T10:09:58.000Z</time>
      </trkpt>
      <trkpt lat="48.23044" lon="3.34916">
        <ele>204</ele>
        <time>2012-04-15T10:10:00.000Z</time>
      </trkpt>
      <trkpt lat="48.23051" lon="3.34909">
        <ele>203</ele>
        <time>2012-04-15T10:10:02.000Z</time>
      </trkpt>
      <trkpt lat="48.23056" lon="3.34905">
        <ele>203</ele>
        <time>2012-04-15T10:10:04.000Z</time>
      </trkpt>
      <trkpt lat="48.23061" lon="3.34901">
        <ele>203</ele>
        <time>2012-04-15T10:10:06.000Z</time>
      </trkpt>
      <trkpt lat="48.23067" lon="3.34894">
        <ele>203</ele>
        <time>2012-04-15T10:10:08.000Z</time>
      </trkpt>
      <trkpt lat="48.23071" lon="3.3489">
        <ele>202</ele>
        <time>2012-04-15T10:10:10.000Z</time>
      </trkpt>
      <trkpt lat="48.23076" lon="3.34886">
        <ele>202</ele>
        <time>2012-04-15T10:10:12.000Z</time>
      </trkpt>
      <trkpt lat="48.23082" lon="3.34881">
        <ele>202</ele>
        <time>2012-04-15T10:10:14.000Z</time>
      </trkpt>
      <trkpt lat="48.23087" lon="3.34877">
        <ele>200</ele>
        <time>2012-04-15T10:10:16.000Z</time>
      </trkpt>
      <trkpt lat="48.23094" lon="3.3487">
        <ele>200</ele>
        <time>2012-04-15T10:10:18.000Z</time>
      </trkpt>
      <trkpt lat="48.23098" lon="3.34868">
        <ele>200</ele>
        <time>2012-04-15T10:10:19.000Z</time>
      </trkpt>
      <trkpt lat="48.23104" lon="3.34864">
        <ele>200</ele>
        <time>2012-04-15T10:10:21.000Z</time>
      </trkpt>
      <trkpt lat="48.23111" lon="3.34858">
        <ele>200</ele>
        <time>2012-04-15T10:10:23.000Z</time>
      </trkpt>
      <trkpt lat="48.23118" lon="3.34853">
        <ele>200</ele>
        <time>2012-04-15T10:10:25.000Z</time>
      </trkpt>
      <trkpt lat="48.23125" lon="3.34849">
        <ele>200</ele>
        <time>2012-04-15T10:10:27.000Z</time>
      </trkpt>
      <trkpt lat="48.23129" lon="3.34845">
        <ele>200</ele>
        <time>2012-04-15T10:10:28.000Z</time>
      </trkpt>
      <trkpt lat="48.23136" lon="3.3484">
        <ele>200</ele>
        <time>2012-04-15T10:10:30.000Z</time>
      </trkpt>
      <trkpt lat="48.23144" lon="3.34834">
        <ele>199</ele>
        <time>2012-04-15T10:10:32.000Z</time>
      </trkpt>
      <trkpt lat="48.23151" lon="3.3483">
        <ele>199</ele>
        <time>2012-04-15T10:10:34.000Z</time>
      </trkpt>
      <trkpt lat="48.23156" lon="3.34826">
        <ele>199</ele>
        <time>2012-04-15T10:10:35.000Z</time>
      </trkpt>
      <trkpt lat="48.2316" lon="3.34823">
        <ele>199</ele>
        <time>2012-04-15T10:10:36.000Z</time>
      </trkpt>
      <trkpt lat="48.23164" lon="3.34821">
        <ele>199</ele>
        <time>2012-04-15T10:10:37.000Z</time>
      </trkpt>
      <trkpt lat="48.23169" lon="3.34819">
        <ele>198</ele>
        <time>2012-04-15T10:10:38.000Z</time>
      </trkpt>
      <trkpt lat="48.23176" lon="3.34813">
        <ele>198</ele>
        <time>2012-04-15T10:10:40.000Z</time>
      </trkpt>
      <trkpt lat="48.2318" lon="3.3481">
        <ele>198</ele>
        <time>2012-04-15T10:10:41.000Z</time>
      </trkpt>
      <trkpt lat="48.23185" lon="3.34806">
        <ele>197</ele>
        <time>2012-04-15T10:10:42.000Z</time>
      </trkpt>
      <trkpt lat="48.23189" lon="3.34804">
        <ele>197</ele>
        <time>2012-04-15T10:10:43.000Z</time>
      </trkpt>
      <trkpt lat="48.23193" lon="3.348">
        <ele>197</ele>
        <time>2012-04-15T10:10:44.000Z</time>
      </trkpt>
      <trkpt lat="48.23198" lon="3.34798">
        <ele>197</ele>
        <time>2012-04-15T10:10:45.000Z</time>
      </trkpt>
      <trkpt lat="48.23202" lon="3.34795">
        <ele>197</ele>
        <time>2012-04-15T10:10:46.000Z</time>
      </trkpt>
      <trkpt lat="48.23207" lon="3.34791">
        <ele>197</ele>
        <time>2012-04-15T10:10:47.000Z</time>
      </trkpt>
      <trkpt lat="48.23212" lon="3.34789">
        <ele>197</ele>
        <time>2012-04-15T10:10:48.000Z</time>
      </trkpt>
      <trkpt lat="48.23216" lon="3.34785">
        <ele>197</ele>
        <time>2012-04-15T10:10:49.000Z</time>
      </trkpt>
      <trkpt lat="48.23221" lon="3.34783">
        <ele>196</ele>
        <time>2012-04-15T10:10:50.000Z</time>
      </trkpt>
      <trkpt lat="48.23226" lon="3.3478">
        <ele>196</ele>
        <time>2012-04-15T10:10:51.000Z</time>
      </trkpt>
      <trkpt lat="48.23231" lon="3.34778">
        <ele>196</ele>
        <time>2012-04-15T10:10:52.000Z</time>
      </trkpt>
      <trkpt lat="48.23236" lon="3.34776">
        <ele>196</ele>
        <time>2012-04-15T10:10:53.000Z</time>
      </trkpt>
      <trkpt lat="48.23243" lon="3.34774">
        <ele>196</ele>
        <time>2012-04-15T10:10:54.000Z</time>
      </trkpt>
      <trkpt lat="48.23248" lon="3.34772">
        <ele>196</ele>
        <time>2012-04-15T10:10:55.000Z</time>
      </trkpt>
      <trkpt lat="48.23253" lon="3.3477">
        <ele>195</ele>
        <time>2012-04-15T10:10:56.000Z</time>
      </trkpt>
      <trkpt lat="48.2326" lon="3.34768">
        <ele>195</ele>
        <time>2012-04-15T10:10:57.000Z</time>
      </trkpt>
      <trkpt lat="48.23265" lon="3.34761">
        <ele>195</ele>
        <time>2012-04-15T10:10:58.000Z</time>
      </trkpt>
      <trkpt lat="48.2327" lon="3.34757">
        <ele>195</ele>
        <time>2012-04-15T10:10:59.000Z</time>
      </trkpt>
      <trkpt lat="48.23275" lon="3.34748">
        <ele>194</ele>
        <time>2012-04-15T10:11:00.000Z</time>
      </trkpt>
      <trkpt lat="48.23278" lon="3.3474">
        <ele>194</ele>
        <time>2012-04-15T10:11:01.000Z</time>
      </trkpt>
      <trkpt lat="48.23282" lon="3.34733">
        <ele>193</ele>
        <time>2012-04-15T10:11:02.000Z</time>
      </trkpt>
      <trkpt lat="48.23286" lon="3.34725">
        <ele>193</ele>
        <time>2012-04-15T10:11:03.000Z</time>
      </trkpt>
      <trkpt lat="48.23289" lon="3.34716">
        <ele>193</ele>
        <time>2012-04-15T10:11:04.000Z</time>
      </trkpt>
      <trkpt lat="48.23292" lon="3.34707">
        <ele>193</ele>
        <time>2012-04-15T10:11:05.000Z</time>
      </trkpt>
      <trkpt lat="48.23296" lon="3.34699">
        <ele>193</ele>
        <time>2012-04-15T10:11:06.000Z</time>
      </trkpt>
      <trkpt lat="48.233" lon="3.3469">
        <ele>193</ele>
        <time>2012-04-15T10:11:07.000Z</time>
      </trkpt>
      <trkpt lat="48.23303" lon="3.34684">
        <ele>193</ele>
        <time>2012-04-15T10:11:08.000Z</time>
      </trkpt>
      <trkpt lat="48.23308" lon="3.34673">
        <ele>193</ele>
        <time>2012-04-15T10:11:10.000Z</time>
      </trkpt>
      <trkpt lat="48.23313" lon="3.34662">
        <ele>192</ele>
        <time>2012-04-15T10:11:12.000Z</time>
      </trkpt>
      <trkpt lat="48.23319" lon="3.34654">
        <ele>192</ele>
        <time>2012-04-15T10:11:14.000Z</time>
      </trkpt>
      <trkpt lat="48.23323" lon="3.34647">
        <ele>192</ele>
        <time>2012-04-15T10:11:16.000Z</time>
      </trkpt>
      <trkpt lat="48.23328" lon="3.34639">
        <ele>191</ele>
        <time>2012-04-15T10:11:18.000Z</time>
      </trkpt>
      <trkpt lat="48.23332" lon="3.34632">
        <ele>191</ele>
        <time>2012-04-15T10:11:20.000Z</time>
      </trkpt>
      <trkpt lat="48.23336" lon="3.34626">
        <ele>193</ele>
        <time>2012-04-15T10:11:22.000Z</time>
      </trkpt>
      <trkpt lat="48.23339" lon="3.3462">
        <ele>192</ele>
        <time>2012-04-15T10:11:24.000Z</time>
      </trkpt>
      <trkpt lat="48.23342" lon="3.34613">
        <ele>192</ele>
        <time>2012-04-15T10:11:26.000Z</time>
      </trkpt>
      <trkpt lat="48.23348" lon="3.34604">
        <ele>192</ele>
        <time>2012-04-15T10:11:29.000Z</time>
      </trkpt>
      <trkpt lat="48.23351" lon="3.34598">
        <ele>192</ele>
        <time>2012-04-15T10:11:31.000Z</time>
      </trkpt>
      <trkpt lat="48.23355" lon="3.34592">
        <ele>192</ele>
        <time>2012-04-15T10:11:33.000Z</time>
      </trkpt>
      <trkpt lat="48.2336" lon="3.34585">
        <ele>192</ele>
        <time>2012-04-15T10:11:35.000Z</time>
      </trkpt>
      <trkpt lat="48.23364" lon="3.34579">
        <ele>190</ele>
        <time>2012-04-15T10:11:37.000Z</time>
      </trkpt>
      <trkpt lat="48.23367" lon="3.3457">
        <ele>189</ele>
        <time>2012-04-15T10:11:39.000Z</time>
      </trkpt>
      <trkpt lat="48.23372" lon="3.34564">
        <ele>189</ele>
        <time>2012-04-15T10:11:41.000Z</time>
      </trkpt>
      <trkpt lat="48.23378" lon="3.34555">
        <ele>189</ele>
        <time>2012-04-15T10:11:43.000Z</time>
      </trkpt>
      <trkpt lat="48.23383" lon="3.34546">
        <ele>189</ele>
        <time>2012-04-15T10:11:45.000Z</time>
      </trkpt>
      <trkpt lat="48.23388" lon="3.34538">
        <ele>189</ele>
        <time>2012-04-15T10:11:47.000Z</time>
      </trkpt>
      <trkpt lat="48.23394" lon="3.34529">
        <ele>189</ele>
        <time>2012-04-15T10:11:49.000Z</time>
      </trkpt>
      <trkpt lat="48.23399" lon="3.34521">
        <ele>189</ele>
        <time>2012-04-15T10:11:51.000Z</time>
      </trkpt>
      <trkpt lat="48.23402" lon="3.34514">
        <ele>189</ele>
        <time>2012-04-15T10:11:52.000Z</time>
      </trkpt>
      <trkpt lat="48.23408" lon="3.34504">
        <ele>190</ele>
        <time>2012-04-15T10:11:54.000Z</time>
      </trkpt>
      <trkpt lat="48.23411" lon="3.34497">
        <ele>189</ele>
        <time>2012-04-15T10:11:55.000Z</time>
      </trkpt>
      <trkpt lat="48.23414" lon="3.34491">
        <ele>188</ele>
        <time>2012-04-15T10:11:56.000Z</time>
      </trkpt>
      <trkpt lat="48.23416" lon="3.34484">
        <ele>187</ele>
        <time>2012-04-15T10:11:57.000Z</time>
      </trkpt>
      <trkpt lat="48.2342" lon="3.34478">
        <ele>189</ele>
        <time>2012-04-15T10:11:58.000Z</time>
      </trkpt>
      <trkpt lat="48.23422" lon="3.34471">
        <ele>189</ele>
        <time>2012-04-15T10:11:59.000Z</time>
      </trkpt>
      <trkpt lat="48.23424" lon="3.34465">
        <ele>189</ele>
        <time>2012-04-15T10:12:00.000Z</time>
      </trkpt>
      <trkpt lat="48.23426" lon="3.34456">
        <ele>189</ele>
        <time>2012-04-15T10:12:01.000Z</time>
      </trkpt>
      <trkpt lat="48.23428" lon="3.34448">
        <ele>188</ele>
        <time>2012-04-15T10:12:02.000Z</time>
      </trkpt>
      <trkpt lat="48.23429" lon="3.34439">
        <ele>188</ele>
        <time>2012-04-15T10:12:03.000Z</time>
      </trkpt>
      <trkpt lat="48.23431" lon="3.34431">
        <ele>188</ele>
        <time>2012-04-15T10:12:04.000Z</time>
      </trkpt>
      <trkpt lat="48.23432" lon="3.34422">
        <ele>187</ele>
        <time>2012-04-15T10:12:05.000Z</time>
      </trkpt>
      <trkpt lat="48.23434" lon="3.34411">
        <ele>186</ele>
        <time>2012-04-15T10:12:06.000Z</time>
      </trkpt>
      <trkpt lat="48.23435" lon="3.34403">
        <ele>186</ele>
        <time>2012-04-15T10:12:07.000Z</time>
      </trkpt>
      <trkpt lat="48.23436" lon="3.34394">
        <ele>186</ele>
        <time>2012-04-15T10:12:08.000Z</time>
      </trkpt>
      <trkpt lat="48.23437" lon="3.34383">
        <ele>186</ele>
        <time>2012-04-15T10:12:09.000Z</time>
      </trkpt>
      <trkpt lat="48.23439" lon="3.34375">
        <ele>186</ele>
        <time>2012-04-15T10:12:10.000Z</time>
      </trkpt>
      <trkpt lat="48.2344" lon="3.34364">
        <ele>186</ele>
        <time>2012-04-15T10:12:11.000Z</time>
      </trkpt>
      <trkpt lat="48.23441" lon="3.34356">
        <ele>186</ele>
        <time>2012-04-15T10:12:12.000Z</time>
      </trkpt>
      <trkpt lat="48.23442" lon="3.34345">
        <ele>185</ele>
        <time>2012-04-15T10:12:13.000Z</time>
      </trkpt>
      <trkpt lat="48.23444" lon="3.34336">
        <ele>185</ele>
        <time>2012-04-15T10:12:14.000Z</time>
      </trkpt>
      <trkpt lat="48.23445" lon="3.34326">
        <ele>183</ele>
        <time>2012-04-15T10:12:15.000Z</time>
      </trkpt>
      <trkpt lat="48.23448" lon="3.34317">
        <ele>183</ele>
        <time>2012-04-15T10:12:16.000Z</time>
      </trkpt>
      <trkpt lat="48.2345" lon="3.34308">
        <ele>183</ele>
        <time>2012-04-15T10:12:17.000Z</time>
      </trkpt>
      <trkpt lat="48.23452" lon="3.343">
        <ele>183</ele>
        <time>2012-04-15T10:12:18.000Z</time>
      </trkpt>
      <trkpt lat="48.23454" lon="3.34291">
        <ele>183</ele>
        <time>2012-04-15T10:12:19.000Z</time>
      </trkpt>
      <trkpt lat="48.23456" lon="3.34283">
        <ele>183</ele>
        <time>2012-04-15T10:12:20.000Z</time>
      </trkpt>
      <trkpt lat="48.23458" lon="3.34276">
        <ele>183</ele>
        <time>2012-04-15T10:12:21.000Z</time>
      </trkpt>
      <trkpt lat="48.2346" lon="3.34268">
        <ele>183</ele>
        <time>2012-04-15T10:12:22.000Z</time>
      </trkpt>
      <trkpt lat="48.23463" lon="3.34259">
        <ele>183</ele>
        <time>2012-04-15T10:12:23.000Z</time>
      </trkpt>
      <trkpt lat="48.23465" lon="3.34252">
        <ele>183</ele>
        <time>2012-04-15T10:12:24.000Z</time>
      </trkpt>
      <trkpt lat="48.23468" lon="3.34244">
        <ele>182</ele>
        <time>2012-04-15T10:12:25.000Z</time>
      </trkpt>
      <trkpt lat="48.2347" lon="3.34238">
        <ele>182</ele>
        <time>2012-04-15T10:12:26.000Z</time>
      </trkpt>
      <trkpt lat="48.23474" lon="3.34227">
        <ele>182</ele>
        <time>2012-04-15T10:12:28.000Z</time>
      </trkpt>
      <trkpt lat="48.23478" lon="3.34216">
        <ele>182</ele>
        <time>2012-04-15T10:12:30.000Z</time>
      </trkpt>
      <trkpt lat="48.2348" lon="3.3421">
        <ele>182</ele>
        <time>2012-04-15T10:12:31.000Z</time>
      </trkpt>
      <trkpt lat="48.23484" lon="3.34199">
        <ele>182</ele>
        <time>2012-04-15T10:12:33.000Z</time>
      </trkpt>
      <trkpt lat="48.23488" lon="3.34188">
        <ele>182</ele>
        <time>2012-04-15T10:12:35.000Z</time>
      </trkpt>
      <trkpt lat="48.2349" lon="3.34182">
        <ele>183</ele>
        <time>2012-04-15T10:12:36.000Z</time>
      </trkpt>
      <trkpt lat="48.23493" lon="3.34175">
        <ele>184</ele>
        <time>2012-04-15T10:12:37.000Z</time>
      </trkpt>
      <trkpt lat="48.23498" lon="3.34167">
        <ele>185</ele>
        <time>2012-04-15T10:12:39.000Z</time>
      </trkpt>
      <trkpt lat="48.23502" lon="3.34162">
        <ele>187</ele>
        <time>2012-04-15T10:12:40.000Z</time>
      </trkpt>
      <trkpt lat="48.23508" lon="3.34156">
        <ele>188</ele>
        <time>2012-04-15T10:12:42.000Z</time>
      </trkpt>
      <trkpt lat="48.23512" lon="3.34152">
        <ele>188</ele>
        <time>2012-04-15T10:12:44.000Z</time>
      </trkpt>
      <trkpt lat="48.23515" lon="3.34145">
        <ele>188</ele>
        <time>2012-04-15T10:12:46.000Z</time>
      </trkpt>
      <trkpt lat="48.23519" lon="3.34139">
        <ele>189</ele>
        <time>2012-04-15T10:12:49.000Z</time>
      </trkpt>
      <trkpt lat="48.23519" lon="3.34139">
        <ele>189</ele>
        <time>2012-04-15T10:12:49.000Z</time>
      </trkpt>
      <trkpt lat="48.23519" lon="3.34139">
        <ele>189</ele>
        <time>2012-04-15T10:12:51.000Z</time>
      </trkpt>
      <trkpt lat="48.23524" lon="3.34134">
        <ele>189</ele>
        <time>2012-04-15T10:12:52.000Z</time>
      </trkpt>
      <trkpt lat="48.23524" lon="3.34134">
        <ele>189</ele>
        <time>2012-04-15T10:12:52.000Z</time>
      </trkpt>
      <trkpt lat="48.23524" lon="3.34134">
        <ele>189</ele>
        <time>2012-04-15T10:12:53.000Z</time>
      </trkpt>
      <trkpt lat="48.23529" lon="3.34126">
        <ele>189</ele>
        <time>2012-04-15T10:12:55.000Z</time>
      </trkpt>
      <trkpt lat="48.23533" lon="3.3412">
        <ele>189</ele>
        <time>2012-04-15T10:12:58.000Z</time>
      </trkpt>
      <trkpt lat="48.23536" lon="3.34113">
        <ele>189</ele>
        <time>2012-04-15T10:13:00.000Z</time>
      </trkpt>
      <trkpt lat="48.23538" lon="3.34107">
        <ele>189</ele>
        <time>2012-04-15T10:13:02.000Z</time>
      </trkpt>
      <trkpt lat="48.2354" lon="3.341">
        <ele>190</ele>
        <time>2012-04-15T10:13:04.000Z</time>
      </trkpt>
      <trkpt lat="48.23542" lon="3.34094">
        <ele>190</ele>
        <time>2012-04-15T10:13:06.000Z</time>
      </trkpt>
      <trkpt lat="48.23544" lon="3.34087">
        <ele>190</ele>
        <time>2012-04-15T10:13:08.000Z</time>
      </trkpt>
      <trkpt lat="48.23546" lon="3.34081">
        <ele>189</ele>
        <time>2012-04-15T10:13:10.000Z</time>
      </trkpt>
      <trkpt lat="48.23548" lon="3.34074">
        <ele>189</ele>
        <time>2012-04-15T10:13:12.000Z</time>
      </trkpt>
      <trkpt lat="48.23552" lon="3.34068">
        <ele>189</ele>
        <time>2012-04-15T10:13:14.000Z</time>
      </trkpt>
      <trkpt lat="48.23555" lon="3.34062">
        <ele>189</ele>
        <time>2012-04-15T10:13:16.000Z</time>
      </trkpt>
      <trkpt lat="48.23558" lon="3.34055">
        <ele>189</ele>
        <time>2012-04-15T10:13:18.000Z</time>
      </trkpt>
      <trkpt lat="48.23558" lon="3.34055">
        <ele>189</ele>
        <time>2012-04-15T10:13:18.000Z</time>
      </trkpt>
      <trkpt lat="48.23558" lon="3.34055">
        <ele>189</ele>
        <time>2012-04-15T10:13:19.000Z</time>
      </trkpt>
      <trkpt lat="48.23561" lon="3.34049">
        <ele>189</ele>
        <time>2012-04-15T10:13:20.000Z</time>
      </trkpt>
      <trkpt lat="48.23566" lon="3.34042">
        <ele>189</ele>
        <time>2012-04-15T10:13:22.000Z</time>
      </trkpt>
      <trkpt lat="48.23571" lon="3.34034">
        <ele>189</ele>
        <time>2012-04-15T10:13:25.000Z</time>
      </trkpt>
      <trkpt lat="48.23574" lon="3.34027">
        <ele>190</ele>
        <time>2012-04-15T10:13:27.000Z</time>
      </trkpt>
      <trkpt lat="48.2358" lon="3.34021">
        <ele>190</ele>
        <time>2012-04-15T10:13:30.000Z</time>
      </trkpt>
      <trkpt lat="48.23589" lon="3.3401">
        <ele>192</ele>
        <time>2012-04-15T10:13:35.000Z</time>
      </trkpt>
      <trkpt lat="48.23593" lon="3.34004">
        <ele>192</ele>
        <time>2012-04-15T10:13:37.000Z</time>
      </trkpt>
      <trkpt lat="48.23593" lon="3.34004">
        <ele>192</ele>
        <time>2012-04-15T10:13:37.000Z</time>
      </trkpt>
      <trkpt lat="48.23593" lon="3.34004">
        <ele>192</ele>
        <time>2012-04-15T10:13:40.000Z</time>
      </trkpt>
      <trkpt lat="48.23599" lon="3.33993">
        <ele>192</ele>
        <time>2012-04-15T10:13:41.000Z</time>
      </trkpt>
      <trkpt lat="48.23599" lon="3.33993">
        <ele>192</ele>
        <time>2012-04-15T10:13:41.000Z</time>
      </trkpt>
      <trkpt lat="48.23599" lon="3.33993">
        <ele>192</ele>
        <time>2012-04-15T10:13:43.000Z</time>
      </trkpt>
      <trkpt lat="48.23603" lon="3.33982">
        <ele>192</ele>
        <time>2012-04-15T10:13:44.000Z</time>
      </trkpt>
      <trkpt lat="48.23603" lon="3.33982">
        <ele>192</ele>
        <time>2012-04-15T10:13:44.000Z</time>
      </trkpt>
      <trkpt lat="48.23603" lon="3.33982">
        <ele>192</ele>
        <time>2012-04-15T10:13:45.000Z</time>
      </trkpt>
      <trkpt lat="48.23606" lon="3.33974">
        <ele>192</ele>
        <time>2012-04-15T10:13:46.000Z</time>
      </trkpt>
      <trkpt lat="48.23608" lon="3.33965">
        <ele>192</ele>
        <time>2012-04-15T10:13:47.000Z</time>
      </trkpt>
      <trkpt lat="48.23611" lon="3.33959">
        <ele>192</ele>
        <time>2012-04-15T10:13:48.000Z</time>
      </trkpt>
      <trkpt lat="48.23613" lon="3.33952">
        <ele>192</ele>
        <time>2012-04-15T10:13:49.000Z</time>
      </trkpt>
      <trkpt lat="48.23615" lon="3.33946">
        <ele>192</ele>
        <time>2012-04-15T10:13:50.000Z</time>
      </trkpt>
      <trkpt lat="48.23617" lon="3.33939">
        <ele>192</ele>
        <time>2012-04-15T10:13:51.000Z</time>
      </trkpt>
      <trkpt lat="48.2362" lon="3.33928">
        <ele>192</ele>
        <time>2012-04-15T10:13:53.000Z</time>
      </trkpt>
      <trkpt lat="48.23626" lon="3.33918">
        <ele>192</ele>
        <time>2012-04-15T10:13:55.000Z</time>
      </trkpt>
      <trkpt lat="48.23631" lon="3.33907">
        <ele>191</ele>
        <time>2012-04-15T10:13:57.000Z</time>
      </trkpt>
      <trkpt lat="48.23634" lon="3.33894">
        <ele>190</ele>
        <time>2012-04-15T10:13:59.000Z</time>
      </trkpt>
      <trkpt lat="48.23638" lon="3.33884">
        <ele>190</ele>
        <time>2012-04-15T10:14:01.000Z</time>
      </trkpt>
      <trkpt lat="48.23641" lon="3.33877">
        <ele>190</ele>
        <time>2012-04-15T10:14:02.000Z</time>
      </trkpt>
      <trkpt lat="48.23645" lon="3.33873">
        <ele>190</ele>
        <time>2012-04-15T10:14:03.000Z</time>
      </trkpt>
      <trkpt lat="48.23652" lon="3.33868">
        <ele>190</ele>
        <time>2012-04-15T10:14:05.000Z</time>
      </trkpt>
      <trkpt lat="48.2366" lon="3.33868">
        <ele>190</ele>
        <time>2012-04-15T10:14:07.000Z</time>
      </trkpt>
      <trkpt lat="48.23668" lon="3.33868">
        <ele>189</ele>
        <time>2012-04-15T10:14:09.000Z</time>
      </trkpt>
      <trkpt lat="48.23677" lon="3.33868">
        <ele>189</ele>
        <time>2012-04-15T10:14:11.000Z</time>
      </trkpt>
      <trkpt lat="48.23681" lon="3.33866">
        <ele>188</ele>
        <time>2012-04-15T10:14:12.000Z</time>
      </trkpt>
      <trkpt lat="48.23687" lon="3.33866">
        <ele>188</ele>
        <time>2012-04-15T10:14:13.000Z</time>
      </trkpt>
      <trkpt lat="48.23692" lon="3.33864">
        <ele>188</ele>
        <time>2012-04-15T10:14:14.000Z</time>
      </trkpt>
      <trkpt lat="48.23698" lon="3.33862">
        <ele>188</ele>
        <time>2012-04-15T10:14:15.000Z</time>
      </trkpt>
      <trkpt lat="48.23704" lon="3.3386">
        <ele>188</ele>
        <time>2012-04-15T10:14:16.000Z</time>
      </trkpt>
      <trkpt lat="48.23712" lon="3.33858">
        <ele>187</ele>
        <time>2012-04-15T10:14:17.000Z</time>
      </trkpt>
      <trkpt lat="48.23718" lon="3.33856">
        <ele>187</ele>
        <time>2012-04-15T10:14:18.000Z</time>
      </trkpt>
      <trkpt lat="48.23724" lon="3.33853">
        <ele>187</ele>
        <time>2012-04-15T10:14:19.000Z</time>
      </trkpt>
      <trkpt lat="48.2373" lon="3.33851">
        <ele>187</ele>
        <time>2012-04-15T10:14:20.000Z</time>
      </trkpt>
      <trkpt lat="48.23736" lon="3.33851">
        <ele>187</ele>
        <time>2012-04-15T10:14:21.000Z</time>
      </trkpt>
      <trkpt lat="48.23742" lon="3.33851">
        <ele>186</ele>
        <time>2012-04-15T10:14:22.000Z</time>
      </trkpt>
      <trkpt lat="48.23748" lon="3.33851">
        <ele>186</ele>
        <time>2012-04-15T10:14:23.000Z</time>
      </trkpt>
      <trkpt lat="48.23753" lon="3.33849">
        <ele>184</ele>
        <time>2012-04-15T10:14:24.000Z</time>
      </trkpt>
      <trkpt lat="48.2376" lon="3.33849">
        <ele>183</ele>
        <time>2012-04-15T10:14:25.000Z</time>
      </trkpt>
      <trkpt lat="48.23766" lon="3.33851">
        <ele>183</ele>
        <time>2012-04-15T10:14:26.000Z</time>
      </trkpt>
      <trkpt lat="48.23773" lon="3.33851">
        <ele>183</ele>
        <time>2012-04-15T10:14:27.000Z</time>
      </trkpt>
      <trkpt lat="48.23779" lon="3.33851">
        <ele>183</ele>
        <time>2012-04-15T10:14:28.000Z</time>
      </trkpt>
      <trkpt lat="48.23786" lon="3.33851">
        <ele>182</ele>
        <time>2012-04-15T10:14:29.000Z</time>
      </trkpt>
      <trkpt lat="48.23791" lon="3.33853">
        <ele>182</ele>
        <time>2012-04-15T10:14:30.000Z</time>
      </trkpt>
      <trkpt lat="48.238" lon="3.33853">
        <ele>181</ele>
        <time>2012-04-15T10:14:32.000Z</time>
      </trkpt>
      <trkpt lat="48.23808" lon="3.33856">
        <ele>181</ele>
        <time>2012-04-15T10:14:34.000Z</time>
      </trkpt>
      <trkpt lat="48.23817" lon="3.33858">
        <ele>181</ele>
        <time>2012-04-15T10:14:36.000Z</time>
      </trkpt>
      <trkpt lat="48.23822" lon="3.33858">
        <ele>181</ele>
        <time>2012-04-15T10:14:37.000Z</time>
      </trkpt>
      <trkpt lat="48.23828" lon="3.3386">
        <ele>181</ele>
        <time>2012-04-15T10:14:38.000Z</time>
      </trkpt>
      <trkpt lat="48.23834" lon="3.33862">
        <ele>176</ele>
        <time>2012-04-15T10:14:39.000Z</time>
      </trkpt>
      <trkpt lat="48.2384" lon="3.33864">
        <ele>176</ele>
        <time>2012-04-15T10:14:40.000Z</time>
      </trkpt>
      <trkpt lat="48.23846" lon="3.33864">
        <ele>176</ele>
        <time>2012-04-15T10:14:41.000Z</time>
      </trkpt>
      <trkpt lat="48.23852" lon="3.33866">
        <ele>176</ele>
        <time>2012-04-15T10:14:42.000Z</time>
      </trkpt>
      <trkpt lat="48.23857" lon="3.33866">
        <ele>175</ele>
        <time>2012-04-15T10:14:43.000Z</time>
      </trkpt>
      <trkpt lat="48.23862" lon="3.33868">
        <ele>175</ele>
        <time>2012-04-15T10:14:44.000Z</time>
      </trkpt>
      <trkpt lat="48.2387" lon="3.33871">
        <ele>175</ele>
        <time>2012-04-15T10:14:46.000Z</time>
      </trkpt>
      <trkpt lat="48.23877" lon="3.33873">
        <ele>174</ele>
        <time>2012-04-15T10:14:48.000Z</time>
      </trkpt>
      <trkpt lat="48.23881" lon="3.33875">
        <ele>174</ele>
        <time>2012-04-15T10:14:49.000Z</time>
      </trkpt>
      <trkpt lat="48.23891" lon="3.33877">
        <ele>174</ele>
        <time>2012-04-15T10:14:51.000Z</time>
      </trkpt>
      <trkpt lat="48.239" lon="3.33879">
        <ele>173</ele>
        <time>2012-04-15T10:14:53.000Z</time>
      </trkpt>
      <trkpt lat="48.23906" lon="3.33879">
        <ele>173</ele>
        <time>2012-04-15T10:14:54.000Z</time>
      </trkpt>
      <trkpt lat="48.23911" lon="3.33881">
        <ele>173</ele>
        <time>2012-04-15T10:14:55.000Z</time>
      </trkpt>
      <trkpt lat="48.23918" lon="3.33884">
        <ele>167</ele>
        <time>2012-04-15T10:14:56.000Z</time>
      </trkpt>
      <trkpt lat="48.23923" lon="3.33884">
        <ele>167</ele>
        <time>2012-04-15T10:14:57.000Z</time>
      </trkpt>
      <trkpt lat="48.23928" lon="3.33886">
        <ele>167</ele>
        <time>2012-04-15T10:14:58.000Z</time>
      </trkpt>
      <trkpt lat="48.23934" lon="3.33888">
        <ele>166</ele>
        <time>2012-04-15T10:14:59.000Z</time>
      </trkpt>
      <trkpt lat="48.23938" lon="3.3389">
        <ele>166</ele>
        <time>2012-04-15T10:15:00.000Z</time>
      </trkpt>
      <trkpt lat="48.23946" lon="3.33892">
        <ele>166</ele>
        <time>2012-04-15T10:15:02.000Z</time>
      </trkpt>
      <trkpt lat="48.23946" lon="3.33892">
        <ele>166</ele>
        <time>2012-04-15T10:15:02.000Z</time>
      </trkpt>
      <trkpt lat="48.23946" lon="3.33892">
        <ele>166</ele>
        <time>2012-04-15T10:15:04.000Z</time>
      </trkpt>
      <trkpt lat="48.23958" lon="3.33896">
        <ele>165</ele>
        <time>2012-04-15T10:15:05.000Z</time>
      </trkpt>
      <trkpt lat="48.23958" lon="3.33896">
        <ele>165</ele>
        <time>2012-04-15T10:15:05.000Z</time>
      </trkpt>
      <trkpt lat="48.23958" lon="3.33896">
        <ele>165</ele>
        <time>2012-04-15T10:15:07.000Z</time>
      </trkpt>
      <trkpt lat="48.23969" lon="3.33901">
        <ele>164</ele>
        <time>2012-04-15T10:15:08.000Z</time>
      </trkpt>
      <trkpt lat="48.23974" lon="3.33901">
        <ele>163</ele>
        <time>2012-04-15T10:15:09.000Z</time>
      </trkpt>
      <trkpt lat="48.2398" lon="3.33903">
        <ele>163</ele>
        <time>2012-04-15T10:15:10.000Z</time>
      </trkpt>
      <trkpt lat="48.23988" lon="3.33905">
        <ele>162</ele>
        <time>2012-04-15T10:15:11.000Z</time>
      </trkpt>
      <trkpt lat="48.23996" lon="3.33907">
        <ele>161</ele>
        <time>2012-04-15T10:15:12.000Z</time>
      </trkpt>
      <trkpt lat="48.24002" lon="3.33909">
        <ele>158</ele>
        <time>2012-04-15T10:15:13.000Z</time>
      </trkpt>
      <trkpt lat="48.24009" lon="3.33911">
        <ele>158</ele>
        <time>2012-04-15T10:15:14.000Z</time>
      </trkpt>
      <trkpt lat="48.24014" lon="3.33914">
        <ele>158</ele>
        <time>2012-04-15T10:15:15.000Z</time>
      </trkpt>
      <trkpt lat="48.24023" lon="3.33916">
        <ele>158</ele>
        <time>2012-04-15T10:15:17.000Z</time>
      </trkpt>
      <trkpt lat="48.24033" lon="3.33918">
        <ele>159</ele>
        <time>2012-04-15T10:15:32.000Z</time>
      </trkpt>
      <trkpt lat="48.24033" lon="3.33918">
        <ele>159</ele>
        <time>2012-04-15T10:15:32.000Z</time>
      </trkpt>
      <trkpt lat="48.24033" lon="3.33918">
        <ele>159</ele>
        <time>2012-04-15T10:16:23.000Z</time>
      </trkpt>
      <trkpt lat="48.24045" lon="3.33918">
        <ele>158</ele>
        <time>2012-04-15T10:16:24.000Z</time>
      </trkpt>
      <trkpt lat="48.24045" lon="3.33918">
        <ele>158</ele>
        <time>2012-04-15T10:16:24.000Z</time>
      </trkpt>
      <trkpt lat="48.24045" lon="3.33918">
        <ele>158</ele>
        <time>2012-04-15T10:16:26.000Z</time>
      </trkpt>
      <trkpt lat="48.24056" lon="3.33918">
        <ele>157</ele>
        <time>2012-04-15T10:16:27.000Z</time>
      </trkpt>
      <trkpt lat="48.24064" lon="3.3392">
        <ele>157</ele>
        <time>2012-04-15T10:16:29.000Z</time>
      </trkpt>
      <trkpt lat="48.24073" lon="3.33922">
        <ele>156</ele>
        <time>2012-04-15T10:16:31.000Z</time>
      </trkpt>
      <trkpt lat="48.24077" lon="3.33924">
        <ele>156</ele>
        <time>2012-04-15T10:16:32.000Z</time>
      </trkpt>
      <trkpt lat="48.24085" lon="3.33926">
        <ele>154</ele>
        <time>2012-04-15T10:16:34.000Z</time>
      </trkpt>
      <trkpt lat="48.24093" lon="3.33928">
        <ele>154</ele>
        <time>2012-04-15T10:16:36.000Z</time>
      </trkpt>
      <trkpt lat="48.24102" lon="3.33931">
        <ele>153</ele>
        <time>2012-04-15T10:16:38.000Z</time>
      </trkpt>
      <trkpt lat="48.2411" lon="3.33933">
        <ele>153</ele>
        <time>2012-04-15T10:16:40.000Z</time>
      </trkpt>
      <trkpt lat="48.24115" lon="3.33933">
        <ele>153</ele>
        <time>2012-04-15T10:16:41.000Z</time>
      </trkpt>
      <trkpt lat="48.24121" lon="3.33935">
        <ele>153</ele>
        <time>2012-04-15T10:16:42.000Z</time>
      </trkpt>
      <trkpt lat="48.24129" lon="3.33935">
        <ele>152</ele>
        <time>2012-04-15T10:16:43.000Z</time>
      </trkpt>
      <trkpt lat="48.24136" lon="3.33937">
        <ele>152</ele>
        <time>2012-04-15T10:16:44.000Z</time>
      </trkpt>
      <trkpt lat="48.24145" lon="3.33939">
        <ele>152</ele>
        <time>2012-04-15T10:16:45.000Z</time>
      </trkpt>
      <trkpt lat="48.24155" lon="3.33941">
        <ele>151</ele>
        <time>2012-04-15T10:16:46.000Z</time>
      </trkpt>
      <trkpt lat="48.24163" lon="3.33946">
        <ele>151</ele>
        <time>2012-04-15T10:16:47.000Z</time>
      </trkpt>
      <trkpt lat="48.24174" lon="3.33948">
        <ele>148</ele>
        <time>2012-04-15T10:16:48.000Z</time>
      </trkpt>
      <trkpt lat="48.24184" lon="3.3395">
        <ele>148</ele>
        <time>2012-04-15T10:16:49.000Z</time>
      </trkpt>
      <trkpt lat="48.24193" lon="3.33952">
        <ele>147</ele>
        <time>2012-04-15T10:16:50.000Z</time>
      </trkpt>
      <trkpt lat="48.24204" lon="3.33954">
        <ele>147</ele>
        <time>2012-04-15T10:16:51.000Z</time>
      </trkpt>
      <trkpt lat="48.24214" lon="3.33956">
        <ele>147</ele>
        <time>2012-04-15T10:16:52.000Z</time>
      </trkpt>
      <trkpt lat="48.24223" lon="3.33961">
        <ele>146</ele>
        <time>2012-04-15T10:16:53.000Z</time>
      </trkpt>
      <trkpt lat="48.24232" lon="3.33963">
        <ele>146</ele>
        <time>2012-04-15T10:16:54.000Z</time>
      </trkpt>
      <trkpt lat="48.24242" lon="3.33967">
        <ele>146</ele>
        <time>2012-04-15T10:16:55.000Z</time>
      </trkpt>
      <trkpt lat="48.24249" lon="3.33969">
        <ele>146</ele>
        <time>2012-04-15T10:16:56.000Z</time>
      </trkpt>
      <trkpt lat="48.24256" lon="3.33974">
        <ele>143</ele>
        <time>2012-04-15T10:16:57.000Z</time>
      </trkpt>
      <trkpt lat="48.24264" lon="3.33976">
        <ele>143</ele>
        <time>2012-04-15T10:16:58.000Z</time>
      </trkpt>
      <trkpt lat="48.2427" lon="3.3398">
        <ele>143</ele>
        <time>2012-04-15T10:16:59.000Z</time>
      </trkpt>
      <trkpt lat="48.24277" lon="3.33982">
        <ele>143</ele>
        <time>2012-04-15T10:17:00.000Z</time>
      </trkpt>
      <trkpt lat="48.24283" lon="3.33984">
        <ele>142</ele>
        <time>2012-04-15T10:17:01.000Z</time>
      </trkpt>
      <trkpt lat="48.24288" lon="3.33986">
        <ele>142</ele>
        <time>2012-04-15T10:17:02.000Z</time>
      </trkpt>
      <trkpt lat="48.24293" lon="3.33986">
        <ele>142</ele>
        <time>2012-04-15T10:17:03.000Z</time>
      </trkpt>
      <trkpt lat="48.24297" lon="3.33989">
        <ele>142</ele>
        <time>2012-04-15T10:17:04.000Z</time>
      </trkpt>
      <trkpt lat="48.24305" lon="3.33991">
        <ele>142</ele>
        <time>2012-04-15T10:17:06.000Z</time>
      </trkpt>
      <trkpt lat="48.24311" lon="3.33989">
        <ele>141</ele>
        <time>2012-04-15T10:17:08.000Z</time>
      </trkpt>
      <trkpt lat="48.24311" lon="3.33989">
        <ele>141</ele>
        <time>2012-04-15T10:17:08.000Z</time>
      </trkpt>
      <trkpt lat="48.24311" lon="3.33989">
        <ele>141</ele>
        <time>2012-04-15T10:17:11.000Z</time>
      </trkpt>
      <trkpt lat="48.24322" lon="3.33984">
        <ele>141</ele>
        <time>2012-04-15T10:17:12.000Z</time>
      </trkpt>
      <trkpt lat="48.2433" lon="3.33982">
        <ele>141</ele>
        <time>2012-04-15T10:17:15.000Z</time>
      </trkpt>
      <trkpt lat="48.2433" lon="3.33982">
        <ele>141</ele>
        <time>2012-04-15T10:17:15.000Z</time>
      </trkpt>
      <trkpt lat="48.2433" lon="3.33982">
        <ele>141</ele>
        <time>2012-04-15T10:17:19.000Z</time>
      </trkpt>
      <trkpt lat="48.24341" lon="3.33978">
        <ele>139</ele>
        <time>2012-04-15T10:17:20.000Z</time>
      </trkpt>
      <trkpt lat="48.24341" lon="3.33978">
        <ele>139</ele>
        <time>2012-04-15T10:17:20.000Z</time>
      </trkpt>
      <trkpt lat="48.24341" lon="3.33978">
        <ele>139</ele>
        <time>2012-04-15T10:17:23.000Z</time>
      </trkpt>
      <trkpt lat="48.2435" lon="3.33974">
        <ele>139</ele>
        <time>2012-04-15T10:17:24.000Z</time>
      </trkpt>
      <trkpt lat="48.2435" lon="3.33974">
        <ele>139</ele>
        <time>2012-04-15T10:17:24.000Z</time>
      </trkpt>
      <trkpt lat="48.2435" lon="3.33974">
        <ele>139</ele>
        <time>2012-04-15T10:17:29.000Z</time>
      </trkpt>
      <trkpt lat="48.2436" lon="3.33967">
        <ele>139</ele>
        <time>2012-04-15T10:17:30.000Z</time>
      </trkpt>
      <trkpt lat="48.2436" lon="3.33967">
        <ele>139</ele>
        <time>2012-04-15T10:17:30.000Z</time>
      </trkpt>
      <trkpt lat="48.2436" lon="3.33967">
        <ele>139</ele>
        <time>2012-04-15T10:17:39.000Z</time>
      </trkpt>
      <trkpt lat="48.24364" lon="3.33956">
        <ele>139</ele>
        <time>2012-04-15T10:17:40.000Z</time>
      </trkpt>
      <trkpt lat="48.24367" lon="3.33939">
        <ele>139</ele>
        <time>2012-04-15T10:17:49.000Z</time>
      </trkpt>
      <trkpt lat="48.24367" lon="3.33939">
        <ele>139</ele>
        <time>2012-04-15T10:17:49.000Z</time>
      </trkpt>
      <trkpt lat="48.24367" lon="3.33939">
        <ele>139</ele>
        <time>2012-04-15T10:17:52.000Z</time>
      </trkpt>
      <trkpt lat="48.2437" lon="3.33924">
        <ele>139</ele>
        <time>2012-04-15T10:17:53.000Z</time>
      </trkpt>
      <trkpt lat="48.2437" lon="3.33924">
        <ele>139</ele>
        <time>2012-04-15T10:17:53.000Z</time>
      </trkpt>
      <trkpt lat="48.2437" lon="3.33924">
        <ele>139</ele>
        <time>2012-04-15T10:17:54.000Z</time>
      </trkpt>
      <trkpt lat="48.24372" lon="3.33914">
        <ele>141</ele>
        <time>2012-04-15T10:17:56.000Z</time>
      </trkpt>
      <trkpt lat="48.24374" lon="3.33905">
        <ele>141</ele>
        <time>2012-04-15T10:17:58.000Z</time>
      </trkpt>
      <trkpt lat="48.24377" lon="3.33894">
        <ele>140</ele>
        <time>2012-04-15T10:18:01.000Z</time>
      </trkpt>
      <trkpt lat="48.24377" lon="3.33894">
        <ele>140</ele>
        <time>2012-04-15T10:18:01.000Z</time>
      </trkpt>
      <trkpt lat="48.24377" lon="3.33894">
        <ele>140</ele>
        <time>2012-04-15T10:18:04.000Z</time>
      </trkpt>
      <trkpt lat="48.24378" lon="3.33879">
        <ele>140</ele>
        <time>2012-04-15T10:18:05.000Z</time>
      </trkpt>
      <trkpt lat="48.24379" lon="3.33871">
        <ele>140</ele>
        <time>2012-04-15T10:18:07.000Z</time>
      </trkpt>
      <trkpt lat="48.24381" lon="3.3386">
        <ele>140</ele>
        <time>2012-04-15T10:18:09.000Z</time>
      </trkpt>
      <trkpt lat="48.24384" lon="3.33853">
        <ele>140</ele>
        <time>2012-04-15T10:18:10.000Z</time>
      </trkpt>
      <trkpt lat="48.24386" lon="3.33847">
        <ele>140</ele>
        <time>2012-04-15T10:18:11.000Z</time>
      </trkpt>
      <trkpt lat="48.24391" lon="3.33841">
        <ele>139</ele>
        <time>2012-04-15T10:18:12.000Z</time>
      </trkpt>
      <trkpt lat="48.24395" lon="3.33832">
        <ele>137</ele>
        <time>2012-04-15T10:18:13.000Z</time>
      </trkpt>
      <trkpt lat="48.244" lon="3.33826">
        <ele>137</ele>
        <time>2012-04-15T10:18:14.000Z</time>
      </trkpt>
      <trkpt lat="48.24406" lon="3.33817">
        <ele>136</ele>
        <time>2012-04-15T10:18:15.000Z</time>
      </trkpt>
      <trkpt lat="48.24412" lon="3.3381">
        <ele>136</ele>
        <time>2012-04-15T10:18:16.000Z</time>
      </trkpt>
      <trkpt lat="48.24417" lon="3.33806">
        <ele>128</ele>
        <time>2012-04-15T10:18:17.000Z</time>
      </trkpt>
      <trkpt lat="48.24423" lon="3.338">
        <ele>127</ele>
        <time>2012-04-15T10:18:18.000Z</time>
      </trkpt>
      <trkpt lat="48.24427" lon="3.33793">
        <ele>127</ele>
        <time>2012-04-15T10:18:19.000Z</time>
      </trkpt>
      <trkpt lat="48.2443" lon="3.33787">
        <ele>126</ele>
        <time>2012-04-15T10:18:20.000Z</time>
      </trkpt>
      <trkpt lat="48.24435" lon="3.3378">
        <ele>126</ele>
        <time>2012-04-15T10:18:21.000Z</time>
      </trkpt>
      <trkpt lat="48.24438" lon="3.33774">
        <ele>126</ele>
        <time>2012-04-15T10:18:22.000Z</time>
      </trkpt>
      <trkpt lat="48.24442" lon="3.33768">
        <ele>125</ele>
        <time>2012-04-15T10:18:23.000Z</time>
      </trkpt>
      <trkpt lat="48.24446" lon="3.33761">
        <ele>125</ele>
        <time>2012-04-15T10:18:24.000Z</time>
      </trkpt>
      <trkpt lat="48.24451" lon="3.33757">
        <ele>124</ele>
        <time>2012-04-15T10:18:25.000Z</time>
      </trkpt>
      <trkpt lat="48.24457" lon="3.3375">
        <ele>121</ele>
        <time>2012-04-15T10:18:27.000Z</time>
      </trkpt>
      <trkpt lat="48.24462" lon="3.3375">
        <ele>120</ele>
        <time>2012-04-15T10:18:29.000Z</time>
      </trkpt>
      <trkpt lat="48.24462" lon="3.3375">
        <ele>120</ele>
        <time>2012-04-15T10:18:29.000Z</time>
      </trkpt>
      <trkpt lat="48.24462" lon="3.3375">
        <ele>120</ele>
        <time>2012-04-15T10:18:41.000Z</time>
      </trkpt>
      <trkpt lat="48.24467" lon="3.33746">
        <ele>119</ele>
        <time>2012-04-15T10:18:42.000Z</time>
      </trkpt>
      <trkpt lat="48.24473" lon="3.33746">
        <ele>119</ele>
        <time>2012-04-15T10:18:43.000Z</time>
      </trkpt>
      <trkpt lat="48.2448" lon="3.33742">
        <ele>118</ele>
        <time>2012-04-15T10:18:44.000Z</time>
      </trkpt>
      <trkpt lat="48.24487" lon="3.3374">
        <ele>117</ele>
        <time>2012-04-15T10:18:45.000Z</time>
      </trkpt>
      <trkpt lat="48.24496" lon="3.33733">
        <ele>117</ele>
        <time>2012-04-15T10:18:46.000Z</time>
      </trkpt>
      <trkpt lat="48.24504" lon="3.33729">
        <ele>111</ele>
        <time>2012-04-15T10:18:47.000Z</time>
      </trkpt>
      <trkpt lat="48.24512" lon="3.33722">
        <ele>110</ele>
        <time>2012-04-15T10:18:48.000Z</time>
      </trkpt>
      <trkpt lat="48.24518" lon="3.3372">
        <ele>109</ele>
        <time>2012-04-15T10:18:49.000Z</time>
      </trkpt>
      <trkpt lat="48.24526" lon="3.33718">
        <ele>109</ele>
        <time>2012-04-15T10:18:50.000Z</time>
      </trkpt>
      <trkpt lat="48.24533" lon="3.33716">
        <ele>108</ele>
        <time>2012-04-15T10:18:51.000Z</time>
      </trkpt>
      <trkpt lat="48.2454" lon="3.33714">
        <ele>108</ele>
        <time>2012-04-15T10:18:52.000Z</time>
      </trkpt>
      <trkpt lat="48.24547" lon="3.33714">
        <ele>108</ele>
        <time>2012-04-15T10:18:53.000Z</time>
      </trkpt>
      <trkpt lat="48.24554" lon="3.33712">
        <ele>107</ele>
        <time>2012-04-15T10:18:54.000Z</time>
      </trkpt>
      <trkpt lat="48.2456" lon="3.33712">
        <ele>107</ele>
        <time>2012-04-15T10:18:55.000Z</time>
      </trkpt>
      <trkpt lat="48.24567" lon="3.33712">
        <ele>107</ele>
        <time>2012-04-15T10:18:56.000Z</time>
      </trkpt>
      <trkpt lat="48.24574" lon="3.33712">
        <ele>106</ele>
        <time>2012-04-15T10:18:57.000Z</time>
      </trkpt>
      <trkpt lat="48.2458" lon="3.33712">
        <ele>106</ele>
        <time>2012-04-15T10:18:58.000Z</time>
      </trkpt>
      <trkpt lat="48.24588" lon="3.33712">
        <ele>102</ele>
        <time>2012-04-15T10:18:59.000Z</time>
      </trkpt>
      <trkpt lat="48.24596" lon="3.33712">
        <ele>101</ele>
        <time>2012-04-15T10:19:00.000Z</time>
      </trkpt>
      <trkpt lat="48.24603" lon="3.33712">
        <ele>101</ele>
        <time>2012-04-15T10:19:01.000Z</time>
      </trkpt>
      <trkpt lat="48.24612" lon="3.33712">
        <ele>101</ele>
        <time>2012-04-15T10:19:02.000Z</time>
      </trkpt>
      <trkpt lat="48.24619" lon="3.33712">
        <ele>101</ele>
        <time>2012-04-15T10:19:03.000Z</time>
      </trkpt>
      <trkpt lat="48.24628" lon="3.33712">
        <ele>100</ele>
        <time>2012-04-15T10:19:04.000Z</time>
      </trkpt>
      <trkpt lat="48.24635" lon="3.33712">
        <ele>100</ele>
        <time>2012-04-15T10:19:05.000Z</time>
      </trkpt>
      <trkpt lat="48.24644" lon="3.33712">
        <ele>100</ele>
        <time>2012-04-15T10:19:06.000Z</time>
      </trkpt>
      <trkpt lat="48.24651" lon="3.33712">
        <ele>99</ele>
        <time>2012-04-15T10:19:07.000Z</time>
      </trkpt>
      <trkpt lat="48.24659" lon="3.33712">
        <ele>99</ele>
        <time>2012-04-15T10:19:08.000Z</time>
      </trkpt>
      <trkpt lat="48.24665" lon="3.33712">
        <ele>99</ele>
        <time>2012-04-15T10:19:09.000Z</time>
      </trkpt>
      <trkpt lat="48.24671" lon="3.33712">
        <ele>96</ele>
        <time>2012-04-15T10:19:10.000Z</time>
      </trkpt>
      <trkpt lat="48.24677" lon="3.33714">
        <ele>96</ele>
        <time>2012-04-15T10:19:11.000Z</time>
      </trkpt>
      <trkpt lat="48.24682" lon="3.33714">
        <ele>96</ele>
        <time>2012-04-15T10:19:12.000Z</time>
      </trkpt>
      <trkpt lat="48.24688" lon="3.33714">
        <ele>96</ele>
        <time>2012-04-15T10:19:13.000Z</time>
      </trkpt>
      <trkpt lat="48.24693" lon="3.33714">
        <ele>96</ele>
        <time>2012-04-15T10:19:14.000Z</time>
      </trkpt>
      <trkpt lat="48.24698" lon="3.33714">
        <ele>95</ele>
        <time>2012-04-15T10:19:15.000Z</time>
      </trkpt>
      <trkpt lat="48.24705" lon="3.33714">
        <ele>95</ele>
        <time>2012-04-15T10:19:16.000Z</time>
      </trkpt>
      <trkpt lat="48.24715" lon="3.33716">
        <ele>95</ele>
        <time>2012-04-15T10:19:18.000Z</time>
      </trkpt>
      <trkpt lat="48.2472" lon="3.33716">
        <ele>95</ele>
        <time>2012-04-15T10:19:19.000Z</time>
      </trkpt>
      <trkpt lat="48.24725" lon="3.33716">
        <ele>95</ele>
        <time>2012-04-15T10:19:20.000Z</time>
      </trkpt>
      <trkpt lat="48.24731" lon="3.33718">
        <ele>95</ele>
        <time>2012-04-15T10:19:21.000Z</time>
      </trkpt>
      <trkpt lat="48.24736" lon="3.3372">
        <ele>95</ele>
        <time>2012-04-15T10:19:22.000Z</time>
      </trkpt>
      <trkpt lat="48.24741" lon="3.3372">
        <ele>95</ele>
        <time>2012-04-15T10:19:23.000Z</time>
      </trkpt>
      <trkpt lat="48.24746" lon="3.33722">
        <ele>95</ele>
        <time>2012-04-15T10:19:24.000Z</time>
      </trkpt>
      <trkpt lat="48.2475" lon="3.33725">
        <ele>93</ele>
        <time>2012-04-15T10:19:25.000Z</time>
      </trkpt>
      <trkpt lat="48.24758" lon="3.33727">
        <ele>93</ele>
        <time>2012-04-15T10:19:27.000Z</time>
      </trkpt>
      <trkpt lat="48.24762" lon="3.33729">
        <ele>93</ele>
        <time>2012-04-15T10:19:28.000Z</time>
      </trkpt>
      <trkpt lat="48.24768" lon="3.33731">
        <ele>93</ele>
        <time>2012-04-15T10:19:30.000Z</time>
      </trkpt>
      <trkpt lat="48.24774" lon="3.33733">
        <ele>93</ele>
        <time>2012-04-15T10:19:32.000Z</time>
      </trkpt>
      <trkpt lat="48.2478" lon="3.33735">
        <ele>93</ele>
        <time>2012-04-15T10:19:34.000Z</time>
      </trkpt>
      <trkpt lat="48.24785" lon="3.33735">
        <ele>93</ele>
        <time>2012-04-15T10:19:36.000Z</time>
      </trkpt>
      <trkpt lat="48.24791" lon="3.33738">
        <ele>93</ele>
        <time>2012-04-15T10:19:38.000Z</time>
      </trkpt>
      <trkpt lat="48.24796" lon="3.33738">
        <ele>93</ele>
        <time>2012-04-15T10:19:40.000Z</time>
      </trkpt>
      <trkpt lat="48.24804" lon="3.33738">
        <ele>93</ele>
        <time>2012-04-15T10:19:43.000Z</time>
      </trkpt>
      <trkpt lat="48.24811" lon="3.3374">
        <ele>93</ele>
        <time>2012-04-15T10:19:46.000Z</time>
      </trkpt>
      <trkpt lat="48.24819" lon="3.3374">
        <ele>93</ele>
        <time>2012-04-15T10:19:49.000Z</time>
      </trkpt>
      <trkpt lat="48.24825" lon="3.33738">
        <ele>93</ele>
        <time>2012-04-15T10:19:51.000Z</time>
      </trkpt>
      <trkpt lat="48.24829" lon="3.33731">
        <ele>93</ele>
        <time>2012-04-15T10:19:53.000Z</time>
      </trkpt>
      <trkpt lat="48.2483" lon="3.3372">
        <ele>93</ele>
        <time>2012-04-15T10:19:55.000Z</time>
      </trkpt>
      <trkpt lat="48.2483" lon="3.3371">
        <ele>93</ele>
        <time>2012-04-15T10:19:57.000Z</time>
      </trkpt>
      <trkpt lat="48.2483" lon="3.33697">
        <ele>93</ele>
        <time>2012-04-15T10:19:59.000Z</time>
      </trkpt>
      <trkpt lat="48.24829" lon="3.33682">
        <ele>92</ele>
        <time>2012-04-15T10:20:01.000Z</time>
      </trkpt>
      <trkpt lat="48.24828" lon="3.33669">
        <ele>92</ele>
        <time>2012-04-15T10:20:03.000Z</time>
      </trkpt>
      <trkpt lat="48.24827" lon="3.3366">
        <ele>92</ele>
        <time>2012-04-15T10:20:04.000Z</time>
      </trkpt>
      <trkpt lat="48.24826" lon="3.33652">
        <ele>92</ele>
        <time>2012-04-15T10:20:05.000Z</time>
      </trkpt>
      <trkpt lat="48.24825" lon="3.33643">
        <ele>92</ele>
        <time>2012-04-15T10:20:06.000Z</time>
      </trkpt>
      <trkpt lat="48.24825" lon="3.33635">
        <ele>92</ele>
        <time>2012-04-15T10:20:07.000Z</time>
      </trkpt>
      <trkpt lat="48.24824" lon="3.33626">
        <ele>92</ele>
        <time>2012-04-15T10:20:08.000Z</time>
      </trkpt>
      <trkpt lat="48.24823" lon="3.33617">
        <ele>92</ele>
        <time>2012-04-15T10:20:09.000Z</time>
      </trkpt>
      <trkpt lat="48.24823" lon="3.33609">
        <ele>92</ele>
        <time>2012-04-15T10:20:10.000Z</time>
      </trkpt>
      <trkpt lat="48.24822" lon="3.33598">
        <ele>92</ele>
        <time>2012-04-15T10:20:11.000Z</time>
      </trkpt>
      <trkpt lat="48.24821" lon="3.3359">
        <ele>92</ele>
        <time>2012-04-15T10:20:12.000Z</time>
      </trkpt>
      <trkpt lat="48.2482" lon="3.33581">
        <ele>92</ele>
        <time>2012-04-15T10:20:13.000Z</time>
      </trkpt>
      <trkpt lat="48.2482" lon="3.33572">
        <ele>92</ele>
        <time>2012-04-15T10:20:14.000Z</time>
      </trkpt>
      <trkpt lat="48.24819" lon="3.33562">
        <ele>92</ele>
        <time>2012-04-15T10:20:15.000Z</time>
      </trkpt>
      <trkpt lat="48.24818" lon="3.33553">
        <ele>91</ele>
        <time>2012-04-15T10:20:16.000Z</time>
      </trkpt>
      <trkpt lat="48.24816" lon="3.33544">
        <ele>91</ele>
        <time>2012-04-15T10:20:17.000Z</time>
      </trkpt>
      <trkpt lat="48.24816" lon="3.33536">
        <ele>91</ele>
        <time>2012-04-15T10:20:18.000Z</time>
      </trkpt>
      <trkpt lat="48.24816" lon="3.33527">
        <ele>91</ele>
        <time>2012-04-15T10:20:19.000Z</time>
      </trkpt>
      <trkpt lat="48.24814" lon="3.33519">
        <ele>91</ele>
        <time>2012-04-15T10:20:20.000Z</time>
      </trkpt>
      <trkpt lat="48.24813" lon="3.33504">
        <ele>91</ele>
        <time>2012-04-15T10:20:22.000Z</time>
      </trkpt>
      <trkpt lat="48.24812" lon="3.33495">
        <ele>90</ele>
        <time>2012-04-15T10:20:23.000Z</time>
      </trkpt>
      <trkpt lat="48.24812" lon="3.33486">
        <ele>90</ele>
        <time>2012-04-15T10:20:24.000Z</time>
      </trkpt>
      <trkpt lat="48.24811" lon="3.33478">
        <ele>90</ele>
        <time>2012-04-15T10:20:25.000Z</time>
      </trkpt>
      <trkpt lat="48.2481" lon="3.33463">
        <ele>90</ele>
        <time>2012-04-15T10:20:27.000Z</time>
      </trkpt>
      <trkpt lat="48.2481" lon="3.33454">
        <ele>90</ele>
        <time>2012-04-15T10:20:28.000Z</time>
      </trkpt>
      <trkpt lat="48.24809" lon="3.33439">
        <ele>89</ele>
        <time>2012-04-15T10:20:30.000Z</time>
      </trkpt>
      <trkpt lat="48.24808" lon="3.33431">
        <ele>89</ele>
        <time>2012-04-15T10:20:31.000Z</time>
      </trkpt>
      <trkpt lat="48.24808" lon="3.33422">
        <ele>89</ele>
        <time>2012-04-15T10:20:32.000Z</time>
      </trkpt>
      <trkpt lat="48.24807" lon="3.33407">
        <ele>89</ele>
        <time>2012-04-15T10:20:34.000Z</time>
      </trkpt>
      <trkpt lat="48.24807" lon="3.33398">
        <ele>89</ele>
        <time>2012-04-15T10:20:35.000Z</time>
      </trkpt>
      <trkpt lat="48.24806" lon="3.33384">
        <ele>89</ele>
        <time>2012-04-15T10:20:37.000Z</time>
      </trkpt>
      <trkpt lat="48.24805" lon="3.33371">
        <ele>89</ele>
        <time>2012-04-15T10:20:39.000Z</time>
      </trkpt>
      <trkpt lat="48.24804" lon="3.33358">
        <ele>89</ele>
        <time>2012-04-15T10:20:41.000Z</time>
      </trkpt>
      <trkpt lat="48.24803" lon="3.33345">
        <ele>89</ele>
        <time>2012-04-15T10:20:43.000Z</time>
      </trkpt>
      <trkpt lat="48.24802" lon="3.33334">
        <ele>89</ele>
        <time>2012-04-15T10:20:45.000Z</time>
      </trkpt>
      <trkpt lat="48.248" lon="3.33321">
        <ele>89</ele>
        <time>2012-04-15T10:20:47.000Z</time>
      </trkpt>
      <trkpt lat="48.24799" lon="3.33311">
        <ele>89</ele>
        <time>2012-04-15T10:20:49.000Z</time>
      </trkpt>
      <trkpt lat="48.24798" lon="3.33298">
        <ele>89</ele>
        <time>2012-04-15T10:20:51.000Z</time>
      </trkpt>
      <trkpt lat="48.24797" lon="3.33285">
        <ele>89</ele>
        <time>2012-04-15T10:20:53.000Z</time>
      </trkpt>
      <trkpt lat="48.24797" lon="3.33274">
        <ele>89</ele>
        <time>2012-04-15T10:20:55.000Z</time>
      </trkpt>
      <trkpt lat="48.24796" lon="3.33261">
        <ele>89</ele>
        <time>2012-04-15T10:20:57.000Z</time>
      </trkpt>
      <trkpt lat="48.24795" lon="3.33248">
        <ele>88</ele>
        <time>2012-04-15T10:20:59.000Z</time>
      </trkpt>
      <trkpt lat="48.24794" lon="3.33236">
        <ele>88</ele>
        <time>2012-04-15T10:21:01.000Z</time>
      </trkpt>
      <trkpt lat="48.24793" lon="3.33223">
        <ele>88</ele>
        <time>2012-04-15T10:21:03.000Z</time>
      </trkpt>
      <trkpt lat="48.24792" lon="3.3321">
        <ele>88</ele>
        <time>2012-04-15T10:21:05.000Z</time>
      </trkpt>
      <trkpt lat="48.24791" lon="3.33197">
        <ele>88</ele>
        <time>2012-04-15T10:21:07.000Z</time>
      </trkpt>
      <trkpt lat="48.2479" lon="3.33184">
        <ele>88</ele>
        <time>2012-04-15T10:21:09.000Z</time>
      </trkpt>
      <trkpt lat="48.24789" lon="3.33173">
        <ele>88</ele>
        <time>2012-04-15T10:21:11.000Z</time>
      </trkpt>
      <trkpt lat="48.24789" lon="3.3316">
        <ele>88</ele>
        <time>2012-04-15T10:21:13.000Z</time>
      </trkpt>
      <trkpt lat="48.24788" lon="3.33148">
        <ele>88</ele>
        <time>2012-04-15T10:21:15.000Z</time>
      </trkpt>
      <trkpt lat="48.24786" lon="3.33135">
        <ele>88</ele>
        <time>2012-04-15T10:21:17.000Z</time>
      </trkpt>
      <trkpt lat="48.24786" lon="3.33124">
        <ele>88</ele>
        <time>2012-04-15T10:21:19.000Z</time>
      </trkpt>
      <trkpt lat="48.24785" lon="3.33113">
        <ele>88</ele>
        <time>2012-04-15T10:21:21.000Z</time>
      </trkpt>
      <trkpt lat="48.24784" lon="3.33102">
        <ele>88</ele>
        <time>2012-04-15T10:21:23.000Z</time>
      </trkpt>
      <trkpt lat="48.24784" lon="3.33092">
        <ele>88</ele>
        <time>2012-04-15T10:21:25.000Z</time>
      </trkpt>
      <trkpt lat="48.24783" lon="3.33079">
        <ele>87</ele>
        <time>2012-04-15T10:21:27.000Z</time>
      </trkpt>
      <trkpt lat="48.24783" lon="3.33068">
        <ele>87</ele>
        <time>2012-04-15T10:21:29.000Z</time>
      </trkpt>
      <trkpt lat="48.24782" lon="3.33055">
        <ele>87</ele>
        <time>2012-04-15T10:21:31.000Z</time>
      </trkpt>
      <trkpt lat="48.24781" lon="3.33044">
        <ele>87</ele>
        <time>2012-04-15T10:21:33.000Z</time>
      </trkpt>
      <trkpt lat="48.24779" lon="3.33032">
        <ele>87</ele>
        <time>2012-04-15T10:21:35.000Z</time>
      </trkpt>
      <trkpt lat="48.24778" lon="3.33019">
        <ele>87</ele>
        <time>2012-04-15T10:21:37.000Z</time>
      </trkpt>
      <trkpt lat="48.24777" lon="3.3301">
        <ele>87</ele>
        <time>2012-04-15T10:21:38.000Z</time>
      </trkpt>
      <trkpt lat="48.24776" lon="3.32997">
        <ele>87</ele>
        <time>2012-04-15T10:21:40.000Z</time>
      </trkpt>
      <trkpt lat="48.24776" lon="3.32989">
        <ele>87</ele>
        <time>2012-04-15T10:21:41.000Z</time>
      </trkpt>
      <trkpt lat="48.24775" lon="3.32976">
        <ele>87</ele>
        <time>2012-04-15T10:21:43.000Z</time>
      </trkpt>
      <trkpt lat="48.24775" lon="3.32961">
        <ele>87</ele>
        <time>2012-04-15T10:21:45.000Z</time>
      </trkpt>
      <trkpt lat="48.24774" lon="3.32948">
        <ele>86</ele>
        <time>2012-04-15T10:21:47.000Z</time>
      </trkpt>
      <trkpt lat="48.24772" lon="3.32937">
        <ele>86</ele>
        <time>2012-04-15T10:21:49.000Z</time>
      </trkpt>
      <trkpt lat="48.24772" lon="3.32924">
        <ele>86</ele>
        <time>2012-04-15T10:21:51.000Z</time>
      </trkpt>
      <trkpt lat="48.24772" lon="3.32916">
        <ele>87</ele>
        <time>2012-04-15T10:21:52.000Z</time>
      </trkpt>
      <trkpt lat="48.2477" lon="3.32903">
        <ele>87</ele>
        <time>2012-04-15T10:21:54.000Z</time>
      </trkpt>
      <trkpt lat="48.24768" lon="3.32888">
        <ele>87</ele>
        <time>2012-04-15T10:21:56.000Z</time>
      </trkpt>
      <trkpt lat="48.24765" lon="3.32875">
        <ele>88</ele>
        <time>2012-04-15T10:21:58.000Z</time>
      </trkpt>
      <trkpt lat="48.24762" lon="3.32862">
        <ele>88</ele>
        <time>2012-04-15T10:22:00.000Z</time>
      </trkpt>
      <trkpt lat="48.2476" lon="3.32856">
        <ele>88</ele>
        <time>2012-04-15T10:22:01.000Z</time>
      </trkpt>
      <trkpt lat="48.24756" lon="3.32849">
        <ele>88</ele>
        <time>2012-04-15T10:22:02.000Z</time>
      </trkpt>
      <trkpt lat="48.24749" lon="3.32841">
        <ele>89</ele>
        <time>2012-04-15T10:22:04.000Z</time>
      </trkpt>
      <trkpt lat="48.24746" lon="3.32834">
        <ele>89</ele>
        <time>2012-04-15T10:22:05.000Z</time>
      </trkpt>
      <trkpt lat="48.24739" lon="3.32826">
        <ele>89</ele>
        <time>2012-04-15T10:22:07.000Z</time>
      </trkpt>
      <trkpt lat="48.24735" lon="3.32819">
        <ele>89</ele>
        <time>2012-04-15T10:22:08.000Z</time>
      </trkpt>
      <trkpt lat="48.24728" lon="3.32811">
        <ele>88</ele>
        <time>2012-04-15T10:22:10.000Z</time>
      </trkpt>
      <trkpt lat="48.24723" lon="3.32806">
        <ele>88</ele>
        <time>2012-04-15T10:22:11.000Z</time>
      </trkpt>
      <trkpt lat="48.24716" lon="3.32796">
        <ele>88</ele>
        <time>2012-04-15T10:22:13.000Z</time>
      </trkpt>
      <trkpt lat="48.24709" lon="3.32787">
        <ele>88</ele>
        <time>2012-04-15T10:22:15.000Z</time>
      </trkpt>
      <trkpt lat="48.24706" lon="3.3278">
        <ele>88</ele>
        <time>2012-04-15T10:22:16.000Z</time>
      </trkpt>
      <trkpt lat="48.24703" lon="3.32768">
        <ele>88</ele>
        <time>2012-04-15T10:22:18.000Z</time>
      </trkpt>
      <trkpt lat="48.24697" lon="3.32757">
        <ele>88</ele>
        <time>2012-04-15T10:22:20.000Z</time>
      </trkpt>
      <trkpt lat="48.24694" lon="3.32744">
        <ele>88</ele>
        <time>2012-04-15T10:22:22.000Z</time>
      </trkpt>
      <trkpt lat="48.24691" lon="3.32733">
        <ele>88</ele>
        <time>2012-04-15T10:22:24.000Z</time>
      </trkpt>
      <trkpt lat="48.24689" lon="3.32727">
        <ele>88</ele>
        <time>2012-04-15T10:22:25.000Z</time>
      </trkpt>
      <trkpt lat="48.24689" lon="3.32714">
        <ele>88</ele>
        <time>2012-04-15T10:22:27.000Z</time>
      </trkpt>
      <trkpt lat="48.24691" lon="3.32705">
        <ele>88</ele>
        <time>2012-04-15T10:22:29.000Z</time>
      </trkpt>
      <trkpt lat="48.24695" lon="3.32701">
        <ele>88</ele>
        <time>2012-04-15T10:22:31.000Z</time>
      </trkpt>
      <trkpt lat="48.24701" lon="3.32697">
        <ele>88</ele>
        <time>2012-04-15T10:22:33.000Z</time>
      </trkpt>
      <trkpt lat="48.24707" lon="3.32693">
        <ele>88</ele>
        <time>2012-04-15T10:22:35.000Z</time>
      </trkpt>
      <trkpt lat="48.24711" lon="3.32688">
        <ele>88</ele>
        <time>2012-04-15T10:22:36.000Z</time>
      </trkpt>
      <trkpt lat="48.24719" lon="3.32684">
        <ele>88</ele>
        <time>2012-04-15T10:22:38.000Z</time>
      </trkpt>
      <trkpt lat="48.24725" lon="3.3268">
        <ele>88</ele>
        <time>2012-04-15T10:22:40.000Z</time>
      </trkpt>
      <trkpt lat="48.24733" lon="3.32678">
        <ele>88</ele>
        <time>2012-04-15T10:22:42.000Z</time>
      </trkpt>
      <trkpt lat="48.24739" lon="3.32673">
        <ele>88</ele>
        <time>2012-04-15T10:22:44.000Z</time>
      </trkpt>
      <trkpt lat="48.24747" lon="3.32671">
        <ele>88</ele>
        <time>2012-04-15T10:22:46.000Z</time>
      </trkpt>
      <trkpt lat="48.24753" lon="3.32669">
        <ele>88</ele>
        <time>2012-04-15T10:22:48.000Z</time>
      </trkpt>
      <trkpt lat="48.24761" lon="3.32667">
        <ele>88</ele>
        <time>2012-04-15T10:22:50.000Z</time>
      </trkpt>
      <trkpt lat="48.24767" lon="3.32665">
        <ele>88</ele>
        <time>2012-04-15T10:22:52.000Z</time>
      </trkpt>
      <trkpt lat="48.24774" lon="3.32662">
        <ele>88</ele>
        <time>2012-04-15T10:22:54.000Z</time>
      </trkpt>
      <trkpt lat="48.24779" lon="3.32662">
        <ele>89</ele>
        <time>2012-04-15T10:22:56.000Z</time>
      </trkpt>
      <trkpt lat="48.24783" lon="3.3266">
        <ele>89</ele>
        <time>2012-04-15T10:22:59.000Z</time>
      </trkpt>
      <trkpt lat="48.24783" lon="3.3266">
        <ele>89</ele>
        <time>2012-04-15T10:22:59.000Z</time>
      </trkpt>
      <trkpt lat="48.24783" lon="3.3266">
        <ele>89</ele>
        <time>2012-04-15T10:23:00.000Z</time>
      </trkpt>
      <trkpt lat="48.24782" lon="3.32652">
        <ele>89</ele>
        <time>2012-04-15T10:23:04.000Z</time>
      </trkpt>
      <trkpt lat="48.24778" lon="3.32645">
        <ele>89</ele>
        <time>2012-04-15T10:23:08.000Z</time>
      </trkpt>
      <trkpt lat="48.24774" lon="3.32639">
        <ele>89</ele>
        <time>2012-04-15T10:23:11.000Z</time>
      </trkpt>
      <trkpt lat="48.24774" lon="3.32639">
        <ele>89</ele>
        <time>2012-04-15T10:23:11.000Z</time>
      </trkpt>
      <trkpt lat="48.24774" lon="3.32639">
        <ele>89</ele>
        <time>2012-04-15T10:23:13.000Z</time>
      </trkpt>
      <trkpt lat="48.24768" lon="3.32632">
        <ele>89</ele>
        <time>2012-04-15T10:23:14.000Z</time>
      </trkpt>
      <trkpt lat="48.24766" lon="3.32624">
        <ele>89</ele>
        <time>2012-04-15T10:23:16.000Z</time>
      </trkpt>
      <trkpt lat="48.24764" lon="3.32615">
        <ele>89</ele>
        <time>2012-04-15T10:23:18.000Z</time>
      </trkpt>
      <trkpt lat="48.24759" lon="3.32609">
        <ele>88</ele>
        <time>2012-04-15T10:23:20.000Z</time>
      </trkpt>
      <trkpt lat="48.24753" lon="3.326">
        <ele>88</ele>
        <time>2012-04-15T10:23:22.000Z</time>
      </trkpt>
      <trkpt lat="48.24748" lon="3.32594">
        <ele>88</ele>
        <time>2012-04-15T10:23:24.000Z</time>
      </trkpt>
      <trkpt lat="48.24741" lon="3.32585">
        <ele>88</ele>
        <time>2012-04-15T10:23:26.000Z</time>
      </trkpt>
      <trkpt lat="48.24735" lon="3.32577">
        <ele>88</ele>
        <time>2012-04-15T10:23:28.000Z</time>
      </trkpt>
      <trkpt lat="48.24729" lon="3.3257">
        <ele>88</ele>
        <time>2012-04-15T10:23:30.000Z</time>
      </trkpt>
      <trkpt lat="48.24722" lon="3.32562">
        <ele>88</ele>
        <time>2012-04-15T10:23:32.000Z</time>
      </trkpt>
      <trkpt lat="48.24716" lon="3.32553">
        <ele>88</ele>
        <time>2012-04-15T10:23:34.000Z</time>
      </trkpt>
      <trkpt lat="48.2471" lon="3.32544">
        <ele>88</ele>
        <time>2012-04-15T10:23:36.000Z</time>
      </trkpt>
      <trkpt lat="48.24704" lon="3.32536">
        <ele>88</ele>
        <time>2012-04-15T10:23:38.000Z</time>
      </trkpt>
      <trkpt lat="48.24697" lon="3.32527">
        <ele>88</ele>
        <time>2012-04-15T10:23:40.000Z</time>
      </trkpt>
      <trkpt lat="48.24691" lon="3.32519">
        <ele>88</ele>
        <time>2012-04-15T10:23:42.000Z</time>
      </trkpt>
      <trkpt lat="48.24685" lon="3.32508">
        <ele>88</ele>
        <time>2012-04-15T10:23:44.000Z</time>
      </trkpt>
      <trkpt lat="48.2468" lon="3.32504">
        <ele>88</ele>
        <time>2012-04-15T10:23:45.000Z</time>
      </trkpt>
      <trkpt lat="48.24674" lon="3.32493">
        <ele>88</ele>
        <time>2012-04-15T10:23:47.000Z</time>
      </trkpt>
      <trkpt lat="48.24667" lon="3.32484">
        <ele>87</ele>
        <time>2012-04-15T10:23:49.000Z</time>
      </trkpt>
      <trkpt lat="48.24663" lon="3.3248">
        <ele>88</ele>
        <time>2012-04-15T10:23:50.000Z</time>
      </trkpt>
      <trkpt lat="48.2466" lon="3.32474">
        <ele>88</ele>
        <time>2012-04-15T10:23:51.000Z</time>
      </trkpt>
      <trkpt lat="48.24652" lon="3.32465">
        <ele>87</ele>
        <time>2012-04-15T10:23:53.000Z</time>
      </trkpt>
      <trkpt lat="48.24649" lon="3.32459">
        <ele>87</ele>
        <time>2012-04-15T10:23:54.000Z</time>
      </trkpt>
      <trkpt lat="48.24642" lon="3.32448">
        <ele>87</ele>
        <time>2012-04-15T10:23:56.000Z</time>
      </trkpt>
      <trkpt lat="48.24634" lon="3.32439">
        <ele>87</ele>
        <time>2012-04-15T10:23:58.000Z</time>
      </trkpt>
      <trkpt lat="48.2463" lon="3.32433">
        <ele>87</ele>
        <time>2012-04-15T10:23:59.000Z</time>
      </trkpt>
      <trkpt lat="48.24622" lon="3.32422">
        <ele>87</ele>
        <time>2012-04-15T10:24:01.000Z</time>
      </trkpt>
      <trkpt lat="48.24618" lon="3.32418">
        <ele>87</ele>
        <time>2012-04-15T10:24:02.000Z</time>
      </trkpt>
      <trkpt lat="48.2461" lon="3.32409">
        <ele>86</ele>
        <time>2012-04-15T10:24:04.000Z</time>
      </trkpt>
      <trkpt lat="48.24607" lon="3.32403">
        <ele>86</ele>
        <time>2012-04-15T10:24:05.000Z</time>
      </trkpt>
      <trkpt lat="48.24603" lon="3.32399">
        <ele>86</ele>
        <time>2012-04-15T10:24:06.000Z</time>
      </trkpt>
      <trkpt lat="48.24597" lon="3.3239">
        <ele>86</ele>
        <time>2012-04-15T10:24:08.000Z</time>
      </trkpt>
      <trkpt lat="48.24592" lon="3.32384">
        <ele>86</ele>
        <time>2012-04-15T10:24:09.000Z</time>
      </trkpt>
      <trkpt lat="48.24586" lon="3.32375">
        <ele>86</ele>
        <time>2012-04-15T10:24:11.000Z</time>
      </trkpt>
      <trkpt lat="48.24582" lon="3.32369">
        <ele>88</ele>
        <time>2012-04-15T10:24:12.000Z</time>
      </trkpt>
      <trkpt lat="48.24574" lon="3.32358">
        <ele>88</ele>
        <time>2012-04-15T10:24:14.000Z</time>
      </trkpt>
      <trkpt lat="48.24572" lon="3.32351">
        <ele>88</ele>
        <time>2012-04-15T10:24:15.000Z</time>
      </trkpt>
      <trkpt lat="48.2457" lon="3.32338">
        <ele>87</ele>
        <time>2012-04-15T10:24:17.000Z</time>
      </trkpt>
      <trkpt lat="48.24569" lon="3.3233">
        <ele>87</ele>
        <time>2012-04-15T10:24:18.000Z</time>
      </trkpt>
      <trkpt lat="48.24567" lon="3.32324">
        <ele>87</ele>
        <time>2012-04-15T10:24:19.000Z</time>
      </trkpt>
      <trkpt lat="48.24566" lon="3.32311">
        <ele>87</ele>
        <time>2012-04-15T10:24:21.000Z</time>
      </trkpt>
      <trkpt lat="48.24564" lon="3.32302">
        <ele>87</ele>
        <time>2012-04-15T10:24:22.000Z</time>
      </trkpt>
      <trkpt lat="48.24562" lon="3.32289">
        <ele>87</ele>
        <time>2012-04-15T10:24:24.000Z</time>
      </trkpt>
      <trkpt lat="48.24561" lon="3.32281">
        <ele>87</ele>
        <time>2012-04-15T10:24:25.000Z</time>
      </trkpt>
      <trkpt lat="48.24559" lon="3.32266">
        <ele>87</ele>
        <time>2012-04-15T10:24:27.000Z</time>
      </trkpt>
      <trkpt lat="48.24558" lon="3.3225">
        <ele>87</ele>
        <time>2012-04-15T10:24:29.000Z</time>
      </trkpt>
      <trkpt lat="48.24557" lon="3.32242">
        <ele>87</ele>
        <time>2012-04-15T10:24:30.000Z</time>
      </trkpt>
      <trkpt lat="48.24555" lon="3.32227">
        <ele>87</ele>
        <time>2012-04-15T10:24:32.000Z</time>
      </trkpt>
      <trkpt lat="48.24553" lon="3.32214">
        <ele>87</ele>
        <time>2012-04-15T10:24:34.000Z</time>
      </trkpt>
      <trkpt lat="48.24553" lon="3.32206">
        <ele>87</ele>
        <time>2012-04-15T10:24:35.000Z</time>
      </trkpt>
      <trkpt lat="48.24552" lon="3.32193">
        <ele>88</ele>
        <time>2012-04-15T10:24:37.000Z</time>
      </trkpt>
      <trkpt lat="48.24552" lon="3.32178">
        <ele>88</ele>
        <time>2012-04-15T10:24:39.000Z</time>
      </trkpt>
      <trkpt lat="48.2455" lon="3.32165">
        <ele>88</ele>
        <time>2012-04-15T10:24:41.000Z</time>
      </trkpt>
      <trkpt lat="48.2455" lon="3.32152">
        <ele>88</ele>
        <time>2012-04-15T10:24:43.000Z</time>
      </trkpt>
      <trkpt lat="48.24549" lon="3.32141">
        <ele>88</ele>
        <time>2012-04-15T10:24:45.000Z</time>
      </trkpt>
      <trkpt lat="48.24548" lon="3.3213">
        <ele>88</ele>
        <time>2012-04-15T10:24:47.000Z</time>
      </trkpt>
      <trkpt lat="48.24546" lon="3.3212">
        <ele>88</ele>
        <time>2012-04-15T10:24:49.000Z</time>
      </trkpt>
      <trkpt lat="48.24544" lon="3.32107">
        <ele>87</ele>
        <time>2012-04-15T10:24:51.000Z</time>
      </trkpt>
      <trkpt lat="48.24542" lon="3.32096">
        <ele>87</ele>
        <time>2012-04-15T10:24:53.000Z</time>
      </trkpt>
      <trkpt lat="48.2454" lon="3.3209">
        <ele>87</ele>
        <time>2012-04-15T10:24:54.000Z</time>
      </trkpt>
      <trkpt lat="48.24538" lon="3.32075">
        <ele>86</ele>
        <time>2012-04-15T10:24:56.000Z</time>
      </trkpt>
      <trkpt lat="48.24535" lon="3.32068">
        <ele>86</ele>
        <time>2012-04-15T10:24:57.000Z</time>
      </trkpt>
      <trkpt lat="48.24533" lon="3.32062">
        <ele>86</ele>
        <time>2012-04-15T10:24:58.000Z</time>
      </trkpt>
      <trkpt lat="48.2453" lon="3.32049">
        <ele>86</ele>
        <time>2012-04-15T10:25:00.000Z</time>
      </trkpt>
      <trkpt lat="48.24527" lon="3.32036">
        <ele>86</ele>
        <time>2012-04-15T10:25:02.000Z</time>
      </trkpt>
      <trkpt lat="48.24525" lon="3.3203">
        <ele>85</ele>
        <time>2012-04-15T10:25:03.000Z</time>
      </trkpt>
      <trkpt lat="48.24522" lon="3.32017">
        <ele>85</ele>
        <time>2012-04-15T10:25:05.000Z</time>
      </trkpt>
      <trkpt lat="48.24519" lon="3.3201">
        <ele>85</ele>
        <time>2012-04-15T10:25:06.000Z</time>
      </trkpt>
      <trkpt lat="48.24516" lon="3.32">
        <ele>84</ele>
        <time>2012-04-15T10:25:08.000Z</time>
      </trkpt>
      <trkpt lat="48.24513" lon="3.31987">
        <ele>84</ele>
        <time>2012-04-15T10:25:10.000Z</time>
      </trkpt>
      <trkpt lat="48.24511" lon="3.3198">
        <ele>84</ele>
        <time>2012-04-15T10:25:11.000Z</time>
      </trkpt>
      <trkpt lat="48.24508" lon="3.31969">
        <ele>84</ele>
        <time>2012-04-15T10:25:13.000Z</time>
      </trkpt>
      <trkpt lat="48.24504" lon="3.31957">
        <ele>84</ele>
        <time>2012-04-15T10:25:15.000Z</time>
      </trkpt>
      <trkpt lat="48.24502" lon="3.3195">
        <ele>84</ele>
        <time>2012-04-15T10:25:16.000Z</time>
      </trkpt>
      <trkpt lat="48.24499" lon="3.31937">
        <ele>84</ele>
        <time>2012-04-15T10:25:18.000Z</time>
      </trkpt>
      <trkpt lat="48.24497" lon="3.31931">
        <ele>84</ele>
        <time>2012-04-15T10:25:19.000Z</time>
      </trkpt>
      <trkpt lat="48.24494" lon="3.31918">
        <ele>83</ele>
        <time>2012-04-15T10:25:21.000Z</time>
      </trkpt>
      <trkpt lat="48.24492" lon="3.31907">
        <ele>83</ele>
        <time>2012-04-15T10:25:23.000Z</time>
      </trkpt>
      <trkpt lat="48.24488" lon="3.31894">
        <ele>83</ele>
        <time>2012-04-15T10:25:25.000Z</time>
      </trkpt>
      <trkpt lat="48.24486" lon="3.31882">
        <ele>83</ele>
        <time>2012-04-15T10:25:27.000Z</time>
      </trkpt>
      <trkpt lat="48.24484" lon="3.31869">
        <ele>83</ele>
        <time>2012-04-15T10:25:29.000Z</time>
      </trkpt>
      <trkpt lat="48.24481" lon="3.31856">
        <ele>83</ele>
        <time>2012-04-15T10:25:31.000Z</time>
      </trkpt>
      <trkpt lat="48.24479" lon="3.31841">
        <ele>83</ele>
        <time>2012-04-15T10:25:33.000Z</time>
      </trkpt>
      <trkpt lat="48.24476" lon="3.31828">
        <ele>83</ele>
        <time>2012-04-15T10:25:35.000Z</time>
      </trkpt>
      <trkpt lat="48.24474" lon="3.31821">
        <ele>84</ele>
        <time>2012-04-15T10:25:36.000Z</time>
      </trkpt>
      <trkpt lat="48.24472" lon="3.31808">
        <ele>84</ele>
        <time>2012-04-15T10:25:38.000Z</time>
      </trkpt>
      <trkpt lat="48.2447" lon="3.31802">
        <ele>84</ele>
        <time>2012-04-15T10:25:39.000Z</time>
      </trkpt>
      <trkpt lat="48.24467" lon="3.31787">
        <ele>84</ele>
        <time>2012-04-15T10:25:41.000Z</time>
      </trkpt>
      <trkpt lat="48.24465" lon="3.31781">
        <ele>84</ele>
        <time>2012-04-15T10:25:42.000Z</time>
      </trkpt>
      <trkpt lat="48.24461" lon="3.31774">
        <ele>84</ele>
        <time>2012-04-15T10:25:43.000Z</time>
      </trkpt>
      <trkpt lat="48.24456" lon="3.31764">
        <ele>84</ele>
        <time>2012-04-15T10:25:45.000Z</time>
      </trkpt>
      <trkpt lat="48.24451" lon="3.31753">
        <ele>84</ele>
        <time>2012-04-15T10:25:47.000Z</time>
      </trkpt>
      <trkpt lat="48.24445" lon="3.31744">
        <ele>84</ele>
        <time>2012-04-15T10:25:49.000Z</time>
      </trkpt>
      <trkpt lat="48.24439" lon="3.31736">
        <ele>84</ele>
        <time>2012-04-15T10:25:51.000Z</time>
      </trkpt>
      <trkpt lat="48.24432" lon="3.31725">
        <ele>84</ele>
        <time>2012-04-15T10:25:53.000Z</time>
      </trkpt>
      <trkpt lat="48.24426" lon="3.31716">
        <ele>84</ele>
        <time>2012-04-15T10:25:55.000Z</time>
      </trkpt>
      <trkpt lat="48.24423" lon="3.3171">
        <ele>84</ele>
        <time>2012-04-15T10:25:56.000Z</time>
      </trkpt>
      <trkpt lat="48.24417" lon="3.31701">
        <ele>84</ele>
        <time>2012-04-15T10:25:58.000Z</time>
      </trkpt>
      <trkpt lat="48.24412" lon="3.31693">
        <ele>83</ele>
        <time>2012-04-15T10:26:00.000Z</time>
      </trkpt>
      <trkpt lat="48.24408" lon="3.31684">
        <ele>83</ele>
        <time>2012-04-15T10:26:02.000Z</time>
      </trkpt>
      <trkpt lat="48.24406" lon="3.31678">
        <ele>83</ele>
        <time>2012-04-15T10:26:03.000Z</time>
      </trkpt>
      <trkpt lat="48.24401" lon="3.31669">
        <ele>83</ele>
        <time>2012-04-15T10:26:05.000Z</time>
      </trkpt>
      <trkpt lat="48.24397" lon="3.31658">
        <ele>83</ele>
        <time>2012-04-15T10:26:07.000Z</time>
      </trkpt>
      <trkpt lat="48.24393" lon="3.31648">
        <ele>83</ele>
        <time>2012-04-15T10:26:09.000Z</time>
      </trkpt>
      <trkpt lat="48.24387" lon="3.31637">
        <ele>83</ele>
        <time>2012-04-15T10:26:11.000Z</time>
      </trkpt>
      <trkpt lat="48.24385" lon="3.3163">
        <ele>83</ele>
        <time>2012-04-15T10:26:12.000Z</time>
      </trkpt>
      <trkpt lat="48.24382" lon="3.31624">
        <ele>83</ele>
        <time>2012-04-15T10:26:13.000Z</time>
      </trkpt>
      <trkpt lat="48.24378" lon="3.31615">
        <ele>83</ele>
        <time>2012-04-15T10:26:15.000Z</time>
      </trkpt>
      <trkpt lat="48.24376" lon="3.31609">
        <ele>83</ele>
        <time>2012-04-15T10:26:16.000Z</time>
      </trkpt>
      <trkpt lat="48.24371" lon="3.31598">
        <ele>83</ele>
        <time>2012-04-15T10:26:18.000Z</time>
      </trkpt>
      <trkpt lat="48.24366" lon="3.3159">
        <ele>82</ele>
        <time>2012-04-15T10:26:20.000Z</time>
      </trkpt>
      <trkpt lat="48.24362" lon="3.31579">
        <ele>82</ele>
        <time>2012-04-15T10:26:22.000Z</time>
      </trkpt>
      <trkpt lat="48.24357" lon="3.3157">
        <ele>82</ele>
        <time>2012-04-15T10:26:24.000Z</time>
      </trkpt>
      <trkpt lat="48.24353" lon="3.31562">
        <ele>82</ele>
        <time>2012-04-15T10:26:26.000Z</time>
      </trkpt>
      <trkpt lat="48.2435" lon="3.31553">
        <ele>82</ele>
        <time>2012-04-15T10:26:28.000Z</time>
      </trkpt>
      <trkpt lat="48.24347" lon="3.31547">
        <ele>82</ele>
        <time>2012-04-15T10:26:30.000Z</time>
      </trkpt>
      <trkpt lat="48.24343" lon="3.3154">
        <ele>82</ele>
        <time>2012-04-15T10:26:32.000Z</time>
      </trkpt>
      <trkpt lat="48.2434" lon="3.31532">
        <ele>82</ele>
        <time>2012-04-15T10:26:34.000Z</time>
      </trkpt>
      <trkpt lat="48.24337" lon="3.31523">
        <ele>82</ele>
        <time>2012-04-15T10:26:36.000Z</time>
      </trkpt>
      <trkpt lat="48.2433" lon="3.31514">
        <ele>81</ele>
        <time>2012-04-15T10:26:38.000Z</time>
      </trkpt>
      <trkpt lat="48.24327" lon="3.31508">
        <ele>82</ele>
        <time>2012-04-15T10:26:39.000Z</time>
      </trkpt>
      <trkpt lat="48.24321" lon="3.31497">
        <ele>82</ele>
        <time>2012-04-15T10:26:41.000Z</time>
      </trkpt>
      <trkpt lat="48.24318" lon="3.31491">
        <ele>82</ele>
        <time>2012-04-15T10:26:42.000Z</time>
      </trkpt>
      <trkpt lat="48.24314" lon="3.31484">
        <ele>82</ele>
        <time>2012-04-15T10:26:43.000Z</time>
      </trkpt>
      <trkpt lat="48.24309" lon="3.31474">
        <ele>82</ele>
        <time>2012-04-15T10:26:45.000Z</time>
      </trkpt>
      <trkpt lat="48.24306" lon="3.31467">
        <ele>81</ele>
        <time>2012-04-15T10:26:46.000Z</time>
      </trkpt>
      <trkpt lat="48.24304" lon="3.31459">
        <ele>81</ele>
        <time>2012-04-15T10:26:47.000Z</time>
      </trkpt>
      <trkpt lat="48.24303" lon="3.3145">
        <ele>82</ele>
        <time>2012-04-15T10:26:48.000Z</time>
      </trkpt>
      <trkpt lat="48.243" lon="3.31444">
        <ele>82</ele>
        <time>2012-04-15T10:26:49.000Z</time>
      </trkpt>
      <trkpt lat="48.24298" lon="3.31435">
        <ele>82</ele>
        <time>2012-04-15T10:26:50.000Z</time>
      </trkpt>
      <trkpt lat="48.24296" lon="3.31427">
        <ele>82</ele>
        <time>2012-04-15T10:26:51.000Z</time>
      </trkpt>
      <trkpt lat="48.24293" lon="3.31412">
        <ele>82</ele>
        <time>2012-04-15T10:26:53.000Z</time>
      </trkpt>
      <trkpt lat="48.2429" lon="3.31396">
        <ele>81</ele>
        <time>2012-04-15T10:26:55.000Z</time>
      </trkpt>
      <trkpt lat="48.24289" lon="3.31388">
        <ele>81</ele>
        <time>2012-04-15T10:26:56.000Z</time>
      </trkpt>
      <trkpt lat="48.24288" lon="3.31375">
        <ele>81</ele>
        <time>2012-04-15T10:26:58.000Z</time>
      </trkpt>
      <trkpt lat="48.24286" lon="3.31366">
        <ele>81</ele>
        <time>2012-04-15T10:26:59.000Z</time>
      </trkpt>
      <trkpt lat="48.24286" lon="3.31354">
        <ele>81</ele>
        <time>2012-04-15T10:27:01.000Z</time>
      </trkpt>
      <trkpt lat="48.24286" lon="3.31345">
        <ele>81</ele>
        <time>2012-04-15T10:27:02.000Z</time>
      </trkpt>
      <trkpt lat="48.24286" lon="3.3133">
        <ele>81</ele>
        <time>2012-04-15T10:27:04.000Z</time>
      </trkpt>
      <trkpt lat="48.24286" lon="3.31315">
        <ele>81</ele>
        <time>2012-04-15T10:27:06.000Z</time>
      </trkpt>
      <trkpt lat="48.24286" lon="3.313">
        <ele>81</ele>
        <time>2012-04-15T10:27:08.000Z</time>
      </trkpt>
      <trkpt lat="48.24288" lon="3.31285">
        <ele>81</ele>
        <time>2012-04-15T10:27:10.000Z</time>
      </trkpt>
      <trkpt lat="48.24288" lon="3.31276">
        <ele>81</ele>
        <time>2012-04-15T10:27:11.000Z</time>
      </trkpt>
      <trkpt lat="48.24286" lon="3.31264">
        <ele>81</ele>
        <time>2012-04-15T10:27:13.000Z</time>
      </trkpt>
      <trkpt lat="48.24286" lon="3.31255">
        <ele>81</ele>
        <time>2012-04-15T10:27:14.000Z</time>
      </trkpt>
      <trkpt lat="48.24286" lon="3.31242">
        <ele>81</ele>
        <time>2012-04-15T10:27:16.000Z</time>
      </trkpt>
      <trkpt lat="48.24286" lon="3.31227">
        <ele>81</ele>
        <time>2012-04-15T10:27:18.000Z</time>
      </trkpt>
      <trkpt lat="48.24284" lon="3.31214">
        <ele>81</ele>
        <time>2012-04-15T10:27:20.000Z</time>
      </trkpt>
      <trkpt lat="48.24284" lon="3.31199">
        <ele>81</ele>
        <time>2012-04-15T10:27:22.000Z</time>
      </trkpt>
      <trkpt lat="48.24283" lon="3.31186">
        <ele>81</ele>
        <time>2012-04-15T10:27:24.000Z</time>
      </trkpt>
      <trkpt lat="48.24281" lon="3.31173">
        <ele>81</ele>
        <time>2012-04-15T10:27:26.000Z</time>
      </trkpt>
      <trkpt lat="48.24279" lon="3.3116">
        <ele>80</ele>
        <time>2012-04-15T10:27:28.000Z</time>
      </trkpt>
      <trkpt lat="48.24277" lon="3.31148">
        <ele>80</ele>
        <time>2012-04-15T10:27:30.000Z</time>
      </trkpt>
      <trkpt lat="48.24274" lon="3.31135">
        <ele>80</ele>
        <time>2012-04-15T10:27:32.000Z</time>
      </trkpt>
      <trkpt lat="48.24272" lon="3.31128">
        <ele>80</ele>
        <time>2012-04-15T10:27:33.000Z</time>
      </trkpt>
      <trkpt lat="48.24269" lon="3.31122">
        <ele>80</ele>
        <time>2012-04-15T10:27:34.000Z</time>
      </trkpt>
      <trkpt lat="48.24267" lon="3.31115">
        <ele>80</ele>
        <time>2012-04-15T10:27:35.000Z</time>
      </trkpt>
      <trkpt lat="48.24265" lon="3.31109">
        <ele>80</ele>
        <time>2012-04-15T10:27:36.000Z</time>
      </trkpt>
      <trkpt lat="48.24263" lon="3.31103">
        <ele>80</ele>
        <time>2012-04-15T10:27:37.000Z</time>
      </trkpt>
      <trkpt lat="48.24261" lon="3.31096">
        <ele>79</ele>
        <time>2012-04-15T10:27:38.000Z</time>
      </trkpt>
      <trkpt lat="48.24259" lon="3.3109">
        <ele>79</ele>
        <time>2012-04-15T10:27:39.000Z</time>
      </trkpt>
      <trkpt lat="48.24254" lon="3.31079">
        <ele>78</ele>
        <time>2012-04-15T10:27:41.000Z</time>
      </trkpt>
      <trkpt lat="48.24252" lon="3.31072">
        <ele>78</ele>
        <time>2012-04-15T10:27:42.000Z</time>
      </trkpt>
      <trkpt lat="48.2425" lon="3.31066">
        <ele>78</ele>
        <time>2012-04-15T10:27:43.000Z</time>
      </trkpt>
      <trkpt lat="48.24246" lon="3.31055">
        <ele>78</ele>
        <time>2012-04-15T10:27:45.000Z</time>
      </trkpt>
      <trkpt lat="48.2424" lon="3.31047">
        <ele>78</ele>
        <time>2012-04-15T10:27:47.000Z</time>
      </trkpt>
      <trkpt lat="48.24238" lon="3.3104">
        <ele>78</ele>
        <time>2012-04-15T10:27:48.000Z</time>
      </trkpt>
      <trkpt lat="48.24234" lon="3.3103">
        <ele>78</ele>
        <time>2012-04-15T10:27:50.000Z</time>
      </trkpt>
      <trkpt lat="48.2423" lon="3.31019">
        <ele>78</ele>
        <time>2012-04-15T10:27:52.000Z</time>
      </trkpt>
      <trkpt lat="48.24225" lon="3.31008">
        <ele>78</ele>
        <time>2012-04-15T10:27:54.000Z</time>
      </trkpt>
      <trkpt lat="48.24222" lon="3.30997">
        <ele>78</ele>
        <time>2012-04-15T10:27:56.000Z</time>
      </trkpt>
      <trkpt lat="48.2422" lon="3.30984">
        <ele>79</ele>
        <time>2012-04-15T10:27:58.000Z</time>
      </trkpt>
      <trkpt lat="48.24218" lon="3.30974">
        <ele>79</ele>
        <time>2012-04-15T10:28:00.000Z</time>
      </trkpt>
      <trkpt lat="48.24216" lon="3.30963">
        <ele>79</ele>
        <time>2012-04-15T10:28:02.000Z</time>
      </trkpt>
      <trkpt lat="48.24214" lon="3.30952">
        <ele>79</ele>
        <time>2012-04-15T10:28:04.000Z</time>
      </trkpt>
      <trkpt lat="48.24211" lon="3.30942">
        <ele>79</ele>
        <time>2012-04-15T10:28:06.000Z</time>
      </trkpt>
      <trkpt lat="48.24208" lon="3.30931">
        <ele>79</ele>
        <time>2012-04-15T10:28:08.000Z</time>
      </trkpt>
      <trkpt lat="48.24207" lon="3.3092">
        <ele>79</ele>
        <time>2012-04-15T10:28:10.000Z</time>
      </trkpt>
      <trkpt lat="48.24204" lon="3.30912">
        <ele>80</ele>
        <time>2012-04-15T10:28:12.000Z</time>
      </trkpt>
      <trkpt lat="48.24202" lon="3.30903">
        <ele>80</ele>
        <time>2012-04-15T10:28:14.000Z</time>
      </trkpt>
      <trkpt lat="48.242" lon="3.30897">
        <ele>80</ele>
        <time>2012-04-15T10:28:15.000Z</time>
      </trkpt>
      <trkpt lat="48.24196" lon="3.30886">
        <ele>80</ele>
        <time>2012-04-15T10:28:17.000Z</time>
      </trkpt>
      <trkpt lat="48.24192" lon="3.30875">
        <ele>80</ele>
        <time>2012-04-15T10:28:19.000Z</time>
      </trkpt>
      <trkpt lat="48.24189" lon="3.30864">
        <ele>80</ele>
        <time>2012-04-15T10:28:21.000Z</time>
      </trkpt>
      <trkpt lat="48.24187" lon="3.30858">
        <ele>80</ele>
        <time>2012-04-15T10:28:22.000Z</time>
      </trkpt>
      <trkpt lat="48.24182" lon="3.30847">
        <ele>80</ele>
        <time>2012-04-15T10:28:24.000Z</time>
      </trkpt>
      <trkpt lat="48.24178" lon="3.30836">
        <ele>80</ele>
        <time>2012-04-15T10:28:26.000Z</time>
      </trkpt>
      <trkpt lat="48.24173" lon="3.30826">
        <ele>80</ele>
        <time>2012-04-15T10:28:28.000Z</time>
      </trkpt>
      <trkpt lat="48.24167" lon="3.30817">
        <ele>80</ele>
        <time>2012-04-15T10:28:30.000Z</time>
      </trkpt>
      <trkpt lat="48.24164" lon="3.30811">
        <ele>80</ele>
        <time>2012-04-15T10:28:31.000Z</time>
      </trkpt>
      <trkpt lat="48.24158" lon="3.30802">
        <ele>80</ele>
        <time>2012-04-15T10:28:33.000Z</time>
      </trkpt>
      <trkpt lat="48.24152" lon="3.30794">
        <ele>80</ele>
        <time>2012-04-15T10:28:35.000Z</time>
      </trkpt>
      <trkpt lat="48.24146" lon="3.30785">
        <ele>80</ele>
        <time>2012-04-15T10:28:37.000Z</time>
      </trkpt>
      <trkpt lat="48.24143" lon="3.30778">
        <ele>80</ele>
        <time>2012-04-15T10:28:38.000Z</time>
      </trkpt>
      <trkpt lat="48.24137" lon="3.3077">
        <ele>80</ele>
        <time>2012-04-15T10:28:40.000Z</time>
      </trkpt>
      <trkpt lat="48.24134" lon="3.30764">
        <ele>80</ele>
        <time>2012-04-15T10:28:41.000Z</time>
      </trkpt>
      <trkpt lat="48.24131" lon="3.30751">
        <ele>81</ele>
        <time>2012-04-15T10:28:43.000Z</time>
      </trkpt>
      <trkpt lat="48.24129" lon="3.3074">
        <ele>81</ele>
        <time>2012-04-15T10:28:45.000Z</time>
      </trkpt>
      <trkpt lat="48.24128" lon="3.30727">
        <ele>81</ele>
        <time>2012-04-15T10:28:47.000Z</time>
      </trkpt>
      <trkpt lat="48.24128" lon="3.30716">
        <ele>81</ele>
        <time>2012-04-15T10:28:49.000Z</time>
      </trkpt>
      <trkpt lat="48.24127" lon="3.30708">
        <ele>81</ele>
        <time>2012-04-15T10:28:51.000Z</time>
      </trkpt>
      <trkpt lat="48.24121" lon="3.30706">
        <ele>81</ele>
        <time>2012-04-15T10:28:53.000Z</time>
      </trkpt>
      <trkpt lat="48.24115" lon="3.30703">
        <ele>81</ele>
        <time>2012-04-15T10:28:55.000Z</time>
      </trkpt>
      <trkpt lat="48.24107" lon="3.30701">
        <ele>81</ele>
        <time>2012-04-15T10:28:57.000Z</time>
      </trkpt>
      <trkpt lat="48.24101" lon="3.30699">
        <ele>81</ele>
        <time>2012-04-15T10:28:59.000Z</time>
      </trkpt>
      <trkpt lat="48.24094" lon="3.30697">
        <ele>81</ele>
        <time>2012-04-15T10:29:01.000Z</time>
      </trkpt>
      <trkpt lat="48.24089" lon="3.30695">
        <ele>81</ele>
        <time>2012-04-15T10:29:03.000Z</time>
      </trkpt>
      <trkpt lat="48.24083" lon="3.30693">
        <ele>81</ele>
        <time>2012-04-15T10:29:05.000Z</time>
      </trkpt>
      <trkpt lat="48.24076" lon="3.30691">
        <ele>81</ele>
        <time>2012-04-15T10:29:07.000Z</time>
      </trkpt>
      <trkpt lat="48.2407" lon="3.30691">
        <ele>81</ele>
        <time>2012-04-15T10:29:09.000Z</time>
      </trkpt>
      <trkpt lat="48.24063" lon="3.30691">
        <ele>81</ele>
        <time>2012-04-15T10:29:11.000Z</time>
      </trkpt>
      <trkpt lat="48.24057" lon="3.30691">
        <ele>81</ele>
        <time>2012-04-15T10:29:13.000Z</time>
      </trkpt>
      <trkpt lat="48.24049" lon="3.30691">
        <ele>81</ele>
        <time>2012-04-15T10:29:15.000Z</time>
      </trkpt>
      <trkpt lat="48.24042" lon="3.30691">
        <ele>81</ele>
        <time>2012-04-15T10:29:17.000Z</time>
      </trkpt>
      <trkpt lat="48.24036" lon="3.30688">
        <ele>81</ele>
        <time>2012-04-15T10:29:19.000Z</time>
      </trkpt>
      <trkpt lat="48.24028" lon="3.30688">
        <ele>82</ele>
        <time>2012-04-15T10:29:21.000Z</time>
      </trkpt>
      <trkpt lat="48.24022" lon="3.30691">
        <ele>82</ele>
        <time>2012-04-15T10:29:23.000Z</time>
      </trkpt>
      <trkpt lat="48.24014" lon="3.30691">
        <ele>82</ele>
        <time>2012-04-15T10:29:25.000Z</time>
      </trkpt>
      <trkpt lat="48.24006" lon="3.30691">
        <ele>82</ele>
        <time>2012-04-15T10:29:27.000Z</time>
      </trkpt>
      <trkpt lat="48.23999" lon="3.30691">
        <ele>83</ele>
        <time>2012-04-15T10:29:29.000Z</time>
      </trkpt>
      <trkpt lat="48.2399" lon="3.30691">
        <ele>83</ele>
        <time>2012-04-15T10:29:31.000Z</time>
      </trkpt>
      <trkpt lat="48.23985" lon="3.30691">
        <ele>83</ele>
        <time>2012-04-15T10:29:32.000Z</time>
      </trkpt>
      <trkpt lat="48.23974" lon="3.30693">
        <ele>83</ele>
        <time>2012-04-15T10:29:34.000Z</time>
      </trkpt>
      <trkpt lat="48.23968" lon="3.30693">
        <ele>83</ele>
        <time>2012-04-15T10:29:35.000Z</time>
      </trkpt>
      <trkpt lat="48.23961" lon="3.30693">
        <ele>83</ele>
        <time>2012-04-15T10:29:36.000Z</time>
      </trkpt>
      <trkpt lat="48.23955" lon="3.30693">
        <ele>83</ele>
        <time>2012-04-15T10:29:37.000Z</time>
      </trkpt>
      <trkpt lat="48.23948" lon="3.30693">
        <ele>83</ele>
        <time>2012-04-15T10:29:38.000Z</time>
      </trkpt>
      <trkpt lat="48.23939" lon="3.30695">
        <ele>83</ele>
        <time>2012-04-15T10:29:39.000Z</time>
      </trkpt>
      <trkpt lat="48.23931" lon="3.30695">
        <ele>83</ele>
        <time>2012-04-15T10:29:40.000Z</time>
      </trkpt>
      <trkpt lat="48.23924" lon="3.30695">
        <ele>84</ele>
        <time>2012-04-15T10:29:41.000Z</time>
      </trkpt>
      <trkpt lat="48.23915" lon="3.30695">
        <ele>85</ele>
        <time>2012-04-15T10:29:42.000Z</time>
      </trkpt>
      <trkpt lat="48.23907" lon="3.30695">
        <ele>85</ele>
        <time>2012-04-15T10:29:43.000Z</time>
      </trkpt>
      <trkpt lat="48.23898" lon="3.30695">
        <ele>85</ele>
        <time>2012-04-15T10:29:44.000Z</time>
      </trkpt>
      <trkpt lat="48.23891" lon="3.30695">
        <ele>85</ele>
        <time>2012-04-15T10:29:45.000Z</time>
      </trkpt>
      <trkpt lat="48.23883" lon="3.30695">
        <ele>85</ele>
        <time>2012-04-15T10:29:46.000Z</time>
      </trkpt>
      <trkpt lat="48.23874" lon="3.30695">
        <ele>85</ele>
        <time>2012-04-15T10:29:47.000Z</time>
      </trkpt>
      <trkpt lat="48.23867" lon="3.30695">
        <ele>85</ele>
        <time>2012-04-15T10:29:48.000Z</time>
      </trkpt>
      <trkpt lat="48.2386" lon="3.30695">
        <ele>85</ele>
        <time>2012-04-15T10:29:49.000Z</time>
      </trkpt>
      <trkpt lat="48.23853" lon="3.30695">
        <ele>85</ele>
        <time>2012-04-15T10:29:50.000Z</time>
      </trkpt>
      <trkpt lat="48.23847" lon="3.30695">
        <ele>85</ele>
        <time>2012-04-15T10:29:51.000Z</time>
      </trkpt>
      <trkpt lat="48.2384" lon="3.30695">
        <ele>85</ele>
        <time>2012-04-15T10:29:52.000Z</time>
      </trkpt>
      <trkpt lat="48.23834" lon="3.30695">
        <ele>85</ele>
        <time>2012-04-15T10:29:53.000Z</time>
      </trkpt>
      <trkpt lat="48.23828" lon="3.30695">
        <ele>87</ele>
        <time>2012-04-15T10:29:54.000Z</time>
      </trkpt>
      <trkpt lat="48.23822" lon="3.30695">
        <ele>87</ele>
        <time>2012-04-15T10:29:55.000Z</time>
      </trkpt>
      <trkpt lat="48.23817" lon="3.30695">
        <ele>87</ele>
        <time>2012-04-15T10:29:56.000Z</time>
      </trkpt>
      <trkpt lat="48.23811" lon="3.30695">
        <ele>87</ele>
        <time>2012-04-15T10:29:57.000Z</time>
      </trkpt>
      <trkpt lat="48.23806" lon="3.30695">
        <ele>87</ele>
        <time>2012-04-15T10:29:58.000Z</time>
      </trkpt>
      <trkpt lat="48.238" lon="3.30697">
        <ele>87</ele>
        <time>2012-04-15T10:29:59.000Z</time>
      </trkpt>
      <trkpt lat="48.23792" lon="3.30697">
        <ele>87</ele>
        <time>2012-04-15T10:30:01.000Z</time>
      </trkpt>
      <trkpt lat="48.23783" lon="3.30697">
        <ele>87</ele>
        <time>2012-04-15T10:30:03.000Z</time>
      </trkpt>
      <trkpt lat="48.23775" lon="3.30697">
        <ele>87</ele>
        <time>2012-04-15T10:30:05.000Z</time>
      </trkpt>
      <trkpt lat="48.23768" lon="3.30697">
        <ele>88</ele>
        <time>2012-04-15T10:30:07.000Z</time>
      </trkpt>
      <trkpt lat="48.23761" lon="3.30697">
        <ele>88</ele>
        <time>2012-04-15T10:30:09.000Z</time>
      </trkpt>
      <trkpt lat="48.23756" lon="3.30697">
        <ele>88</ele>
        <time>2012-04-15T10:30:11.000Z</time>
      </trkpt>
      <trkpt lat="48.2375" lon="3.30697">
        <ele>88</ele>
        <time>2012-04-15T10:30:13.000Z</time>
      </trkpt>
      <trkpt lat="48.23744" lon="3.30697">
        <ele>88</ele>
        <time>2012-04-15T10:30:15.000Z</time>
      </trkpt>
      <trkpt lat="48.23738" lon="3.30695">
        <ele>88</ele>
        <time>2012-04-15T10:30:17.000Z</time>
      </trkpt>
      <trkpt lat="48.23733" lon="3.30695">
        <ele>88</ele>
        <time>2012-04-15T10:30:19.000Z</time>
      </trkpt>
      <trkpt lat="48.23728" lon="3.30695">
        <ele>88</ele>
        <time>2012-04-15T10:30:21.000Z</time>
      </trkpt>
      <trkpt lat="48.23722" lon="3.30695">
        <ele>88</ele>
        <time>2012-04-15T10:30:23.000Z</time>
      </trkpt>
      <trkpt lat="48.23715" lon="3.30695">
        <ele>88</ele>
        <time>2012-04-15T10:30:26.000Z</time>
      </trkpt>
      <trkpt lat="48.23709" lon="3.30695">
        <ele>88</ele>
        <time>2012-04-15T10:30:28.000Z</time>
      </trkpt>
      <trkpt lat="48.23704" lon="3.30695">
        <ele>88</ele>
        <time>2012-04-15T10:30:30.000Z</time>
      </trkpt>
      <trkpt lat="48.23699" lon="3.30697">
        <ele>88</ele>
        <time>2012-04-15T10:30:32.000Z</time>
      </trkpt>
      <trkpt lat="48.23693" lon="3.30697">
        <ele>88</ele>
        <time>2012-04-15T10:30:34.000Z</time>
      </trkpt>
      <trkpt lat="48.23687" lon="3.30697">
        <ele>88</ele>
        <time>2012-04-15T10:30:37.000Z</time>
      </trkpt>
      <trkpt lat="48.23681" lon="3.30697">
        <ele>88</ele>
        <time>2012-04-15T10:30:39.000Z</time>
      </trkpt>
      <trkpt lat="48.23675" lon="3.30697">
        <ele>88</ele>
        <time>2012-04-15T10:30:41.000Z</time>
      </trkpt>
      <trkpt lat="48.23668" lon="3.30697">
        <ele>88</ele>
        <time>2012-04-15T10:30:43.000Z</time>
      </trkpt>
      <trkpt lat="48.23663" lon="3.30697">
        <ele>87</ele>
        <time>2012-04-15T10:30:45.000Z</time>
      </trkpt>
      <trkpt lat="48.23658" lon="3.30697">
        <ele>87</ele>
        <time>2012-04-15T10:30:47.000Z</time>
      </trkpt>
      <trkpt lat="48.23658" lon="3.30697">
        <ele>87</ele>
        <time>2012-04-15T10:30:47.000Z</time>
      </trkpt>
      <trkpt lat="48.23658" lon="3.30697">
        <ele>87</ele>
        <time>2012-04-15T10:32:58.000Z</time>
      </trkpt>
      <trkpt lat="48.23651" lon="3.30701">
        <ele>87</ele>
        <time>2012-04-15T10:33:01.000Z</time>
      </trkpt>
      <trkpt lat="48.23647" lon="3.30703">
        <ele>87</ele>
        <time>2012-04-15T10:33:03.000Z</time>
      </trkpt>
      <trkpt lat="48.23642" lon="3.30706">
        <ele>87</ele>
        <time>2012-04-15T10:33:05.000Z</time>
      </trkpt>
      <trkpt lat="48.23636" lon="3.3071">
        <ele>87</ele>
        <time>2012-04-15T10:33:07.000Z</time>
      </trkpt>
      <trkpt lat="48.23632" lon="3.30712">
        <ele>87</ele>
        <time>2012-04-15T10:33:09.000Z</time>
      </trkpt>
      <trkpt lat="48.23627" lon="3.30714">
        <ele>87</ele>
        <time>2012-04-15T10:33:11.000Z</time>
      </trkpt>
      <trkpt lat="48.2362" lon="3.30712">
        <ele>87</ele>
        <time>2012-04-15T10:33:15.000Z</time>
      </trkpt>
      <trkpt lat="48.23616" lon="3.30708">
        <ele>87</ele>
        <time>2012-04-15T10:33:17.000Z</time>
      </trkpt>
      <trkpt lat="48.23612" lon="3.30699">
        <ele>87</ele>
        <time>2012-04-15T10:33:19.000Z</time>
      </trkpt>
      <trkpt lat="48.23605" lon="3.30691">
        <ele>87</ele>
        <time>2012-04-15T10:33:21.000Z</time>
      </trkpt>
      <trkpt lat="48.23599" lon="3.3068">
        <ele>86</ele>
        <time>2012-04-15T10:33:23.000Z</time>
      </trkpt>
      <trkpt lat="48.23593" lon="3.30669">
        <ele>86</ele>
        <time>2012-04-15T10:33:25.000Z</time>
      </trkpt>
      <trkpt lat="48.23587" lon="3.30658">
        <ele>86</ele>
        <time>2012-04-15T10:33:27.000Z</time>
      </trkpt>
      <trkpt lat="48.23581" lon="3.30648">
        <ele>86</ele>
        <time>2012-04-15T10:33:29.000Z</time>
      </trkpt>
      <trkpt lat="48.23577" lon="3.30641">
        <ele>86</ele>
        <time>2012-04-15T10:33:30.000Z</time>
      </trkpt>
      <trkpt lat="48.2357" lon="3.3063">
        <ele>86</ele>
        <time>2012-04-15T10:33:32.000Z</time>
      </trkpt>
      <trkpt lat="48.23567" lon="3.30624">
        <ele>86</ele>
        <time>2012-04-15T10:33:33.000Z</time>
      </trkpt>
      <trkpt lat="48.23562" lon="3.30618">
        <ele>86</ele>
        <time>2012-04-15T10:33:34.000Z</time>
      </trkpt>
      <trkpt lat="48.23555" lon="3.30605">
        <ele>86</ele>
        <time>2012-04-15T10:33:36.000Z</time>
      </trkpt>
      <trkpt lat="48.23547" lon="3.30594">
        <ele>86</ele>
        <time>2012-04-15T10:33:38.000Z</time>
      </trkpt>
      <trkpt lat="48.23544" lon="3.30588">
        <ele>86</ele>
        <time>2012-04-15T10:33:39.000Z</time>
      </trkpt>
      <trkpt lat="48.23541" lon="3.30581">
        <ele>86</ele>
        <time>2012-04-15T10:33:40.000Z</time>
      </trkpt>
      <trkpt lat="48.23537" lon="3.30575">
        <ele>86</ele>
        <time>2012-04-15T10:33:41.000Z</time>
      </trkpt>
      <trkpt lat="48.23529" lon="3.30564">
        <ele>86</ele>
        <time>2012-04-15T10:33:43.000Z</time>
      </trkpt>
      <trkpt lat="48.23526" lon="3.30558">
        <ele>86</ele>
        <time>2012-04-15T10:33:44.000Z</time>
      </trkpt>
      <trkpt lat="48.23518" lon="3.30547">
        <ele>86</ele>
        <time>2012-04-15T10:33:46.000Z</time>
      </trkpt>
      <trkpt lat="48.23512" lon="3.30536">
        <ele>86</ele>
        <time>2012-04-15T10:33:48.000Z</time>
      </trkpt>
      <trkpt lat="48.23508" lon="3.3053">
        <ele>86</ele>
        <time>2012-04-15T10:33:49.000Z</time>
      </trkpt>
      <trkpt lat="48.23504" lon="3.30523">
        <ele>86</ele>
        <time>2012-04-15T10:33:50.000Z</time>
      </trkpt>
      <trkpt lat="48.23501" lon="3.30517">
        <ele>86</ele>
        <time>2012-04-15T10:33:51.000Z</time>
      </trkpt>
      <trkpt lat="48.23497" lon="3.30512">
        <ele>85</ele>
        <time>2012-04-15T10:33:52.000Z</time>
      </trkpt>
      <trkpt lat="48.23494" lon="3.30506">
        <ele>85</ele>
        <time>2012-04-15T10:33:53.000Z</time>
      </trkpt>
      <trkpt lat="48.2349" lon="3.305">
        <ele>85</ele>
        <time>2012-04-15T10:33:54.000Z</time>
      </trkpt>
      <trkpt lat="48.23486" lon="3.30493">
        <ele>84</ele>
        <time>2012-04-15T10:33:55.000Z</time>
      </trkpt>
      <trkpt lat="48.23482" lon="3.30487">
        <ele>84</ele>
        <time>2012-04-15T10:33:56.000Z</time>
      </trkpt>
      <trkpt lat="48.23479" lon="3.3048">
        <ele>84</ele>
        <time>2012-04-15T10:33:57.000Z</time>
      </trkpt>
      <trkpt lat="48.23474" lon="3.30474">
        <ele>84</ele>
        <time>2012-04-15T10:33:58.000Z</time>
      </trkpt>
      <trkpt lat="48.2347" lon="3.30467">
        <ele>83</ele>
        <time>2012-04-15T10:33:59.000Z</time>
      </trkpt>
      <trkpt lat="48.23466" lon="3.30461">
        <ele>83</ele>
        <time>2012-04-15T10:34:00.000Z</time>
      </trkpt>
      <trkpt lat="48.23462" lon="3.30452">
        <ele>83</ele>
        <time>2012-04-15T10:34:01.000Z</time>
      </trkpt>
      <trkpt lat="48.23457" lon="3.30446">
        <ele>83</ele>
        <time>2012-04-15T10:34:02.000Z</time>
      </trkpt>
      <trkpt lat="48.23453" lon="3.3044">
        <ele>83</ele>
        <time>2012-04-15T10:34:03.000Z</time>
      </trkpt>
      <trkpt lat="48.23449" lon="3.30433">
        <ele>83</ele>
        <time>2012-04-15T10:34:04.000Z</time>
      </trkpt>
      <trkpt lat="48.23444" lon="3.30424">
        <ele>83</ele>
        <time>2012-04-15T10:34:05.000Z</time>
      </trkpt>
      <trkpt lat="48.23438" lon="3.30422">
        <ele>83</ele>
        <time>2012-04-15T10:34:06.000Z</time>
      </trkpt>
      <trkpt lat="48.23431" lon="3.3042">
        <ele>83</ele>
        <time>2012-04-15T10:34:07.000Z</time>
      </trkpt>
      <trkpt lat="48.23425" lon="3.30422">
        <ele>83</ele>
        <time>2012-04-15T10:34:08.000Z</time>
      </trkpt>
      <trkpt lat="48.23419" lon="3.30424">
        <ele>83</ele>
        <time>2012-04-15T10:34:09.000Z</time>
      </trkpt>
      <trkpt lat="48.23412" lon="3.30427">
        <ele>83</ele>
        <time>2012-04-15T10:34:10.000Z</time>
      </trkpt>
      <trkpt lat="48.23406" lon="3.30431">
        <ele>83</ele>
        <time>2012-04-15T10:34:11.000Z</time>
      </trkpt>
      <trkpt lat="48.234" lon="3.30435">
        <ele>83</ele>
        <time>2012-04-15T10:34:12.000Z</time>
      </trkpt>
      <trkpt lat="48.23394" lon="3.30437">
        <ele>83</ele>
        <time>2012-04-15T10:34:13.000Z</time>
      </trkpt>
      <trkpt lat="48.23388" lon="3.30442">
        <ele>83</ele>
        <time>2012-04-15T10:34:14.000Z</time>
      </trkpt>
      <trkpt lat="48.23383" lon="3.30446">
        <ele>83</ele>
        <time>2012-04-15T10:34:15.000Z</time>
      </trkpt>
      <trkpt lat="48.23379" lon="3.3045">
        <ele>83</ele>
        <time>2012-04-15T10:34:16.000Z</time>
      </trkpt>
      <trkpt lat="48.23375" lon="3.30454">
        <ele>83</ele>
        <time>2012-04-15T10:34:17.000Z</time>
      </trkpt>
      <trkpt lat="48.23368" lon="3.30461">
        <ele>83</ele>
        <time>2012-04-15T10:34:19.000Z</time>
      </trkpt>
      <trkpt lat="48.23361" lon="3.3047">
        <ele>83</ele>
        <time>2012-04-15T10:34:21.000Z</time>
      </trkpt>
      <trkpt lat="48.23353" lon="3.30476">
        <ele>83</ele>
        <time>2012-04-15T10:34:23.000Z</time>
      </trkpt>
      <trkpt lat="48.23349" lon="3.3048">
        <ele>83</ele>
        <time>2012-04-15T10:34:24.000Z</time>
      </trkpt>
      <trkpt lat="48.23344" lon="3.30485">
        <ele>83</ele>
        <time>2012-04-15T10:34:25.000Z</time>
      </trkpt>
      <trkpt lat="48.23336" lon="3.30491">
        <ele>84</ele>
        <time>2012-04-15T10:34:27.000Z</time>
      </trkpt>
      <trkpt lat="48.23331" lon="3.30495">
        <ele>84</ele>
        <time>2012-04-15T10:34:28.000Z</time>
      </trkpt>
      <trkpt lat="48.23325" lon="3.305">
        <ele>84</ele>
        <time>2012-04-15T10:34:29.000Z</time>
      </trkpt>
      <trkpt lat="48.2332" lon="3.30506">
        <ele>85</ele>
        <time>2012-04-15T10:34:30.000Z</time>
      </trkpt>
      <trkpt lat="48.23316" lon="3.3051">
        <ele>85</ele>
        <time>2012-04-15T10:34:31.000Z</time>
      </trkpt>
      <trkpt lat="48.2331" lon="3.30515">
        <ele>85</ele>
        <time>2012-04-15T10:34:32.000Z</time>
      </trkpt>
      <trkpt lat="48.23305" lon="3.30519">
        <ele>85</ele>
        <time>2012-04-15T10:34:33.000Z</time>
      </trkpt>
      <trkpt lat="48.23301" lon="3.30523">
        <ele>85</ele>
        <time>2012-04-15T10:34:34.000Z</time>
      </trkpt>
      <trkpt lat="48.23295" lon="3.30528">
        <ele>85</ele>
        <time>2012-04-15T10:34:35.000Z</time>
      </trkpt>
      <trkpt lat="48.23291" lon="3.30532">
        <ele>85</ele>
        <time>2012-04-15T10:34:36.000Z</time>
      </trkpt>
      <trkpt lat="48.23287" lon="3.30536">
        <ele>85</ele>
        <time>2012-04-15T10:34:37.000Z</time>
      </trkpt>
      <trkpt lat="48.23281" lon="3.30542">
        <ele>85</ele>
        <time>2012-04-15T10:34:38.000Z</time>
      </trkpt>
      <trkpt lat="48.23277" lon="3.30547">
        <ele>85</ele>
        <time>2012-04-15T10:34:39.000Z</time>
      </trkpt>
      <trkpt lat="48.23272" lon="3.30551">
        <ele>86</ele>
        <time>2012-04-15T10:34:40.000Z</time>
      </trkpt>
      <trkpt lat="48.23267" lon="3.30555">
        <ele>86</ele>
        <time>2012-04-15T10:34:41.000Z</time>
      </trkpt>
      <trkpt lat="48.23262" lon="3.30562">
        <ele>86</ele>
        <time>2012-04-15T10:34:42.000Z</time>
      </trkpt>
      <trkpt lat="48.23258" lon="3.30566">
        <ele>86</ele>
        <time>2012-04-15T10:34:43.000Z</time>
      </trkpt>
      <trkpt lat="48.23252" lon="3.3057">
        <ele>86</ele>
        <time>2012-04-15T10:34:44.000Z</time>
      </trkpt>
      <trkpt lat="48.23247" lon="3.30575">
        <ele>87</ele>
        <time>2012-04-15T10:34:45.000Z</time>
      </trkpt>
      <trkpt lat="48.23243" lon="3.30579">
        <ele>87</ele>
        <time>2012-04-15T10:34:46.000Z</time>
      </trkpt>
      <trkpt lat="48.23238" lon="3.30583">
        <ele>87</ele>
        <time>2012-04-15T10:34:47.000Z</time>
      </trkpt>
      <trkpt lat="48.23234" lon="3.30588">
        <ele>87</ele>
        <time>2012-04-15T10:34:48.000Z</time>
      </trkpt>
      <trkpt lat="48.2323" lon="3.30592">
        <ele>87</ele>
        <time>2012-04-15T10:34:49.000Z</time>
      </trkpt>
      <trkpt lat="48.23225" lon="3.30596">
        <ele>87</ele>
        <time>2012-04-15T10:34:50.000Z</time>
      </trkpt>
      <trkpt lat="48.23221" lon="3.306">
        <ele>86</ele>
        <time>2012-04-15T10:34:51.000Z</time>
      </trkpt>
      <trkpt lat="48.23217" lon="3.30605">
        <ele>86</ele>
        <time>2012-04-15T10:34:52.000Z</time>
      </trkpt>
      <trkpt lat="48.23209" lon="3.30613">
        <ele>86</ele>
        <time>2012-04-15T10:34:54.000Z</time>
      </trkpt>
      <trkpt lat="48.23205" lon="3.30616">
        <ele>86</ele>
        <time>2012-04-15T10:34:55.000Z</time>
      </trkpt>
      <trkpt lat="48.23201" lon="3.3062">
        <ele>86</ele>
        <time>2012-04-15T10:34:56.000Z</time>
      </trkpt>
      <trkpt lat="48.23193" lon="3.30628">
        <ele>86</ele>
        <time>2012-04-15T10:34:58.000Z</time>
      </trkpt>
      <trkpt lat="48.23189" lon="3.30633">
        <ele>86</ele>
        <time>2012-04-15T10:34:59.000Z</time>
      </trkpt>
      <trkpt lat="48.23182" lon="3.30641">
        <ele>86</ele>
        <time>2012-04-15T10:35:01.000Z</time>
      </trkpt>
      <trkpt lat="48.23177" lon="3.30646">
        <ele>86</ele>
        <time>2012-04-15T10:35:02.000Z</time>
      </trkpt>
      <trkpt lat="48.2317" lon="3.30654">
        <ele>86</ele>
        <time>2012-04-15T10:35:04.000Z</time>
      </trkpt>
      <trkpt lat="48.23162" lon="3.30663">
        <ele>86</ele>
        <time>2012-04-15T10:35:06.000Z</time>
      </trkpt>
      <trkpt lat="48.23158" lon="3.30667">
        <ele>86</ele>
        <time>2012-04-15T10:35:07.000Z</time>
      </trkpt>
      <trkpt lat="48.2315" lon="3.30676">
        <ele>86</ele>
        <time>2012-04-15T10:35:09.000Z</time>
      </trkpt>
      <trkpt lat="48.23146" lon="3.3068">
        <ele>86</ele>
        <time>2012-04-15T10:35:10.000Z</time>
      </trkpt>
      <trkpt lat="48.23138" lon="3.30688">
        <ele>86</ele>
        <time>2012-04-15T10:35:12.000Z</time>
      </trkpt>
      <trkpt lat="48.23131" lon="3.30697">
        <ele>86</ele>
        <time>2012-04-15T10:35:14.000Z</time>
      </trkpt>
      <trkpt lat="48.23124" lon="3.30706">
        <ele>87</ele>
        <time>2012-04-15T10:35:16.000Z</time>
      </trkpt>
      <trkpt lat="48.23119" lon="3.3071">
        <ele>87</ele>
        <time>2012-04-15T10:35:17.000Z</time>
      </trkpt>
      <trkpt lat="48.23112" lon="3.30718">
        <ele>87</ele>
        <time>2012-04-15T10:35:19.000Z</time>
      </trkpt>
      <trkpt lat="48.23104" lon="3.30725">
        <ele>87</ele>
        <time>2012-04-15T10:35:21.000Z</time>
      </trkpt>
      <trkpt lat="48.23097" lon="3.30734">
        <ele>87</ele>
        <time>2012-04-15T10:35:23.000Z</time>
      </trkpt>
      <trkpt lat="48.23089" lon="3.30742">
        <ele>87</ele>
        <time>2012-04-15T10:35:25.000Z</time>
      </trkpt>
      <trkpt lat="48.23082" lon="3.30751">
        <ele>87</ele>
        <time>2012-04-15T10:35:27.000Z</time>
      </trkpt>
      <trkpt lat="48.23074" lon="3.30757">
        <ele>87</ele>
        <time>2012-04-15T10:35:29.000Z</time>
      </trkpt>
      <trkpt lat="48.23067" lon="3.30766">
        <ele>88</ele>
        <time>2012-04-15T10:35:31.000Z</time>
      </trkpt>
      <trkpt lat="48.23059" lon="3.30774">
        <ele>88</ele>
        <time>2012-04-15T10:35:33.000Z</time>
      </trkpt>
      <trkpt lat="48.23052" lon="3.30783">
        <ele>88</ele>
        <time>2012-04-15T10:35:35.000Z</time>
      </trkpt>
      <trkpt lat="48.23047" lon="3.30787">
        <ele>88</ele>
        <time>2012-04-15T10:35:36.000Z</time>
      </trkpt>
      <trkpt lat="48.23043" lon="3.30791">
        <ele>88</ele>
        <time>2012-04-15T10:35:37.000Z</time>
      </trkpt>
      <trkpt lat="48.23036" lon="3.308">
        <ele>88</ele>
        <time>2012-04-15T10:35:39.000Z</time>
      </trkpt>
      <trkpt lat="48.23031" lon="3.30804">
        <ele>88</ele>
        <time>2012-04-15T10:35:40.000Z</time>
      </trkpt>
      <trkpt lat="48.23027" lon="3.30809">
        <ele>88</ele>
        <time>2012-04-15T10:35:41.000Z</time>
      </trkpt>
      <trkpt lat="48.2302" lon="3.30819">
        <ele>88</ele>
        <time>2012-04-15T10:35:43.000Z</time>
      </trkpt>
      <trkpt lat="48.23015" lon="3.30824">
        <ele>89</ele>
        <time>2012-04-15T10:35:44.000Z</time>
      </trkpt>
      <trkpt lat="48.23008" lon="3.30832">
        <ele>89</ele>
        <time>2012-04-15T10:35:46.000Z</time>
      </trkpt>
      <trkpt lat="48.23004" lon="3.30839">
        <ele>89</ele>
        <time>2012-04-15T10:35:47.000Z</time>
      </trkpt>
      <trkpt lat="48.23" lon="3.30843">
        <ele>89</ele>
        <time>2012-04-15T10:35:48.000Z</time>
      </trkpt>
      <trkpt lat="48.22993" lon="3.30852">
        <ele>89</ele>
        <time>2012-04-15T10:35:50.000Z</time>
      </trkpt>
      <trkpt lat="48.22988" lon="3.30858">
        <ele>89</ele>
        <time>2012-04-15T10:35:51.000Z</time>
      </trkpt>
      <trkpt lat="48.22981" lon="3.30866">
        <ele>89</ele>
        <time>2012-04-15T10:35:53.000Z</time>
      </trkpt>
      <trkpt lat="48.22978" lon="3.30873">
        <ele>89</ele>
        <time>2012-04-15T10:35:54.000Z</time>
      </trkpt>
      <trkpt lat="48.22973" lon="3.30877">
        <ele>89</ele>
        <time>2012-04-15T10:35:55.000Z</time>
      </trkpt>
      <trkpt lat="48.22966" lon="3.30888">
        <ele>89</ele>
        <time>2012-04-15T10:35:57.000Z</time>
      </trkpt>
      <trkpt lat="48.22962" lon="3.30892">
        <ele>89</ele>
        <time>2012-04-15T10:35:58.000Z</time>
      </trkpt>
      <trkpt lat="48.22954" lon="3.30903">
        <ele>89</ele>
        <time>2012-04-15T10:36:00.000Z</time>
      </trkpt>
      <trkpt lat="48.2295" lon="3.30907">
        <ele>89</ele>
        <time>2012-04-15T10:36:01.000Z</time>
      </trkpt>
      <trkpt lat="48.22945" lon="3.30912">
        <ele>89</ele>
        <time>2012-04-15T10:36:02.000Z</time>
      </trkpt>
      <trkpt lat="48.22941" lon="3.30918">
        <ele>90</ele>
        <time>2012-04-15T10:36:03.000Z</time>
      </trkpt>
      <trkpt lat="48.22937" lon="3.30922">
        <ele>90</ele>
        <time>2012-04-15T10:36:04.000Z</time>
      </trkpt>
      <trkpt lat="48.22933" lon="3.30929">
        <ele>90</ele>
        <time>2012-04-15T10:36:05.000Z</time>
      </trkpt>
      <trkpt lat="48.22927" lon="3.30933">
        <ele>90</ele>
        <time>2012-04-15T10:36:06.000Z</time>
      </trkpt>
      <trkpt lat="48.22923" lon="3.3094">
        <ele>90</ele>
        <time>2012-04-15T10:36:07.000Z</time>
      </trkpt>
      <trkpt lat="48.22918" lon="3.30946">
        <ele>90</ele>
        <time>2012-04-15T10:36:08.000Z</time>
      </trkpt>
      <trkpt lat="48.22913" lon="3.30952">
        <ele>90</ele>
        <time>2012-04-15T10:36:09.000Z</time>
      </trkpt>
      <trkpt lat="48.22908" lon="3.30959">
        <ele>90</ele>
        <time>2012-04-15T10:36:10.000Z</time>
      </trkpt>
      <trkpt lat="48.22904" lon="3.30965">
        <ele>90</ele>
        <time>2012-04-15T10:36:11.000Z</time>
      </trkpt>
      <trkpt lat="48.22899" lon="3.3097">
        <ele>90</ele>
        <time>2012-04-15T10:36:12.000Z</time>
      </trkpt>
      <trkpt lat="48.22894" lon="3.30976">
        <ele>90</ele>
        <time>2012-04-15T10:36:13.000Z</time>
      </trkpt>
      <trkpt lat="48.2289" lon="3.3098">
        <ele>90</ele>
        <time>2012-04-15T10:36:14.000Z</time>
      </trkpt>
      <trkpt lat="48.22884" lon="3.30987">
        <ele>90</ele>
        <time>2012-04-15T10:36:15.000Z</time>
      </trkpt>
      <trkpt lat="48.2288" lon="3.30993">
        <ele>90</ele>
        <time>2012-04-15T10:36:16.000Z</time>
      </trkpt>
      <trkpt lat="48.22875" lon="3.30997">
        <ele>90</ele>
        <time>2012-04-15T10:36:17.000Z</time>
      </trkpt>
      <trkpt lat="48.2287" lon="3.31004">
        <ele>91</ele>
        <time>2012-04-15T10:36:18.000Z</time>
      </trkpt>
      <trkpt lat="48.22866" lon="3.31008">
        <ele>91</ele>
        <time>2012-04-15T10:36:19.000Z</time>
      </trkpt>
      <trkpt lat="48.22862" lon="3.31012">
        <ele>91</ele>
        <time>2012-04-15T10:36:20.000Z</time>
      </trkpt>
      <trkpt lat="48.22854" lon="3.31019">
        <ele>91</ele>
        <time>2012-04-15T10:36:22.000Z</time>
      </trkpt>
      <trkpt lat="48.22847" lon="3.31028">
        <ele>91</ele>
        <time>2012-04-15T10:36:24.000Z</time>
      </trkpt>
      <trkpt lat="48.2284" lon="3.31036">
        <ele>91</ele>
        <time>2012-04-15T10:36:26.000Z</time>
      </trkpt>
      <trkpt lat="48.22834" lon="3.31042">
        <ele>91</ele>
        <time>2012-04-15T10:36:28.000Z</time>
      </trkpt>
      <trkpt lat="48.2283" lon="3.31047">
        <ele>92</ele>
        <time>2012-04-15T10:36:29.000Z</time>
      </trkpt>
      <trkpt lat="48.22824" lon="3.31053">
        <ele>92</ele>
        <time>2012-04-15T10:36:31.000Z</time>
      </trkpt>
      <trkpt lat="48.2282" lon="3.31058">
        <ele>92</ele>
        <time>2012-04-15T10:36:33.000Z</time>
      </trkpt>
      <trkpt lat="48.22816" lon="3.31062">
        <ele>92</ele>
        <time>2012-04-15T10:36:35.000Z</time>
      </trkpt>
      <trkpt lat="48.22816" lon="3.31062">
        <ele>92</ele>
        <time>2012-04-15T10:36:35.000Z</time>
      </trkpt>
      <trkpt lat="48.22816" lon="3.31062">
        <ele>92</ele>
        <time>2012-04-15T10:36:36.000Z</time>
      </trkpt>
      <trkpt lat="48.22806" lon="3.3106">
        <ele>92</ele>
        <time>2012-04-15T10:36:40.000Z</time>
      </trkpt>
      <trkpt lat="48.22806" lon="3.3106">
        <ele>92</ele>
        <time>2012-04-15T10:36:40.000Z</time>
      </trkpt>
      <trkpt lat="48.22806" lon="3.3106">
        <ele>92</ele>
        <time>2012-04-15T10:36:42.000Z</time>
      </trkpt>
      <trkpt lat="48.22801" lon="3.31055">
        <ele>92</ele>
        <time>2012-04-15T10:36:43.000Z</time>
      </trkpt>
      <trkpt lat="48.22801" lon="3.31055">
        <ele>92</ele>
        <time>2012-04-15T10:36:43.000Z</time>
      </trkpt>
      <trkpt lat="48.22801" lon="3.31055">
        <ele>92</ele>
        <time>2012-04-15T10:36:44.000Z</time>
      </trkpt>
      <trkpt lat="48.22795" lon="3.31045">
        <ele>92</ele>
        <time>2012-04-15T10:36:47.000Z</time>
      </trkpt>
      <trkpt lat="48.22795" lon="3.31045">
        <ele>92</ele>
        <time>2012-04-15T10:36:47.000Z</time>
      </trkpt>
      <trkpt lat="48.22795" lon="3.31045">
        <ele>92</ele>
        <time>2012-04-15T10:36:48.000Z</time>
      </trkpt>
      <trkpt lat="48.22793" lon="3.31036">
        <ele>92</ele>
        <time>2012-04-15T10:36:49.000Z</time>
      </trkpt>
      <trkpt lat="48.22793" lon="3.31036">
        <ele>92</ele>
        <time>2012-04-15T10:36:49.000Z</time>
      </trkpt>
      <trkpt lat="48.22793" lon="3.31036">
        <ele>92</ele>
        <time>2012-04-15T10:36:50.000Z</time>
      </trkpt>
      <trkpt lat="48.22791" lon="3.31025">
        <ele>92</ele>
        <time>2012-04-15T10:36:52.000Z</time>
      </trkpt>
      <trkpt lat="48.22789" lon="3.31015">
        <ele>92</ele>
        <time>2012-04-15T10:36:54.000Z</time>
      </trkpt>
      <trkpt lat="48.22788" lon="3.31006">
        <ele>92</ele>
        <time>2012-04-15T10:36:55.000Z</time>
      </trkpt>
      <trkpt lat="48.22786" lon="3.30991">
        <ele>92</ele>
        <time>2012-04-15T10:36:57.000Z</time>
      </trkpt>
      <trkpt lat="48.22784" lon="3.30982">
        <ele>92</ele>
        <time>2012-04-15T10:36:58.000Z</time>
      </trkpt>
      <trkpt lat="48.22784" lon="3.30974">
        <ele>92</ele>
        <time>2012-04-15T10:36:59.000Z</time>
      </trkpt>
      <trkpt lat="48.22784" lon="3.30965">
        <ele>91</ele>
        <time>2012-04-15T10:37:00.000Z</time>
      </trkpt>
      <trkpt lat="48.22783" lon="3.30957">
        <ele>91</ele>
        <time>2012-04-15T10:37:01.000Z</time>
      </trkpt>
      <trkpt lat="48.22783" lon="3.30946">
        <ele>91</ele>
        <time>2012-04-15T10:37:02.000Z</time>
      </trkpt>
      <trkpt lat="48.22783" lon="3.30937">
        <ele>91</ele>
        <time>2012-04-15T10:37:03.000Z</time>
      </trkpt>
      <trkpt lat="48.22782" lon="3.30929">
        <ele>91</ele>
        <time>2012-04-15T10:37:04.000Z</time>
      </trkpt>
      <trkpt lat="48.22781" lon="3.3092">
        <ele>91</ele>
        <time>2012-04-15T10:37:05.000Z</time>
      </trkpt>
      <trkpt lat="48.2278" lon="3.30912">
        <ele>90</ele>
        <time>2012-04-15T10:37:06.000Z</time>
      </trkpt>
      <trkpt lat="48.22779" lon="3.30903">
        <ele>90</ele>
        <time>2012-04-15T10:37:07.000Z</time>
      </trkpt>
      <trkpt lat="48.22778" lon="3.30894">
        <ele>90</ele>
        <time>2012-04-15T10:37:08.000Z</time>
      </trkpt>
      <trkpt lat="48.22776" lon="3.30879">
        <ele>89</ele>
        <time>2012-04-15T10:37:10.000Z</time>
      </trkpt>
      <trkpt lat="48.22774" lon="3.30871">
        <ele>89</ele>
        <time>2012-04-15T10:37:11.000Z</time>
      </trkpt>
      <trkpt lat="48.22772" lon="3.30856">
        <ele>89</ele>
        <time>2012-04-15T10:37:13.000Z</time>
      </trkpt>
      <trkpt lat="48.2277" lon="3.30847">
        <ele>89</ele>
        <time>2012-04-15T10:37:14.000Z</time>
      </trkpt>
      <trkpt lat="48.2277" lon="3.30839">
        <ele>89</ele>
        <time>2012-04-15T10:37:15.000Z</time>
      </trkpt>
      <trkpt lat="48.22767" lon="3.30832">
        <ele>88</ele>
        <time>2012-04-15T10:37:16.000Z</time>
      </trkpt>
      <trkpt lat="48.22766" lon="3.30824">
        <ele>88</ele>
        <time>2012-04-15T10:37:17.000Z</time>
      </trkpt>
      <trkpt lat="48.22765" lon="3.30815">
        <ele>88</ele>
        <time>2012-04-15T10:37:18.000Z</time>
      </trkpt>
      <trkpt lat="48.22763" lon="3.308">
        <ele>88</ele>
        <time>2012-04-15T10:37:20.000Z</time>
      </trkpt>
      <trkpt lat="48.22761" lon="3.30785">
        <ele>88</ele>
        <time>2012-04-15T10:37:22.000Z</time>
      </trkpt>
      <trkpt lat="48.22759" lon="3.30778">
        <ele>88</ele>
        <time>2012-04-15T10:37:23.000Z</time>
      </trkpt>
      <trkpt lat="48.22757" lon="3.30766">
        <ele>87</ele>
        <time>2012-04-15T10:37:25.000Z</time>
      </trkpt>
      <trkpt lat="48.22756" lon="3.30757">
        <ele>87</ele>
        <time>2012-04-15T10:37:26.000Z</time>
      </trkpt>
      <trkpt lat="48.22753" lon="3.30746">
        <ele>87</ele>
        <time>2012-04-15T10:37:28.000Z</time>
      </trkpt>
      <trkpt lat="48.22751" lon="3.30734">
        <ele>87</ele>
        <time>2012-04-15T10:37:30.000Z</time>
      </trkpt>
      <trkpt lat="48.2275" lon="3.30721">
        <ele>86</ele>
        <time>2012-04-15T10:37:32.000Z</time>
      </trkpt>
      <trkpt lat="48.22748" lon="3.30708">
        <ele>86</ele>
        <time>2012-04-15T10:37:34.000Z</time>
      </trkpt>
      <trkpt lat="48.22746" lon="3.30695">
        <ele>86</ele>
        <time>2012-04-15T10:37:36.000Z</time>
      </trkpt>
      <trkpt lat="48.22744" lon="3.30682">
        <ele>86</ele>
        <time>2012-04-15T10:37:38.000Z</time>
      </trkpt>
      <trkpt lat="48.22742" lon="3.30667">
        <ele>85</ele>
        <time>2012-04-15T10:37:40.000Z</time>
      </trkpt>
      <trkpt lat="48.22739" lon="3.30654">
        <ele>85</ele>
        <time>2012-04-15T10:37:42.000Z</time>
      </trkpt>
      <trkpt lat="48.22738" lon="3.30646">
        <ele>85</ele>
        <time>2012-04-15T10:37:43.000Z</time>
      </trkpt>
      <trkpt lat="48.22736" lon="3.30633">
        <ele>85</ele>
        <time>2012-04-15T10:37:45.000Z</time>
      </trkpt>
      <trkpt lat="48.22735" lon="3.30624">
        <ele>85</ele>
        <time>2012-04-15T10:37:46.000Z</time>
      </trkpt>
      <trkpt lat="48.22734" lon="3.30611">
        <ele>85</ele>
        <time>2012-04-15T10:37:48.000Z</time>
      </trkpt>
      <trkpt lat="48.22733" lon="3.30603">
        <ele>85</ele>
        <time>2012-04-15T10:37:49.000Z</time>
      </trkpt>
      <trkpt lat="48.22731" lon="3.30588">
        <ele>85</ele>
        <time>2012-04-15T10:37:51.000Z</time>
      </trkpt>
      <trkpt lat="48.2273" lon="3.30579">
        <ele>84</ele>
        <time>2012-04-15T10:37:52.000Z</time>
      </trkpt>
      <trkpt lat="48.22729" lon="3.30564">
        <ele>84</ele>
        <time>2012-04-15T10:37:54.000Z</time>
      </trkpt>
      <trkpt lat="48.22728" lon="3.30555">
        <ele>84</ele>
        <time>2012-04-15T10:37:55.000Z</time>
      </trkpt>
      <trkpt lat="48.22726" lon="3.3054">
        <ele>84</ele>
        <time>2012-04-15T10:37:57.000Z</time>
      </trkpt>
      <trkpt lat="48.22724" lon="3.30532">
        <ele>84</ele>
        <time>2012-04-15T10:37:58.000Z</time>
      </trkpt>
      <trkpt lat="48.22723" lon="3.30523">
        <ele>84</ele>
        <time>2012-04-15T10:37:59.000Z</time>
      </trkpt>
      <trkpt lat="48.22723" lon="3.30515">
        <ele>84</ele>
        <time>2012-04-15T10:38:00.000Z</time>
      </trkpt>
      <trkpt lat="48.22721" lon="3.30504">
        <ele>84</ele>
        <time>2012-04-15T10:38:01.000Z</time>
      </trkpt>
      <trkpt lat="48.2272" lon="3.30493">
        <ele>83</ele>
        <time>2012-04-15T10:38:02.000Z</time>
      </trkpt>
      <trkpt lat="48.22719" lon="3.30482">
        <ele>83</ele>
        <time>2012-04-15T10:38:03.000Z</time>
      </trkpt>
      <trkpt lat="48.22718" lon="3.3047">
        <ele>83</ele>
        <time>2012-04-15T10:38:04.000Z</time>
      </trkpt>
      <trkpt lat="48.22716" lon="3.30459">
        <ele>83</ele>
        <time>2012-04-15T10:38:05.000Z</time>
      </trkpt>
      <trkpt lat="48.22713" lon="3.30448">
        <ele>83</ele>
        <time>2012-04-15T10:38:06.000Z</time>
      </trkpt>
      <trkpt lat="48.22708" lon="3.30437">
        <ele>83</ele>
        <time>2012-04-15T10:38:07.000Z</time>
      </trkpt>
      <trkpt lat="48.22704" lon="3.30427">
        <ele>83</ele>
        <time>2012-04-15T10:38:08.000Z</time>
      </trkpt>
      <trkpt lat="48.22699" lon="3.30416">
        <ele>82</ele>
        <time>2012-04-15T10:38:09.000Z</time>
      </trkpt>
      <trkpt lat="48.22693" lon="3.30405">
        <ele>82</ele>
        <time>2012-04-15T10:38:10.000Z</time>
      </trkpt>
      <trkpt lat="48.22687" lon="3.30394">
        <ele>82</ele>
        <time>2012-04-15T10:38:11.000Z</time>
      </trkpt>
      <trkpt lat="48.2268" lon="3.30384">
        <ele>82</ele>
        <time>2012-04-15T10:38:12.000Z</time>
      </trkpt>
      <trkpt lat="48.22673" lon="3.30375">
        <ele>82</ele>
        <time>2012-04-15T10:38:13.000Z</time>
      </trkpt>
      <trkpt lat="48.22664" lon="3.30367">
        <ele>82</ele>
        <time>2012-04-15T10:38:14.000Z</time>
      </trkpt>
      <trkpt lat="48.22657" lon="3.30358">
        <ele>82</ele>
        <time>2012-04-15T10:38:15.000Z</time>
      </trkpt>
      <trkpt lat="48.22648" lon="3.30349">
        <ele>82</ele>
        <time>2012-04-15T10:38:16.000Z</time>
      </trkpt>
      <trkpt lat="48.2264" lon="3.30341">
        <ele>82</ele>
        <time>2012-04-15T10:38:17.000Z</time>
      </trkpt>
      <trkpt lat="48.22631" lon="3.3033">
        <ele>81</ele>
        <time>2012-04-15T10:38:18.000Z</time>
      </trkpt>
      <trkpt lat="48.22624" lon="3.30322">
        <ele>81</ele>
        <time>2012-04-15T10:38:19.000Z</time>
      </trkpt>
      <trkpt lat="48.22615" lon="3.30313">
        <ele>81</ele>
        <time>2012-04-15T10:38:20.000Z</time>
      </trkpt>
      <trkpt lat="48.22606" lon="3.30304">
        <ele>81</ele>
        <time>2012-04-15T10:38:21.000Z</time>
      </trkpt>
      <trkpt lat="48.22598" lon="3.30296">
        <ele>81</ele>
        <time>2012-04-15T10:38:22.000Z</time>
      </trkpt>
      <trkpt lat="48.22589" lon="3.30289">
        <ele>81</ele>
        <time>2012-04-15T10:38:23.000Z</time>
      </trkpt>
      <trkpt lat="48.22582" lon="3.30281">
        <ele>81</ele>
        <time>2012-04-15T10:38:24.000Z</time>
      </trkpt>
      <trkpt lat="48.22574" lon="3.30272">
        <ele>81</ele>
        <time>2012-04-15T10:38:25.000Z</time>
      </trkpt>
      <trkpt lat="48.22568" lon="3.30264">
        <ele>81</ele>
        <time>2012-04-15T10:38:26.000Z</time>
      </trkpt>
      <trkpt lat="48.22561" lon="3.30255">
        <ele>81</ele>
        <time>2012-04-15T10:38:27.000Z</time>
      </trkpt>
      <trkpt lat="48.22555" lon="3.30248">
        <ele>80</ele>
        <time>2012-04-15T10:38:28.000Z</time>
      </trkpt>
      <trkpt lat="48.22548" lon="3.3024">
        <ele>80</ele>
        <time>2012-04-15T10:38:29.000Z</time>
      </trkpt>
      <trkpt lat="48.22544" lon="3.30231">
        <ele>80</ele>
        <time>2012-04-15T10:38:30.000Z</time>
      </trkpt>
      <trkpt lat="48.22539" lon="3.30221">
        <ele>79</ele>
        <time>2012-04-15T10:38:31.000Z</time>
      </trkpt>
      <trkpt lat="48.22534" lon="3.30212">
        <ele>79</ele>
        <time>2012-04-15T10:38:32.000Z</time>
      </trkpt>
      <trkpt lat="48.2253" lon="3.30201">
        <ele>79</ele>
        <time>2012-04-15T10:38:33.000Z</time>
      </trkpt>
      <trkpt lat="48.22527" lon="3.30193">
        <ele>79</ele>
        <time>2012-04-15T10:38:34.000Z</time>
      </trkpt>
      <trkpt lat="48.22524" lon="3.30182">
        <ele>79</ele>
        <time>2012-04-15T10:38:35.000Z</time>
      </trkpt>
      <trkpt lat="48.22521" lon="3.30171">
        <ele>79</ele>
        <time>2012-04-15T10:38:36.000Z</time>
      </trkpt>
      <trkpt lat="48.22518" lon="3.30161">
        <ele>78</ele>
        <time>2012-04-15T10:38:37.000Z</time>
      </trkpt>
      <trkpt lat="48.22516" lon="3.30152">
        <ele>77</ele>
        <time>2012-04-15T10:38:38.000Z</time>
      </trkpt>
      <trkpt lat="48.22514" lon="3.30141">
        <ele>77</ele>
        <time>2012-04-15T10:38:39.000Z</time>
      </trkpt>
      <trkpt lat="48.22511" lon="3.30133">
        <ele>77</ele>
        <time>2012-04-15T10:38:40.000Z</time>
      </trkpt>
      <trkpt lat="48.22509" lon="3.30124">
        <ele>77</ele>
        <time>2012-04-15T10:38:41.000Z</time>
      </trkpt>
      <trkpt lat="48.22506" lon="3.30116">
        <ele>77</ele>
        <time>2012-04-15T10:38:42.000Z</time>
      </trkpt>
      <trkpt lat="48.22502" lon="3.30107">
        <ele>77</ele>
        <time>2012-04-15T10:38:43.000Z</time>
      </trkpt>
      <trkpt lat="48.22499" lon="3.301">
        <ele>77</ele>
        <time>2012-04-15T10:38:44.000Z</time>
      </trkpt>
      <trkpt lat="48.22495" lon="3.30096">
        <ele>76</ele>
        <time>2012-04-15T10:38:45.000Z</time>
      </trkpt>
      <trkpt lat="48.2249" lon="3.30092">
        <ele>76</ele>
        <time>2012-04-15T10:38:46.000Z</time>
      </trkpt>
      <trkpt lat="48.22484" lon="3.3009">
        <ele>76</ele>
        <time>2012-04-15T10:38:47.000Z</time>
      </trkpt>
      <trkpt lat="48.22478" lon="3.30088">
        <ele>77</ele>
        <time>2012-04-15T10:38:48.000Z</time>
      </trkpt>
      <trkpt lat="48.22472" lon="3.30086">
        <ele>77</ele>
        <time>2012-04-15T10:38:49.000Z</time>
      </trkpt>
      <trkpt lat="48.22466" lon="3.30083">
        <ele>76</ele>
        <time>2012-04-15T10:38:50.000Z</time>
      </trkpt>
      <trkpt lat="48.2246" lon="3.30081">
        <ele>76</ele>
        <time>2012-04-15T10:38:51.000Z</time>
      </trkpt>
      <trkpt lat="48.22454" lon="3.30079">
        <ele>76</ele>
        <time>2012-04-15T10:38:52.000Z</time>
      </trkpt>
      <trkpt lat="48.22448" lon="3.30079">
        <ele>76</ele>
        <time>2012-04-15T10:38:53.000Z</time>
      </trkpt>
      <trkpt lat="48.22441" lon="3.30077">
        <ele>76</ele>
        <time>2012-04-15T10:38:54.000Z</time>
      </trkpt>
      <trkpt lat="48.22435" lon="3.30077">
        <ele>76</ele>
        <time>2012-04-15T10:38:55.000Z</time>
      </trkpt>
      <trkpt lat="48.22428" lon="3.30077">
        <ele>76</ele>
        <time>2012-04-15T10:38:56.000Z</time>
      </trkpt>
      <trkpt lat="48.22422" lon="3.30075">
        <ele>76</ele>
        <time>2012-04-15T10:38:57.000Z</time>
      </trkpt>
      <trkpt lat="48.22415" lon="3.30077">
        <ele>76</ele>
        <time>2012-04-15T10:38:58.000Z</time>
      </trkpt>
      <trkpt lat="48.22409" lon="3.30077">
        <ele>76</ele>
        <time>2012-04-15T10:38:59.000Z</time>
      </trkpt>
      <trkpt lat="48.22402" lon="3.30077">
        <ele>75</ele>
        <time>2012-04-15T10:39:00.000Z</time>
      </trkpt>
      <trkpt lat="48.22396" lon="3.30079">
        <ele>75</ele>
        <time>2012-04-15T10:39:01.000Z</time>
      </trkpt>
      <trkpt lat="48.22389" lon="3.30079">
        <ele>75</ele>
        <time>2012-04-15T10:39:02.000Z</time>
      </trkpt>
      <trkpt lat="48.22382" lon="3.30081">
        <ele>75</ele>
        <time>2012-04-15T10:39:03.000Z</time>
      </trkpt>
      <trkpt lat="48.22375" lon="3.30083">
        <ele>75</ele>
        <time>2012-04-15T10:39:04.000Z</time>
      </trkpt>
      <trkpt lat="48.22366" lon="3.30083">
        <ele>75</ele>
        <time>2012-04-15T10:39:05.000Z</time>
      </trkpt>
      <trkpt lat="48.22359" lon="3.30088">
        <ele>76</ele>
        <time>2012-04-15T10:39:06.000Z</time>
      </trkpt>
      <trkpt lat="48.2235" lon="3.3009">
        <ele>76</ele>
        <time>2012-04-15T10:39:07.000Z</time>
      </trkpt>
      <trkpt lat="48.22342" lon="3.3009">
        <ele>76</ele>
        <time>2012-04-15T10:39:08.000Z</time>
      </trkpt>
      <trkpt lat="48.22334" lon="3.3009">
        <ele>75</ele>
        <time>2012-04-15T10:39:09.000Z</time>
      </trkpt>
      <trkpt lat="48.22327" lon="3.30083">
        <ele>75</ele>
        <time>2012-04-15T10:39:10.000Z</time>
      </trkpt>
      <trkpt lat="48.2232" lon="3.30077">
        <ele>75</ele>
        <time>2012-04-15T10:39:11.000Z</time>
      </trkpt>
      <trkpt lat="48.22314" lon="3.30068">
        <ele>75</ele>
        <time>2012-04-15T10:39:12.000Z</time>
      </trkpt>
      <trkpt lat="48.22305" lon="3.3006">
        <ele>74</ele>
        <time>2012-04-15T10:39:13.000Z</time>
      </trkpt>
      <trkpt lat="48.22297" lon="3.30051">
        <ele>74</ele>
        <time>2012-04-15T10:39:14.000Z</time>
      </trkpt>
      <trkpt lat="48.22289" lon="3.30043">
        <ele>74</ele>
        <time>2012-04-15T10:39:15.000Z</time>
      </trkpt>
      <trkpt lat="48.22281" lon="3.30034">
        <ele>74</ele>
        <time>2012-04-15T10:39:16.000Z</time>
      </trkpt>
      <trkpt lat="48.22274" lon="3.30023">
        <ele>74</ele>
        <time>2012-04-15T10:39:17.000Z</time>
      </trkpt>
      <trkpt lat="48.22266" lon="3.30015">
        <ele>74</ele>
        <time>2012-04-15T10:39:18.000Z</time>
      </trkpt>
      <trkpt lat="48.22259" lon="3.30006">
        <ele>73</ele>
        <time>2012-04-15T10:39:19.000Z</time>
      </trkpt>
      <trkpt lat="48.22251" lon="3.29995">
        <ele>73</ele>
        <time>2012-04-15T10:39:20.000Z</time>
      </trkpt>
      <trkpt lat="48.22244" lon="3.29987">
        <ele>73</ele>
        <time>2012-04-15T10:39:21.000Z</time>
      </trkpt>
      <trkpt lat="48.22236" lon="3.29978">
        <ele>73</ele>
        <time>2012-04-15T10:39:22.000Z</time>
      </trkpt>
      <trkpt lat="48.22229" lon="3.29967">
        <ele>73</ele>
        <time>2012-04-15T10:39:23.000Z</time>
      </trkpt>
      <trkpt lat="48.22221" lon="3.29959">
        <ele>73</ele>
        <time>2012-04-15T10:39:24.000Z</time>
      </trkpt>
      <trkpt lat="48.22214" lon="3.29948">
        <ele>73</ele>
        <time>2012-04-15T10:39:25.000Z</time>
      </trkpt>
      <trkpt lat="48.22205" lon="3.2994">
        <ele>73</ele>
        <time>2012-04-15T10:39:26.000Z</time>
      </trkpt>
      <trkpt lat="48.22198" lon="3.29929">
        <ele>73</ele>
        <time>2012-04-15T10:39:27.000Z</time>
      </trkpt>
      <trkpt lat="48.22189" lon="3.29918">
        <ele>73</ele>
        <time>2012-04-15T10:39:28.000Z</time>
      </trkpt>
      <trkpt lat="48.22182" lon="3.29907">
        <ele>72</ele>
        <time>2012-04-15T10:39:29.000Z</time>
      </trkpt>
      <trkpt lat="48.22173" lon="3.29897">
        <ele>72</ele>
        <time>2012-04-15T10:39:30.000Z</time>
      </trkpt>
      <trkpt lat="48.22164" lon="3.29886">
        <ele>74</ele>
        <time>2012-04-15T10:39:31.000Z</time>
      </trkpt>
      <trkpt lat="48.22156" lon="3.29875">
        <ele>74</ele>
        <time>2012-04-15T10:39:32.000Z</time>
      </trkpt>
      <trkpt lat="48.22148" lon="3.29864">
        <ele>74</ele>
        <time>2012-04-15T10:39:33.000Z</time>
      </trkpt>
      <trkpt lat="48.22141" lon="3.29854">
        <ele>74</ele>
        <time>2012-04-15T10:39:34.000Z</time>
      </trkpt>
      <trkpt lat="48.22134" lon="3.29843">
        <ele>74</ele>
        <time>2012-04-15T10:39:35.000Z</time>
      </trkpt>
      <trkpt lat="48.22128" lon="3.29834">
        <ele>74</ele>
        <time>2012-04-15T10:39:36.000Z</time>
      </trkpt>
      <trkpt lat="48.22122" lon="3.29826">
        <ele>74</ele>
        <time>2012-04-15T10:39:37.000Z</time>
      </trkpt>
      <trkpt lat="48.22117" lon="3.29817">
        <ele>74</ele>
        <time>2012-04-15T10:39:38.000Z</time>
      </trkpt>
      <trkpt lat="48.22112" lon="3.29811">
        <ele>74</ele>
        <time>2012-04-15T10:39:39.000Z</time>
      </trkpt>
      <trkpt lat="48.22108" lon="3.29804">
        <ele>74</ele>
        <time>2012-04-15T10:39:40.000Z</time>
      </trkpt>
      <trkpt lat="48.22103" lon="3.29798">
        <ele>74</ele>
        <time>2012-04-15T10:39:41.000Z</time>
      </trkpt>
      <trkpt lat="48.22096" lon="3.29787">
        <ele>74</ele>
        <time>2012-04-15T10:39:43.000Z</time>
      </trkpt>
      <trkpt lat="48.2209" lon="3.29779">
        <ele>74</ele>
        <time>2012-04-15T10:39:45.000Z</time>
      </trkpt>
      <trkpt lat="48.22085" lon="3.2977">
        <ele>74</ele>
        <time>2012-04-15T10:39:47.000Z</time>
      </trkpt>
      <trkpt lat="48.2208" lon="3.29764">
        <ele>74</ele>
        <time>2012-04-15T10:39:49.000Z</time>
      </trkpt>
      <trkpt lat="48.22074" lon="3.29755">
        <ele>75</ele>
        <time>2012-04-15T10:39:51.000Z</time>
      </trkpt>
      <trkpt lat="48.2207" lon="3.29746">
        <ele>74</ele>
        <time>2012-04-15T10:39:53.000Z</time>
      </trkpt>
      <trkpt lat="48.22064" lon="3.29738">
        <ele>74</ele>
        <time>2012-04-15T10:39:55.000Z</time>
      </trkpt>
      <trkpt lat="48.22059" lon="3.29729">
        <ele>74</ele>
        <time>2012-04-15T10:39:57.000Z</time>
      </trkpt>
      <trkpt lat="48.22054" lon="3.29721">
        <ele>73</ele>
        <time>2012-04-15T10:39:59.000Z</time>
      </trkpt>
      <trkpt lat="48.22048" lon="3.29712">
        <ele>73</ele>
        <time>2012-04-15T10:40:01.000Z</time>
      </trkpt>
      <trkpt lat="48.22043" lon="3.29704">
        <ele>73</ele>
        <time>2012-04-15T10:40:03.000Z</time>
      </trkpt>
      <trkpt lat="48.22038" lon="3.29695">
        <ele>73</ele>
        <time>2012-04-15T10:40:05.000Z</time>
      </trkpt>
      <trkpt lat="48.22036" lon="3.29688">
        <ele>73</ele>
        <time>2012-04-15T10:40:06.000Z</time>
      </trkpt>
      <trkpt lat="48.22029" lon="3.2968">
        <ele>73</ele>
        <time>2012-04-15T10:40:08.000Z</time>
      </trkpt>
      <trkpt lat="48.22026" lon="3.29674">
        <ele>73</ele>
        <time>2012-04-15T10:40:09.000Z</time>
      </trkpt>
      <trkpt lat="48.22024" lon="3.29667">
        <ele>73</ele>
        <time>2012-04-15T10:40:10.000Z</time>
      </trkpt>
      <trkpt lat="48.22017" lon="3.29654">
        <ele>73</ele>
        <time>2012-04-15T10:40:12.000Z</time>
      </trkpt>
      <trkpt lat="48.22014" lon="3.29646">
        <ele>73</ele>
        <time>2012-04-15T10:40:13.000Z</time>
      </trkpt>
      <trkpt lat="48.22011" lon="3.29639">
        <ele>73</ele>
        <time>2012-04-15T10:40:14.000Z</time>
      </trkpt>
      <trkpt lat="48.22008" lon="3.29631">
        <ele>73</ele>
        <time>2012-04-15T10:40:15.000Z</time>
      </trkpt>
      <trkpt lat="48.22004" lon="3.29624">
        <ele>72</ele>
        <time>2012-04-15T10:40:16.000Z</time>
      </trkpt>
      <trkpt lat="48.22001" lon="3.29618">
        <ele>72</ele>
        <time>2012-04-15T10:40:17.000Z</time>
      </trkpt>
      <trkpt lat="48.21997" lon="3.29609">
        <ele>72</ele>
        <time>2012-04-15T10:40:19.000Z</time>
      </trkpt>
      <trkpt lat="48.21995" lon="3.29603">
        <ele>72</ele>
        <time>2012-04-15T10:40:20.000Z</time>
      </trkpt>
      <trkpt lat="48.21993" lon="3.29596">
        <ele>72</ele>
        <time>2012-04-15T10:40:21.000Z</time>
      </trkpt>
      <trkpt lat="48.21988" lon="3.29586">
        <ele>72</ele>
        <time>2012-04-15T10:40:23.000Z</time>
      </trkpt>
      <trkpt lat="48.21986" lon="3.29579">
        <ele>72</ele>
        <time>2012-04-15T10:40:24.000Z</time>
      </trkpt>
      <trkpt lat="48.21984" lon="3.29573">
        <ele>71</ele>
        <time>2012-04-15T10:40:25.000Z</time>
      </trkpt>
      <trkpt lat="48.21982" lon="3.29566">
        <ele>71</ele>
        <time>2012-04-15T10:40:26.000Z</time>
      </trkpt>
      <trkpt lat="48.2198" lon="3.29556">
        <ele>71</ele>
        <time>2012-04-15T10:40:28.000Z</time>
      </trkpt>
      <trkpt lat="48.21978" lon="3.29549">
        <ele>71</ele>
        <time>2012-04-15T10:40:29.000Z</time>
      </trkpt>
      <trkpt lat="48.21974" lon="3.29536">
        <ele>71</ele>
        <time>2012-04-15T10:40:31.000Z</time>
      </trkpt>
      <trkpt lat="48.21972" lon="3.29525">
        <ele>71</ele>
        <time>2012-04-15T10:40:33.000Z</time>
      </trkpt>
      <trkpt lat="48.2197" lon="3.29519">
        <ele>71</ele>
        <time>2012-04-15T10:40:34.000Z</time>
      </trkpt>
      <trkpt lat="48.21968" lon="3.29506">
        <ele>71</ele>
        <time>2012-04-15T10:40:36.000Z</time>
      </trkpt>
      <trkpt lat="48.21966" lon="3.29498">
        <ele>71</ele>
        <time>2012-04-15T10:40:37.000Z</time>
      </trkpt>
      <trkpt lat="48.21963" lon="3.29485">
        <ele>71</ele>
        <time>2012-04-15T10:40:39.000Z</time>
      </trkpt>
      <trkpt lat="48.2196" lon="3.29476">
        <ele>71</ele>
        <time>2012-04-15T10:40:40.000Z</time>
      </trkpt>
      <trkpt lat="48.21957" lon="3.29461">
        <ele>71</ele>
        <time>2012-04-15T10:40:42.000Z</time>
      </trkpt>
      <trkpt lat="48.21955" lon="3.29455">
        <ele>71</ele>
        <time>2012-04-15T10:40:43.000Z</time>
      </trkpt>
      <trkpt lat="48.21953" lon="3.29446">
        <ele>71</ele>
        <time>2012-04-15T10:40:44.000Z</time>
      </trkpt>
      <trkpt lat="48.21951" lon="3.29437">
        <ele>71</ele>
        <time>2012-04-15T10:40:45.000Z</time>
      </trkpt>
      <trkpt lat="48.21949" lon="3.29429">
        <ele>71</ele>
        <time>2012-04-15T10:40:46.000Z</time>
      </trkpt>
      <trkpt lat="48.21947" lon="3.2942">
        <ele>71</ele>
        <time>2012-04-15T10:40:47.000Z</time>
      </trkpt>
      <trkpt lat="48.21944" lon="3.29414">
        <ele>71</ele>
        <time>2012-04-15T10:40:48.000Z</time>
      </trkpt>
      <trkpt lat="48.21942" lon="3.29405">
        <ele>71</ele>
        <time>2012-04-15T10:40:49.000Z</time>
      </trkpt>
      <trkpt lat="48.2194" lon="3.29397">
        <ele>71</ele>
        <time>2012-04-15T10:40:50.000Z</time>
      </trkpt>
      <trkpt lat="48.21938" lon="3.29388">
        <ele>71</ele>
        <time>2012-04-15T10:40:51.000Z</time>
      </trkpt>
      <trkpt lat="48.21936" lon="3.2938">
        <ele>71</ele>
        <time>2012-04-15T10:40:52.000Z</time>
      </trkpt>
      <trkpt lat="48.21934" lon="3.29371">
        <ele>71</ele>
        <time>2012-04-15T10:40:53.000Z</time>
      </trkpt>
      <trkpt lat="48.21933" lon="3.29362">
        <ele>72</ele>
        <time>2012-04-15T10:40:54.000Z</time>
      </trkpt>
      <trkpt lat="48.2193" lon="3.29356">
        <ele>72</ele>
        <time>2012-04-15T10:40:55.000Z</time>
      </trkpt>
      <trkpt lat="48.21929" lon="3.29347">
        <ele>72</ele>
        <time>2012-04-15T10:40:56.000Z</time>
      </trkpt>
      <trkpt lat="48.21927" lon="3.29332">
        <ele>72</ele>
        <time>2012-04-15T10:40:58.000Z</time>
      </trkpt>
      <trkpt lat="48.21927" lon="3.29324">
        <ele>72</ele>
        <time>2012-04-15T10:40:59.000Z</time>
      </trkpt>
      <trkpt lat="48.21926" lon="3.29309">
        <ele>72</ele>
        <time>2012-04-15T10:41:01.000Z</time>
      </trkpt>
      <trkpt lat="48.21925" lon="3.29294">
        <ele>72</ele>
        <time>2012-04-15T10:41:03.000Z</time>
      </trkpt>
      <trkpt lat="48.21924" lon="3.29285">
        <ele>72</ele>
        <time>2012-04-15T10:41:04.000Z</time>
      </trkpt>
      <trkpt lat="48.21924" lon="3.2927">
        <ele>72</ele>
        <time>2012-04-15T10:41:06.000Z</time>
      </trkpt>
      <trkpt lat="48.21923" lon="3.29255">
        <ele>72</ele>
        <time>2012-04-15T10:41:08.000Z</time>
      </trkpt>
      <trkpt lat="48.21921" lon="3.29242">
        <ele>72</ele>
        <time>2012-04-15T10:41:10.000Z</time>
      </trkpt>
      <trkpt lat="48.2192" lon="3.29229">
        <ele>72</ele>
        <time>2012-04-15T10:41:12.000Z</time>
      </trkpt>
      <trkpt lat="48.21914" lon="3.29221">
        <ele>71</ele>
        <time>2012-04-15T10:41:14.000Z</time>
      </trkpt>
      <trkpt lat="48.21908" lon="3.29216">
        <ele>71</ele>
        <time>2012-04-15T10:41:16.000Z</time>
      </trkpt>
      <trkpt lat="48.21899" lon="3.29216">
        <ele>71</ele>
        <time>2012-04-15T10:41:18.000Z</time>
      </trkpt>
      <trkpt lat="48.21891" lon="3.29216">
        <ele>71</ele>
        <time>2012-04-15T10:41:20.000Z</time>
      </trkpt>
      <trkpt lat="48.21885" lon="3.29216">
        <ele>71</ele>
        <time>2012-04-15T10:41:21.000Z</time>
      </trkpt>
      <trkpt lat="48.21877" lon="3.29214">
        <ele>71</ele>
        <time>2012-04-15T10:41:23.000Z</time>
      </trkpt>
      <trkpt lat="48.21872" lon="3.29214">
        <ele>71</ele>
        <time>2012-04-15T10:41:24.000Z</time>
      </trkpt>
      <trkpt lat="48.21863" lon="3.29214">
        <ele>71</ele>
        <time>2012-04-15T10:41:26.000Z</time>
      </trkpt>
      <trkpt lat="48.21858" lon="3.29214">
        <ele>71</ele>
        <time>2012-04-15T10:41:27.000Z</time>
      </trkpt>
      <trkpt lat="48.21849" lon="3.29214">
        <ele>71</ele>
        <time>2012-04-15T10:41:29.000Z</time>
      </trkpt>
      <trkpt lat="48.21844" lon="3.29214">
        <ele>71</ele>
        <time>2012-04-15T10:41:30.000Z</time>
      </trkpt>
      <trkpt lat="48.21835" lon="3.29214">
        <ele>71</ele>
        <time>2012-04-15T10:41:32.000Z</time>
      </trkpt>
      <trkpt lat="48.21826" lon="3.29212">
        <ele>71</ele>
        <time>2012-04-15T10:41:34.000Z</time>
      </trkpt>
      <trkpt lat="48.21821" lon="3.29204">
        <ele>71</ele>
        <time>2012-04-15T10:41:36.000Z</time>
      </trkpt>
      <trkpt lat="48.21818" lon="3.29195">
        <ele>71</ele>
        <time>2012-04-15T10:41:38.000Z</time>
      </trkpt>
      <trkpt lat="48.21816" lon="3.29184">
        <ele>71</ele>
        <time>2012-04-15T10:41:40.000Z</time>
      </trkpt>
      <trkpt lat="48.21815" lon="3.29174">
        <ele>71</ele>
        <time>2012-04-15T10:41:42.000Z</time>
      </trkpt>
      <trkpt lat="48.21814" lon="3.29163">
        <ele>71</ele>
        <time>2012-04-15T10:41:44.000Z</time>
      </trkpt>
      <trkpt lat="48.21812" lon="3.29152">
        <ele>71</ele>
        <time>2012-04-15T10:41:46.000Z</time>
      </trkpt>
      <trkpt lat="48.21811" lon="3.29139">
        <ele>71</ele>
        <time>2012-04-15T10:41:48.000Z</time>
      </trkpt>
      <trkpt lat="48.2181" lon="3.29126">
        <ele>71</ele>
        <time>2012-04-15T10:41:50.000Z</time>
      </trkpt>
      <trkpt lat="48.21809" lon="3.29113">
        <ele>71</ele>
        <time>2012-04-15T10:41:52.000Z</time>
      </trkpt>
      <trkpt lat="48.21808" lon="3.29101">
        <ele>71</ele>
        <time>2012-04-15T10:41:54.000Z</time>
      </trkpt>
      <trkpt lat="48.21805" lon="3.2909">
        <ele>71</ele>
        <time>2012-04-15T10:41:56.000Z</time>
      </trkpt>
      <trkpt lat="48.21804" lon="3.29079">
        <ele>70</ele>
        <time>2012-04-15T10:41:58.000Z</time>
      </trkpt>
      <trkpt lat="48.21802" lon="3.29066">
        <ele>70</ele>
        <time>2012-04-15T10:42:00.000Z</time>
      </trkpt>
      <trkpt lat="48.218" lon="3.29056">
        <ele>70</ele>
        <time>2012-04-15T10:42:02.000Z</time>
      </trkpt>
      <trkpt lat="48.21798" lon="3.29043">
        <ele>70</ele>
        <time>2012-04-15T10:42:04.000Z</time>
      </trkpt>
      <trkpt lat="48.21797" lon="3.29032">
        <ele>70</ele>
        <time>2012-04-15T10:42:06.000Z</time>
      </trkpt>
      <trkpt lat="48.21796" lon="3.29019">
        <ele>69</ele>
        <time>2012-04-15T10:42:08.000Z</time>
      </trkpt>
      <trkpt lat="48.21795" lon="3.2901">
        <ele>69</ele>
        <time>2012-04-15T10:42:09.000Z</time>
      </trkpt>
      <trkpt lat="48.21795" lon="3.28998">
        <ele>69</ele>
        <time>2012-04-15T10:42:11.000Z</time>
      </trkpt>
      <trkpt lat="48.21795" lon="3.28985">
        <ele>69</ele>
        <time>2012-04-15T10:42:13.000Z</time>
      </trkpt>
      <trkpt lat="48.21795" lon="3.28976">
        <ele>69</ele>
        <time>2012-04-15T10:42:14.000Z</time>
      </trkpt>
      <trkpt lat="48.21793" lon="3.28961">
        <ele>69</ele>
        <time>2012-04-15T10:42:16.000Z</time>
      </trkpt>
      <trkpt lat="48.21792" lon="3.28946">
        <ele>69</ele>
        <time>2012-04-15T10:42:18.000Z</time>
      </trkpt>
      <trkpt lat="48.21791" lon="3.28931">
        <ele>69</ele>
        <time>2012-04-15T10:42:20.000Z</time>
      </trkpt>
      <trkpt lat="48.21791" lon="3.28922">
        <ele>69</ele>
        <time>2012-04-15T10:42:21.000Z</time>
      </trkpt>
      <trkpt lat="48.2179" lon="3.28914">
        <ele>69</ele>
        <time>2012-04-15T10:42:22.000Z</time>
      </trkpt>
      <trkpt lat="48.21789" lon="3.28905">
        <ele>69</ele>
        <time>2012-04-15T10:42:23.000Z</time>
      </trkpt>
      <trkpt lat="48.21788" lon="3.2889">
        <ele>69</ele>
        <time>2012-04-15T10:42:25.000Z</time>
      </trkpt>
      <trkpt lat="48.21787" lon="3.28882">
        <ele>69</ele>
        <time>2012-04-15T10:42:26.000Z</time>
      </trkpt>
      <trkpt lat="48.21786" lon="3.28873">
        <ele>69</ele>
        <time>2012-04-15T10:42:27.000Z</time>
      </trkpt>
      <trkpt lat="48.21784" lon="3.28858">
        <ele>69</ele>
        <time>2012-04-15T10:42:29.000Z</time>
      </trkpt>
      <trkpt lat="48.21784" lon="3.2885">
        <ele>69</ele>
        <time>2012-04-15T10:42:30.000Z</time>
      </trkpt>
      <trkpt lat="48.21782" lon="3.28841">
        <ele>69</ele>
        <time>2012-04-15T10:42:31.000Z</time>
      </trkpt>
      <trkpt lat="48.21781" lon="3.28832">
        <ele>70</ele>
        <time>2012-04-15T10:42:32.000Z</time>
      </trkpt>
      <trkpt lat="48.2178" lon="3.28824">
        <ele>70</ele>
        <time>2012-04-15T10:42:33.000Z</time>
      </trkpt>
      <trkpt lat="48.21779" lon="3.28815">
        <ele>70</ele>
        <time>2012-04-15T10:42:34.000Z</time>
      </trkpt>
      <trkpt lat="48.21779" lon="3.28807">
        <ele>70</ele>
        <time>2012-04-15T10:42:35.000Z</time>
      </trkpt>
      <trkpt lat="48.21778" lon="3.28798">
        <ele>70</ele>
        <time>2012-04-15T10:42:36.000Z</time>
      </trkpt>
      <trkpt lat="48.21778" lon="3.28789">
        <ele>69</ele>
        <time>2012-04-15T10:42:37.000Z</time>
      </trkpt>
      <trkpt lat="48.21777" lon="3.28774">
        <ele>69</ele>
        <time>2012-04-15T10:42:39.000Z</time>
      </trkpt>
      <trkpt lat="48.21776" lon="3.28762">
        <ele>69</ele>
        <time>2012-04-15T10:42:41.000Z</time>
      </trkpt>
      <trkpt lat="48.21775" lon="3.28749">
        <ele>69</ele>
        <time>2012-04-15T10:42:43.000Z</time>
      </trkpt>
      <trkpt lat="48.21775" lon="3.2874">
        <ele>69</ele>
        <time>2012-04-15T10:42:45.000Z</time>
      </trkpt>
      <trkpt lat="48.21775" lon="3.28732">
        <ele>69</ele>
        <time>2012-04-15T10:42:47.000Z</time>
      </trkpt>
      <trkpt lat="48.21775" lon="3.28732">
        <ele>69</ele>
        <time>2012-04-15T10:42:47.000Z</time>
      </trkpt>
      <trkpt lat="48.21775" lon="3.28732">
        <ele>69</ele>
        <time>2012-04-15T10:42:49.000Z</time>
      </trkpt>
      <trkpt lat="48.21775" lon="3.28723">
        <ele>69</ele>
        <time>2012-04-15T10:42:57.000Z</time>
      </trkpt>
      <trkpt lat="48.21771" lon="3.28716">
        <ele>69</ele>
        <time>2012-04-15T10:43:00.000Z</time>
      </trkpt>
      <trkpt lat="48.21764" lon="3.28714">
        <ele>69</ele>
        <time>2012-04-15T10:43:02.000Z</time>
      </trkpt>
      <trkpt lat="48.21758" lon="3.28712">
        <ele>69</ele>
        <time>2012-04-15T10:43:04.000Z</time>
      </trkpt>
      <trkpt lat="48.2175" lon="3.2871">
        <ele>69</ele>
        <time>2012-04-15T10:43:06.000Z</time>
      </trkpt>
      <trkpt lat="48.21744" lon="3.28708">
        <ele>69</ele>
        <time>2012-04-15T10:43:08.000Z</time>
      </trkpt>
      <trkpt lat="48.21735" lon="3.28706">
        <ele>68</ele>
        <time>2012-04-15T10:43:10.000Z</time>
      </trkpt>
      <trkpt lat="48.21727" lon="3.28704">
        <ele>68</ele>
        <time>2012-04-15T10:43:12.000Z</time>
      </trkpt>
      <trkpt lat="48.21718" lon="3.28701">
        <ele>68</ele>
        <time>2012-04-15T10:43:14.000Z</time>
      </trkpt>
      <trkpt lat="48.2171" lon="3.28699">
        <ele>68</ele>
        <time>2012-04-15T10:43:16.000Z</time>
      </trkpt>
      <trkpt lat="48.21701" lon="3.28697">
        <ele>68</ele>
        <time>2012-04-15T10:43:18.000Z</time>
      </trkpt>
      <trkpt lat="48.21692" lon="3.28695">
        <ele>68</ele>
        <time>2012-04-15T10:43:20.000Z</time>
      </trkpt>
      <trkpt lat="48.21684" lon="3.28693">
        <ele>68</ele>
        <time>2012-04-15T10:43:22.000Z</time>
      </trkpt>
      <trkpt lat="48.21675" lon="3.28691">
        <ele>68</ele>
        <time>2012-04-15T10:43:24.000Z</time>
      </trkpt>
      <trkpt lat="48.21666" lon="3.28689">
        <ele>67</ele>
        <time>2012-04-15T10:43:26.000Z</time>
      </trkpt>
      <trkpt lat="48.21657" lon="3.28686">
        <ele>67</ele>
        <time>2012-04-15T10:43:28.000Z</time>
      </trkpt>
      <trkpt lat="48.21648" lon="3.28684">
        <ele>68</ele>
        <time>2012-04-15T10:43:30.000Z</time>
      </trkpt>
      <trkpt lat="48.21639" lon="3.28682">
        <ele>68</ele>
        <time>2012-04-15T10:43:32.000Z</time>
      </trkpt>
      <trkpt lat="48.21634" lon="3.2868">
        <ele>68</ele>
        <time>2012-04-15T10:43:33.000Z</time>
      </trkpt>
      <trkpt lat="48.21629" lon="3.2868">
        <ele>68</ele>
        <time>2012-04-15T10:43:34.000Z</time>
      </trkpt>
      <trkpt lat="48.21623" lon="3.28678">
        <ele>68</ele>
        <time>2012-04-15T10:43:35.000Z</time>
      </trkpt>
      <trkpt lat="48.21617" lon="3.28678">
        <ele>68</ele>
        <time>2012-04-15T10:43:36.000Z</time>
      </trkpt>
      <trkpt lat="48.21612" lon="3.28676">
        <ele>68</ele>
        <time>2012-04-15T10:43:37.000Z</time>
      </trkpt>
      <trkpt lat="48.21605" lon="3.28676">
        <ele>68</ele>
        <time>2012-04-15T10:43:38.000Z</time>
      </trkpt>
      <trkpt lat="48.21599" lon="3.28674">
        <ele>68</ele>
        <time>2012-04-15T10:43:39.000Z</time>
      </trkpt>
      <trkpt lat="48.21592" lon="3.28674">
        <ele>68</ele>
        <time>2012-04-15T10:43:40.000Z</time>
      </trkpt>
      <trkpt lat="48.21587" lon="3.28671">
        <ele>68</ele>
        <time>2012-04-15T10:43:41.000Z</time>
      </trkpt>
      <trkpt lat="48.21581" lon="3.28671">
        <ele>68</ele>
        <time>2012-04-15T10:43:42.000Z</time>
      </trkpt>
      <trkpt lat="48.21574" lon="3.28671">
        <ele>68</ele>
        <time>2012-04-15T10:43:43.000Z</time>
      </trkpt>
      <trkpt lat="48.21569" lon="3.28669">
        <ele>68</ele>
        <time>2012-04-15T10:43:44.000Z</time>
      </trkpt>
      <trkpt lat="48.21562" lon="3.28669">
        <ele>68</ele>
        <time>2012-04-15T10:43:45.000Z</time>
      </trkpt>
      <trkpt lat="48.21557" lon="3.28667">
        <ele>68</ele>
        <time>2012-04-15T10:43:46.000Z</time>
      </trkpt>
      <trkpt lat="48.21552" lon="3.28667">
        <ele>68</ele>
        <time>2012-04-15T10:43:47.000Z</time>
      </trkpt>
      <trkpt lat="48.21546" lon="3.28665">
        <ele>68</ele>
        <time>2012-04-15T10:43:48.000Z</time>
      </trkpt>
      <trkpt lat="48.21537" lon="3.28663">
        <ele>68</ele>
        <time>2012-04-15T10:43:50.000Z</time>
      </trkpt>
      <trkpt lat="48.21531" lon="3.28663">
        <ele>68</ele>
        <time>2012-04-15T10:43:51.000Z</time>
      </trkpt>
      <trkpt lat="48.21526" lon="3.28661">
        <ele>68</ele>
        <time>2012-04-15T10:43:52.000Z</time>
      </trkpt>
      <trkpt lat="48.21516" lon="3.28658">
        <ele>68</ele>
        <time>2012-04-15T10:43:54.000Z</time>
      </trkpt>
      <trkpt lat="48.21511" lon="3.28658">
        <ele>68</ele>
        <time>2012-04-15T10:43:55.000Z</time>
      </trkpt>
      <trkpt lat="48.21506" lon="3.28656">
        <ele>68</ele>
        <time>2012-04-15T10:43:56.000Z</time>
      </trkpt>
      <trkpt lat="48.21496" lon="3.28656">
        <ele>69</ele>
        <time>2012-04-15T10:43:58.000Z</time>
      </trkpt>
      <trkpt lat="48.21491" lon="3.28654">
        <ele>68</ele>
        <time>2012-04-15T10:43:59.000Z</time>
      </trkpt>
      <trkpt lat="48.21485" lon="3.28654">
        <ele>68</ele>
        <time>2012-04-15T10:44:00.000Z</time>
      </trkpt>
      <trkpt lat="48.2148" lon="3.28652">
        <ele>68</ele>
        <time>2012-04-15T10:44:01.000Z</time>
      </trkpt>
      <trkpt lat="48.21474" lon="3.28652">
        <ele>68</ele>
        <time>2012-04-15T10:44:02.000Z</time>
      </trkpt>
      <trkpt lat="48.21469" lon="3.28652">
        <ele>68</ele>
        <time>2012-04-15T10:44:03.000Z</time>
      </trkpt>
      <trkpt lat="48.21464" lon="3.2865">
        <ele>68</ele>
        <time>2012-04-15T10:44:04.000Z</time>
      </trkpt>
      <trkpt lat="48.21458" lon="3.2865">
        <ele>68</ele>
        <time>2012-04-15T10:44:05.000Z</time>
      </trkpt>
      <trkpt lat="48.21453" lon="3.28648">
        <ele>68</ele>
        <time>2012-04-15T10:44:06.000Z</time>
      </trkpt>
      <trkpt lat="48.21447" lon="3.28648">
        <ele>68</ele>
        <time>2012-04-15T10:44:07.000Z</time>
      </trkpt>
      <trkpt lat="48.21441" lon="3.28648">
        <ele>68</ele>
        <time>2012-04-15T10:44:08.000Z</time>
      </trkpt>
      <trkpt lat="48.21436" lon="3.28646">
        <ele>68</ele>
        <time>2012-04-15T10:44:09.000Z</time>
      </trkpt>
      <trkpt lat="48.2143" lon="3.28646">
        <ele>68</ele>
        <time>2012-04-15T10:44:10.000Z</time>
      </trkpt>
      <trkpt lat="48.21421" lon="3.28644">
        <ele>68</ele>
        <time>2012-04-15T10:44:12.000Z</time>
      </trkpt>
      <trkpt lat="48.21416" lon="3.28644">
        <ele>68</ele>
        <time>2012-04-15T10:44:13.000Z</time>
      </trkpt>
      <trkpt lat="48.2141" lon="3.28644">
        <ele>68</ele>
        <time>2012-04-15T10:44:14.000Z</time>
      </trkpt>
      <trkpt lat="48.21405" lon="3.28641">
        <ele>68</ele>
        <time>2012-04-15T10:44:15.000Z</time>
      </trkpt>
      <trkpt lat="48.21399" lon="3.28641">
        <ele>68</ele>
        <time>2012-04-15T10:44:16.000Z</time>
      </trkpt>
      <trkpt lat="48.21394" lon="3.28639">
        <ele>68</ele>
        <time>2012-04-15T10:44:17.000Z</time>
      </trkpt>
      <trkpt lat="48.21383" lon="3.28639">
        <ele>68</ele>
        <time>2012-04-15T10:44:19.000Z</time>
      </trkpt>
      <trkpt lat="48.21378" lon="3.28637">
        <ele>68</ele>
        <time>2012-04-15T10:44:20.000Z</time>
      </trkpt>
      <trkpt lat="48.21373" lon="3.28637">
        <ele>68</ele>
        <time>2012-04-15T10:44:21.000Z</time>
      </trkpt>
      <trkpt lat="48.21366" lon="3.28635">
        <ele>68</ele>
        <time>2012-04-15T10:44:22.000Z</time>
      </trkpt>
      <trkpt lat="48.21361" lon="3.28635">
        <ele>68</ele>
        <time>2012-04-15T10:44:23.000Z</time>
      </trkpt>
      <trkpt lat="48.21354" lon="3.28635">
        <ele>68</ele>
        <time>2012-04-15T10:44:24.000Z</time>
      </trkpt>
      <trkpt lat="48.21349" lon="3.28633">
        <ele>68</ele>
        <time>2012-04-15T10:44:25.000Z</time>
      </trkpt>
      <trkpt lat="48.21344" lon="3.28633">
        <ele>68</ele>
        <time>2012-04-15T10:44:26.000Z</time>
      </trkpt>
      <trkpt lat="48.21337" lon="3.28631">
        <ele>68</ele>
        <time>2012-04-15T10:44:27.000Z</time>
      </trkpt>
      <trkpt lat="48.21332" lon="3.28631">
        <ele>68</ele>
        <time>2012-04-15T10:44:28.000Z</time>
      </trkpt>
      <trkpt lat="48.21326" lon="3.28631">
        <ele>68</ele>
        <time>2012-04-15T10:44:29.000Z</time>
      </trkpt>
      <trkpt lat="48.2132" lon="3.28628">
        <ele>68</ele>
        <time>2012-04-15T10:44:30.000Z</time>
      </trkpt>
      <trkpt lat="48.21315" lon="3.28628">
        <ele>68</ele>
        <time>2012-04-15T10:44:31.000Z</time>
      </trkpt>
      <trkpt lat="48.21308" lon="3.28626">
        <ele>68</ele>
        <time>2012-04-15T10:44:32.000Z</time>
      </trkpt>
      <trkpt lat="48.21303" lon="3.28626">
        <ele>68</ele>
        <time>2012-04-15T10:44:33.000Z</time>
      </trkpt>
      <trkpt lat="48.21298" lon="3.28624">
        <ele>68</ele>
        <time>2012-04-15T10:44:34.000Z</time>
      </trkpt>
      <trkpt lat="48.21291" lon="3.28624">
        <ele>67</ele>
        <time>2012-04-15T10:44:35.000Z</time>
      </trkpt>
      <trkpt lat="48.21286" lon="3.28622">
        <ele>67</ele>
        <time>2012-04-15T10:44:36.000Z</time>
      </trkpt>
      <trkpt lat="48.21279" lon="3.28622">
        <ele>67</ele>
        <time>2012-04-15T10:44:37.000Z</time>
      </trkpt>
      <trkpt lat="48.21274" lon="3.2862">
        <ele>67</ele>
        <time>2012-04-15T10:44:38.000Z</time>
      </trkpt>
      <trkpt lat="48.21267" lon="3.2862">
        <ele>67</ele>
        <time>2012-04-15T10:44:39.000Z</time>
      </trkpt>
      <trkpt lat="48.21261" lon="3.28618">
        <ele>67</ele>
        <time>2012-04-15T10:44:40.000Z</time>
      </trkpt>
      <trkpt lat="48.21255" lon="3.28618">
        <ele>67</ele>
        <time>2012-04-15T10:44:41.000Z</time>
      </trkpt>
      <trkpt lat="48.21249" lon="3.28616">
        <ele>67</ele>
        <time>2012-04-15T10:44:42.000Z</time>
      </trkpt>
      <trkpt lat="48.21243" lon="3.28616">
        <ele>67</ele>
        <time>2012-04-15T10:44:43.000Z</time>
      </trkpt>
      <trkpt lat="48.21237" lon="3.28614">
        <ele>67</ele>
        <time>2012-04-15T10:44:44.000Z</time>
      </trkpt>
      <trkpt lat="48.21232" lon="3.28614">
        <ele>67</ele>
        <time>2012-04-15T10:44:45.000Z</time>
      </trkpt>
      <trkpt lat="48.21222" lon="3.28611">
        <ele>67</ele>
        <time>2012-04-15T10:44:47.000Z</time>
      </trkpt>
      <trkpt lat="48.21216" lon="3.28609">
        <ele>67</ele>
        <time>2012-04-15T10:44:48.000Z</time>
      </trkpt>
      <trkpt lat="48.21211" lon="3.28609">
        <ele>67</ele>
        <time>2012-04-15T10:44:49.000Z</time>
      </trkpt>
      <trkpt lat="48.21205" lon="3.28607">
        <ele>67</ele>
        <time>2012-04-15T10:44:50.000Z</time>
      </trkpt>
      <trkpt lat="48.212" lon="3.28607">
        <ele>67</ele>
        <time>2012-04-15T10:44:51.000Z</time>
      </trkpt>
      <trkpt lat="48.21194" lon="3.28607">
        <ele>67</ele>
        <time>2012-04-15T10:44:52.000Z</time>
      </trkpt>
      <trkpt lat="48.21189" lon="3.28605">
        <ele>67</ele>
        <time>2012-04-15T10:44:53.000Z</time>
      </trkpt>
      <trkpt lat="48.21183" lon="3.28605">
        <ele>67</ele>
        <time>2012-04-15T10:44:54.000Z</time>
      </trkpt>
      <trkpt lat="48.21177" lon="3.28605">
        <ele>67</ele>
        <time>2012-04-15T10:44:55.000Z</time>
      </trkpt>
      <trkpt lat="48.21171" lon="3.28603">
        <ele>67</ele>
        <time>2012-04-15T10:44:56.000Z</time>
      </trkpt>
      <trkpt lat="48.21164" lon="3.28601">
        <ele>68</ele>
        <time>2012-04-15T10:44:57.000Z</time>
      </trkpt>
      <trkpt lat="48.21158" lon="3.28601">
        <ele>68</ele>
        <time>2012-04-15T10:44:58.000Z</time>
      </trkpt>
      <trkpt lat="48.21152" lon="3.28598">
        <ele>68</ele>
        <time>2012-04-15T10:44:59.000Z</time>
      </trkpt>
      <trkpt lat="48.21145" lon="3.28598">
        <ele>69</ele>
        <time>2012-04-15T10:45:00.000Z</time>
      </trkpt>
      <trkpt lat="48.2114" lon="3.28596">
        <ele>69</ele>
        <time>2012-04-15T10:45:01.000Z</time>
      </trkpt>
      <trkpt lat="48.21133" lon="3.28594">
        <ele>69</ele>
        <time>2012-04-15T10:45:02.000Z</time>
      </trkpt>
      <trkpt lat="48.21127" lon="3.28594">
        <ele>69</ele>
        <time>2012-04-15T10:45:03.000Z</time>
      </trkpt>
      <trkpt lat="48.2112" lon="3.28594">
        <ele>69</ele>
        <time>2012-04-15T10:45:04.000Z</time>
      </trkpt>
      <trkpt lat="48.21114" lon="3.28592">
        <ele>69</ele>
        <time>2012-04-15T10:45:05.000Z</time>
      </trkpt>
      <trkpt lat="48.21109" lon="3.28592">
        <ele>69</ele>
        <time>2012-04-15T10:45:06.000Z</time>
      </trkpt>
      <trkpt lat="48.21102" lon="3.2859">
        <ele>69</ele>
        <time>2012-04-15T10:45:07.000Z</time>
      </trkpt>
      <trkpt lat="48.21097" lon="3.2859">
        <ele>69</ele>
        <time>2012-04-15T10:45:08.000Z</time>
      </trkpt>
      <trkpt lat="48.2109" lon="3.2859">
        <ele>69</ele>
        <time>2012-04-15T10:45:09.000Z</time>
      </trkpt>
      <trkpt lat="48.21085" lon="3.28588">
        <ele>69</ele>
        <time>2012-04-15T10:45:10.000Z</time>
      </trkpt>
      <trkpt lat="48.2108" lon="3.28588">
        <ele>69</ele>
        <time>2012-04-15T10:45:11.000Z</time>
      </trkpt>
      <trkpt lat="48.21074" lon="3.28586">
        <ele>69</ele>
        <time>2012-04-15T10:45:12.000Z</time>
      </trkpt>
      <trkpt lat="48.21069" lon="3.28586">
        <ele>69</ele>
        <time>2012-04-15T10:45:13.000Z</time>
      </trkpt>
      <trkpt lat="48.21062" lon="3.28583">
        <ele>68</ele>
        <time>2012-04-15T10:45:14.000Z</time>
      </trkpt>
      <trkpt lat="48.21057" lon="3.28583">
        <ele>68</ele>
        <time>2012-04-15T10:45:15.000Z</time>
      </trkpt>
      <trkpt lat="48.21052" lon="3.28581">
        <ele>68</ele>
        <time>2012-04-15T10:45:16.000Z</time>
      </trkpt>
      <trkpt lat="48.21045" lon="3.28581">
        <ele>68</ele>
        <time>2012-04-15T10:45:17.000Z</time>
      </trkpt>
      <trkpt lat="48.2104" lon="3.28579">
        <ele>68</ele>
        <time>2012-04-15T10:45:18.000Z</time>
      </trkpt>
      <trkpt lat="48.21034" lon="3.28579">
        <ele>68</ele>
        <time>2012-04-15T10:45:19.000Z</time>
      </trkpt>
      <trkpt lat="48.21027" lon="3.28579">
        <ele>68</ele>
        <time>2012-04-15T10:45:20.000Z</time>
      </trkpt>
      <trkpt lat="48.21021" lon="3.28577">
        <ele>68</ele>
        <time>2012-04-15T10:45:21.000Z</time>
      </trkpt>
      <trkpt lat="48.21014" lon="3.28577">
        <ele>68</ele>
        <time>2012-04-15T10:45:22.000Z</time>
      </trkpt>
      <trkpt lat="48.21007" lon="3.28575">
        <ele>68</ele>
        <time>2012-04-15T10:45:23.000Z</time>
      </trkpt>
      <trkpt lat="48.21" lon="3.28575">
        <ele>68</ele>
        <time>2012-04-15T10:45:24.000Z</time>
      </trkpt>
      <trkpt lat="48.20994" lon="3.28573">
        <ele>68</ele>
        <time>2012-04-15T10:45:25.000Z</time>
      </trkpt>
      <trkpt lat="48.20987" lon="3.28573">
        <ele>68</ele>
        <time>2012-04-15T10:45:26.000Z</time>
      </trkpt>
      <trkpt lat="48.20981" lon="3.28571">
        <ele>67</ele>
        <time>2012-04-15T10:45:27.000Z</time>
      </trkpt>
      <trkpt lat="48.20976" lon="3.28571">
        <ele>67</ele>
        <time>2012-04-15T10:45:28.000Z</time>
      </trkpt>
      <trkpt lat="48.20969" lon="3.28568">
        <ele>67</ele>
        <time>2012-04-15T10:45:29.000Z</time>
      </trkpt>
      <trkpt lat="48.20964" lon="3.28568">
        <ele>67</ele>
        <time>2012-04-15T10:45:30.000Z</time>
      </trkpt>
      <trkpt lat="48.20958" lon="3.28568">
        <ele>67</ele>
        <time>2012-04-15T10:45:31.000Z</time>
      </trkpt>
      <trkpt lat="48.20952" lon="3.28568">
        <ele>67</ele>
        <time>2012-04-15T10:45:32.000Z</time>
      </trkpt>
      <trkpt lat="48.20947" lon="3.28568">
        <ele>67</ele>
        <time>2012-04-15T10:45:33.000Z</time>
      </trkpt>
      <trkpt lat="48.20941" lon="3.28566">
        <ele>67</ele>
        <time>2012-04-15T10:45:34.000Z</time>
      </trkpt>
      <trkpt lat="48.20936" lon="3.28566">
        <ele>67</ele>
        <time>2012-04-15T10:45:35.000Z</time>
      </trkpt>
      <trkpt lat="48.2093" lon="3.28566">
        <ele>67</ele>
        <time>2012-04-15T10:45:36.000Z</time>
      </trkpt>
      <trkpt lat="48.20924" lon="3.28564">
        <ele>67</ele>
        <time>2012-04-15T10:45:37.000Z</time>
      </trkpt>
      <trkpt lat="48.20919" lon="3.28564">
        <ele>67</ele>
        <time>2012-04-15T10:45:38.000Z</time>
      </trkpt>
      <trkpt lat="48.20913" lon="3.28564">
        <ele>67</ele>
        <time>2012-04-15T10:45:39.000Z</time>
      </trkpt>
      <trkpt lat="48.20908" lon="3.28564">
        <ele>67</ele>
        <time>2012-04-15T10:45:40.000Z</time>
      </trkpt>
      <trkpt lat="48.20899" lon="3.28562">
        <ele>67</ele>
        <time>2012-04-15T10:45:42.000Z</time>
      </trkpt>
      <trkpt lat="48.20891" lon="3.2856">
        <ele>67</ele>
        <time>2012-04-15T10:45:44.000Z</time>
      </trkpt>
      <trkpt lat="48.20882" lon="3.28558">
        <ele>67</ele>
        <time>2012-04-15T10:45:46.000Z</time>
      </trkpt>
      <trkpt lat="48.20874" lon="3.28558">
        <ele>67</ele>
        <time>2012-04-15T10:45:48.000Z</time>
      </trkpt>
      <trkpt lat="48.20865" lon="3.28556">
        <ele>67</ele>
        <time>2012-04-15T10:45:50.000Z</time>
      </trkpt>
      <trkpt lat="48.2086" lon="3.28553">
        <ele>67</ele>
        <time>2012-04-15T10:45:51.000Z</time>
      </trkpt>
      <trkpt lat="48.20851" lon="3.28549">
        <ele>67</ele>
        <time>2012-04-15T10:45:53.000Z</time>
      </trkpt>
      <trkpt lat="48.20847" lon="3.28547">
        <ele>67</ele>
        <time>2012-04-15T10:45:54.000Z</time>
      </trkpt>
      <trkpt lat="48.20842" lon="3.28547">
        <ele>67</ele>
        <time>2012-04-15T10:45:55.000Z</time>
      </trkpt>
      <trkpt lat="48.20832" lon="3.28547">
        <ele>68</ele>
        <time>2012-04-15T10:45:57.000Z</time>
      </trkpt>
      <trkpt lat="48.20822" lon="3.28545">
        <ele>68</ele>
        <time>2012-04-15T10:45:59.000Z</time>
      </trkpt>
      <trkpt lat="48.20812" lon="3.28543">
        <ele>68</ele>
        <time>2012-04-15T10:46:01.000Z</time>
      </trkpt>
      <trkpt lat="48.20803" lon="3.2854">
        <ele>69</ele>
        <time>2012-04-15T10:46:03.000Z</time>
      </trkpt>
      <trkpt lat="48.20798" lon="3.2854">
        <ele>69</ele>
        <time>2012-04-15T10:46:04.000Z</time>
      </trkpt>
      <trkpt lat="48.20788" lon="3.2854">
        <ele>69</ele>
        <time>2012-04-15T10:46:06.000Z</time>
      </trkpt>
      <trkpt lat="48.20784" lon="3.28538">
        <ele>69</ele>
        <time>2012-04-15T10:46:07.000Z</time>
      </trkpt>
      <trkpt lat="48.20778" lon="3.28538">
        <ele>69</ele>
        <time>2012-04-15T10:46:08.000Z</time>
      </trkpt>
      <trkpt lat="48.20768" lon="3.28538">
        <ele>69</ele>
        <time>2012-04-15T10:46:10.000Z</time>
      </trkpt>
      <trkpt lat="48.20759" lon="3.28536">
        <ele>69</ele>
        <time>2012-04-15T10:46:12.000Z</time>
      </trkpt>
      <trkpt lat="48.20749" lon="3.28534">
        <ele>69</ele>
        <time>2012-04-15T10:46:14.000Z</time>
      </trkpt>
      <trkpt lat="48.2074" lon="3.28534">
        <ele>69</ele>
        <time>2012-04-15T10:46:16.000Z</time>
      </trkpt>
      <trkpt lat="48.20734" lon="3.28532">
        <ele>69</ele>
        <time>2012-04-15T10:46:17.000Z</time>
      </trkpt>
      <trkpt lat="48.20726" lon="3.28532">
        <ele>69</ele>
        <time>2012-04-15T10:46:19.000Z</time>
      </trkpt>
      <trkpt lat="48.2072" lon="3.2853">
        <ele>69</ele>
        <time>2012-04-15T10:46:20.000Z</time>
      </trkpt>
      <trkpt lat="48.20712" lon="3.2853">
        <ele>69</ele>
        <time>2012-04-15T10:46:22.000Z</time>
      </trkpt>
      <trkpt lat="48.20703" lon="3.28528">
        <ele>69</ele>
        <time>2012-04-15T10:46:24.000Z</time>
      </trkpt>
      <trkpt lat="48.20698" lon="3.28528">
        <ele>69</ele>
        <time>2012-04-15T10:46:25.000Z</time>
      </trkpt>
      <trkpt lat="48.20688" lon="3.28526">
        <ele>69</ele>
        <time>2012-04-15T10:46:27.000Z</time>
      </trkpt>
      <trkpt lat="48.20678" lon="3.28523">
        <ele>68</ele>
        <time>2012-04-15T10:46:29.000Z</time>
      </trkpt>
      <trkpt lat="48.20669" lon="3.28523">
        <ele>68</ele>
        <time>2012-04-15T10:46:31.000Z</time>
      </trkpt>
      <trkpt lat="48.20663" lon="3.28523">
        <ele>68</ele>
        <time>2012-04-15T10:46:32.000Z</time>
      </trkpt>
      <trkpt lat="48.20658" lon="3.28523">
        <ele>68</ele>
        <time>2012-04-15T10:46:33.000Z</time>
      </trkpt>
      <trkpt lat="48.20648" lon="3.28521">
        <ele>68</ele>
        <time>2012-04-15T10:46:35.000Z</time>
      </trkpt>
      <trkpt lat="48.2064" lon="3.28519">
        <ele>68</ele>
        <time>2012-04-15T10:46:37.000Z</time>
      </trkpt>
      <trkpt lat="48.20634" lon="3.28519">
        <ele>68</ele>
        <time>2012-04-15T10:46:38.000Z</time>
      </trkpt>
      <trkpt lat="48.20626" lon="3.28517">
        <ele>68</ele>
        <time>2012-04-15T10:46:40.000Z</time>
      </trkpt>
      <trkpt lat="48.20617" lon="3.28515">
        <ele>68</ele>
        <time>2012-04-15T10:46:42.000Z</time>
      </trkpt>
      <trkpt lat="48.20609" lon="3.28513">
        <ele>68</ele>
        <time>2012-04-15T10:46:44.000Z</time>
      </trkpt>
      <trkpt lat="48.20602" lon="3.28513">
        <ele>68</ele>
        <time>2012-04-15T10:46:46.000Z</time>
      </trkpt>
      <trkpt lat="48.20596" lon="3.28513">
        <ele>68</ele>
        <time>2012-04-15T10:46:48.000Z</time>
      </trkpt>
      <trkpt lat="48.20587" lon="3.28513">
        <ele>68</ele>
        <time>2012-04-15T10:46:50.000Z</time>
      </trkpt>
      <trkpt lat="48.2058" lon="3.28513">
        <ele>68</ele>
        <time>2012-04-15T10:46:52.000Z</time>
      </trkpt>
      <trkpt lat="48.20572" lon="3.2851">
        <ele>68</ele>
        <time>2012-04-15T10:46:54.000Z</time>
      </trkpt>
      <trkpt lat="48.20564" lon="3.28508">
        <ele>68</ele>
        <time>2012-04-15T10:46:56.000Z</time>
      </trkpt>
      <trkpt lat="48.20556" lon="3.28508">
        <ele>68</ele>
        <time>2012-04-15T10:46:58.000Z</time>
      </trkpt>
      <trkpt lat="48.2055" lon="3.28506">
        <ele>68</ele>
        <time>2012-04-15T10:47:00.000Z</time>
      </trkpt>
      <trkpt lat="48.20543" lon="3.28504">
        <ele>68</ele>
        <time>2012-04-15T10:47:02.000Z</time>
      </trkpt>
      <trkpt lat="48.20536" lon="3.28504">
        <ele>68</ele>
        <time>2012-04-15T10:47:04.000Z</time>
      </trkpt>
      <trkpt lat="48.20529" lon="3.28502">
        <ele>68</ele>
        <time>2012-04-15T10:47:06.000Z</time>
      </trkpt>
      <trkpt lat="48.20523" lon="3.285">
        <ele>68</ele>
        <time>2012-04-15T10:47:08.000Z</time>
      </trkpt>
      <trkpt lat="48.20518" lon="3.28498">
        <ele>68</ele>
        <time>2012-04-15T10:47:10.000Z</time>
      </trkpt>
      <trkpt lat="48.20512" lon="3.28496">
        <ele>68</ele>
        <time>2012-04-15T10:47:15.000Z</time>
      </trkpt>
      <trkpt lat="48.20507" lon="3.28496">
        <ele>68</ele>
        <time>2012-04-15T10:47:17.000Z</time>
      </trkpt>
      <trkpt lat="48.205" lon="3.28493">
        <ele>68</ele>
        <time>2012-04-15T10:47:19.000Z</time>
      </trkpt>
      <trkpt lat="48.20492" lon="3.28491">
        <ele>68</ele>
        <time>2012-04-15T10:47:21.000Z</time>
      </trkpt>
      <trkpt lat="48.20483" lon="3.28491">
        <ele>68</ele>
        <time>2012-04-15T10:47:23.000Z</time>
      </trkpt>
      <trkpt lat="48.20475" lon="3.28489">
        <ele>68</ele>
        <time>2012-04-15T10:47:25.000Z</time>
      </trkpt>
      <trkpt lat="48.20469" lon="3.28489">
        <ele>68</ele>
        <time>2012-04-15T10:47:26.000Z</time>
      </trkpt>
      <trkpt lat="48.20461" lon="3.28487">
        <ele>68</ele>
        <time>2012-04-15T10:47:28.000Z</time>
      </trkpt>
      <trkpt lat="48.20452" lon="3.28485">
        <ele>68</ele>
        <time>2012-04-15T10:47:30.000Z</time>
      </trkpt>
      <trkpt lat="48.20444" lon="3.28483">
        <ele>68</ele>
        <time>2012-04-15T10:47:32.000Z</time>
      </trkpt>
      <trkpt lat="48.20438" lon="3.28483">
        <ele>68</ele>
        <time>2012-04-15T10:47:33.000Z</time>
      </trkpt>
      <trkpt lat="48.20428" lon="3.2848">
        <ele>69</ele>
        <time>2012-04-15T10:47:35.000Z</time>
      </trkpt>
      <trkpt lat="48.20423" lon="3.2848">
        <ele>69</ele>
        <time>2012-04-15T10:47:36.000Z</time>
      </trkpt>
      <trkpt lat="48.20418" lon="3.28478">
        <ele>69</ele>
        <time>2012-04-15T10:47:37.000Z</time>
      </trkpt>
      <trkpt lat="48.20412" lon="3.28478">
        <ele>69</ele>
        <time>2012-04-15T10:47:38.000Z</time>
      </trkpt>
      <trkpt lat="48.20406" lon="3.28478">
        <ele>69</ele>
        <time>2012-04-15T10:47:39.000Z</time>
      </trkpt>
      <trkpt lat="48.204" lon="3.28476">
        <ele>69</ele>
        <time>2012-04-15T10:47:40.000Z</time>
      </trkpt>
      <trkpt lat="48.20395" lon="3.28476">
        <ele>70</ele>
        <time>2012-04-15T10:47:41.000Z</time>
      </trkpt>
      <trkpt lat="48.2039" lon="3.28474">
        <ele>70</ele>
        <time>2012-04-15T10:47:42.000Z</time>
      </trkpt>
      <trkpt lat="48.20384" lon="3.28472">
        <ele>70</ele>
        <time>2012-04-15T10:47:43.000Z</time>
      </trkpt>
      <trkpt lat="48.20378" lon="3.28472">
        <ele>70</ele>
        <time>2012-04-15T10:47:44.000Z</time>
      </trkpt>
      <trkpt lat="48.20373" lon="3.2847">
        <ele>70</ele>
        <time>2012-04-15T10:47:45.000Z</time>
      </trkpt>
      <trkpt lat="48.20367" lon="3.2847">
        <ele>70</ele>
        <time>2012-04-15T10:47:46.000Z</time>
      </trkpt>
      <trkpt lat="48.20362" lon="3.28468">
        <ele>70</ele>
        <time>2012-04-15T10:47:47.000Z</time>
      </trkpt>
      <trkpt lat="48.20357" lon="3.28465">
        <ele>70</ele>
        <time>2012-04-15T10:47:48.000Z</time>
      </trkpt>
      <trkpt lat="48.20351" lon="3.28465">
        <ele>70</ele>
        <time>2012-04-15T10:47:49.000Z</time>
      </trkpt>
      <trkpt lat="48.20346" lon="3.28463">
        <ele>70</ele>
        <time>2012-04-15T10:47:50.000Z</time>
      </trkpt>
      <trkpt lat="48.2034" lon="3.28461">
        <ele>70</ele>
        <time>2012-04-15T10:47:51.000Z</time>
      </trkpt>
      <trkpt lat="48.20335" lon="3.28461">
        <ele>70</ele>
        <time>2012-04-15T10:47:52.000Z</time>
      </trkpt>
      <trkpt lat="48.2033" lon="3.28459">
        <ele>71</ele>
        <time>2012-04-15T10:47:53.000Z</time>
      </trkpt>
      <trkpt lat="48.20324" lon="3.28457">
        <ele>71</ele>
        <time>2012-04-15T10:47:54.000Z</time>
      </trkpt>
      <trkpt lat="48.20319" lon="3.28457">
        <ele>71</ele>
        <time>2012-04-15T10:47:55.000Z</time>
      </trkpt>
      <trkpt lat="48.20314" lon="3.28455">
        <ele>71</ele>
        <time>2012-04-15T10:47:56.000Z</time>
      </trkpt>
      <trkpt lat="48.20308" lon="3.28452">
        <ele>71</ele>
        <time>2012-04-15T10:47:57.000Z</time>
      </trkpt>
      <trkpt lat="48.20303" lon="3.28452">
        <ele>71</ele>
        <time>2012-04-15T10:47:58.000Z</time>
      </trkpt>
      <trkpt lat="48.20298" lon="3.2845">
        <ele>71</ele>
        <time>2012-04-15T10:47:59.000Z</time>
      </trkpt>
      <trkpt lat="48.20292" lon="3.2845">
        <ele>71</ele>
        <time>2012-04-15T10:48:00.000Z</time>
      </trkpt>
      <trkpt lat="48.20287" lon="3.2845">
        <ele>71</ele>
        <time>2012-04-15T10:48:01.000Z</time>
      </trkpt>
      <trkpt lat="48.20282" lon="3.28448">
        <ele>71</ele>
        <time>2012-04-15T10:48:02.000Z</time>
      </trkpt>
      <trkpt lat="48.20275" lon="3.28448">
        <ele>71</ele>
        <time>2012-04-15T10:48:03.000Z</time>
      </trkpt>
      <trkpt lat="48.2027" lon="3.28448">
        <ele>71</ele>
        <time>2012-04-15T10:48:04.000Z</time>
      </trkpt>
      <trkpt lat="48.20264" lon="3.28448">
        <ele>71</ele>
        <time>2012-04-15T10:48:05.000Z</time>
      </trkpt>
      <trkpt lat="48.20259" lon="3.28446">
        <ele>71</ele>
        <time>2012-04-15T10:48:06.000Z</time>
      </trkpt>
      <trkpt lat="48.20254" lon="3.28446">
        <ele>71</ele>
        <time>2012-04-15T10:48:07.000Z</time>
      </trkpt>
      <trkpt lat="48.20248" lon="3.28446">
        <ele>72</ele>
        <time>2012-04-15T10:48:08.000Z</time>
      </trkpt>
      <trkpt lat="48.20242" lon="3.28446">
        <ele>72</ele>
        <time>2012-04-15T10:48:09.000Z</time>
      </trkpt>
      <trkpt lat="48.20236" lon="3.28446">
        <ele>72</ele>
        <time>2012-04-15T10:48:10.000Z</time>
      </trkpt>
      <trkpt lat="48.2023" lon="3.28444">
        <ele>72</ele>
        <time>2012-04-15T10:48:11.000Z</time>
      </trkpt>
      <trkpt lat="48.20224" lon="3.28444">
        <ele>72</ele>
        <time>2012-04-15T10:48:12.000Z</time>
      </trkpt>
      <trkpt lat="48.20217" lon="3.28444">
        <ele>72</ele>
        <time>2012-04-15T10:48:13.000Z</time>
      </trkpt>
      <trkpt lat="48.20211" lon="3.28442">
        <ele>72</ele>
        <time>2012-04-15T10:48:14.000Z</time>
      </trkpt>
      <trkpt lat="48.20204" lon="3.28442">
        <ele>72</ele>
        <time>2012-04-15T10:48:15.000Z</time>
      </trkpt>
      <trkpt lat="48.20197" lon="3.2844">
        <ele>72</ele>
        <time>2012-04-15T10:48:16.000Z</time>
      </trkpt>
      <trkpt lat="48.20189" lon="3.2844">
        <ele>72</ele>
        <time>2012-04-15T10:48:17.000Z</time>
      </trkpt>
      <trkpt lat="48.20182" lon="3.2844">
        <ele>72</ele>
        <time>2012-04-15T10:48:18.000Z</time>
      </trkpt>
      <trkpt lat="48.20173" lon="3.28438">
        <ele>72</ele>
        <time>2012-04-15T10:48:19.000Z</time>
      </trkpt>
      <trkpt lat="48.20166" lon="3.28438">
        <ele>72</ele>
        <time>2012-04-15T10:48:20.000Z</time>
      </trkpt>
      <trkpt lat="48.20158" lon="3.28435">
        <ele>72</ele>
        <time>2012-04-15T10:48:21.000Z</time>
      </trkpt>
      <trkpt lat="48.20151" lon="3.28433">
        <ele>72</ele>
        <time>2012-04-15T10:48:22.000Z</time>
      </trkpt>
      <trkpt lat="48.20142" lon="3.28433">
        <ele>73</ele>
        <time>2012-04-15T10:48:23.000Z</time>
      </trkpt>
      <trkpt lat="48.20134" lon="3.28431">
        <ele>73</ele>
        <time>2012-04-15T10:48:24.000Z</time>
      </trkpt>
      <trkpt lat="48.20129" lon="3.28422">
        <ele>73</ele>
        <time>2012-04-15T10:48:25.000Z</time>
      </trkpt>
      <trkpt lat="48.20125" lon="3.28414">
        <ele>73</ele>
        <time>2012-04-15T10:48:26.000Z</time>
      </trkpt>
      <trkpt lat="48.20125" lon="3.28403">
        <ele>73</ele>
        <time>2012-04-15T10:48:27.000Z</time>
      </trkpt>
      <trkpt lat="48.20124" lon="3.28392">
        <ele>73</ele>
        <time>2012-04-15T10:48:28.000Z</time>
      </trkpt>
      <trkpt lat="48.20123" lon="3.2838">
        <ele>73</ele>
        <time>2012-04-15T10:48:29.000Z</time>
      </trkpt>
      <trkpt lat="48.20122" lon="3.28369">
        <ele>73</ele>
        <time>2012-04-15T10:48:30.000Z</time>
      </trkpt>
      <trkpt lat="48.2012" lon="3.28358">
        <ele>72</ele>
        <time>2012-04-15T10:48:31.000Z</time>
      </trkpt>
      <trkpt lat="48.2012" lon="3.28345">
        <ele>72</ele>
        <time>2012-04-15T10:48:32.000Z</time>
      </trkpt>
      <trkpt lat="48.20118" lon="3.28334">
        <ele>72</ele>
        <time>2012-04-15T10:48:33.000Z</time>
      </trkpt>
      <trkpt lat="48.20117" lon="3.28324">
        <ele>72</ele>
        <time>2012-04-15T10:48:34.000Z</time>
      </trkpt>
      <trkpt lat="48.20116" lon="3.28313">
        <ele>72</ele>
        <time>2012-04-15T10:48:35.000Z</time>
      </trkpt>
      <trkpt lat="48.20115" lon="3.283">
        <ele>72</ele>
        <time>2012-04-15T10:48:36.000Z</time>
      </trkpt>
      <trkpt lat="48.20113" lon="3.2829">
        <ele>72</ele>
        <time>2012-04-15T10:48:37.000Z</time>
      </trkpt>
      <trkpt lat="48.20112" lon="3.28277">
        <ele>72</ele>
        <time>2012-04-15T10:48:38.000Z</time>
      </trkpt>
      <trkpt lat="48.20111" lon="3.28266">
        <ele>72</ele>
        <time>2012-04-15T10:48:39.000Z</time>
      </trkpt>
      <trkpt lat="48.20111" lon="3.28255">
        <ele>72</ele>
        <time>2012-04-15T10:48:40.000Z</time>
      </trkpt>
      <trkpt lat="48.20111" lon="3.28246">
        <ele>71</ele>
        <time>2012-04-15T10:48:41.000Z</time>
      </trkpt>
      <trkpt lat="48.20113" lon="3.28238">
        <ele>71</ele>
        <time>2012-04-15T10:48:42.000Z</time>
      </trkpt>
      <trkpt lat="48.20115" lon="3.28229">
        <ele>71</ele>
        <time>2012-04-15T10:48:43.000Z</time>
      </trkpt>
      <trkpt lat="48.20117" lon="3.28221">
        <ele>71</ele>
        <time>2012-04-15T10:48:44.000Z</time>
      </trkpt>
      <trkpt lat="48.20122" lon="3.28214">
        <ele>71</ele>
        <time>2012-04-15T10:48:45.000Z</time>
      </trkpt>
      <trkpt lat="48.20125" lon="3.28208">
        <ele>71</ele>
        <time>2012-04-15T10:48:46.000Z</time>
      </trkpt>
      <trkpt lat="48.20128" lon="3.28202">
        <ele>71</ele>
        <time>2012-04-15T10:48:47.000Z</time>
      </trkpt>
      <trkpt lat="48.20132" lon="3.28195">
        <ele>71</ele>
        <time>2012-04-15T10:48:48.000Z</time>
      </trkpt>
      <trkpt lat="48.20137" lon="3.28189">
        <ele>71</ele>
        <time>2012-04-15T10:48:49.000Z</time>
      </trkpt>
      <trkpt lat="48.20142" lon="3.28184">
        <ele>71</ele>
        <time>2012-04-15T10:48:50.000Z</time>
      </trkpt>
      <trkpt lat="48.20148" lon="3.28178">
        <ele>71</ele>
        <time>2012-04-15T10:48:51.000Z</time>
      </trkpt>
      <trkpt lat="48.20154" lon="3.28171">
        <ele>71</ele>
        <time>2012-04-15T10:48:52.000Z</time>
      </trkpt>
      <trkpt lat="48.2016" lon="3.28165">
        <ele>71</ele>
        <time>2012-04-15T10:48:53.000Z</time>
      </trkpt>
      <trkpt lat="48.20166" lon="3.28159">
        <ele>71</ele>
        <time>2012-04-15T10:48:54.000Z</time>
      </trkpt>
      <trkpt lat="48.20172" lon="3.2815">
        <ele>70</ele>
        <time>2012-04-15T10:48:55.000Z</time>
      </trkpt>
      <trkpt lat="48.20178" lon="3.28144">
        <ele>70</ele>
        <time>2012-04-15T10:48:56.000Z</time>
      </trkpt>
      <trkpt lat="48.20185" lon="3.28135">
        <ele>69</ele>
        <time>2012-04-15T10:48:57.000Z</time>
      </trkpt>
      <trkpt lat="48.20191" lon="3.28128">
        <ele>69</ele>
        <time>2012-04-15T10:48:58.000Z</time>
      </trkpt>
      <trkpt lat="48.20198" lon="3.2812">
        <ele>69</ele>
        <time>2012-04-15T10:48:59.000Z</time>
      </trkpt>
      <trkpt lat="48.20203" lon="3.28114">
        <ele>69</ele>
        <time>2012-04-15T10:49:00.000Z</time>
      </trkpt>
      <trkpt lat="48.20208" lon="3.28107">
        <ele>69</ele>
        <time>2012-04-15T10:49:01.000Z</time>
      </trkpt>
      <trkpt lat="48.20214" lon="3.28101">
        <ele>69</ele>
        <time>2012-04-15T10:49:02.000Z</time>
      </trkpt>
      <trkpt lat="48.20219" lon="3.28096">
        <ele>68</ele>
        <time>2012-04-15T10:49:03.000Z</time>
      </trkpt>
      <trkpt lat="48.20224" lon="3.2809">
        <ele>68</ele>
        <time>2012-04-15T10:49:04.000Z</time>
      </trkpt>
      <trkpt lat="48.20229" lon="3.28086">
        <ele>68</ele>
        <time>2012-04-15T10:49:05.000Z</time>
      </trkpt>
      <trkpt lat="48.20233" lon="3.28079">
        <ele>68</ele>
        <time>2012-04-15T10:49:06.000Z</time>
      </trkpt>
      <trkpt lat="48.20238" lon="3.28075">
        <ele>68</ele>
        <time>2012-04-15T10:49:07.000Z</time>
      </trkpt>
      <trkpt lat="48.20243" lon="3.28071">
        <ele>68</ele>
        <time>2012-04-15T10:49:08.000Z</time>
      </trkpt>
      <trkpt lat="48.20247" lon="3.28066">
        <ele>68</ele>
        <time>2012-04-15T10:49:09.000Z</time>
      </trkpt>
      <trkpt lat="48.20251" lon="3.28062">
        <ele>67</ele>
        <time>2012-04-15T10:49:10.000Z</time>
      </trkpt>
      <trkpt lat="48.20256" lon="3.2806">
        <ele>67</ele>
        <time>2012-04-15T10:49:12.000Z</time>
      </trkpt>
      <trkpt lat="48.20256" lon="3.2806">
        <ele>67</ele>
        <time>2012-04-15T10:49:12.000Z</time>
      </trkpt>
      <trkpt lat="48.20256" lon="3.2806">
        <ele>67</ele>
        <time>2012-04-15T10:52:10.000Z</time>
      </trkpt>
      <trkpt lat="48.20261" lon="3.2806">
        <ele>67</ele>
        <time>2012-04-15T10:52:23.000Z</time>
      </trkpt>
      <trkpt lat="48.20261" lon="3.2806">
        <ele>67</ele>
        <time>2012-04-15T10:52:23.000Z</time>
      </trkpt>
    </trkseg>
  </trk>
</gpx>